# Wetter Temperatur Luftdruck Luftfeuchtigkeit Sichtweite Windgeschwindigkeit Windrichtung Zeit
1 Clouds 1 1019 74 10000 2.57 250 11:42 22.04.2021
2 Clouds 1 1019 74 10000 2.57 250 11:21 22.04.2021
3 Clouds 1 1018 75 10000 1.54 240 10:42 22.04.2021
4 Clouds 1 1018 75 10000 1.54 240 10:20 22.04.2021
5 Clouds 1 1019 75 10000 2.06 210 09:39 22.04.2021
6 Clouds 2 1019 69 10000 1.54 220 08:57 22.04.2021
7 Clouds 2 1019 69 10000 1.54 220 08:38 22.04.2021
8 Snow 1 1019 69 10000 1.54 220 08:18 22.04.2021
9 Clouds 1 1019 69 10000 2.57 190 07:36 22.04.2021
10 Clouds 2 1019 69 10000 2.57 190 07:18 22.04.2021
11 Clouds 2 1020 69 10000 1.46 193 06:21 22.04.2021
12 Clouds 2 1019 65 10000 2.06 110 05:24 22.04.2021
13 Clouds 3 1019 70 10000 4.12 70 02:29 22.04.2021
14 Clouds 6 1019 60 10000 5.14 70 00:25 22.04.2021
15 Clouds 7 1019 42 10000 4.63 350 23:41 21.04.2021
16 Clouds 7 1019 42 10000 4.63 350 23:21 21.04.2021
17 Clouds 7 1018 27 10000 10.29 320 22:41 21.04.2021
18 Clouds 6 1018 27 10000 10.29 320 22:23 21.04.2021
19 Clouds 7 1018 27 10000 8.23 270 21:42 21.04.2021
20 Clouds 7 1018 27 10000 8.23 270 21:23 21.04.2021
21 Clouds 7 1018 27 10000 7.72 300 20:38 21.04.2021
22 Clouds 6 1018 27 10000 7.72 300 20:18 21.04.2021
23 Clouds 7 1019 29 10000 5.66 320 19:38 21.04.2021
24 Clouds 7 1019 29 10000 5.66 320 19:20 21.04.2021
25 Clouds 7 1019 31 10000 6.69 280 18:44 21.04.2021
26 Clouds 7 1023 36 10000 2.38 329 18:22 21.04.2021
27 Clouds 6 1020 42 10000 4.63 270 17:46 21.04.2021
28 Clouds 6 1020 42 10000 4.63 270 17:23 21.04.2021
29 Clouds 5 1019 65 10000 1.94 309 16:41 21.04.2021
30 Clouds 3 1019 80 10000 2.57 220 15:56 21.04.2021
31 Clouds 3 1019 80 10000 2.57 220 15:37 21.04.2021
32 Mist 2 1019 80 8047 3.6 230 14:46 21.04.2021
33 Mist 2 1019 80 8047 3.6 230 14:28 21.04.2021
34 Snow 2 1019 80 6437 4.12 220 13:51 21.04.2021
35 Snow 1 1019 80 6437 4.12 220 13:23 21.04.2021
36 Snow 1 1019 80 8047 4.12 220 12:52 21.04.2021
37 Mist 1 1019 80 9656 2.57 230 12:28 21.04.2021
38 Clouds 1 1019 80 10000 2.57 230 11:47 21.04.2021
39 Snow 2 1019 80 10000 2.57 230 11:25 21.04.2021
40 Snow 2 1019 75 10000 1.54 260 10:42 21.04.2021
41 Snow 2 1019 69 10000 3.09 250 09:58 21.04.2021
42 Snow 2 1019 69 10000 3.09 250 09:33 21.04.2021
43 Clouds 2 1019 69 10000 2.06 260 08:53 21.04.2021
44 Clouds 2 1019 69 10000 2.06 260 08:27 21.04.2021
45 Clouds 2 1019 60 10000 2.57 260 07:58 21.04.2021
46 Clouds 2 1019 60 10000 2.57 260 07:29 21.04.2021
47 Clouds 2 1019 52 10000 1.53 271 06:23 21.04.2021
48 Clouds 3 1019 48 10000 1.12 276 04:18 21.04.2021
49 Clouds 4 1018 45 10000 5.66 60 00:49 21.04.2021
50 Clouds 4 1018 45 10000 4.12 90 23:47 20.04.2021
51 Clouds 4 1018 42 10000 1.54 0 22:50 20.04.2021
52 Clouds 5 1018 42 10000 1.54 0 22:24 20.04.2021
53 Clouds 5 1018 45 10000 5.14 40 21:59 20.04.2021
54 Clouds 4 1018 45 10000 5.14 40 21:41 20.04.2021
55 Clouds 5 1018 45 10000 5.14 40 21:22 20.04.2021
56 Clouds 4 1018 56 10000 3.09 20 20:41 20.04.2021
57 Clouds 4 1018 56 10000 3.09 20 20:21 20.04.2021
58 Clouds 4 1019 75 10000 2.57 30 19:51 20.04.2021
59 Clouds 4 1019 75 10000 2.57 30 19:33 20.04.2021
60 Mist 3 1019 80 6437 4.12 30 18:54 20.04.2021
61 Mist 2 1019 80 6437 4.12 30 18:35 20.04.2021
62 Snow 2 1019 80 2414 2.57 50 17:43 20.04.2021
63 Snow 2 1019 69 2816 1.54 330 16:57 20.04.2021
64 Snow 2 1019 69 2816 1.54 330 16:36 20.04.2021
65 Rain 3 1018 60 10000 4.12 40 15:42 20.04.2021
66 Clouds 3 1018 60 10000 4.12 40 15:23 20.04.2021
67 Clouds 3 1018 56 10000 4.12 10 14:49 20.04.2021
68 Clouds 3 1018 56 10000 4.12 10 14:24 20.04.2021
69 Clouds 3 1017 52 10000 4.12 10 13:29 20.04.2021
70 Clouds 3 1017 48 10000 4.63 10 12:55 20.04.2021
71 Clouds 4 1017 48 10000 4.63 10 12:28 20.04.2021
72 Clouds 4 1017 45 10000 5.66 350 11:47 20.04.2021
73 Clouds 4 1017 45 10000 5.66 350 11:28 20.04.2021
74 Clouds 4 1020 54 10000 4.2 343 10:55 20.04.2021
75 Clouds 4 1016 45 10000 4.63 350 10:36 20.04.2021
76 Clouds 4 1016 45 10000 4.63 350 10:18 20.04.2021
77 Clouds 5 1016 45 10000 3.6 320 09:19 20.04.2021
78 Clouds 5 1016 42 10000 3.6 330 08:46 20.04.2021
79 Clouds 5 1016 42 10000 4.12 340 07:59 20.04.2021
80 Clouds 5 1019 51 10000 4.1 317 07:33 20.04.2021
81 Clouds 6 1015 45 10000 4.63 330 05:48 20.04.2021
82 Clouds 6 1015 45 10000 4.63 330 05:30 20.04.2021
83 Clouds 7 1015 57 10000 4.63 270 04:24 20.04.2021
84 Clouds 9 1013 49 10000 6.17 260 00:51 20.04.2021
85 Clouds 9 1013 49 10000 6.17 260 00:20 20.04.2021
86 Clouds 9 1012 61 10000 6.17 240 23:31 19.04.2021
87 Clouds 8 1012 70 10000 6.17 270 22:45 19.04.2021
88 Clouds 8 1012 70 10000 6.17 270 22:26 19.04.2021
89 Clouds 8 1012 70 10000 5.66 270 21:43 19.04.2021
90 Rain 7 1012 71 10000 6.69 280 21:20 19.04.2021
91 Rain 8 1011 76 10000 5.66 260 20:41 19.04.2021
92 Rain 8 1011 76 10000 5.66 260 20:20 19.04.2021
93 Rain 8 1012 70 10000 7.2 270 19:50 19.04.2021
94 Clouds 8 1012 70 10000 7.2 270 19:27 19.04.2021
95 Rain 8 1012 76 10000 8.23 290 18:59 19.04.2021
96 Rain 8 1011 76 10000 7.72 300 18:38 19.04.2021
97 Rain 8 1014 81 10000 5.05 290 18:19 19.04.2021
98 Rain 9 1009 50 10000 6.69 300 17:43 19.04.2021
99 Clouds 11 1009 50 10000 6.69 300 17:23 19.04.2021
100 Clouds 11 1009 47 10000 6.69 280 16:43 19.04.2021
101 Clouds 11 1009 47 10000 6.69 280 16:24 19.04.2021
102 Clouds 11 1009 50 10000 5.14 250 15:41 19.04.2021
103 Clouds 11 1009 50 10000 5.14 250 15:23 19.04.2021
104 Clouds 10 1012 56 10000 4.68 282 14:43 19.04.2021
105 Clouds 10 1009 57 10000 5.14 250 14:23 19.04.2021
106 Clouds 9 1009 53 10000 6.17 240 13:49 19.04.2021
107 Clouds 9 1009 53 10000 6.17 240 13:26 19.04.2021
108 Clouds 9 1009 53 10000 5.66 250 12:47 19.04.2021
109 Clouds 9 1009 53 10000 5.66 250 12:26 19.04.2021
110 Clouds 9 1009 49 10000 4.63 240 11:55 19.04.2021
111 Clouds 9 1009 49 10000 4.63 240 11:27 19.04.2021
112 Clear 10 1009 46 10000 4.63 240 10:55 19.04.2021
113 Clear 10 1009 46 10000 4.63 240 10:36 19.04.2021
114 Clear 10 1009 46 10000 4.63 240 10:18 19.04.2021
115 Clouds 11 1009 43 10000 4.63 240 09:38 19.04.2021
116 Clouds 11 1009 43 10000 4.63 240 09:19 19.04.2021
117 Clouds 11 1010 43 10000 3.09 210 08:30 19.04.2021
118 Clouds 11 1010 43 10000 3.09 230 07:49 19.04.2021
119 Clouds 11 1010 43 10000 3.09 230 07:20 19.04.2021
120 Clouds 12 1011 38 10000 2.06 220 06:38 19.04.2021
121 Clouds 16 1010 27 10000 2.57 240 02:38 19.04.2021
122 Clouds 16 1011 27 10000 3.09 260 01:29 19.04.2021
123 Clouds 16 1011 27 10000 5.14 250 00:30 19.04.2021
124 Clouds 17 1011 28 10000 2.68 277 23:19 18.04.2021
125 Clouds 16 1012 28 10000 1.79 276 22:52 18.04.2021
126 Clouds 16 1012 23 10000 4.12 220 22:31 18.04.2021
127 Clouds 16 1012 25 10000 3.6 260 21:45 18.04.2021
128 Clouds 16 1012 25 10000 3.6 260 21:23 18.04.2021
129 Clouds 16 1012 25 10000 3.6 260 21:23 18.04.2021
130 Clouds 15 1012 25 10000 3.6 190 20:40 18.04.2021
131 Clouds 14 1012 25 10000 3.6 190 20:21 18.04.2021
132 Clouds 15 1013 29 10000 2.06 0 19:49 18.04.2021
133 Clouds 15 1013 29 10000 2.06 0 19:30 18.04.2021
134 Clouds 15 1014 35 10000 3.09 210 18:54 18.04.2021
135 Clouds 15 1014 35 10000 3.09 210 18:31 18.04.2021
136 Clouds 14 1014 40 10000 2.06 220 17:57 18.04.2021
137 Clouds 13 1014 40 10000 2.06 220 17:38 18.04.2021
138 Clouds 13 1014 40 10000 2.06 220 17:19 18.04.2021
139 Clouds 12 1018 46 10000 1.06 256 16:41 18.04.2021
140 Clouds 10 1015 46 10000 0.45 212 15:59 18.04.2021
141 Clouds 9 1015 53 10000 1.18 243 15:39 18.04.2021
142 Clouds 8 1015 53 10000 1.33 239 15:19 18.04.2021
143 Clouds 7 1014 60 10000 1.33 239 14:42 18.04.2021
144 Clouds 6 1014 60 10000 1.67 249 14:19 18.04.2021
145 Clouds 5 1014 60 10000 1.67 249 13:53 18.04.2021
146 Clouds 5 1014 60 10000 1.73 267 13:30 18.04.2021
147 Clouds 4 1014 60 10000 1.73 267 12:43 18.04.2021
148 Clouds 4 1014 60 10000 1.41 290 12:20 18.04.2021
149 Clouds 5 1014 56 10000 1.41 290 11:41 18.04.2021
150 Clouds 5 1014 56 10000 1.14 301 11:20 18.04.2021
151 Clouds 5 1014 60 10000 1.14 301 10:45 18.04.2021
152 Clouds 5 1014 60 10000 1.09 273 10:19 18.04.2021
153 Clouds 5 1014 56 10000 1.54 250 09:41 18.04.2021
154 Clouds 5 1014 56 10000 1.54 250 09:23 18.04.2021
155 Clouds 5 1014 49 10000 3.6 220 08:47 18.04.2021
156 Clouds 5 1014 49 10000 3.6 220 08:28 18.04.2021
157 Clouds 5 1015 49 10000 1.54 210 07:41 18.04.2021
158 Clouds 5 1018 55 10000 1.13 324 06:56 18.04.2021
159 Clouds 6 1015 45 10000 2.06 40 05:27 18.04.2021
160 Clouds 6 1015 45 10000 3.09 60 04:53 18.04.2021
161 Clouds 8 1014 43 10000 4.63 80 02:23 18.04.2021
162 Clouds 9 1014 40 10000 4.63 60 00:58 18.04.2021
163 Clouds 10 1014 40 10000 4.12 80 23:58 17.04.2021
164 Clouds 11 1014 40 10000 4.12 80 23:26 17.04.2021
165 Clouds 10 1014 37 10000 4.63 40 22:44 17.04.2021
166 Clouds 10 1014 37 10000 4.63 40 22:25 17.04.2021
167 Clouds 10 1014 44 10000 4.12 50 21:44 17.04.2021
168 Clouds 10 1014 44 10000 4.12 50 21:23 17.04.2021
169 Clouds 10 1014 50 10000 4.12 70 20:40 17.04.2021
170 Clouds 10 1014 50 10000 4.12 70 20:20 17.04.2021
171 Clouds 10 1015 50 10000 4.63 30 19:39 17.04.2021
172 Clouds 10 1015 50 10000 4.63 30 19:19 17.04.2021
173 Clouds 9 1015 54 10000 4.12 350 18:49 17.04.2021
174 Clouds 9 1015 54 10000 4.12 350 18:21 17.04.2021
175 Clouds 8 1015 61 10000 3.6 360 17:42 17.04.2021
176 Clouds 7 1015 70 10000 3.09 20 16:56 17.04.2021
177 Clouds 7 1015 70 10000 3.09 20 16:37 17.04.2021
178 Clouds 7 1015 70 10000 3.09 20 16:18 17.04.2021
179 Clouds 6 1015 75 10000 2.57 360 15:19 17.04.2021
180 Clouds 5 1014 81 10000 2.57 10 14:42 17.04.2021
181 Clouds 4 1014 81 10000 2.57 10 14:19 17.04.2021
182 Clouds 4 1014 81 10000 2.57 360 13:41 17.04.2021
183 Clouds 3 1014 81 10000 2.57 330 12:47 17.04.2021
184 Clouds 3 1014 81 10000 2.57 330 12:22 17.04.2021
185 Clouds 3 1014 70 10000 1.54 310 11:50 17.04.2021
186 Clouds 3 1014 70 10000 1.54 310 11:31 17.04.2021
187 Clouds 4 1014 70 10000 2.06 330 10:48 17.04.2021
188 Clouds 4 1014 70 10000 2.06 330 10:29 17.04.2021
189 Clouds 4 1014 75 10000 2.06 360 09:45 17.04.2021
190 Clouds 4 1014 70 10000 2.06 10 08:46 17.04.2021
191 Clouds 4 1014 70 10000 2.06 10 08:26 17.04.2021
192 Clouds 4 1015 70 10000 2.76 1 07:42 17.04.2021
193 Clouds 5 1015 70 10000 5.14 90 03:59 17.04.2021
194 Clouds 5 1019 81 10000 2.99 37 03:39 17.04.2021
195 Clouds 8 1014 57 10000 4.63 80 00:51 17.04.2021
196 Clouds 8 1014 57 10000 4.63 80 00:29 17.04.2021
197 Clouds 9 1014 54 10000 4.12 80 23:55 16.04.2021
198 Clouds 9 1014 54 10000 4.12 80 23:32 16.04.2021
199 Clouds 9 1015 57 10000 4.12 70 22:51 16.04.2021
200 Clouds 9 1015 57 10000 4.12 70 22:51 16.04.2021
201 Clouds 9 1015 57 10000 4.12 70 22:22 16.04.2021
202 Clouds 9 1015 57 10000 3.09 80 21:54 16.04.2021
203 Clouds 9 1015 57 10000 3.09 80 21:35 16.04.2021
204 Clouds 9 1015 54 10000 6.17 100 20:54 16.04.2021
205 Clouds 9 1015 54 10000 6.17 100 20:29 16.04.2021
206 Clouds 9 1015 50 10000 1.54 320 19:55 16.04.2021
207 Clouds 10 1015 50 10000 1.54 320 19:31 16.04.2021
208 Clouds 9 1016 61 10000 2.57 330 18:46 16.04.2021
209 Clouds 9 1016 61 10000 2.57 330 18:21 16.04.2021
210 Clouds 9 1017 61 10000 3.09 0 17:46 16.04.2021
211 Clouds 8 1017 61 10000 3.09 0 17:19 16.04.2021
212 Clouds 7 1017 66 10000 3.09 0 16:44 16.04.2021
213 Clouds 7 1017 66 10000 3.09 0 16:25 16.04.2021
214 Clouds 6 1016 65 10000 4.12 30 15:51 16.04.2021
215 Clouds 6 1016 65 10000 4.12 30 15:23 16.04.2021
216 Clouds 5 1016 70 10000 3.09 40 14:42 16.04.2021
217 Clouds 5 1016 70 10000 3.09 40 14:20 16.04.2021
218 Clouds 5 1016 84 10000 1.79 80 13:50 16.04.2021
219 Clouds 5 1016 65 10000 3.09 340 13:21 16.04.2021
220 Clouds 5 1016 65 10000 2.57 320 12:49 16.04.2021
221 Clouds 6 1016 65 10000 2.57 320 12:29 16.04.2021
222 Clouds 7 1016 61 10000 3.09 290 11:55 16.04.2021
223 Clouds 7 1016 61 10000 3.09 290 11:27 16.04.2021
224 Clouds 7 1019 69 10000 3.51 12 10:56 16.04.2021
225 Clouds 7 1016 65 10000 2.06 250 10:37 16.04.2021
226 Clouds 7 1016 65 10000 2.06 250 10:19 16.04.2021
227 Clouds 7 1017 65 10000 2.57 260 09:42 16.04.2021
228 Clouds 7 1017 65 10000 2.57 260 09:20 16.04.2021
229 Clouds 7 1017 65 10000 2.57 250 08:41 16.04.2021
230 Clouds 7 1017 65 10000 2.57 250 08:18 16.04.2021
231 Clouds 6 1017 65 10000 2.06 250 07:36 16.04.2021
232 Clouds 6 1017 61 10000 2.06 230 06:58 16.04.2021
233 Clouds 7 1017 61 10000 2.06 230 06:18 16.04.2021
234 Clouds 7 1017 57 10000 2.06 120 04:22 16.04.2021
235 Clouds 8 1016 50 10000 4.12 70 00:59 16.04.2021
236 Clouds 9 1016 50 10000 4.12 70 00:41 16.04.2021
237 Clouds 9 1016 50 10000 4.12 70 00:20 16.04.2021
238 Clouds 9 1016 53 10000 5.14 80 23:41 15.04.2021
239 Clouds 9 1016 53 10000 5.14 80 23:23 15.04.2021
240 Clouds 9 1016 47 10000 5.14 70 22:40 15.04.2021
241 Clouds 10 1016 47 10000 5.14 70 22:22 15.04.2021
242 Clouds 10 1016 40 10000 6.17 360 21:42 15.04.2021
243 Clouds 10 1016 40 10000 6.17 360 21:22 15.04.2021
244 Clouds 10 1017 43 10000 4.12 310 20:45 15.04.2021
245 Clouds 11 1017 43 10000 4.12 310 20:24 15.04.2021
246 Clouds 10 1017 46 10000 5.14 360 19:45 15.04.2021
247 Clouds 10 1017 46 10000 5.14 360 19:27 15.04.2021
248 Clouds 9 1017 53 10000 4.63 350 18:44 15.04.2021
249 Clouds 8 1017 53 10000 4.63 350 18:21 15.04.2021
250 Clouds 8 1017 57 10000 4.63 320 17:55 15.04.2021
251 Clouds 8 1017 57 10000 4.63 320 17:55 15.04.2021
252 Clouds 8 1017 57 10000 4.63 320 17:36 15.04.2021
253 Clouds 7 1017 57 10000 6.17 320 16:59 15.04.2021
254 Clouds 6 1017 57 10000 6.17 320 16:40 15.04.2021
255 Clouds 6 1017 61 10000 5.14 310 16:22 15.04.2021
256 Clouds 6 1017 61 10000 5.66 320 15:45 15.04.2021
257 Clouds 5 1017 61 10000 5.66 320 15:25 15.04.2021
258 Clouds 5 1017 60 10000 6.17 330 14:41 15.04.2021
259 Clouds 5 1017 60 10000 6.17 330 14:23 15.04.2021
260 Clouds 5 1017 60 10000 6.17 330 14:23 15.04.2021
261 Clouds 5 1017 65 10000 6.69 330 13:42 15.04.2021
262 Clouds 4 1017 65 10000 6.69 330 13:19 15.04.2021
263 Clouds 4 1016 65 10000 3.09 300 12:41 15.04.2021
264 Clouds 4 1016 65 10000 3.09 290 12:21 15.04.2021
265 Clouds 4 1016 60 10000 5.14 290 11:46 15.04.2021
266 Clouds 4 1016 60 10000 5.14 290 11:24 15.04.2021
267 Clouds 4 1016 60 10000 3.6 270 10:55 15.04.2021
268 Clouds 4 1016 60 10000 3.6 270 10:28 15.04.2021
269 Clouds 4 1017 56 10000 3.6 300 09:50 15.04.2021
270 Clouds 4 1017 56 10000 3.6 300 09:28 15.04.2021
271 Clear 4 1020 65 10000 4.35 283 08:49 15.04.2021
272 Clouds 5 1020 61 10000 4.2 291 08:23 15.04.2021
273 Clouds 5 1017 49 10000 4.63 320 07:26 15.04.2021
274 Clouds 5 1017 49 10000 4.12 310 06:50 15.04.2021
275 Clouds 5 1017 49 10000 4.12 310 06:32 15.04.2021
276 Clouds 6 1019 49 10000 4.63 320 04:52 15.04.2021
277 Clouds 6 1018 56 10000 4.63 100 02:51 15.04.2021
278 Clouds 9 1017 40 10000 4.63 300 23:47 14.04.2021
279 Clouds 10 1017 40 10000 4.63 300 23:28 14.04.2021
280 Clouds 10 1017 43 10000 5.14 280 22:47 14.04.2021
281 Clouds 10 1017 43 10000 5.14 280 22:27 14.04.2021
282 Clouds 10 1018 37 10000 7.2 300 21:53 14.04.2021
283 Clouds 10 1018 37 10000 7.2 300 21:32 14.04.2021
284 Clouds 9 1019 40 10000 7.2 300 20:58 14.04.2021
285 Clouds 9 1019 40 10000 7.2 300 20:35 14.04.2021
286 Clouds 8 1019 39 10000 8.23 290 19:55 14.04.2021
287 Clouds 9 1019 39 10000 8.23 290 19:37 14.04.2021
288 Clouds 8 1019 39 10000 8.23 290 19:18 14.04.2021
289 Clouds 8 1020 42 10000 6.17 270 18:47 14.04.2021
290 Clouds 8 1020 42 10000 6.17 270 18:18 14.04.2021
291 Clouds 7 1020 39 10000 5.14 270 17:51 14.04.2021
292 Clouds 7 1020 39 10000 5.14 270 17:23 14.04.2021
293 Clouds 7 1021 42 10000 5.66 260 16:42 14.04.2021
294 Clouds 6 1021 42 10000 5.66 260 16:21 14.04.2021
295 Clouds 5 1021 45 10000 4.63 280 15:39 14.04.2021
296 Clouds 5 1021 45 10000 4.63 280 15:18 14.04.2021
297 Clear 4 1021 52 10000 1.79 310 14:41 14.04.2021
298 Clouds 4 1020 52 10000 3.6 250 14:21 14.04.2021
299 Clouds 3 1020 52 10000 2.57 250 13:47 14.04.2021
300 Clear 4 1020 52 10000 2.06 250 12:47 14.04.2021
301 Clear 4 1020 52 10000 2.06 250 12:24 14.04.2021
302 Clear 4 1020 48 10000 3.09 280 11:42 14.04.2021
303 Clear 4 1020 48 10000 3.09 280 11:23 14.04.2021
304 Clouds 5 1021 45 10000 2.57 280 10:34 14.04.2021
305 Clouds 5 1021 49 10000 5.14 320 09:46 14.04.2021
306 Clouds 6 1021 49 10000 5.14 320 09:27 14.04.2021
307 Clouds 6 1020 53 10000 5.14 310 08:56 14.04.2021
308 Clouds 7 1020 53 10000 5.14 310 08:32 14.04.2021
309 Clouds 8 1020 53 10000 2.06 220 07:51 14.04.2021
310 Clouds 9 1020 46 10000 2.06 230 06:35 14.04.2021
311 Clear 8 1020 46 10000 2.57 230 05:52 14.04.2021
312 Clouds 11 1022 47 10000 3.68 276 02:57 14.04.2021
313 Clouds 12 1019 37 10000 6.17 270 01:28 14.04.2021
314 Clouds 12 1019 37 10000 7.2 270 00:34 14.04.2021
315 Clouds 12 1019 37 10000 7.2 280 23:38 13.04.2021
316 Clouds 12 1019 37 10000 9.26 240 22:45 13.04.2021
317 Clouds 12 1019 37 10000 9.26 240 22:23 13.04.2021
318 Clouds 12 1019 40 10000 9.77 270 21:51 13.04.2021
319 Clouds 12 1019 40 10000 9.77 270 21:33 13.04.2021
320 Clouds 12 1019 40 10000 8.23 260 20:55 13.04.2021
321 Clouds 12 1019 40 10000 8.23 260 20:55 13.04.2021
322 Clouds 12 1019 40 10000 8.23 260 20:37 13.04.2021
323 Clouds 12 1019 40 10000 8.23 260 20:37 13.04.2021
324 Clouds 12 1019 40 10000 8.23 260 20:19 13.04.2021
325 Clouds 11 1019 40 10000 7.72 260 19:27 13.04.2021
326 Clouds 11 1019 40 10000 7.72 260 19:27 13.04.2021
327 Clouds 11 1019 43 10000 8.75 240 18:58 13.04.2021
328 Clouds 11 1019 43 10000 8.75 240 18:32 13.04.2021
329 Clouds 10 1019 57 10000 5.66 260 17:44 13.04.2021
330 Clouds 10 1019 57 10000 5.66 260 17:23 13.04.2021
331 Clear 10 1022 57 10000 4.77 260 16:55 13.04.2021
332 Clouds 9 1019 57 10000 6.17 270 16:37 13.04.2021
333 Clouds 9 1019 57 10000 6.17 270 16:18 13.04.2021
334 Clouds 8 1018 57 10000 6.17 270 15:39 13.04.2021
335 Clouds 7 1018 57 10000 4.63 260 14:59 13.04.2021
336 Clouds 7 1018 57 10000 4.63 260 14:37 13.04.2021
337 Clouds 7 1018 57 10000 4.63 260 14:18 13.04.2021
338 Clouds 7 1017 61 10000 4.12 250 13:40 13.04.2021
339 Clouds 7 1017 61 10000 4.12 250 13:20 13.04.2021
340 Clear 7 1017 57 10000 4.63 260 12:49 13.04.2021
341 Clear 7 1017 57 10000 4.63 260 12:23 13.04.2021
342 Clear 8 1016 57 10000 3.09 220 11:38 13.04.2021
343 Clear 8 1016 57 10000 3.09 230 10:58 13.04.2021
344 Clear 8 1016 57 10000 3.09 230 10:40 13.04.2021
345 Clear 8 1016 57 10000 3.09 230 10:19 13.04.2021
346 Clear 9 1016 57 10000 3.6 230 09:51 13.04.2021
347 Clear 9 1016 57 10000 3.6 230 09:26 13.04.2021
348 Clear 9 1016 57 10000 3.09 230 08:44 13.04.2021
349 Clear 9 1016 57 10000 3.09 230 08:22 13.04.2021
350 Clear 10 1015 50 10000 3.6 230 07:43 13.04.2021
351 Clear 10 1015 50 10000 3.6 230 07:23 13.04.2021
352 Clear 10 1015 46 10000 3.09 240 06:24 13.04.2021
353 Clear 12 1016 52 10000 4.08 267 03:44 13.04.2021
354 Clouds 15 1011 41 10000 8.23 270 01:32 13.04.2021
355 Clouds 16 1010 41 10000 9.26 270 23:52 12.04.2021
356 Clouds 16 1010 41 10000 9.26 270 23:32 12.04.2021
357 Clouds 16 1010 41 10000 9.26 270 23:32 12.04.2021
358 Clouds 16 1010 42 10000 9.77 250 22:52 12.04.2021
359 Clouds 17 1010 42 10000 9.77 250 22:33 12.04.2021
360 Clouds 17 1010 42 10000 9.77 250 22:33 12.04.2021
361 Clouds 17 1009 39 10000 9.26 270 21:48 12.04.2021
362 Clouds 17 1009 39 10000 9.26 270 21:25 12.04.2021
363 Clouds 17 1008 42 10000 8.23 260 20:58 12.04.2021
364 Clouds 17 1008 42 10000 8.23 260 20:36 12.04.2021
365 Clouds 17 1008 42 10000 8.23 260 20:18 12.04.2021
366 Clouds 17 1011 52 10000 5.25 285 19:39 12.04.2021
367 Clouds 17 1008 51 10000 6.69 280 19:21 12.04.2021
368 Clouds 16 1007 58 10000 5.66 280 18:48 12.04.2021
369 Clouds 15 1007 58 10000 5.66 280 18:30 12.04.2021
370 Clouds 14 1007 58 10000 6.17 270 17:58 12.04.2021
371 Clouds 13 1007 67 10000 5.66 260 17:37 12.04.2021
372 Clouds 13 1007 67 10000 5.66 260 17:19 12.04.2021
373 Clouds 12 1006 71 10000 4.63 310 16:37 12.04.2021
374 Clouds 12 1006 71 10000 4.63 310 16:18 12.04.2021
375 Clouds 11 1006 82 10000 4.12 290 15:33 12.04.2021
376 Clouds 11 1005 82 10000 4.63 280 14:56 12.04.2021
377 Clouds 11 1005 82 10000 4.63 280 14:37 12.04.2021
378 Clouds 10 1005 82 10000 4.63 280 14:18 12.04.2021
379 Clouds 10 1004 82 10000 3.6 290 13:40 12.04.2021
380 Clouds 11 1004 82 10000 3.6 290 13:18 12.04.2021
381 Clouds 11 1003 82 10000 2.57 290 12:43 12.04.2021
382 Clouds 11 1003 82 10000 2.57 290 12:22 12.04.2021
383 Clouds 10 1003 82 10000 2.57 290 11:35 12.04.2021
384 Rain 10 1002 87 10000 2.57 280 10:51 12.04.2021
385 Clouds 10 1002 87 10000 2.57 280 10:28 12.04.2021
386 Clouds 10 1002 87 10000 2.57 280 09:52 12.04.2021
387 Clouds 10 1002 87 10000 2.57 280 09:23 12.04.2021
388 Rain 10 1002 87 10000 1.54 270 08:51 12.04.2021
389 Clouds 10 1001 81 10000 2.06 290 07:55 12.04.2021
390 Rain 9 1005 82 10000 2.42 268 07:30 12.04.2021
391 Clouds 10 1001 71 10000 2.57 220 06:39 12.04.2021
392 Clouds 10 1004 79 10000 1.65 240 05:47 12.04.2021
393 Clouds 10 998 66 10000 4.12 120 02:27 12.04.2021
394 Clouds 11 997 66 10000 2.57 40 00:29 12.04.2021
395 Clouds 11 997 62 10000 2.06 50 23:55 11.04.2021
396 Clouds 11 997 62 10000 2.06 50 23:36 11.04.2021
397 Clouds 11 996 62 10000 2.57 40 23:18 11.04.2021
398 Clouds 11 996 62 10000 1.54 80 22:37 11.04.2021
399 Clouds 11 996 62 10000 1.54 80 22:19 11.04.2021
400 Clouds 11 995 58 10000 1.54 0 21:42 11.04.2021
401 Clouds 11 995 62 10000 2.82 21 21:23 11.04.2021
402 Clouds 12 998 69 10000 2.62 24 20:42 11.04.2021
403 Clouds 11 995 66 10000 3.6 320 20:23 11.04.2021
404 Clouds 12 994 62 10000 1.54 320 19:41 11.04.2021
405 Clouds 12 994 71 10000 2.32 37 19:20 11.04.2021
406 Clouds 11 994 71 10000 3.09 50 18:55 11.04.2021
407 Clouds 10 994 76 10000 3.6 70 18:37 11.04.2021
408 Clouds 10 994 76 10000 3.6 70 18:18 11.04.2021
409 Clouds 10 993 76 10000 2.06 50 17:40 11.04.2021
410 Clouds 10 993 76 10000 2.06 50 17:19 11.04.2021
411 Clouds 9 993 87 10000 1.54 0 16:42 11.04.2021
412 Clouds 9 993 87 10000 1.54 0 16:20 11.04.2021
413 Drizzle 8 993 87 4023 2.57 80 15:45 11.04.2021
414 Clouds 8 996 91 10000 2.52 102 15:24 11.04.2021
415 Clouds 8 993 87 10000 2.06 90 14:51 11.04.2021
416 Clouds 8 993 87 10000 2.06 90 14:51 11.04.2021
417 Clouds 8 993 87 10000 2.06 90 14:22 11.04.2021
418 Drizzle 8 992 87 10000 1.54 130 13:42 11.04.2021
419 Drizzle 8 992 87 10000 1.54 130 13:23 11.04.2021
420 Drizzle 8 992 81 10000 1.54 130 12:40 11.04.2021
421 Clouds 8 992 81 10000 1.54 150 12:20 11.04.2021
422 Clouds 8 992 76 10000 3.09 160 11:45 11.04.2021
423 Clouds 8 992 76 10000 3.09 160 11:20 11.04.2021
424 Clouds 8 992 81 10000 3.09 170 10:45 11.04.2021
425 Clouds 8 992 81 10000 3.09 170 10:23 11.04.2021
426 Clouds 9 993 81 10000 4.12 170 09:49 11.04.2021
427 Clouds 9 993 81 10000 4.12 170 09:26 11.04.2021
428 Clouds 9 993 76 10000 3.09 180 08:40 11.04.2021
429 Clouds 10 994 71 10000 3.6 190 07:54 11.04.2021
430 Clouds 10 994 71 10000 3.6 190 07:19 11.04.2021
431 Clouds 12 994 82 10000 2.57 180 05:48 11.04.2021
432 Clouds 12 994 82 10000 2.57 180 05:23 11.04.2021
433 Clouds 11 994 82 10000 3.6 170 04:46 11.04.2021
434 Clouds 11 994 82 10000 3.09 190 04:19 11.04.2021
435 Rain 11 994 88 4023 4.12 20 00:55 11.04.2021
436 Rain 11 994 88 4023 4.12 20 00:32 11.04.2021
437 Mist 12 995 88 6437 4.63 50 23:46 10.04.2021
438 Rain 11 997 87 8047 4.12 60 22:55 10.04.2021
439 Rain 10 998 87 9656 4.12 60 22:28 10.04.2021
440 Rain 10 999 82 10000 5.66 50 21:54 10.04.2021
441 Rain 10 999 82 10000 5.66 50 21:25 10.04.2021
442 Rain 10 1002 88 3684 5.52 49 20:57 10.04.2021
443 Rain 10 1002 86 7331 6.88 57 20:37 10.04.2021
444 Rain 11 1002 85 10000 6.24 47 20:18 10.04.2021
445 Clouds 11 1001 71 10000 3.6 30 19:42 10.04.2021
446 Clouds 11 1001 71 10000 3.6 30 19:24 10.04.2021
447 Clouds 11 1002 76 10000 6.17 70 18:42 10.04.2021
448 Clouds 11 1002 76 10000 6.17 70 18:23 10.04.2021
449 Clouds 11 1003 76 10000 4.63 60 17:35 10.04.2021
450 Rain 11 1004 76 10000 3.09 40 16:43 10.04.2021
451 Rain 11 1004 76 10000 3.09 40 16:24 10.04.2021
452 Clouds 11 1007 85 10000 4.87 66 15:48 10.04.2021
453 Clouds 11 1005 82 10000 2.06 50 14:55 10.04.2021
454 Clouds 11 1005 82 10000 2.06 50 14:34 10.04.2021
455 Clouds 10 1004 81 10000 3.6 360 13:56 10.04.2021
456 Clouds 10 1004 81 10000 3.6 360 13:36 10.04.2021
457 Clouds 10 1006 87 10000 1.64 63 12:43 10.04.2021
458 Clouds 10 1006 87 10000 1.64 63 12:43 10.04.2021
459 Clouds 10 1006 87 10000 0.12 182 12:20 10.04.2021
460 Clouds 10 1006 81 10000 0.12 182 11:45 10.04.2021
461 Clouds 10 1006 81 10000 0.94 266 11:22 10.04.2021
462 Clouds 10 1007 81 10000 0.94 266 10:51 10.04.2021
463 Clouds 10 1007 81 10000 0.94 266 10:30 10.04.2021
464 Clouds 11 1007 81 10000 1.45 199 09:44 10.04.2021
465 Clouds 11 1007 81 10000 1.75 185 09:19 10.04.2021
466 Clouds 11 1007 81 10000 1.75 185 09:19 10.04.2021
467 Clouds 11 1007 82 10000 3.09 210 08:34 10.04.2021
468 Clouds 12 1007 71 10000 2.01 169 07:56 10.04.2021
469 Clouds 12 1007 71 10000 1.52 270 07:26 10.04.2021
470 Clouds 12 1007 82 10000 2.09 263 06:29 10.04.2021
471 Clouds 13 1008 71 10000 2.57 270 05:34 10.04.2021
472 Clouds 15 1006 63 10000 4.63 240 03:41 10.04.2021
473 Clouds 16 1006 59 10000 4.63 240 02:42 10.04.2021
474 Clouds 17 1005 55 10000 5.66 240 01:28 10.04.2021
475 Clouds 17 1005 55 10000 7.72 260 00:37 10.04.2021
476 Clouds 16 1005 59 10000 7.72 260 23:55 09.04.2021
477 Clouds 16 1005 59 10000 7.72 260 23:30 09.04.2021
478 Clouds 16 1004 59 10000 6.69 230 22:54 09.04.2021
479 Clouds 16 1004 59 10000 6.69 230 22:36 09.04.2021
480 Clouds 16 1004 55 10000 8.23 220 21:41 09.04.2021
481 Clouds 16 1004 55 10000 8.23 220 21:22 09.04.2021
482 Clouds 16 1007 67 10000 0.45 236 20:57 09.04.2021
483 Clouds 16 1003 58 10000 8.23 240 20:39 09.04.2021
484 Clouds 15 1003 58 10000 8.23 240 20:20 09.04.2021
485 Clouds 15 1003 63 10000 8.75 230 19:43 09.04.2021
486 Clouds 15 1003 63 10000 8.75 230 19:22 09.04.2021
487 Clouds 15 1002 63 10000 8.23 220 18:43 09.04.2021
488 Clouds 15 1002 63 10000 8.23 220 18:25 09.04.2021
489 Clouds 13 1003 76 10000 5.66 190 17:48 09.04.2021
490 Clouds 13 1003 76 10000 5.66 190 17:29 09.04.2021
491 Clouds 13 1003 71 10000 5.14 200 16:47 09.04.2021
492 Clouds 12 1003 76 10000 5.66 190 16:28 09.04.2021
493 Clouds 11 1006 89 10000 0.45 252 15:44 09.04.2021
494 Clouds 11 1006 90 10000 4.98 199 15:24 09.04.2021
495 Mist 10 1003 87 9656 3.09 200 14:46 09.04.2021
496 Mist 10 1003 87 9656 3.09 200 14:22 09.04.2021
497 Drizzle 11 1002 82 6437 4.63 190 13:45 09.04.2021
498 Clouds 11 1002 76 10000 4.63 190 13:22 09.04.2021
499 Clouds 11 1002 82 10000 4.12 200 12:47 09.04.2021
500 Clouds 11 1002 82 10000 4.12 200 12:23 09.04.2021
501 Clouds 11 1001 82 10000 3.6 190 11:42 09.04.2021
502 Clouds 11 1001 82 10000 3.6 190 11:20 09.04.2021
503 Clouds 11 1001 71 10000 5.66 180 10:37 09.04.2021
504 Clouds 11 1002 82 10000 5.14 180 09:56 09.04.2021
505 Clouds 11 1002 82 10000 5.14 180 09:27 09.04.2021
506 Mist 11 1002 76 8047 5.66 190 08:55 09.04.2021
507 Drizzle 11 1002 76 8047 5.66 190 08:31 09.04.2021
508 Clouds 12 1002 71 10000 6.69 170 07:22 09.04.2021
509 Clouds 12 1003 71 10000 5.66 180 06:28 09.04.2021
510 Clouds 11 1003 71 10000 7.2 210 04:38 09.04.2021
511 Clouds 11 1002 76 10000 5.66 210 03:39 09.04.2021
512 Rain 14 1000 82 10000 3.6 150 00:39 09.04.2021
513 Mist 14 1000 82 8047 3.09 170 00:21 09.04.2021
514 Mist 14 1000 77 6437 3.6 190 23:37 08.04.2021
515 Rain 14 1002 90 10000 4.63 179 22:52 08.04.2021
516 Rain 14 1000 82 8047 2.06 300 22:27 08.04.2021
517 Clouds 15 1001 77 10000 3.89 136 21:58 08.04.2021
518 Clouds 15 1001 77 10000 3.89 136 21:40 08.04.2021
519 Clouds 15 1001 77 10000 2.73 159 21:21 08.04.2021
520 Clouds 14 1003 89 10000 2.73 159 20:56 08.04.2021
521 Clouds 14 1002 88 10000 2.57 260 20:35 08.04.2021
522 Rain 14 1002 94 10000 3.6 240 19:59 08.04.2021
523 Rain 14 1002 94 10000 3.6 240 19:27 08.04.2021
524 Rain 14 1002 88 6437 5.14 250 18:58 08.04.2021
525 Rain 14 1002 88 6437 5.14 250 18:39 08.04.2021
526 Rain 13 1002 88 6437 5.14 250 18:19 08.04.2021
527 Clouds 15 1002 77 10000 5.66 160 17:41 08.04.2021
528 Clouds 17 1002 77 10000 5.66 160 17:19 08.04.2021
529 Clouds 17 1002 77 10000 5.66 180 16:44 08.04.2021
530 Clouds 17 1002 77 10000 5.66 180 16:22 08.04.2021
531 Rain 17 1002 77 10000 5.14 170 15:45 08.04.2021
532 Clouds 17 1002 77 10000 5.14 170 15:25 08.04.2021
533 Rain 17 1002 72 10000 4.12 150 14:42 08.04.2021
534 Clouds 17 1002 72 10000 4.12 150 14:21 08.04.2021
535 Rain 17 1003 83 8344 1.79 198 13:48 08.04.2021
536 Rain 18 1002 68 10000 4.63 170 13:24 08.04.2021
537 Clouds 18 1002 63 10000 5.66 160 12:53 08.04.2021
538 Clouds 18 1002 63 10000 5.66 160 12:33 08.04.2021
539 Clouds 18 1002 63 10000 3.6 150 11:57 08.04.2021
540 Clouds 18 1002 63 10000 3.6 150 11:25 08.04.2021
541 Clouds 18 1003 63 10000 2.57 160 10:51 08.04.2021
542 Clouds 18 1003 63 10000 2.57 160 10:25 08.04.2021
543 Clouds 19 1003 60 10000 2.57 200 09:46 08.04.2021
544 Clouds 19 1003 60 10000 2.57 200 09:26 08.04.2021
545 Clouds 20 1004 52 10000 4.63 150 08:44 08.04.2021
546 Clouds 20 1004 52 10000 4.63 150 08:22 08.04.2021
547 Clouds 21 1004 56 10000 6.69 170 07:45 08.04.2021
548 Clouds 22 1005 56 10000 6.69 160 05:45 08.04.2021
549 Clouds 25 1005 46 10000 2.06 220 01:25 08.04.2021
550 Clouds 24 1007 52 10000 0.45 232 00:32 08.04.2021
551 Clouds 24 1007 43 10000 9.26 250 23:48 07.04.2021
552 Clouds 25 1007 43 10000 9.26 250 23:25 07.04.2021
553 Clouds 26 1007 39 10000 10.8 190 22:57 07.04.2021
554 Clouds 27 1007 39 10000 10.8 190 22:38 07.04.2021
555 Clouds 27 1007 39 10000 10.8 190 22:20 07.04.2021
556 Clouds 27 1008 39 10000 7.2 180 21:34 07.04.2021
557 Clouds 26 1008 44 10000 7.2 200 20:54 07.04.2021
558 Clouds 26 1008 44 10000 7.2 200 20:30 07.04.2021
559 Clouds 25 1009 44 10000 5.66 190 19:52 07.04.2021
560 Clouds 25 1009 44 10000 5.66 190 19:34 07.04.2021
561 Clouds 24 1010 46 10000 4.63 190 18:59 07.04.2021
562 Clouds 24 1010 46 10000 4.63 190 18:41 07.04.2021
563 Clouds 23 1010 46 10000 4.63 190 18:18 07.04.2021
564 Clouds 23 1010 49 10000 5.66 200 17:45 07.04.2021
565 Clouds 22 1010 49 10000 5.66 200 17:26 07.04.2021
566 Clouds 21 1011 49 10000 4.63 190 16:45 07.04.2021
567 Clouds 20 1011 49 10000 4.63 190 16:21 07.04.2021
568 Clouds 19 1011 55 10000 4.12 180 15:53 07.04.2021
569 Clouds 18 1011 55 10000 4.12 180 15:32 07.04.2021
570 Clouds 17 1011 51 10000 4.63 180 14:43 07.04.2021
571 Clouds 17 1011 51 10000 4.63 180 14:20 07.04.2021
572 Clouds 16 1011 55 10000 4.12 170 13:39 07.04.2021
573 Clouds 16 1011 55 10000 4.12 170 13:20 07.04.2021
574 Clouds 17 1011 51 10000 3.6 170 12:46 07.04.2021
575 Clouds 17 1011 51 10000 3.6 170 12:19 07.04.2021
576 Clouds 17 1011 51 10000 2.57 170 11:45 07.04.2021
577 Clouds 18 1011 51 10000 2.57 170 11:22 07.04.2021
578 Clouds 18 1011 48 10000 3.09 180 10:50 07.04.2021
579 Clouds 19 1011 48 10000 4.63 210 09:50 07.04.2021
580 Clouds 19 1011 48 10000 4.63 210 09:28 07.04.2021
581 Clouds 19 1011 45 10000 4.12 180 08:53 07.04.2021
582 Clouds 20 1011 45 10000 4.12 180 08:32 07.04.2021
583 Clouds 20 1011 43 10000 3.6 200 07:54 07.04.2021
584 Clouds 21 1011 43 10000 3.6 200 07:29 07.04.2021
585 Clouds 21 1011 43 10000 4.63 210 06:44 07.04.2021
586 Clouds 22 1011 40 10000 4.12 200 05:43 07.04.2021
587 Clouds 24 1010 38 10000 3.6 210 03:18 07.04.2021
588 Clouds 27 1010 31 10000 5.14 220 23:50 06.04.2021
589 Clouds 27 1010 31 10000 5.14 220 23:23 06.04.2021
590 Clouds 27 1010 30 10000 7.72 230 22:57 06.04.2021
591 Clouds 27 1010 30 10000 7.72 230 22:21 06.04.2021
592 Clouds 27 1011 34 10000 8.23 200 21:57 06.04.2021
593 Clouds 27 1011 34 10000 8.23 200 21:38 06.04.2021
594 Clouds 27 1011 34 10000 8.23 200 21:19 06.04.2021
595 Clouds 26 1011 36 10000 6.69 200 20:45 06.04.2021
596 Clouds 26 1011 36 10000 6.69 200 20:21 06.04.2021
597 Clouds 25 1012 43 10000 6.69 250 19:47 06.04.2021
598 Clouds 25 1012 43 10000 6.69 250 19:29 06.04.2021
599 Clouds 24 1012 43 10000 4.63 240 18:45 06.04.2021
600 Clouds 23 1012 43 10000 4.63 240 18:23 06.04.2021
601 Clouds 22 1012 46 10000 7.2 220 17:45 06.04.2021
602 Clouds 21 1012 46 10000 7.2 220 17:27 06.04.2021
603 Clouds 20 1013 52 10000 6.17 220 16:49 06.04.2021
604 Clouds 20 1013 52 10000 6.17 220 16:30 06.04.2021
605 Clouds 16 1013 59 10000 4.63 210 15:28 06.04.2021
606 Clouds 15 1013 67 10000 3.6 210 14:55 06.04.2021
607 Clouds 15 1013 67 10000 3.6 210 14:37 06.04.2021
608 Clouds 15 1013 67 10000 3.6 210 14:37 06.04.2021
609 Clouds 15 1013 67 10000 3.6 210 14:18 06.04.2021
610 Clouds 15 1012 63 10000 3.6 220 13:40 06.04.2021
611 Clouds 15 1012 63 10000 3.6 220 13:21 06.04.2021
612 Clouds 16 1012 55 10000 3.6 210 12:41 06.04.2021
613 Clouds 16 1012 55 10000 3.6 210 12:20 06.04.2021
614 Clouds 16 1011 51 10000 4.63 200 11:49 06.04.2021
615 Clouds 17 1011 51 10000 4.63 200 11:21 06.04.2021
616 Clouds 17 1012 48 10000 4.63 210 10:47 06.04.2021
617 Clouds 17 1012 48 10000 4.63 210 10:25 06.04.2021
618 Clear 18 1012 48 10000 6.69 210 09:48 06.04.2021
619 Clear 18 1012 48 10000 6.69 210 09:48 06.04.2021
620 Clear 18 1012 48 10000 6.69 210 09:29 06.04.2021
621 Clear 18 1012 48 10000 4.63 200 08:40 06.04.2021
622 Clouds 19 1012 45 10000 4.63 200 07:59 06.04.2021
623 Clouds 19 1012 42 10000 4.63 190 06:55 06.04.2021
624 Clouds 20 1012 37 10000 4.12 200 05:40 06.04.2021
625 Clouds 23 1011 31 10000 5.14 210 02:54 06.04.2021
626 Clouds 22 1011 38 10000 5.66 170 00:44 06.04.2021
627 Clouds 22 1011 38 10000 5.66 170 00:21 06.04.2021
628 Clouds 23 1012 43 10000 1.54 210 23:42 05.04.2021
629 Clouds 23 1012 43 10000 1.54 210 23:19 05.04.2021
630 Clouds 22 1013 43 10000 3.21 221 22:48 05.04.2021
631 Clouds 22 1013 43 10000 3.44 221 22:25 05.04.2021
632 Rain 21 1014 46 10000 2.06 310 21:43 05.04.2021
633 Clouds 22 1014 46 10000 2.06 310 21:20 05.04.2021
634 Clouds 20 1013 49 10000 6.17 190 20:42 05.04.2021
635 Clouds 20 1013 49 10000 6.17 190 20:23 05.04.2021
636 Clouds 20 1014 46 10000 5.14 220 19:42 05.04.2021
637 Clouds 20 1014 46 10000 5.14 220 19:20 05.04.2021
638 Clouds 19 1015 52 10000 4.12 240 18:48 05.04.2021
639 Clouds 19 1015 52 10000 4.12 240 18:30 05.04.2021
640 Rain 20 1014 45 10000 4.63 250 17:57 05.04.2021
641 Clouds 20 1014 45 10000 4.63 250 17:37 05.04.2021
642 Clouds 20 1014 45 10000 4.63 250 17:18 05.04.2021
643 Clouds 18 1014 51 10000 7.2 230 16:41 05.04.2021
644 Clouds 18 1014 51 10000 7.2 230 16:20 05.04.2021
645 Clouds 16 1013 55 10000 6.69 210 15:50 05.04.2021
646 Clouds 16 1013 55 10000 6.69 210 15:27 05.04.2021
647 Clouds 16 1014 63 10000 4.63 220 14:46 05.04.2021
648 Clouds 15 1014 63 10000 4.63 220 14:25 05.04.2021
649 Clouds 16 1014 55 10000 3.6 250 13:31 05.04.2021
650 Clouds 16 1014 55 10000 3.6 250 13:31 05.04.2021
651 Clouds 16 1014 55 10000 3.6 250 13:31 05.04.2021
652 Clouds 16 1015 51 10000 4.63 250 12:48 05.04.2021
653 Clouds 16 1015 51 10000 4.63 250 12:26 05.04.2021
654 Clouds 17 1016 45 10000 6.17 230 11:54 05.04.2021
655 Clouds 17 1016 45 10000 6.17 230 11:33 05.04.2021
656 Rain 17 1015 45 10000 5.14 220 10:59 05.04.2021
657 Rain 17 1015 45 10000 5.14 220 10:40 05.04.2021
658 Clouds 17 1015 45 10000 5.14 220 10:19 05.04.2021
659 Clouds 17 1015 45 10000 5.14 200 09:45 05.04.2021
660 Clouds 17 1015 45 10000 5.14 200 09:22 05.04.2021
661 Clouds 17 1016 45 10000 4.63 210 08:40 05.04.2021
662 Clouds 17 1016 45 10000 4.63 210 08:20 05.04.2021
663 Clouds 18 1017 39 10000 4.12 200 07:35 05.04.2021
664 Clouds 19 1017 30 10000 3.6 180 04:23 05.04.2021
665 Clouds 19 1019 38 10000 3.7 200 01:35 05.04.2021
666 Clouds 21 1017 22 10000 5.66 150 00:29 05.04.2021
667 Clouds 22 1018 22 10000 5.14 200 23:43 04.04.2021
668 Clouds 22 1018 22 10000 5.14 200 23:20 04.04.2021
669 Clouds 22 1019 22 10000 4.12 160 22:50 04.04.2021
670 Clouds 22 1019 22 10000 4.12 160 22:28 04.04.2021
671 Clouds 22 1020 25 10000 5.14 140 21:25 04.04.2021
672 Clear 21 1021 28 10000 3.26 155 20:54 04.04.2021
673 Clear 20 1021 28 10000 2.99 160 20:29 04.04.2021
674 Clear 19 1022 34 10000 2.57 100 19:43 04.04.2021
675 Clear 19 1022 34 10000 2.57 100 19:22 04.04.2021
676 Clouds 18 1022 36 10000 2.06 120 18:57 04.04.2021
677 Clouds 18 1022 36 10000 2.06 120 18:38 04.04.2021
678 Clouds 17 1022 36 10000 2.06 120 18:20 04.04.2021
679 Clouds 16 1022 41 10000 1.54 0 17:37 04.04.2021
680 Clouds 16 1022 41 10000 1.54 0 17:19 04.04.2021
681 Clouds 14 1022 50 10000 2.14 143 16:41 04.04.2021
682 Clouds 13 1021 59 10000 1.22 127 15:58 04.04.2021
683 Clouds 11 1022 62 10000 1.54 200 15:33 04.04.2021
684 Clouds 9 1021 66 10000 1.54 210 14:45 04.04.2021
685 Clouds 9 1021 66 10000 1.54 210 14:26 04.04.2021
686 Clouds 9 1021 61 10000 1.54 210 13:29 04.04.2021
687 Clouds 9 1021 61 10000 2.06 180 12:55 04.04.2021
688 Clouds 10 1021 61 10000 2.06 180 12:33 04.04.2021
689 Clouds 10 1021 61 10000 0.85 233 11:53 04.04.2021
690 Clouds 10 1021 61 10000 0.87 261 11:31 04.04.2021
691 Clouds 10 1021 57 10000 0.87 261 10:56 04.04.2021
692 Clouds 10 1021 57 10000 0.87 261 10:33 04.04.2021
693 Clear 11 1021 57 10000 1.2 284 09:52 04.04.2021
694 Clear 11 1021 57 10000 1.53 283 09:25 04.04.2021
695 Clear 11 1020 50 10000 1.54 200 08:51 04.04.2021
696 Clear 11 1020 50 10000 1.54 200 08:33 04.04.2021
697 Clear 12 1020 47 10000 2.06 230 07:50 04.04.2021
698 Clear 13 1020 44 10000 2.06 240 06:36 04.04.2021
699 Clear 14 1020 44 10000 2.06 240 05:33 04.04.2021
700 Clear 21 1018 28 10000 4.63 280 01:28 04.04.2021
701 Clear 22 1018 24 10000 7.2 270 00:20 04.04.2021
702 Clear 21 1018 24 10000 7.72 260 23:47 03.04.2021
703 Clear 21 1018 24 10000 7.72 260 23:23 03.04.2021
704 Clouds 21 1019 26 10000 8.23 250 22:51 03.04.2021
705 Clouds 21 1019 26 10000 8.23 250 22:21 03.04.2021
706 Clouds 20 1019 27 10000 10.29 260 21:49 03.04.2021
707 Clouds 19 1019 27 10000 10.29 260 21:24 03.04.2021
708 Clouds 19 1019 27 10000 8.75 230 20:51 03.04.2021
709 Clouds 17 1019 27 10000 8.75 230 20:28 03.04.2021
710 Clear 17 1020 31 10000 8.75 230 19:51 03.04.2021
711 Clear 16 1020 31 10000 8.75 230 19:25 03.04.2021
712 Clear 15 1021 33 10000 7.2 230 18:52 03.04.2021
713 Clear 15 1021 33 10000 7.2 230 18:33 03.04.2021
714 Clouds 13 1021 37 10000 8.75 240 17:55 03.04.2021
715 Clouds 11 1021 37 10000 8.75 240 17:26 03.04.2021
716 Clouds 10 1021 42 10000 7.72 220 16:54 03.04.2021
717 Clouds 9 1024 46 10000 0.89 209 16:25 03.04.2021
718 Clouds 7 1025 48 10000 1.34 195 15:51 03.04.2021
719 Clouds 6 1022 42 10000 7.2 210 15:31 03.04.2021
720 Clouds 5 1022 45 10000 6.69 210 14:49 03.04.2021
721 Clouds 5 1022 45 10000 6.69 210 14:25 03.04.2021
722 Clouds 5 1023 45 10000 6.17 210 13:54 03.04.2021
723 Clouds 5 1023 45 10000 6.17 210 13:34 03.04.2021
724 Clouds 5 1023 38 10000 7.2 200 12:59 03.04.2021
725 Clouds 5 1023 38 10000 7.2 200 12:33 03.04.2021
726 Clouds 5 1024 36 10000 5.14 200 11:44 03.04.2021
727 Clouds 5 1024 36 10000 5.14 200 11:26 03.04.2021
728 Clouds 5 1024 33 10000 5.14 200 10:45 03.04.2021
729 Clouds 5 1024 33 10000 5.14 200 10:26 03.04.2021
730 Clouds 5 1025 33 10000 5.66 200 09:39 03.04.2021
731 Clouds 5 1025 33 10000 5.66 200 09:21 03.04.2021
732 Clear 6 1025 33 10000 6.69 190 08:35 03.04.2021
733 Clear 6 1026 33 10000 4.63 220 07:40 03.04.2021
734 Clear 6 1026 33 10000 4.63 220 07:22 03.04.2021
735 Clear 8 1026 18 10000 4.63 190 03:54 03.04.2021
736 Clouds 8 1027 18 10000 6.17 190 02:56 03.04.2021
737 Clouds 9 1027 18 10000 6.17 190 02:31 03.04.2021
738 Clouds 10 1028 16 10000 6.69 200 00:45 03.04.2021
739 Clouds 10 1028 16 10000 6.69 200 00:18 03.04.2021
740 Clouds 10 1029 17 10000 4.63 210 23:44 02.04.2021
741 Clouds 10 1029 17 10000 4.63 210 23:18 02.04.2021
742 Clouds 10 1030 15 10000 5.66 200 22:44 02.04.2021
743 Clouds 10 1030 15 10000 5.66 200 22:25 02.04.2021
744 Clouds 9 1032 18 10000 5.14 170 21:41 02.04.2021
745 Clouds 9 1032 18 10000 5.14 170 21:19 02.04.2021
746 Clear 8 1033 19 10000 5.14 160 20:42 02.04.2021
747 Clear 8 1033 19 10000 5.14 160 20:21 02.04.2021
748 Clouds 7 1034 21 10000 4.63 180 19:42 02.04.2021
749 Clouds 6 1034 21 10000 4.63 180 19:23 02.04.2021
750 Clouds 6 1038 32 10000 3.01 163 18:48 02.04.2021
751 Clouds 6 1034 28 10000 2.24 194 18:28 02.04.2021
752 Clouds 5 1039 31 10000 1.34 217 17:56 02.04.2021
753 Clouds 4 1035 36 10000 1.34 167 17:30 02.04.2021
754 Clouds 3 1035 60 10000 2.57 230 16:35 02.04.2021
755 Clouds 1 1035 69 10000 2.06 200 15:46 02.04.2021
756 Clouds 0 1035 69 10000 2.06 200 15:22 02.04.2021
757 Clouds -1 1035 74 10000 2.06 230 14:33 02.04.2021
758 Clear -2 1034 69 10000 1.66 210 13:50 02.04.2021
759 Clear -2 1034 69 10000 1.46 214 13:28 02.04.2021
760 Clear -2 1034 69 10000 1.46 214 12:58 02.04.2021
761 Clear -2 1034 69 10000 1.46 214 12:36 02.04.2021
762 Clear -2 1034 69 10000 1.33 221 12:18 02.04.2021
763 Clear -2 1034 69 10000 1.33 221 11:44 02.04.2021
764 Clear -2 1034 69 10000 0.8 241 11:18 02.04.2021
765 Clear -1 1034 59 10000 0.8 241 10:42 02.04.2021
766 Clear -2 1034 59 10000 0.4 265 10:21 02.04.2021
767 Clear -1 1034 59 10000 0.4 265 09:39 02.04.2021
768 Clear -1 1034 59 10000 0.23 357 09:21 02.04.2021
769 Clear -1 1034 59 10000 0.23 357 09:21 02.04.2021
770 Clear -1 1034 55 10000 0.23 357 08:45 02.04.2021
771 Clear 0 1034 55 10000 0.33 30 08:25 02.04.2021
772 Clear 0 1034 55 10000 2.57 60 07:20 02.04.2021
773 Clear 0 1034 51 10000 2.06 60 06:34 02.04.2021
774 Clear 0 1034 51 10000 4.12 30 03:25 02.04.2021
775 Clear 1 1033 44 10000 5.66 40 01:31 02.04.2021
776 Clouds 2 1033 41 10000 4.12 50 00:41 02.04.2021
777 Clouds 2 1033 38 10000 5.66 60 23:44 01.04.2021
778 Clouds 2 1033 38 10000 5.66 60 23:26 01.04.2021
779 Clouds 2 1033 38 10000 4.12 40 22:22 01.04.2021
780 Clouds 2 1034 35 10000 2.57 350 21:59 01.04.2021
781 Clouds 2 1034 35 10000 2.57 350 21:40 01.04.2021
782 Clouds 2 1034 35 10000 2.57 350 21:20 01.04.2021
783 Clouds 2 1034 32 10000 5.66 10 20:39 01.04.2021
784 Clouds 1 1034 32 10000 5.66 10 20:21 01.04.2021
785 Clouds 1 1034 34 10000 3.09 20 19:40 01.04.2021
786 Clouds 0 1034 32 10000 7.72 340 18:59 01.04.2021
787 Clouds 0 1034 32 10000 7.72 340 18:41 01.04.2021
788 Clouds 0 1034 32 10000 7.72 340 18:18 01.04.2021
789 Clouds -1 1033 37 10000 5.14 10 17:39 01.04.2021
790 Clouds -1 1033 37 10000 5.14 10 17:20 01.04.2021
791 Clouds -2 1032 40 10000 6.69 360 16:44 01.04.2021
792 Clouds -3 1032 39 10000 6.69 350 15:59 01.04.2021
793 Clouds -3 1032 39 10000 6.69 350 15:24 01.04.2021
794 Clouds -4 1031 43 10000 7.2 350 14:57 01.04.2021
795 Clouds -4 1031 46 10000 4.92 13 14:38 01.04.2021
796 Clouds -4 1031 43 10000 7.2 350 14:19 01.04.2021
797 Clouds -4 1030 43 10000 6.17 350 13:47 01.04.2021
798 Clouds -3 1030 43 10000 6.17 350 13:27 01.04.2021
799 Clouds -3 1033 54 10000 7.44 344 12:46 01.04.2021
800 Clouds -2 1033 52 10000 1.34 280 12:28 01.04.2021
801 Snow -2 1028 59 10000 6.17 10 11:44 01.04.2021
802 Snow -2 1028 59 10000 6.17 10 11:19 01.04.2021
803 Clouds -1 1032 69 10000 7.53 348 10:47 01.04.2021
804 Clouds -1 1032 71 10000 0.45 346 10:28 01.04.2021
805 Clouds 0 1031 60 10000 7.42 354 09:36 01.04.2021
806 Clear 0 1031 42 10000 7.09 352 08:58 01.04.2021
807 Clouds 0 1027 37 10000 7.72 350 08:33 01.04.2021
808 Snow 1 1027 41 10000 5.14 350 07:23 01.04.2021
809 Clouds 2 1031 47 10000 6.79 331 06:58 01.04.2021
810 Clouds 2 1030 44 10000 6.79 329 06:27 01.04.2021
811 Clouds 3 1025 35 10000 4.63 310 03:25 01.04.2021
812 Clouds 4 1023 30 10000 8.23 290 00:28 01.04.2021
813 Clouds 5 1022 30 10000 7.2 300 23:44 31.03.2021
814 Clouds 5 1025 39 10000 6.5 304 22:56 31.03.2021
815 Clouds 5 1022 31 10000 8.75 280 22:38 31.03.2021
816 Clouds 6 1022 31 10000 8.75 280 22:19 31.03.2021
817 Clouds 6 1022 31 10000 6.69 280 21:44 31.03.2021
818 Clouds 6 1022 31 10000 6.69 280 21:20 31.03.2021
819 Clouds 6 1022 33 10000 8.23 290 20:42 31.03.2021
820 Clouds 6 1022 33 10000 8.23 290 20:22 31.03.2021
821 Clouds 5 1022 33 10000 6.17 280 19:44 31.03.2021
822 Clouds 5 1022 33 10000 6.17 280 19:25 31.03.2021
823 Clouds 5 1022 38 10000 5.66 280 18:58 31.03.2021
824 Clouds 5 1022 38 10000 5.66 280 18:40 31.03.2021
825 Clouds 4 1021 38 10000 8.23 290 17:51 31.03.2021
826 Clouds 4 1021 38 10000 8.23 290 17:31 31.03.2021
827 Clear 3 1021 41 10000 6.17 300 16:56 31.03.2021
828 Clear 3 1021 41 10000 6.17 300 16:37 31.03.2021
829 Clear 3 1021 41 10000 6.17 300 16:18 31.03.2021
830 Clear 2 1020 44 10000 8.75 290 15:43 31.03.2021
831 Clear 2 1020 44 10000 8.75 290 15:19 31.03.2021
832 Clear 2 1020 44 10000 5.66 280 14:42 31.03.2021
833 Clear 2 1020 44 10000 5.66 280 14:19 31.03.2021
834 Clear 2 1019 48 10000 5.66 280 13:39 31.03.2021
835 Clear 3 1018 44 10000 7.2 290 12:41 31.03.2021
836 Clear 3 1018 44 10000 7.2 290 12:20 31.03.2021
837 Clouds 4 1018 41 10000 5.66 290 11:41 31.03.2021
838 Clouds 4 1018 41 10000 5.66 290 11:20 31.03.2021
839 Clear 4 1017 38 10000 7.2 290 10:46 31.03.2021
840 Clear 5 1017 38 10000 7.2 290 10:24 31.03.2021
841 Clouds 5 1020 43 10000 5.54 306 09:38 31.03.2021
842 Clouds 6 1016 33 10000 8.75 300 08:54 31.03.2021
843 Clouds 7 1016 33 10000 8.75 300 08:33 31.03.2021
844 Clouds 7 1018 39 10000 5.76 313 07:49 31.03.2021
845 Clouds 9 1017 36 10000 5.71 313 06:38 31.03.2021
846 Clouds 12 1015 37 10000 5.45 307 03:46 31.03.2021
847 Clouds 15 1009 36 10000 7.2 270 01:35 31.03.2021
848 Clouds 17 1008 39 10000 8.75 260 00:48 31.03.2021
849 Clouds 17 1008 39 10000 8.75 260 00:18 31.03.2021
850 Clouds 19 1007 37 10000 8.23 240 23:29 30.03.2021
851 Clouds 20 1008 34 10000 8.23 240 22:56 30.03.2021
852 Clouds 20 1008 34 10000 8.23 240 22:38 30.03.2021
853 Clouds 20 1008 34 10000 8.23 240 22:20 30.03.2021
854 Clouds 19 1008 34 10000 8.23 230 21:42 30.03.2021
855 Clouds 19 1008 34 10000 8.23 230 21:19 30.03.2021
856 Clouds 19 1007 34 10000 10.8 230 20:51 30.03.2021
857 Clouds 19 1007 34 10000 10.8 230 20:27 30.03.2021
858 Clouds 18 1007 36 10000 9.26 240 19:50 30.03.2021
859 Clouds 18 1007 36 10000 9.26 240 19:23 30.03.2021
860 Clouds 17 1008 36 10000 8.23 220 18:36 30.03.2021
861 Clouds 16 1011 46 10000 7.32 216 17:52 30.03.2021
862 Clouds 16 1008 41 10000 8.23 210 17:32 30.03.2021
863 Clouds 14 1011 51 10000 2.68 241 16:48 30.03.2021
864 Clear 13 1011 52 10000 2.68 32 16:29 30.03.2021
865 Clouds 11 1009 50 10000 7.2 200 15:43 30.03.2021
866 Clouds 11 1009 50 10000 7.2 200 15:20 30.03.2021
867 Clouds 10 1009 50 10000 7.2 200 14:55 30.03.2021
868 Clouds 10 1009 50 10000 7.2 200 14:22 30.03.2021
869 Clouds 10 1009 46 10000 6.69 200 13:57 30.03.2021
870 Clouds 10 1009 46 10000 6.69 200 13:36 30.03.2021
871 Clear 10 1009 46 10000 7.2 190 12:45 30.03.2021
872 Clear 10 1009 46 10000 7.2 190 12:27 30.03.2021
873 Clear 10 1010 43 10000 6.69 190 11:52 30.03.2021
874 Clear 11 1010 43 10000 6.69 190 11:22 30.03.2021
875 Clear 11 1010 43 10000 7.72 190 10:43 30.03.2021
876 Clear 11 1010 43 10000 7.72 190 10:20 30.03.2021
877 Clear 12 1011 37 10000 8.75 190 09:43 30.03.2021
878 Clear 12 1011 37 10000 8.75 190 09:25 30.03.2021
879 Clear 12 1011 37 10000 8.23 190 08:53 30.03.2021
880 Clear 12 1011 37 10000 8.23 190 08:35 30.03.2021
881 Clear 12 1011 37 10000 8.75 190 07:50 30.03.2021
882 Clear 12 1011 37 10000 8.75 190 07:22 30.03.2021
883 Clear 13 1011 38 10000 9.77 190 05:25 30.03.2021
884 Clear 13 1011 38 10000 9.77 190 04:57 30.03.2021
885 Clear 16 1016 43 10000 0.45 205 00:28 30.03.2021
886 Clouds 16 1014 34 10000 9.26 180 23:33 29.03.2021
887 Clouds 16 1015 36 10000 8.75 190 22:45 29.03.2021
888 Clouds 16 1015 36 10000 8.75 190 22:25 29.03.2021
889 Clear 15 1016 35 10000 9.77 200 21:43 29.03.2021
890 Clear 15 1016 35 10000 9.77 200 21:23 29.03.2021
891 Clear 13 1017 35 10000 8.23 190 20:47 29.03.2021
892 Clear 13 1017 35 10000 8.23 190 20:26 29.03.2021
893 Clouds 12 1019 37 10000 8.75 190 19:48 29.03.2021
894 Clouds 12 1019 37 10000 8.75 190 19:22 29.03.2021
895 Clouds 10 1023 44 10000 6.68 185 18:42 29.03.2021
896 Clouds 10 1020 40 10000 7.72 190 18:23 29.03.2021
897 Clouds 8 1021 46 10000 3.58 212 17:45 29.03.2021
898 Clouds 8 1021 42 10000 5.66 190 17:18 29.03.2021
899 Clouds 6 1025 52 10000 5.3 185 16:37 29.03.2021
900 Clouds 5 1025 54 10000 4.94 183 16:18 29.03.2021
901 Clouds 3 1022 60 10000 3.09 170 15:35 29.03.2021
902 Clouds 2 1022 64 10000 3.09 200 14:57 29.03.2021
903 Clouds 2 1022 64 10000 3.09 200 14:36 29.03.2021
904 Clouds 1 1022 64 10000 2.57 200 13:53 29.03.2021
905 Clouds 1 1022 64 10000 2.57 200 13:29 29.03.2021
906 Clouds 1 1021 60 10000 3.6 210 12:51 29.03.2021
907 Clouds 1 1021 60 10000 3.6 210 12:51 29.03.2021
908 Clouds 1 1021 60 10000 3.6 210 12:29 29.03.2021
909 Clouds 1 1021 60 10000 2.06 210 11:41 29.03.2021
910 Clouds 1 1021 60 10000 2.06 210 11:22 29.03.2021
911 Clouds 1 1021 55 10000 1.6 189 10:40 29.03.2021
912 Clear 2 1021 51 10000 0.23 219 09:56 29.03.2021
913 Clear 2 1021 55 10000 2.57 270 08:59 29.03.2021
914 Clear 2 1021 55 10000 2.57 270 08:29 29.03.2021
915 Clear 2 1021 48 10000 2.06 300 07:42 29.03.2021
916 Clear 3 1021 48 10000 3.09 290 06:42 29.03.2021
917 Clear 4 1021 45 10000 3.6 290 05:18 29.03.2021
918 Clouds 6 1019 33 10000 5.66 300 02:22 29.03.2021
919 Clouds 8 1020 36 10000 0.45 360 00:26 29.03.2021
920 Clouds 8 1016 29 10000 7.72 300 23:53 28.03.2021
921 Clouds 8 1019 36 10000 7.91 312 23:24 28.03.2021
922 Clouds 8 1015 29 10000 10.29 320 22:42 28.03.2021
923 Clouds 8 1018 37 10000 8.44 311 22:23 28.03.2021
924 Clouds 8 1015 31 10000 6.69 300 21:45 28.03.2021
925 Clouds 8 1015 31 10000 6.69 300 21:24 28.03.2021
926 Clouds 8 1014 39 10000 11.32 310 20:51 28.03.2021
927 Clouds 7 1014 39 10000 11.32 310 20:33 28.03.2021
928 Clouds 7 1013 49 10000 10.29 310 19:47 28.03.2021
929 Clouds 6 1013 49 10000 10.29 310 19:25 28.03.2021
930 Clouds 5 1012 56 10000 8.23 300 18:59 28.03.2021
931 Clouds 5 1012 56 10000 8.23 300 18:36 28.03.2021
932 Clouds 4 1015 65 10000 2.24 299 17:56 28.03.2021
933 Clouds 4 1015 66 10000 8.48 305 17:36 28.03.2021
934 Clouds 4 1010 65 10000 9.77 310 16:55 28.03.2021
935 Clouds 4 1010 65 10000 9.77 310 16:24 28.03.2021
936 Clouds 4 1009 65 10000 7.72 310 15:49 28.03.2021
937 Clouds 4 1009 65 10000 7.72 310 15:24 28.03.2021
938 Clouds 4 1008 60 10000 6.17 290 14:40 28.03.2021
939 Clouds 4 1008 71 10000 5.81 321 13:59 28.03.2021
940 Clouds 5 1007 65 10000 10.29 280 13:34 28.03.2021
941 Clouds 6 1009 76 10000 8.57 296 12:55 28.03.2021
942 Clouds 6 1009 76 10000 8.57 296 12:34 28.03.2021
943 Clouds 6 1009 76 10000 8.57 296 12:34 28.03.2021
944 Clouds 7 1009 74 10000 0.45 17 11:52 28.03.2021
945 Clouds 7 1009 75 10000 0.45 94 11:32 28.03.2021
946 Clouds 8 1009 78 10000 7.4 283 10:48 28.03.2021
947 Clouds 8 1006 71 10000 8.23 280 10:29 28.03.2021
948 Clouds 9 1009 82 10000 0.45 41 09:51 28.03.2021
949 Clouds 10 1009 79 10000 5.41 283 09:27 28.03.2021
950 Clouds 11 1006 71 10000 5.66 290 08:48 28.03.2021
951 Clouds 11 1006 71 10000 5.66 290 08:30 28.03.2021
952 Clouds 12 1007 66 10000 7.72 290 07:39 28.03.2021
953 Clouds 13 1007 76 10000 3.6 220 05:39 28.03.2021
954 Clouds 15 1011 78 10000 5.35 224 03:28 28.03.2021
955 Clouds 14 1008 72 10000 5.66 200 00:35 28.03.2021
956 Clouds 16 1008 55 10000 5.66 210 23:51 27.03.2021
957 Clouds 17 1008 55 10000 5.66 210 23:33 27.03.2021
958 Clouds 18 1009 55 10000 5.66 210 22:40 27.03.2021
959 Clouds 18 1009 55 10000 5.66 210 22:21 27.03.2021
960 Clouds 18 1010 52 10000 6.17 210 21:42 27.03.2021
961 Clouds 18 1010 52 10000 6.17 210 21:21 27.03.2021
962 Clouds 18 1011 52 10000 5.66 190 20:56 27.03.2021
963 Clouds 18 1011 52 10000 5.66 190 20:37 27.03.2021
964 Clouds 17 1012 51 10000 4.63 190 19:47 27.03.2021
965 Clouds 16 1012 51 10000 4.63 190 19:27 27.03.2021
966 Clouds 14 1013 58 10000 5.66 160 18:58 27.03.2021
967 Clouds 14 1013 58 10000 5.66 160 18:39 27.03.2021
968 Clouds 13 1013 58 10000 5.66 160 18:20 27.03.2021
969 Clouds 11 1014 62 10000 5.66 170 17:29 27.03.2021
970 Clouds 10 1014 81 10000 6.17 140 16:58 27.03.2021
971 Clouds 9 1014 81 10000 6.17 140 16:38 27.03.2021
972 Clouds 7 1014 81 10000 6.17 140 16:20 27.03.2021
973 Mist 6 1017 81 8047 2.06 130 15:39 27.03.2021
974 Mist 6 1017 87 8047 3.6 90 14:55 27.03.2021
975 Mist 6 1017 87 8047 3.6 90 14:24 27.03.2021
976 Mist 6 1018 81 9656 3.09 80 13:39 27.03.2021
977 Mist 5 1018 81 9656 3.09 80 13:19 27.03.2021
978 Clouds 5 1019 81 10000 2.06 90 12:41 27.03.2021
979 Clouds 5 1019 87 10000 1.54 90 11:49 27.03.2021
980 Clouds 5 1019 87 10000 1.54 90 11:31 27.03.2021
981 Clouds 5 1019 87 10000 2.06 60 10:49 27.03.2021
982 Clouds 5 1019 87 10000 2.06 60 10:30 27.03.2021
983 Clouds 4 1019 87 10000 1.97 107 09:47 27.03.2021
984 Clouds 4 1019 87 10000 1.93 122 09:18 27.03.2021
985 Clouds 4 1019 81 10000 1.93 122 08:39 27.03.2021
986 Clouds 4 1019 87 10000 1.73 116 07:49 27.03.2021
987 Clouds 4 1020 81 10000 2 113 06:59 27.03.2021
988 Clouds 4 1020 81 10000 2 113 06:59 27.03.2021
989 Clouds 4 1020 81 10000 2 113 06:39 27.03.2021
990 Clouds 4 1019 75 10000 3.09 120 04:42 27.03.2021
991 Clouds 4 1024 87 10000 1.97 88 02:19 27.03.2021
992 Clouds 4 1019 75 10000 3.6 110 00:33 27.03.2021
993 Clouds 5 1019 75 10000 3.09 90 23:59 26.03.2021
994 Clouds 5 1019 75 10000 3.09 90 23:25 26.03.2021
995 Clouds 5 1019 75 10000 3.6 100 22:39 26.03.2021
996 Clouds 5 1019 75 10000 3.09 90 21:42 26.03.2021
997 Clouds 6 1019 75 10000 3.09 90 21:23 26.03.2021
998 Clouds 7 1019 75 10000 2.57 100 20:55 26.03.2021
999 Clouds 6 1019 75 10000 2.57 100 20:31 26.03.2021
1000 Clouds 5 1019 75 10000 2.06 130 19:52 26.03.2021
1001 Clouds 5 1019 75 10000 2.06 130 19:33 26.03.2021
1002 Clouds 5 1018 81 10000 2.57 120 18:50 26.03.2021
1003 Clouds 5 1018 81 10000 2.57 120 18:30 26.03.2021
1004 Clouds 5 1017 81 10000 1.54 140 17:57 26.03.2021
1005 Clouds 4 1017 81 10000 1.54 140 17:28 26.03.2021
1006 Clouds 4 1017 81 10000 2.06 130 16:36 26.03.2021
1007 Clouds 3 1016 81 10000 1.82 0 15:59 26.03.2021
1008 Clouds 3 1016 81 10000 1.82 0 15:36 26.03.2021
1009 Clouds 2 1016 81 10000 1.98 331 14:45 26.03.2021
1010 Clouds 2 1014 80 10000 3.09 350 13:52 26.03.2021
1011 Clouds 2 1014 80 10000 3.09 350 13:23 26.03.2021
1012 Clouds 2 1013 80 10000 4.63 350 12:40 26.03.2021
1013 Clouds 2 1011 81 10000 5.66 350 11:49 26.03.2021
1014 Clouds 2 1011 81 10000 5.66 350 11:30 26.03.2021
1015 Clouds 3 1009 87 10000 6.17 340 10:44 26.03.2021
1016 Clouds 3 1009 87 10000 6.17 340 10:23 26.03.2021
1017 Clouds 3 1008 87 10000 7.72 340 09:41 26.03.2021
1018 Rain 3 1007 87 10000 6.69 360 08:49 26.03.2021
1019 Rain 3 1007 81 10000 6.69 350 08:31 26.03.2021
1020 Rain 3 1005 87 9656 9.26 350 07:57 26.03.2021
1021 Rain 3 1005 87 9656 9.26 350 07:22 26.03.2021
1022 Rain 3 1008 92 6326 1.34 37 06:56 26.03.2021
1023 Rain 3 1004 87 9656 9.26 10 05:32 26.03.2021
1024 Rain 4 1005 87 8047 8.23 20 04:23 26.03.2021
1025 Clouds 5 1010 82 10000 7.11 26 00:52 26.03.2021
1026 Clouds 6 1007 70 10000 9.26 30 00:18 26.03.2021
1027 Clouds 6 1008 66 10000 7.72 30 23:42 25.03.2021
1028 Clouds 7 1009 66 10000 7.2 40 22:41 25.03.2021
1029 Clouds 7 1009 66 10000 7.2 40 22:20 25.03.2021
1030 Clouds 7 1011 66 10000 4.12 60 21:47 25.03.2021
1031 Clouds 8 1011 66 10000 4.12 60 21:29 25.03.2021
1032 Clouds 7 1012 71 10000 6.17 80 20:41 25.03.2021
1033 Clouds 8 1012 71 10000 6.17 80 20:23 25.03.2021
1034 Clouds 7 1012 71 10000 7.72 80 19:40 25.03.2021
1035 Clouds 7 1012 71 10000 7.72 80 19:22 25.03.2021
1036 Clouds 8 1012 66 10000 5.66 50 18:46 25.03.2021
1037 Clouds 8 1012 66 10000 5.66 50 18:26 25.03.2021
1038 Clouds 8 1013 66 10000 3.09 60 17:41 25.03.2021
1039 Clouds 8 1013 66 10000 3.09 60 17:23 25.03.2021
1040 Clouds 8 1014 66 10000 1.54 0 16:38 25.03.2021
1041 Clouds 8 1014 66 10000 1.54 0 16:19 25.03.2021
1042 Clouds 8 1014 71 10000 3.1 61 15:42 25.03.2021
1043 Clouds 8 1014 71 10000 1.57 53 15:19 25.03.2021
1044 Clouds 8 1014 71 10000 2.57 240 14:42 25.03.2021
1045 Clouds 7 1012 76 10000 2.06 150 13:40 25.03.2021
1046 Clouds 7 1012 76 10000 2.06 150 13:22 25.03.2021
1047 Clouds 7 1012 76 10000 3.09 310 12:41 25.03.2021
1048 Clouds 7 1012 76 10000 3.09 310 12:20 25.03.2021
1049 Clouds 7 1013 71 10000 1.54 260 11:48 25.03.2021
1050 Clouds 7 1013 71 10000 1.54 260 11:26 25.03.2021
1051 Clouds 8 1013 71 10000 3.6 240 10:51 25.03.2021
1052 Clouds 7 1013 71 10000 3.6 240 10:24 25.03.2021
1053 Clouds 8 1012 71 10000 5.14 300 09:55 25.03.2021
1054 Clouds 8 1012 71 10000 5.14 300 09:36 25.03.2021
1055 Clouds 8 1013 71 10000 5.14 270 08:43 25.03.2021
1056 Clouds 8 1016 80 10000 3.15 282 07:58 25.03.2021
1057 Clouds 9 1012 71 10000 6.17 290 06:59 25.03.2021
1058 Clouds 9 1012 76 10000 5.66 250 06:25 25.03.2021
1059 Clouds 9 1011 76 10000 5.14 250 05:48 25.03.2021
1060 Clouds 11 1012 85 10000 6.12 249 02:48 25.03.2021
1061 Clouds 14 1007 62 10000 10.29 240 00:21 25.03.2021
1062 Clouds 14 1006 62 10000 11.83 240 23:51 24.03.2021
1063 Clouds 14 1006 62 10000 11.83 240 23:28 24.03.2021
1064 Clouds 15 1005 62 10000 8.23 220 22:48 24.03.2021
1065 Clouds 14 1005 62 10000 8.23 220 22:27 24.03.2021
1066 Clouds 14 1005 58 10000 8.75 220 21:42 24.03.2021
1067 Clouds 14 1005 58 10000 8.75 220 21:23 24.03.2021
1068 Clouds 13 1005 62 10000 9.77 230 20:43 24.03.2021
1069 Clouds 13 1005 62 10000 9.77 230 20:20 24.03.2021
1070 Clouds 13 1005 62 10000 10.8 220 19:46 24.03.2021
1071 Clouds 13 1005 62 10000 10.8 220 19:28 24.03.2021
1072 Clouds 14 1007 62 10000 0.89 264 18:46 24.03.2021
1073 Clouds 14 1005 59 10000 5.36 232 18:23 24.03.2021
1074 Clouds 14 1004 58 10000 9.77 210 17:49 24.03.2021
1075 Clouds 14 1004 58 10000 9.77 210 17:29 24.03.2021
1076 Clouds 14 1004 62 10000 7.2 200 16:51 24.03.2021
1077 Clouds 13 1004 62 10000 7.2 200 16:29 24.03.2021
1078 Clouds 13 1004 67 10000 9.77 210 15:49 24.03.2021
1079 Clouds 13 1004 67 10000 9.77 210 15:30 24.03.2021
1080 Clouds 12 1004 76 10000 4.63 190 14:47 24.03.2021
1081 Clouds 12 1004 76 10000 4.63 190 14:25 24.03.2021
1082 Clouds 12 1004 76 10000 4.63 190 14:25 24.03.2021
1083 Clouds 11 1004 76 10000 3.6 180 13:53 24.03.2021
1084 Clouds 11 1004 76 10000 3.6 180 13:27 24.03.2021
1085 Clouds 11 1004 71 10000 4.63 200 12:42 24.03.2021
1086 Clouds 12 1004 71 10000 4.63 200 12:22 24.03.2021
1087 Clouds 12 1004 76 10000 4.63 200 11:43 24.03.2021
1088 Clouds 13 1004 71 10000 6.17 200 10:58 24.03.2021
1089 Clouds 14 1003 72 10000 5.14 190 10:40 24.03.2021
1090 Clouds 14 1003 72 10000 5.14 190 10:20 24.03.2021
1091 Clouds 14 1003 77 10000 7.72 180 09:51 24.03.2021
1092 Clouds 14 1003 77 10000 7.72 180 09:20 24.03.2021
1093 Clouds 14 1006 82 10000 2.24 141 08:50 24.03.2021
1094 Clouds 14 1003 72 10000 7.72 170 08:26 24.03.2021
1095 Clouds 14 1004 76 10000 7.2 160 07:37 24.03.2021
1096 Clouds 14 1004 72 10000 6.17 150 06:52 24.03.2021
1097 Clouds 13 1007 72 10000 6.69 150 03:57 24.03.2021
1098 Clouds 13 1007 77 10000 7.2 130 00:48 24.03.2021
1099 Rain 13 1008 72 9656 6.17 120 23:59 23.03.2021
1100 Rain 13 1008 72 9656 6.17 120 23:22 23.03.2021
1101 Rain 13 1011 77 10000 5.4 130 22:54 23.03.2021
1102 Rain 14 1011 74 10000 5.4 130 22:36 23.03.2021
1103 Clouds 16 1009 55 10000 3.09 170 21:54 23.03.2021
1104 Clouds 16 1009 55 10000 3.09 170 21:34 23.03.2021
1105 Rain 16 1009 34 10000 8.23 120 20:48 23.03.2021
1106 Clouds 16 1009 34 10000 8.23 120 20:29 23.03.2021
1107 Clouds 16 1011 36 10000 5.14 140 19:57 23.03.2021
1108 Clouds 16 1011 36 10000 5.14 140 19:37 23.03.2021
1109 Clouds 15 1011 36 10000 5.14 140 19:19 23.03.2021
1110 Clouds 15 1012 36 10000 4.12 160 18:38 23.03.2021
1111 Clouds 14 1012 36 10000 4.12 160 18:18 23.03.2021
1112 Clouds 15 1013 39 10000 5.66 160 17:43 23.03.2021
1113 Clouds 15 1013 39 10000 5.66 160 17:21 23.03.2021
1114 Clouds 15 1013 39 10000 5.66 160 17:21 23.03.2021
1115 Clouds 14 1013 39 10000 6.17 140 16:26 23.03.2021
1116 Clouds 14 1014 51 10000 4.63 140 15:50 23.03.2021
1117 Clouds 12 1014 51 10000 4.63 140 15:23 23.03.2021
1118 Clouds 12 1014 58 10000 3.6 130 14:49 23.03.2021
1119 Clouds 12 1014 58 10000 3.6 130 14:19 23.03.2021
1120 Clouds 12 1014 54 10000 3.09 130 13:47 23.03.2021
1121 Clouds 12 1014 54 10000 3.09 130 13:25 23.03.2021
1122 Clouds 11 1014 58 10000 3.6 130 12:46 23.03.2021
1123 Clouds 12 1014 58 10000 3.6 130 12:26 23.03.2021
1124 Clouds 12 1014 58 10000 3.6 130 11:49 23.03.2021
1125 Clouds 12 1014 58 10000 3.6 130 11:49 23.03.2021
1126 Clouds 12 1014 58 10000 3.6 130 11:26 23.03.2021
1127 Clouds 12 1015 54 10000 3.09 130 10:42 23.03.2021
1128 Clouds 12 1015 54 10000 3.09 130 10:21 23.03.2021
1129 Clouds 12 1015 54 10000 3.09 140 09:51 23.03.2021
1130 Clouds 12 1015 54 10000 3.09 140 09:23 23.03.2021
1131 Clouds 12 1016 54 10000 3.09 130 08:55 23.03.2021
1132 Clouds 12 1016 54 10000 3.09 130 08:37 23.03.2021
1133 Clouds 12 1016 54 10000 3.09 130 08:19 23.03.2021
1134 Clouds 12 1016 50 10000 2.06 150 07:28 23.03.2021
1135 Clouds 13 1016 50 10000 3.09 140 06:53 23.03.2021
1136 Clouds 15 1017 44 10000 2.57 160 03:57 23.03.2021
1137 Clouds 15 1017 44 10000 2.57 160 03:18 23.03.2021
1138 Clouds 19 1016 30 10000 5.66 180 23:56 22.03.2021
1139 Clouds 19 1016 30 10000 5.66 180 23:20 22.03.2021
1140 Clouds 20 1016 28 10000 6.69 180 22:44 22.03.2021
1141 Clouds 20 1016 28 10000 6.69 180 22:21 22.03.2021
1142 Clouds 20 1016 26 10000 6.17 190 21:49 22.03.2021
1143 Clouds 19 1016 26 10000 6.17 190 21:27 22.03.2021
1144 Clouds 20 1017 26 10000 7.72 190 20:44 22.03.2021
1145 Clouds 19 1017 26 10000 7.72 190 20:26 22.03.2021
1146 Clouds 18 1018 26 10000 7.2 210 19:58 22.03.2021
1147 Clouds 18 1018 26 10000 7.2 210 19:39 22.03.2021
1148 Clouds 18 1018 26 10000 7.2 210 19:20 22.03.2021
1149 Clouds 18 1019 29 10000 8.23 200 18:41 22.03.2021
1150 Clouds 17 1019 29 10000 8.23 200 18:22 22.03.2021
1151 Clouds 17 1020 31 10000 5.66 210 17:49 22.03.2021
1152 Clouds 17 1020 31 10000 5.66 210 17:22 22.03.2021
1153 Clouds 15 1020 35 10000 4.12 210 16:55 22.03.2021
1154 Clouds 15 1020 35 10000 4.12 210 16:37 22.03.2021
1155 Clouds 12 1020 40 10000 4.63 200 15:43 22.03.2021
1156 Clouds 12 1020 40 10000 4.63 200 15:23 22.03.2021
1157 Clouds 11 1020 43 10000 4.12 180 14:58 22.03.2021
1158 Clouds 10 1020 43 10000 4.12 180 14:34 22.03.2021
1159 Clouds 9 1020 42 10000 3.09 180 13:52 22.03.2021
1160 Clouds 9 1020 42 10000 3.09 180 13:33 22.03.2021
1161 Clouds 9 1020 40 10000 3.6 190 12:59 22.03.2021
1162 Clouds 9 1020 40 10000 3.6 190 12:26 22.03.2021
1163 Clouds 9 1020 42 10000 3.6 200 11:57 22.03.2021
1164 Clouds 9 1020 42 10000 3.6 200 11:39 22.03.2021
1165 Clouds 9 1020 42 10000 3.6 200 11:20 22.03.2021
1166 Clouds 9 1020 40 10000 3.6 190 10:41 22.03.2021
1167 Clouds 10 1020 40 10000 3.6 190 10:18 22.03.2021
1168 Clouds 10 1023 46 10000 5.18 198 09:36 22.03.2021
1169 Clouds 9 1021 40 10000 1.54 180 08:57 22.03.2021
1170 Clouds 9 1021 40 10000 1.54 180 08:57 22.03.2021
1171 Clouds 9 1021 40 10000 1.54 180 08:39 22.03.2021
1172 Clouds 10 1021 40 10000 1.54 180 08:20 22.03.2021
1173 Clouds 10 1021 37 10000 2.57 180 07:42 22.03.2021
1174 Clouds 11 1021 35 10000 2.57 190 06:52 22.03.2021
1175 Clouds 12 1022 35 10000 2.57 190 05:18 22.03.2021
1176 Clouds 17 1022 19 10000 5.14 180 00:55 22.03.2021
1177 Clouds 17 1022 19 10000 5.14 180 00:21 22.03.2021
1178 Clouds 17 1022 16 10000 7.72 180 23:48 21.03.2021
1179 Clouds 18 1022 16 10000 7.72 180 23:19 21.03.2021
1180 Clouds 18 1023 17 10000 8.23 170 22:54 21.03.2021
1181 Clouds 19 1023 19 10000 5.14 180 21:48 21.03.2021
1182 Clouds 18 1023 19 10000 5.14 180 21:27 21.03.2021
1183 Clouds 18 1025 19 10000 7.2 180 20:58 21.03.2021
1184 Clouds 18 1025 19 10000 7.2 180 20:39 21.03.2021
1185 Clouds 18 1025 19 10000 7.2 180 20:21 21.03.2021
1186 Clouds 17 1026 25 10000 4.63 170 19:49 21.03.2021
1187 Clouds 16 1026 25 10000 4.63 170 19:20 21.03.2021
1188 Clouds 16 1027 25 10000 6.17 210 18:46 21.03.2021
1189 Clouds 15 1027 25 10000 6.17 210 18:27 21.03.2021
1190 Clouds 14 1027 28 10000 6.69 210 17:45 21.03.2021
1191 Clouds 12 1027 28 10000 6.69 210 17:19 21.03.2021
1192 Clouds 12 1028 32 10000 4.63 190 16:54 21.03.2021
1193 Clouds 10 1028 32 10000 4.63 190 16:29 21.03.2021
1194 Clouds 10 1028 42 10000 3.6 180 15:49 21.03.2021
1195 Clouds 8 1028 42 10000 3.6 180 15:23 21.03.2021
1196 Clouds 7 1032 48 10000 4.27 180 14:59 21.03.2021
1197 Clouds 7 1028 52 10000 3.09 170 14:40 21.03.2021
1198 Clouds 6 1028 52 10000 3.09 170 14:21 21.03.2021
1199 Clouds 5 1028 56 10000 2.06 200 13:52 21.03.2021
1200 Clouds 4 1028 56 10000 3.71 179 12:46 21.03.2021
1201 Clouds 4 1028 56 10000 3.5 187 12:26 21.03.2021
1202 Clear 5 1028 56 10000 2.57 160 11:51 21.03.2021
1203 Clear 5 1028 56 10000 2.57 160 11:27 21.03.2021
1204 Clear 5 1028 56 10000 2.06 170 10:55 21.03.2021
1205 Clear 5 1028 56 10000 2.06 170 10:35 21.03.2021
1206 Clear 6 1028 52 10000 3.09 160 09:58 21.03.2021
1207 Clear 6 1028 52 10000 3.09 160 09:38 21.03.2021
1208 Clear 6 1028 52 10000 3.09 160 09:38 21.03.2021
1209 Clear 6 1028 52 10000 3.09 160 09:38 21.03.2021
1210 Clear 6 1028 52 10000 3.09 160 09:19 21.03.2021
1211 Clear 6 1028 49 10000 3.09 150 08:39 21.03.2021
1212 Clear 7 1028 49 10000 3.09 150 08:20 21.03.2021
1213 Clear 7 1028 49 10000 2.06 160 07:36 21.03.2021
1214 Clear 7 1028 46 10000 3.09 160 06:50 21.03.2021
1215 Clear 7 1029 49 10000 2.57 130 04:59 21.03.2021
1216 Clear 9 1033 44 10000 3.38 161 01:54 21.03.2021
1217 Clear 11 1029 24 10000 3.6 160 00:40 21.03.2021
1218 Clear 12 1029 24 10000 3.6 160 00:21 21.03.2021
1219 Clear 12 1030 23 10000 4.63 180 23:47 20.03.2021
1220 Clear 12 1030 23 10000 4.63 180 23:20 20.03.2021
1221 Clear 13 1030 23 10000 3.6 170 22:54 20.03.2021
1222 Clear 13 1030 23 10000 3.6 170 22:21 20.03.2021
1223 Clear 12 1031 24 10000 2.57 0 21:45 20.03.2021
1224 Clear 12 1031 24 10000 2.57 0 21:24 20.03.2021
1225 Clear 12 1033 26 10000 2.57 180 20:45 20.03.2021
1226 Clear 12 1033 26 10000 2.57 180 20:22 20.03.2021
1227 Clear 12 1033 28 10000 4.63 190 19:49 20.03.2021
1228 Clear 11 1033 28 10000 4.63 190 19:26 20.03.2021
1229 Clear 11 1034 32 10000 4.12 190 18:49 20.03.2021
1230 Clear 11 1034 32 10000 4.12 190 18:26 20.03.2021
1231 Clear 9 1035 31 10000 2.57 170 17:54 20.03.2021
1232 Clear 8 1035 31 10000 2.57 170 17:32 20.03.2021
1233 Clear 7 1035 33 10000 4.63 170 16:46 20.03.2021
1234 Clear 6 1035 33 10000 4.63 170 16:21 20.03.2021
1235 Clear 6 1035 33 10000 4.63 170 16:21 20.03.2021
1236 Clear 6 1035 37 10000 1.34 194 15:59 20.03.2021
1237 Clear 5 1035 41 10000 4.12 160 15:39 20.03.2021
1238 Clear 4 1035 51 10000 2.06 160 14:48 20.03.2021
1239 Clear 3 1035 51 10000 2.06 160 14:28 20.03.2021
1240 Clear 1 1035 69 10000 2.06 140 13:42 20.03.2021
1241 Clear 1 1034 80 10000 1.54 130 12:59 20.03.2021
1242 Clear 1 1034 80 10000 1.54 130 12:27 20.03.2021
1243 Clear 1 1034 80 10000 1.54 130 12:27 20.03.2021
1244 Clear 1 1034 80 10000 1.54 130 12:27 20.03.2021
1245 Clear 1 1034 80 10000 1.54 120 11:50 20.03.2021
1246 Clear 1 1034 80 10000 1.54 120 11:29 20.03.2021
1247 Clear 1 1034 80 10000 2.06 130 10:56 20.03.2021
1248 Clear 1 1034 80 10000 2.06 130 10:37 20.03.2021
1249 Clear 1 1034 80 10000 2.06 130 10:18 20.03.2021
1250 Clear 1 1034 75 10000 1.81 147 09:29 20.03.2021
1251 Clear 1 1034 75 10000 1.54 20 08:59 20.03.2021
1252 Clear 1 1034 75 10000 1.54 20 08:39 20.03.2021
1253 Clear 2 1034 75 10000 1.54 40 07:54 20.03.2021
1254 Clear 1 1034 75 10000 1.54 40 07:32 20.03.2021
1255 Clear 2 1034 69 10000 2.26 135 06:55 20.03.2021
1256 Clear 2 1034 69 10000 2.17 101 06:27 20.03.2021
1257 Clear 2 1033 60 10000 3.09 90 04:24 20.03.2021
1258 Clear 2 1034 48 10000 2.57 90 03:42 20.03.2021
1259 Clear 5 1033 36 10000 3.09 40 00:36 20.03.2021
1260 Clear 6 1033 34 10000 3.6 60 23:32 19.03.2021
1261 Clear 6 1033 36 10000 4.63 30 22:59 19.03.2021
1262 Clear 6 1033 36 10000 4.63 30 22:38 19.03.2021
1263 Clear 6 1033 36 10000 4.63 30 22:20 19.03.2021
1264 Clear 6 1033 36 10000 4.63 30 22:20 19.03.2021
1265 Clear 6 1033 31 10000 3.6 90 21:36 19.03.2021
1266 Clear 6 1033 31 10000 3.6 90 21:18 19.03.2021
1267 Clear 5 1034 33 10000 5.14 70 20:41 19.03.2021
1268 Clear 5 1034 33 10000 5.14 70 20:22 19.03.2021
1269 Clouds 5 1034 39 10000 4.63 70 19:46 19.03.2021
1270 Clouds 5 1034 39 10000 4.63 70 19:20 19.03.2021
1271 Clouds 4 1034 45 10000 5.66 70 18:42 19.03.2021
1272 Clouds 4 1034 45 10000 5.66 70 18:20 19.03.2021
1273 Clouds 4 1034 45 10000 7.72 50 17:55 19.03.2021
1274 Clouds 4 1034 45 10000 7.72 50 17:33 19.03.2021
1275 Clouds 3 1034 44 10000 6.69 60 16:56 19.03.2021
1276 Clouds 3 1034 44 10000 6.69 60 16:32 19.03.2021
1277 Clouds 3 1033 44 10000 8.23 70 15:58 19.03.2021
1278 Clouds 3 1033 44 10000 8.23 70 15:28 19.03.2021
1279 Clouds 2 1032 44 10000 7.72 70 14:48 19.03.2021
1280 Clouds 2 1032 44 10000 7.72 70 14:28 19.03.2021
1281 Clouds 1 1031 44 10000 6.69 60 13:42 19.03.2021
1282 Clouds 1 1031 44 10000 6.69 60 13:18 19.03.2021
1283 Clouds 1 1030 41 10000 7.2 60 12:38 19.03.2021
1284 Clouds 2 1030 41 10000 9.26 50 11:49 19.03.2021
1285 Clouds 2 1029 38 10000 8.23 50 10:57 19.03.2021
1286 Clouds 2 1029 38 10000 8.23 50 10:39 19.03.2021
1287 Clouds 2 1029 38 10000 8.23 50 10:18 19.03.2021
1288 Clouds 2 1029 38 10000 10.8 50 09:41 19.03.2021
1289 Clouds 2 1029 38 10000 10.8 50 09:22 19.03.2021
1290 Clouds 3 1028 48 10000 8.23 50 08:41 19.03.2021
1291 Clouds 3 1028 48 10000 8.23 50 08:22 19.03.2021
1292 Clouds 3 1028 60 10000 8.23 50 07:42 19.03.2021
1293 Clouds 3 1027 70 10000 7.2 30 06:56 19.03.2021
1294 Clouds 3 1024 65 10000 9.26 20 03:57 19.03.2021
1295 Clouds 3 1026 78 10000 1.34 349 00:58 19.03.2021
1296 Clouds 4 1024 76 10000 10.2 19 23:49 18.03.2021
1297 Clouds 4 1019 65 10000 12.35 10 23:26 18.03.2021
1298 Clouds 4 1023 78 10000 10.84 22 22:41 18.03.2021
1299 Clouds 4 1022 79 10000 4.02 171 22:22 18.03.2021
1300 Clouds 5 1017 65 10000 11.83 20 21:40 18.03.2021
1301 Clouds 5 1017 65 10000 11.83 20 21:20 18.03.2021
1302 Clouds 5 1016 70 10000 12.86 40 20:36 18.03.2021
1303 Clouds 4 1016 75 10000 11.83 30 19:59 18.03.2021
1304 Clouds 5 1016 75 10000 11.83 30 19:59 18.03.2021
1305 Clouds 4 1016 75 10000 11.83 30 19:41 18.03.2021
1306 Clouds 4 1016 75 10000 11.83 30 19:21 18.03.2021
1307 Clouds 4 1015 75 10000 10.8 30 18:38 18.03.2021
1308 Rain 3 1014 75 10000 10.29 30 17:51 18.03.2021
1309 Rain 3 1014 75 10000 10.29 30 17:26 18.03.2021
1310 Rain 3 1013 75 10000 11.32 40 16:50 18.03.2021
1311 Rain 3 1013 75 10000 11.32 40 16:31 18.03.2021
1312 Rain 3 1012 81 10000 9.77 50 15:49 18.03.2021
1313 Rain 3 1012 81 10000 9.77 50 15:30 18.03.2021
1314 Rain 3 1012 81 9656 10.29 50 14:59 18.03.2021
1315 Rain 3 1016 90 10000 1.79 45 14:40 18.03.2021
1316 Rain 3 1012 92 10000 6.26 75 13:56 18.03.2021
1317 Rain 3 1012 92 10000 6.26 70 13:27 18.03.2021
1318 Clouds 3 1010 81 10000 12.35 40 12:47 18.03.2021
1319 Clouds 3 1010 81 10000 12.35 40 12:28 18.03.2021
1320 Drizzle 3 1010 81 10000 9.77 40 11:55 18.03.2021
1321 Drizzle 3 1010 81 10000 9.77 40 11:34 18.03.2021
1322 Mist 4 1010 81 8047 8.23 40 10:51 18.03.2021
1323 Mist 4 1010 81 8047 8.23 40 10:29 18.03.2021
1324 Rain 3 1010 81 4023 10.29 40 09:58 18.03.2021
1325 Rain 3 1011 87 4023 9.26 30 09:30 18.03.2021
1326 Rain 3 1011 87 4023 9.26 30 08:57 18.03.2021
1327 Rain 3 1011 87 8047 10.29 30 08:33 18.03.2021
1328 Rain 3 1010 87 9656 10.29 20 07:58 18.03.2021
1329 Mist 3 1011 81 9656 9.26 30 07:40 18.03.2021
1330 Rain 3 1015 93 10000 0.89 332 06:40 18.03.2021
1331 Rain 3 1016 93 10000 9.81 29 06:21 18.03.2021
1332 Rain 3 1012 81 6437 6.69 20 04:42 18.03.2021
1333 Rain 3 1012 87 4828 8.23 40 00:39 18.03.2021
1334 Rain 3 1013 75 4023 7.2 20 23:19 17.03.2021
1335 Clouds 3 1018 83 10000 0.89 182 22:38 17.03.2021
1336 Clouds 3 1018 84 10000 6.83 19 22:20 17.03.2021
1337 Mist 3 1014 81 8047 6.69 30 21:48 17.03.2021
1338 Mist 3 1014 81 6437 6.69 20 21:30 17.03.2021
1339 Mist 3 1015 81 6437 6.17 30 20:45 17.03.2021
1340 Mist 3 1015 81 6437 6.17 30 20:26 17.03.2021
1341 Clouds 3 1019 87 10000 5.12 21 19:57 17.03.2021
1342 Clouds 3 1019 88 10000 5.12 21 19:36 17.03.2021
1343 Mist 4 1015 75 6437 4.63 360 19:18 17.03.2021
1344 Mist 3 1015 81 4828 1.54 360 18:43 17.03.2021
1345 Mist 4 1015 81 4828 1.54 360 18:25 17.03.2021
1346 Mist 3 1016 87 3219 2.06 60 17:32 17.03.2021
1347 Mist 3 1015 87 4023 2.57 120 16:57 17.03.2021
1348 Mist 2 1015 87 4023 2.57 120 16:38 17.03.2021
1349 Mist 2 1015 87 4023 2.57 120 16:19 17.03.2021
1350 Mist 2 1016 80 4023 2.06 50 15:41 17.03.2021
1351 Clouds 1 1017 80 10000 5.66 140 14:57 17.03.2021
1352 Clouds 1 1017 80 10000 5.66 140 14:36 17.03.2021
1353 Clouds 1 1017 80 10000 5.66 140 14:18 17.03.2021
1354 Clouds 1 1017 80 10000 5.66 140 14:18 17.03.2021
1355 Clouds 1 1017 80 10000 3.6 120 13:52 17.03.2021
1356 Clouds 1 1017 80 10000 3.6 120 13:22 17.03.2021
1357 Clouds 1 1017 80 10000 5.14 110 12:36 17.03.2021
1358 Clouds 1 1017 80 10000 5.14 110 12:18 17.03.2021
1359 Clouds 1 1018 80 10000 4.63 90 11:38 17.03.2021
1360 Clouds 1 1018 80 10000 4.63 90 11:20 17.03.2021
1361 Clouds 1 1018 80 10000 3.09 90 10:40 17.03.2021
1362 Clouds 1 1018 80 10000 3.09 90 10:19 17.03.2021
1363 Clouds 1 1018 75 10000 4.12 80 09:42 17.03.2021
1364 Clouds 1 1018 75 10000 4.12 80 09:20 17.03.2021
1365 Clouds 1 1019 75 10000 3.09 80 08:45 17.03.2021
1366 Clouds 1 1019 75 10000 3.09 80 08:25 17.03.2021
1367 Clouds 1 1019 69 10000 2.57 70 07:38 17.03.2021
1368 Clouds 1 1019 69 10000 3.09 100 06:48 17.03.2021
1369 Clouds 1 1018 69 10000 5.66 70 05:28 17.03.2021
1370 Clouds 2 1018 75 10000 3.6 90 03:31 17.03.2021
1371 Clouds 2 1017 75 10000 3.09 80 01:19 17.03.2021
1372 Clouds 2 1017 70 10000 4.12 40 00:33 17.03.2021
1373 Clouds 3 1017 75 10000 3.6 50 23:26 16.03.2021
1374 Clouds 3 1017 75 10000 2.57 20 22:44 16.03.2021
1375 Clouds 3 1017 75 10000 2.57 20 22:26 16.03.2021
1376 Clouds 3 1016 75 10000 3.6 30 21:44 16.03.2021
1377 Clouds 3 1016 75 10000 3.6 30 21:25 16.03.2021
1378 Clouds 3 1017 75 10000 4.12 30 20:56 16.03.2021
1379 Clouds 3 1017 75 10000 4.12 30 20:19 16.03.2021
1380 Clouds 3 1016 75 10000 3.6 20 19:48 16.03.2021
1381 Clouds 2 1016 75 10000 3.6 20 19:28 16.03.2021
1382 Clouds 3 1016 75 10000 2.06 20 18:56 16.03.2021
1383 Clouds 3 1016 75 10000 2.06 20 18:36 16.03.2021
1384 Clouds 3 1016 80 10000 3.6 30 17:55 16.03.2021
1385 Clouds 3 1016 80 10000 3.6 30 17:36 16.03.2021
1386 Clouds 2 1015 80 10000 2.06 30 16:58 16.03.2021
1387 Clouds 2 1015 80 10000 2.06 30 16:38 16.03.2021
1388 Clouds 2 1015 80 10000 2.06 30 16:19 16.03.2021
1389 Mist 2 1015 86 9656 3.09 30 15:40 16.03.2021
1390 Mist 2 1015 86 9656 3.09 30 15:19 16.03.2021
1391 Mist 1 1014 86 9656 3.09 40 14:56 16.03.2021
1392 Mist 1 1014 86 9656 3.09 40 14:37 16.03.2021
1393 Mist 1 1014 86 3219 3.09 20 14:18 16.03.2021
1394 Mist 1 1014 93 2012 2.06 60 13:41 16.03.2021
1395 Mist 1 1014 93 2012 2.06 60 13:19 16.03.2021
1396 Clouds 1 1014 94 10000 0.45 45 12:40 16.03.2021
1397 Mist 1 1014 86 2816 1.54 30 12:19 16.03.2021
1398 Mist 1 1014 86 2816 1.54 30 11:35 16.03.2021
1399 Mist 1 1014 86 4023 1.54 110 10:53 16.03.2021
1400 Mist 1 1014 86 4023 1.54 110 10:53 16.03.2021
1401 Mist 1 1014 86 4023 1.54 110 10:22 16.03.2021
1402 Mist 1 1013 86 4023 2.06 90 09:41 16.03.2021
1403 Mist 1 1013 86 4023 2.06 90 09:21 16.03.2021
1404 Drizzle 1 1014 86 3219 2.57 50 08:57 16.03.2021
1405 Mist 1 1014 86 3219 2.57 50 08:39 16.03.2021
1406 Drizzle 1 1014 86 4023 2.57 120 07:57 16.03.2021
1407 Mist 1 1014 86 4023 2.57 120 07:29 16.03.2021
1408 Drizzle 1 1014 86 4023 2.57 120 06:38 16.03.2021
1409 Drizzle 1 1015 80 4023 3.6 130 05:37 16.03.2021
1410 Drizzle 0 1015 86 3219 3.09 100 04:28 16.03.2021
1411 Mist 0 1016 80 3219 4.12 110 02:29 16.03.2021
1412 Drizzle 0 1016 75 4023 5.66 100 01:23 16.03.2021
1413 Snow 0 1021 83 10000 0.45 165 23:54 15.03.2021
1414 Snow 0 1017 69 8047 6.69 110 23:27 15.03.2021
1415 Snow 0 1018 74 6437 7.2 100 22:49 15.03.2021
1416 Rain 0 1018 74 6437 7.2 100 22:29 15.03.2021
1417 Snow -1 1019 80 8047 9.26 100 21:52 15.03.2021
1418 Snow -1 1019 80 8047 9.26 100 21:32 15.03.2021
1419 Snow -1 1019 86 4828 8.23 100 20:56 15.03.2021
1420 Snow -1 1020 86 1609 8.23 90 20:37 15.03.2021
1421 Snow -2 1021 80 805 8.23 100 20:19 15.03.2021
1422 Snow -2 1026 86 8477 9.63 109 19:48 15.03.2021
1423 Snow -1 1024 80 805 8.23 110 19:30 15.03.2021
1424 Snow 1 1023 51 805 8.23 100 18:48 15.03.2021
1425 Snow 1 1025 38 10000 4.63 90 18:23 15.03.2021
1426 Clouds 1 1022 37 10000 8.23 90 17:55 15.03.2021
1427 Clouds 1 1022 37 10000 8.23 90 17:29 15.03.2021
1428 Clouds 1 1023 37 10000 9.77 100 16:50 15.03.2021
1429 Clouds 0 1023 37 10000 9.77 100 16:31 15.03.2021
1430 Clouds 0 1024 47 10000 9.26 100 15:45 15.03.2021
1431 Clouds 0 1024 47 10000 9.26 100 15:25 15.03.2021
1432 Clouds 0 1024 40 10000 11.32 100 14:43 15.03.2021
1433 Clouds 0 1024 40 10000 11.32 100 14:22 15.03.2021
1434 Clouds 0 1025 55 10000 10.29 100 13:46 15.03.2021
1435 Clouds 0 1025 55 10000 10.29 100 13:46 15.03.2021
1436 Clouds 1 1025 55 10000 10.29 100 13:24 15.03.2021
1437 Clouds 1 1025 61 10000 3.58 123 12:47 15.03.2021
1438 Clouds 1 1025 51 10000 8.75 100 12:19 15.03.2021
1439 Clouds 1 1026 51 10000 10.29 100 11:48 15.03.2021
1440 Clouds 2 1026 51 10000 10.29 100 11:30 15.03.2021
1441 Clouds 2 1026 48 10000 10.29 100 10:49 15.03.2021
1442 Clouds 2 1026 48 10000 10.29 100 10:30 15.03.2021
1443 Clouds 3 1032 61 10000 0.89 93 09:52 15.03.2021
1444 Clouds 3 1031 60 10000 1.34 319 09:33 15.03.2021
1445 Clouds 3 1027 48 10000 8.23 100 08:52 15.03.2021
1446 Clouds 4 1027 48 10000 8.23 100 08:30 15.03.2021
1447 Clouds 4 1028 48 10000 7.2 100 07:53 15.03.2021
1448 Clouds 4 1028 48 10000 7.2 100 07:32 15.03.2021
1449 Clouds 4 1027 45 10000 6.69 80 06:40 15.03.2021
1450 Clouds 4 1028 56 10000 6.69 80 05:32 15.03.2021
1451 Clouds 3 1028 65 10000 9.26 30 01:31 15.03.2021
1452 Clouds 3 1033 72 10000 7.39 36 23:56 14.03.2021
1453 Clouds 3 1028 60 10000 8.75 20 23:20 14.03.2021
1454 Clouds 4 1033 70 10000 7.59 33 22:46 14.03.2021
1455 Clouds 4 1033 66 10000 8.2 31 22:23 14.03.2021
1456 Clouds 4 1033 61 10000 8.2 31 21:45 14.03.2021
1457 Clouds 5 1033 59 10000 7.75 31 21:19 14.03.2021
1458 Clouds 5 1029 36 10000 9.26 40 20:43 14.03.2021
1459 Clouds 6 1029 36 10000 9.26 40 20:25 14.03.2021
1460 Clouds 6 1029 39 10000 7.72 40 19:43 14.03.2021
1461 Clouds 6 1029 39 10000 7.72 40 19:23 14.03.2021
1462 Clouds 6 1033 62 10000 7.63 42 18:48 14.03.2021
1463 Clouds 6 1034 59 10000 6.67 37 18:22 14.03.2021
1464 Clouds 6 1029 42 10000 9.77 30 17:40 14.03.2021
1465 Clouds 6 1029 42 10000 9.77 30 17:22 14.03.2021
1466 Clouds 6 1029 42 10000 8.23 40 16:46 14.03.2021
1467 Clouds 6 1029 42 10000 8.23 40 16:26 14.03.2021
1468 Clouds 6 1029 45 10000 7.72 30 15:52 14.03.2021
1469 Clouds 6 1029 45 10000 7.72 30 15:33 14.03.2021
1470 Clouds 6 1032 65 10000 6.6 30 14:41 14.03.2021
1471 Clouds 6 1031 63 10000 5.24 18 14:20 14.03.2021
1472 Clouds 6 1026 52 10000 4.12 360 13:49 14.03.2021
1473 Clouds 6 1026 52 10000 4.12 360 13:28 14.03.2021
1474 Clouds 6 1026 56 10000 1.54 300 12:45 14.03.2021
1475 Clouds 6 1026 56 10000 1.54 300 12:27 14.03.2021
1476 Clouds 6 1026 52 10000 2.57 250 11:47 14.03.2021
1477 Clouds 7 1026 52 10000 2.57 250 11:29 14.03.2021
1478 Clouds 6 1025 56 10000 2.06 280 10:56 14.03.2021
1479 Clouds 6 1025 56 10000 2.06 280 10:36 14.03.2021
1480 Clouds 6 1025 56 10000 2.06 280 10:18 14.03.2021
1481 Clouds 6 1025 52 10000 2.06 260 09:42 14.03.2021
1482 Clouds 7 1025 52 10000 2.06 260 09:21 14.03.2021
1483 Clouds 7 1026 49 10000 3.09 250 08:41 14.03.2021
1484 Clouds 7 1026 49 10000 3.09 250 08:18 14.03.2021
1485 Clouds 8 1026 49 10000 3.6 250 07:35 14.03.2021
1486 Clouds 8 1026 49 10000 3.6 250 07:35 14.03.2021
1487 Clouds 9 1026 46 10000 2.57 270 06:41 14.03.2021
1488 Clouds 11 1027 35 10000 2.57 260 02:21 14.03.2021
1489 Clouds 13 1027 24 10000 4.63 250 00:50 14.03.2021
1490 Clouds 14 1027 24 10000 4.63 250 00:19 14.03.2021
1491 Clouds 15 1027 23 10000 3.09 310 23:42 13.03.2021
1492 Clouds 15 1027 23 10000 3.09 310 23:24 13.03.2021
1493 Clouds 14 1027 23 10000 1.54 0 22:50 13.03.2021
1494 Clouds 14 1027 23 10000 1.54 0 22:25 13.03.2021
1495 Clouds 13 1028 23 10000 2.06 280 21:41 13.03.2021
1496 Clouds 14 1028 23 10000 2.06 280 21:20 13.03.2021
1497 Clouds 13 1029 24 10000 1.54 0 20:49 13.03.2021
1498 Clouds 13 1029 24 10000 1.54 0 20:30 13.03.2021
1499 Clouds 13 1029 24 10000 1.54 0 20:30 13.03.2021
1500 Clouds 13 1030 24 10000 1.16 199 19:47 13.03.2021
1501 Clouds 12 1030 24 10000 1.76 199 19:29 13.03.2021
1502 Clouds 11 1031 27 10000 1.35 205 18:43 13.03.2021
1503 Clouds 10 1031 27 10000 1.75 203 18:22 13.03.2021
1504 Clouds 9 1032 31 10000 2.06 210 17:56 13.03.2021
1505 Clouds 9 1032 31 10000 2.06 210 17:35 13.03.2021
1506 Clouds 8 1033 33 10000 1.34 252 16:59 13.03.2021
1507 Clouds 8 1036 33 10000 1.55 203 16:39 13.03.2021
1508 Clouds 6 1036 42 10000 1.57 198 15:58 13.03.2021
1509 Clouds 5 1032 41 10000 3.09 170 15:22 13.03.2021
1510 Clear 4 1036 56 10000 1.23 178 14:46 13.03.2021
1511 Clouds 3 1032 55 10000 0.98 169 14:25 13.03.2021
1512 Clouds 1 1032 60 10000 1.54 120 13:45 13.03.2021
1513 Clouds 2 1032 60 10000 1.54 120 13:21 13.03.2021
1514 Clouds 1 1032 60 10000 1.19 171 12:42 13.03.2021
1515 Clouds 1 1032 60 10000 1.65 153 12:18 13.03.2021
1516 Clouds 2 1032 55 10000 1.65 153 11:42 13.03.2021
1517 Clouds 2 1032 55 10000 1.87 111 11:24 13.03.2021
1518 Clouds 2 1031 64 10000 2.06 90 10:49 13.03.2021
1519 Clouds 2 1031 64 10000 2.06 90 10:25 13.03.2021
1520 Clouds 2 1032 75 10000 2.06 110 09:38 13.03.2021
1521 Clouds 2 1032 65 10000 3.09 80 08:58 13.03.2021
1522 Clouds 2 1032 65 10000 3.09 80 08:39 13.03.2021
1523 Clouds 2 1032 65 10000 3.09 80 08:19 13.03.2021
1524 Clouds 2 1032 65 10000 2.57 110 07:39 13.03.2021
1525 Clouds 3 1031 56 10000 4.12 80 05:45 13.03.2021
1526 Clouds 5 1031 49 10000 4.12 80 02:43 13.03.2021
1527 Clouds 7 1030 43 10000 2.57 100 00:44 13.03.2021
1528 Clouds 8 1030 43 10000 3.09 100 23:51 12.03.2021
1529 Clouds 8 1030 43 10000 3.09 100 23:32 12.03.2021
1530 Clouds 9 1030 43 10000 2.57 110 22:42 12.03.2021
1531 Clouds 8 1030 43 10000 2.57 110 22:23 12.03.2021
1532 Clouds 8 1030 43 10000 3.6 110 21:42 12.03.2021
1533 Clouds 9 1030 43 10000 3.6 110 21:21 12.03.2021
1534 Clouds 9 1031 37 10000 3.6 50 20:55 12.03.2021
1535 Clouds 10 1031 37 10000 3.6 50 20:32 12.03.2021
1536 Clouds 10 1031 32 10000 3.6 10 19:55 12.03.2021
1537 Clouds 10 1031 32 10000 3.6 10 19:36 12.03.2021
1538 Clouds 9 1031 37 10000 3.6 320 18:59 12.03.2021
1539 Clouds 9 1031 37 10000 3.6 320 18:35 12.03.2021
1540 Clouds 9 1031 40 10000 2.57 330 17:49 12.03.2021
1541 Clouds 9 1031 40 10000 2.57 330 17:30 12.03.2021
1542 Clouds 8 1030 45 10000 4.12 320 16:55 12.03.2021
1543 Clouds 8 1034 49 10000 3.23 351 16:34 12.03.2021
1544 Clouds 7 1029 52 10000 6.17 340 15:51 12.03.2021
1545 Clouds 6 1029 52 10000 6.17 340 15:25 12.03.2021
1546 Clouds 5 1032 58 10000 3.95 336 14:47 12.03.2021
1547 Clear 4 1032 59 10000 4.15 329 14:20 12.03.2021
1548 Clouds 4 1028 65 10000 2.57 320 13:42 12.03.2021
1549 Clouds 4 1028 65 10000 2.57 320 13:21 12.03.2021
1550 Clouds 4 1028 70 10000 2.57 290 12:56 12.03.2021
1551 Clouds 4 1028 70 10000 2.57 290 12:36 12.03.2021
1552 Clouds 4 1028 70 10000 2.57 290 12:18 12.03.2021
1553 Clouds 4 1027 70 10000 2.57 270 11:47 12.03.2021
1554 Clouds 4 1027 70 10000 2.57 270 11:19 12.03.2021
1555 Clouds 4 1026 70 10000 2.57 280 10:45 12.03.2021
1556 Clouds 4 1026 70 10000 2.57 280 10:22 12.03.2021
1557 Clouds 5 1026 65 10000 2.57 280 09:37 12.03.2021
1558 Clouds 5 1026 65 10000 2.57 280 09:19 12.03.2021
1559 Clouds 5 1025 65 10000 3.09 280 08:39 12.03.2021
1560 Clear 6 1025 65 10000 3.09 270 07:41 12.03.2021
1561 Clear 6 1025 65 10000 3.09 270 07:21 12.03.2021
1562 Clear 7 1025 61 10000 4.12 260 06:42 12.03.2021
1563 Clear 7 1024 61 10000 3.6 260 05:52 12.03.2021
1564 Clear 11 1023 52 10000 4.57 296 00:55 12.03.2021
1565 Clouds 12 1019 44 10000 5.66 280 23:56 11.03.2021
1566 Clouds 13 1019 41 10000 7.72 280 22:59 11.03.2021
1567 Clouds 13 1019 41 10000 7.72 280 22:59 11.03.2021
1568 Clouds 13 1019 41 10000 7.72 280 22:59 11.03.2021
1569 Clouds 13 1019 41 10000 7.72 280 22:39 11.03.2021
1570 Clouds 13 1019 41 10000 7.72 280 22:19 11.03.2021
1571 Clouds 13 1018 41 10000 9.26 280 21:46 11.03.2021
1572 Clouds 13 1018 41 10000 9.26 280 21:24 11.03.2021
1573 Clouds 12 1018 47 10000 8.23 270 20:49 11.03.2021
1574 Clouds 12 1018 47 10000 8.23 270 20:22 11.03.2021
1575 Clouds 12 1018 47 10000 8.75 270 19:54 11.03.2021
1576 Clouds 12 1018 47 10000 8.75 270 19:36 11.03.2021
1577 Clouds 11 1017 50 10000 8.75 270 18:53 11.03.2021
1578 Clouds 11 1017 50 10000 8.75 270 18:35 11.03.2021
1579 Clouds 10 1016 50 10000 7.72 260 17:53 11.03.2021
1580 Clouds 10 1016 50 10000 7.72 260 17:35 11.03.2021
1581 Clouds 9 1016 57 10000 9.26 260 16:37 11.03.2021
1582 Clouds 9 1016 57 10000 9.26 260 16:19 11.03.2021
1583 Clear 8 1018 65 10000 6.76 260 15:39 11.03.2021
1584 Clouds 8 1015 57 10000 6.17 260 15:20 11.03.2021
1585 Clouds 8 1014 57 10000 8.23 270 14:44 11.03.2021
1586 Clouds 9 1014 57 10000 8.23 270 14:18 11.03.2021
1587 Clouds 10 1013 62 10000 7.2 260 13:45 11.03.2021
1588 Clouds 10 1013 67 10000 3.13 280 13:22 11.03.2021
1589 Clouds 11 1013 78 10000 3.58 282 12:54 11.03.2021
1590 Clouds 13 1012 67 10000 8.23 250 12:29 11.03.2021
1591 Clouds 14 1011 77 10000 5.66 230 11:47 11.03.2021
1592 Clouds 14 1011 77 10000 5.66 230 11:29 11.03.2021
1593 Clouds 14 1011 77 10000 6.69 220 10:55 11.03.2021
1594 Clouds 14 1011 77 10000 6.69 220 10:25 11.03.2021
1595 Clouds 15 1011 72 10000 7.2 240 09:50 11.03.2021
1596 Clouds 15 1011 72 10000 7.2 240 09:32 11.03.2021
1597 Clouds 16 1010 63 10000 11.32 220 08:50 11.03.2021
1598 Clouds 18 1010 63 10000 11.32 220 08:31 11.03.2021
1599 Clouds 18 1010 63 10000 10.29 220 07:47 11.03.2021
1600 Clouds 18 1010 68 10000 9.77 210 07:20 11.03.2021
1601 Clouds 17 1009 72 10000 11.32 210 06:40 11.03.2021
1602 Clouds 17 1009 72 10000 11.32 210 06:21 11.03.2021
1603 Clouds 17 1012 72 10000 3.58 35 02:25 11.03.2021
1604 Clouds 18 1010 59 10000 11.83 200 00:26 11.03.2021
1605 Clouds 19 1010 55 10000 9.26 190 23:23 10.03.2021
1606 Clouds 20 1011 49 10000 9.77 210 22:42 10.03.2021
1607 Clouds 20 1011 49 10000 9.77 210 22:42 10.03.2021
1608 Clouds 20 1011 49 10000 9.77 210 22:41 10.03.2021
1609 Clouds 20 1011 49 10000 9.77 210 22:41 10.03.2021
1610 Clouds 20 1011 49 10000 9.77 210 22:41 10.03.2021
1611 Clouds 20 1011 49 10000 9.77 210 22:41 10.03.2021
1612 Clouds 20 1011 49 10000 9.77 210 22:41 10.03.2021
1613 Clouds 20 1011 49 10000 9.77 210 22:41 10.03.2021
1614 Clouds 20 1011 49 10000 9.77 210 22:41 10.03.2021
1615 Clouds 19 1011 48 10000 9.26 200 21:58 10.03.2021
1616 Clouds 19 1011 48 10000 9.26 200 21:39 10.03.2021
1617 Clouds 19 1011 48 10000 9.26 200 21:20 10.03.2021
1618 Clouds 19 1012 45 10000 9.26 200 20:42 10.03.2021
1619 Clouds 19 1012 45 10000 9.26 200 20:24 10.03.2021
1620 Clouds 19 1012 45 10000 9.26 200 20:24 10.03.2021
1621 Clouds 18 1013 48 10000 9.77 200 19:41 10.03.2021
1622 Clouds 17 1013 48 10000 9.77 200 19:21 10.03.2021
1623 Clouds 16 1014 47 10000 7.72 200 18:44 10.03.2021
1624 Clouds 15 1014 47 10000 7.72 200 18:23 10.03.2021
1625 Clouds 14 1015 51 10000 9.26 200 17:43 10.03.2021
1626 Clouds 14 1015 51 10000 9.26 200 17:21 10.03.2021
1627 Clouds 15 1015 51 10000 8.23 200 16:55 10.03.2021
1628 Clouds 15 1015 51 10000 8.23 200 16:37 10.03.2021
1629 Clouds 14 1015 51 10000 8.23 200 16:18 10.03.2021
1630 Rain 14 1016 47 10000 7.72 200 15:40 10.03.2021
1631 Rain 14 1016 47 10000 7.72 200 15:21 10.03.2021
1632 Clouds 14 1016 50 10000 7.72 200 14:40 10.03.2021
1633 Clouds 13 1016 50 10000 7.72 200 14:19 10.03.2021
1634 Clouds 13 1016 50 10000 6.69 200 13:43 10.03.2021
1635 Clouds 13 1016 50 10000 6.69 200 13:18 10.03.2021
1636 Clouds 13 1017 55 10000 3.13 219 12:41 10.03.2021
1637 Clouds 14 1017 51 10000 5.66 210 11:59 10.03.2021
1638 Clouds 14 1017 51 10000 5.66 210 11:31 10.03.2021
1639 Clouds 13 1017 54 10000 6.69 210 10:57 10.03.2021
1640 Clouds 13 1017 54 10000 6.69 210 10:34 10.03.2021
1641 Clouds 13 1017 51 10000 8.23 200 09:58 10.03.2021
1642 Clouds 14 1017 51 10000 8.23 200 09:40 10.03.2021
1643 Clouds 14 1017 51 10000 8.23 200 09:20 10.03.2021
1644 Clouds 14 1018 51 10000 6.69 200 08:46 10.03.2021
1645 Clouds 14 1018 51 10000 6.69 200 08:28 10.03.2021
1646 Clouds 14 1018 51 10000 6.69 190 07:48 10.03.2021
1647 Clouds 14 1018 51 10000 6.69 190 07:29 10.03.2021
1648 Clouds 14 1018 51 10000 6.69 190 07:29 10.03.2021
1649 Clouds 14 1018 51 10000 7.72 190 06:52 10.03.2021
1650 Clouds 16 1019 39 10000 6.69 180 03:29 10.03.2021
1651 Clouds 18 1019 24 10000 8.23 190 00:42 10.03.2021
1652 Clouds 19 1020 26 10000 8.23 200 23:47 09.03.2021
1653 Clouds 20 1021 24 10000 7.72 180 22:58 09.03.2021
1654 Clouds 20 1021 24 10000 7.72 180 22:38 09.03.2021
1655 Clouds 20 1021 24 10000 7.72 180 22:18 09.03.2021
1656 Clouds 20 1021 24 10000 9.26 200 21:44 09.03.2021
1657 Clouds 20 1021 24 10000 9.26 200 21:24 09.03.2021
1658 Clouds 20 1023 30 10000 7.2 180 20:56 09.03.2021
1659 Clouds 19 1023 30 10000 7.2 180 20:37 09.03.2021
1660 Clouds 19 1023 30 10000 7.2 180 20:19 09.03.2021
1661 Clouds 18 1024 34 10000 4.63 160 19:43 09.03.2021
1662 Clouds 17 1024 34 10000 4.63 160 19:25 09.03.2021
1663 Clouds 15 1025 41 10000 3.6 200 18:42 09.03.2021
1664 Clouds 14 1025 41 10000 3.6 200 18:20 09.03.2021
1665 Clouds 14 1025 47 10000 3.6 180 17:47 09.03.2021
1666 Clouds 13 1025 47 10000 3.6 180 17:27 09.03.2021
1667 Clouds 11 1026 53 10000 3.6 200 16:41 09.03.2021
1668 Clouds 10 1026 53 10000 3.6 200 16:22 09.03.2021
1669 Clouds 9 1025 61 10000 2.57 170 15:56 09.03.2021
1670 Clouds 9 1025 61 10000 2.57 170 15:28 09.03.2021
1671 Clouds 8 1025 65 10000 2.06 140 14:52 09.03.2021
1672 Clouds 8 1025 65 10000 2.06 140 14:26 09.03.2021
1673 Clouds 6 1026 61 10000 1.54 110 13:43 09.03.2021
1674 Clouds 7 1026 61 10000 1.54 110 13:21 09.03.2021
1675 Clouds 6 1025 61 10000 2.06 160 12:54 09.03.2021
1676 Clouds 6 1025 61 10000 2.06 160 12:54 09.03.2021
1677 Clouds 7 1025 61 10000 2.06 160 12:36 09.03.2021
1678 Clouds 7 1025 57 10000 1.33 166 11:45 09.03.2021
1679 Clouds 7 1025 57 10000 1.04 174 11:23 09.03.2021
1680 Clouds 7 1025 57 10000 2.06 210 10:59 09.03.2021
1681 Clouds 7 1025 57 10000 2.06 210 10:39 09.03.2021
1682 Clouds 8 1025 57 10000 2.06 210 10:21 09.03.2021
1683 Clouds 8 1025 57 10000 2.57 210 09:47 09.03.2021
1684 Clouds 8 1025 57 10000 2.57 210 09:27 09.03.2021
1685 Clouds 8 1026 57 10000 3.09 210 08:57 09.03.2021
1686 Clouds 8 1026 57 10000 3.09 210 08:33 09.03.2021
1687 Clouds 8 1026 62 10000 2.57 200 07:47 09.03.2021
1688 Clouds 8 1026 62 10000 2.57 200 07:27 09.03.2021
1689 Clouds 8 1026 58 10000 2.57 190 06:55 09.03.2021
1690 Clouds 8 1026 58 10000 2.06 200 05:53 09.03.2021
1691 Clouds 14 1025 39 10000 3.09 270 01:42 09.03.2021
1692 Clouds 17 1024 36 10000 6.69 280 23:58 08.03.2021
1693 Clouds 17 1024 36 10000 6.69 280 23:39 08.03.2021
1694 Clouds 17 1024 36 10000 6.69 280 23:18 08.03.2021
1695 Clouds 17 1024 34 10000 6.17 290 22:40 08.03.2021
1696 Clouds 18 1024 34 10000 6.17 290 22:21 08.03.2021
1697 Clouds 18 1024 34 10000 8.23 270 21:48 08.03.2021
1698 Clouds 17 1024 34 10000 8.23 270 21:29 08.03.2021
1699 Clouds 17 1024 32 10000 9.26 260 20:40 08.03.2021
1700 Clouds 18 1024 32 10000 9.26 260 20:21 08.03.2021
1701 Clouds 17 1025 34 10000 8.75 270 19:45 08.03.2021
1702 Clouds 16 1025 34 10000 8.75 270 19:20 08.03.2021
1703 Clouds 16 1025 33 10000 8.23 250 18:37 08.03.2021
1704 Clouds 15 1025 33 10000 8.23 250 18:19 08.03.2021
1705 Clouds 14 1025 35 10000 7.72 240 17:43 08.03.2021
1706 Clouds 13 1025 35 10000 7.72 240 17:22 08.03.2021
1707 Clouds 13 1025 40 10000 6.17 220 16:42 08.03.2021
1708 Clouds 11 1025 40 10000 6.17 220 16:22 08.03.2021
1709 Clouds 10 1025 53 10000 5.14 220 15:41 08.03.2021
1710 Clouds 9 1025 53 10000 5.14 220 15:22 08.03.2021
1711 Clouds 6 1025 61 10000 5.66 220 14:21 08.03.2021
1712 Clouds 6 1025 61 10000 5.14 210 13:54 08.03.2021
1713 Clouds 6 1025 61 10000 5.14 210 13:23 08.03.2021
1714 Clouds 6 1025 61 10000 5.14 210 12:56 08.03.2021
1715 Clouds 6 1025 61 10000 5.14 210 12:35 08.03.2021
1716 Clouds 7 1025 53 10000 5.66 210 11:50 08.03.2021
1717 Clouds 7 1025 53 10000 5.66 210 11:30 08.03.2021
1718 Clouds 7 1025 53 10000 5.66 200 10:57 08.03.2021
1719 Clouds 7 1025 53 10000 5.66 200 10:39 08.03.2021
1720 Clouds 7 1025 53 10000 5.66 200 10:18 08.03.2021
1721 Clouds 7 1026 53 10000 5.66 210 09:27 08.03.2021
1722 Clouds 8 1026 49 10000 5.14 210 08:52 08.03.2021
1723 Clouds 8 1026 49 10000 5.14 210 08:25 08.03.2021
1724 Clouds 8 1026 49 10000 4.63 200 07:21 08.03.2021
1725 Clouds 8 1027 46 10000 4.63 190 05:42 08.03.2021
1726 Clouds 8 1027 43 10000 2.57 170 02:24 08.03.2021
1727 Clouds 7 1031 56 10000 4.14 174 00:42 08.03.2021
1728 Clouds 8 1027 35 10000 5.14 180 23:53 07.03.2021
1729 Clouds 9 1027 35 10000 5.14 180 23:22 07.03.2021
1730 Clouds 8 1028 34 10000 5.14 180 22:48 07.03.2021
1731 Clouds 8 1028 34 10000 5.14 180 22:28 07.03.2021
1732 Clouds 8 1028 31 10000 4.12 180 21:53 07.03.2021
1733 Clouds 8 1028 31 10000 4.12 180 21:33 07.03.2021
1734 Clouds 8 1029 31 10000 4.12 160 20:59 07.03.2021
1735 Clouds 8 1029 31 10000 4.12 160 20:40 07.03.2021
1736 Clouds 7 1029 31 10000 4.12 160 20:19 07.03.2021
1737 Clouds 7 1029 31 10000 4.12 160 20:19 07.03.2021
1738 Clouds 6 1030 33 10000 4.63 160 19:40 07.03.2021
1739 Clouds 6 1030 33 10000 4.63 160 19:22 07.03.2021
1740 Clouds 6 1031 36 10000 3.09 150 18:54 07.03.2021
1741 Clouds 6 1031 36 10000 3.09 150 18:21 07.03.2021
1742 Clear 5 1035 43 10000 2.95 163 17:59 07.03.2021
1743 Clear 5 1035 44 10000 2.95 163 17:39 07.03.2021
1744 Clouds 4 1031 41 10000 3.09 180 17:19 07.03.2021
1745 Clear 3 1035 48 10000 3.13 167 16:43 07.03.2021
1746 Clouds 2 1031 48 10000 4.12 170 16:21 07.03.2021
1747 Clear 2 1035 52 10000 3.28 166 15:51 07.03.2021
1748 Clouds 1 1030 64 10000 3.6 170 15:31 07.03.2021
1749 Clear 0 1034 61 10000 3.32 160 14:56 07.03.2021
1750 Clouds -1 1030 74 10000 2.06 150 14:29 07.03.2021
1751 Clear -1 1030 73 10000 0.89 196 13:51 07.03.2021
1752 Clouds -2 1030 80 10000 2.98 133 13:29 07.03.2021
1753 Clouds -1 1029 74 10000 2.98 133 12:50 07.03.2021
1754 Clouds -1 1029 74 10000 2.77 127 12:32 07.03.2021
1755 Clear -1 1029 80 10000 1.54 170 11:58 07.03.2021
1756 Clear -1 1029 80 10000 1.54 170 11:23 07.03.2021
1757 Clear -1 1028 80 10000 2.57 90 10:54 07.03.2021
1758 Clear -1 1028 80 10000 2.57 90 10:36 07.03.2021
1759 Clear 0 1028 74 10000 2.41 111 09:53 07.03.2021
1760 Clear 0 1028 74 10000 1.7 100 09:27 07.03.2021
1761 Clear 0 1027 74 10000 1.7 100 08:57 07.03.2021
1762 Clear -1 1027 74 10000 1.7 100 08:38 07.03.2021
1763 Clear -1 1027 74 10000 1.74 93 08:20 07.03.2021
1764 Clear 1 1027 69 10000 1.62 50 05:26 07.03.2021
1765 Clear 2 1027 64 10000 3.09 90 02:33 07.03.2021
1766 Clear 3 1026 52 10000 3.09 90 00:33 07.03.2021
1767 Clear 4 1026 49 10000 4.12 70 23:40 06.03.2021
1768 Clear 4 1026 49 10000 4.12 70 23:20 06.03.2021
1769 Clouds 5 1026 49 10000 5.14 70 22:45 06.03.2021
1770 Clouds 5 1026 49 10000 5.14 70 22:21 06.03.2021
1771 Clouds 5 1026 39 10000 4.12 80 21:41 06.03.2021
1772 Clouds 5 1026 39 10000 4.12 80 21:41 06.03.2021
1773 Clouds 5 1026 39 10000 4.12 80 21:20 06.03.2021
1774 Clouds 5 1027 39 10000 5.14 60 20:41 06.03.2021
1775 Clouds 5 1028 42 10000 1.54 0 19:55 06.03.2021
1776 Clouds 6 1028 42 10000 1.54 0 19:37 06.03.2021
1777 Clouds 6 1028 42 10000 1.54 0 19:18 06.03.2021
1778 Clouds 5 1028 45 10000 2.2 21 18:41 06.03.2021
1779 Clouds 5 1028 45 10000 2.69 29 18:20 06.03.2021
1780 Clouds 5 1028 48 10000 2.06 190 17:48 06.03.2021
1781 Clouds 5 1028 48 10000 2.06 190 17:27 06.03.2021
1782 Clouds 4 1028 56 10000 1.54 0 16:53 06.03.2021
1783 Clouds 4 1028 56 10000 1.54 0 16:31 06.03.2021
1784 Clouds 3 1032 62 10000 2.73 33 15:55 06.03.2021
1785 Clouds 3 1028 64 10000 2.57 190 15:34 06.03.2021
1786 Clouds 1 1028 69 10000 2.57 180 14:57 06.03.2021
1787 Clouds 0 1028 69 10000 2.57 180 14:31 06.03.2021
1788 Clouds 0 1028 69 10000 1.48 321 13:50 06.03.2021
1789 Clouds 0 1028 69 10000 1.88 324 13:32 06.03.2021
1790 Clear 0 1027 64 10000 1.88 324 12:58 06.03.2021
1791 Clear 0 1027 64 10000 1.86 324 12:38 06.03.2021
1792 Clear 0 1027 64 10000 1.83 325 12:18 06.03.2021
1793 Clear -1 1027 69 10000 2.46 333 11:29 06.03.2021
1794 Clouds -1 1027 69 10000 2.46 333 10:59 06.03.2021
1795 Clouds -1 1027 69 10000 2.46 333 10:41 06.03.2021
1796 Clouds 0 1027 64 10000 3.37 338 09:56 06.03.2021
1797 Clouds -1 1027 64 10000 3.54 335 09:24 06.03.2021
1798 Clear 0 1026 64 10000 1.54 250 08:54 06.03.2021
1799 Clear 0 1026 64 10000 1.54 250 08:30 06.03.2021
1800 Clouds 0 1027 60 10000 3.17 333 07:54 06.03.2021
1801 Clouds 0 1027 60 10000 2.31 326 07:22 06.03.2021
1802 Clouds 1 1027 51 10000 2.03 326 05:52 06.03.2021
1803 Clouds 2 1028 48 10000 3.6 50 03:47 06.03.2021
1804 Clouds 3 1027 52 10000 5.14 50 01:33 06.03.2021
1805 Clear 3 1031 70 10000 2.62 336 00:46 06.03.2021
1806 Clear 5 1031 57 10000 2.96 339 23:48 05.03.2021
1807 Clouds 6 1026 31 10000 4.12 30 23:19 05.03.2021
1808 Clouds 6 1026 31 10000 4.12 30 23:19 05.03.2021
1809 Clouds 6 1026 27 10000 3.6 360 22:43 05.03.2021
1810 Clouds 6 1026 27 10000 3.6 360 22:21 05.03.2021
1811 Clouds 7 1026 25 10000 7.72 330 21:51 05.03.2021
1812 Clouds 7 1026 25 10000 7.72 330 21:29 05.03.2021
1813 Clouds 8 1027 29 10000 4.12 320 20:50 05.03.2021
1814 Clouds 8 1027 29 10000 4.12 320 20:25 05.03.2021
1815 Clouds 8 1028 31 10000 3.09 320 19:49 05.03.2021
1816 Clouds 8 1028 31 10000 3.09 320 19:25 05.03.2021
1817 Clouds 7 1028 36 10000 3.6 330 18:53 05.03.2021
1818 Clouds 7 1028 36 10000 3.6 330 18:27 05.03.2021
1819 Clouds 5 1029 48 10000 2.06 340 17:56 05.03.2021
1820 Clouds 4 1029 48 10000 2.06 340 17:33 05.03.2021
1821 Clouds 3 1029 64 10000 2.31 327 16:44 05.03.2021
1822 Clouds 2 1029 64 10000 2.46 335 16:24 05.03.2021
1823 Clear 1 1033 70 10000 2.46 335 15:55 05.03.2021
1824 Clouds 0 1029 80 10000 2.18 331 15:28 05.03.2021
1825 Clouds -1 1028 74 10000 2.57 334 14:54 05.03.2021
1826 Clouds -1 1028 74 10000 2.57 334 14:35 05.03.2021
1827 Clear -3 1028 74 10000 1.54 320 13:46 05.03.2021
1828 Clear -3 1028 74 10000 1.54 320 13:21 05.03.2021
1829 Clear -2 1028 74 10000 1.54 320 12:47 05.03.2021
1830 Clear -1 1028 74 10000 2.06 280 11:41 05.03.2021
1831 Clear -1 1032 73 10000 1.97 25 11:21 05.03.2021
1832 Clear -1 1032 72 10000 1.97 25 10:57 05.03.2021
1833 Clear -1 1032 72 10000 1.97 25 10:57 05.03.2021
1834 Clear 0 1028 64 10000 2.06 300 10:37 05.03.2021
1835 Clear 0 1028 64 10000 2.06 300 10:19 05.03.2021
1836 Clear 0 1028 64 10000 2.06 30 09:45 05.03.2021
1837 Clear 0 1028 64 10000 2.06 30 09:26 05.03.2021
1838 Clear 0 1028 64 10000 3.6 40 08:39 05.03.2021
1839 Clear 0 1028 64 10000 3.6 40 08:20 05.03.2021
1840 Clear 0 1027 64 10000 4.12 40 07:36 05.03.2021
1841 Clear -1 1028 64 10000 4.63 40 06:44 05.03.2021
1842 Clear -1 1028 64 10000 4.63 40 06:26 05.03.2021
1843 Clouds -1 1028 64 10000 4.63 10 01:40 05.03.2021
1844 Clear 0 1032 73 10000 6 18 00:19 05.03.2021
1845 Clouds 0 1027 55 10000 6.17 20 23:25 04.03.2021
1846 Clouds 1 1027 55 10000 8.23 30 22:37 04.03.2021
1847 Clouds 1 1027 55 10000 6.69 360 21:56 04.03.2021
1848 Clouds 1 1031 66 10000 0.89 43 21:34 04.03.2021
1849 Clouds 1 1027 52 10000 7.2 10 20:59 04.03.2021
1850 Clouds 1 1027 52 10000 7.2 10 20:59 04.03.2021
1851 Clouds 1 1027 52 10000 7.2 10 20:40 04.03.2021
1852 Clouds 2 1027 52 10000 7.2 10 20:21 04.03.2021
1853 Clouds 2 1027 52 10000 8.75 20 19:53 04.03.2021
1854 Clouds 2 1027 52 10000 8.75 20 19:26 04.03.2021
1855 Clouds 2 1027 55 10000 5.14 40 18:52 04.03.2021
1856 Clouds 2 1027 55 10000 5.14 40 18:30 04.03.2021
1857 Clouds 1 1027 55 10000 6.69 40 17:57 04.03.2021
1858 Clouds 1 1027 55 10000 6.69 40 17:39 04.03.2021
1859 Clouds 1 1027 55 10000 6.69 40 17:18 04.03.2021
1860 Clouds 1 1026 60 10000 7.72 30 16:42 04.03.2021
1861 Clouds 1 1031 69 10000 1.34 212 16:23 04.03.2021
1862 Clouds 1 1026 64 10000 7.72 30 15:45 04.03.2021
1863 Clouds 1 1026 64 10000 7.72 30 15:25 04.03.2021
1864 Clouds 0 1030 77 10000 0.45 217 14:42 04.03.2021
1865 Clouds 0 1025 69 10000 7.72 40 14:18 04.03.2021
1866 Clouds 1 1025 75 10000 4.63 30 13:40 04.03.2021
1867 Clouds 1 1025 75 10000 4.63 30 13:19 04.03.2021
1868 Clouds 1 1025 83 10000 3.13 47 12:42 04.03.2021
1869 Clouds 1 1023 75 10000 6.17 20 11:52 04.03.2021
1870 Clouds 1 1023 75 10000 6.17 20 11:32 04.03.2021
1871 Clouds 1 1027 86 10000 3.8 35 10:58 04.03.2021
1872 Clouds 1 1023 80 10000 5.66 20 10:36 04.03.2021
1873 Clouds 1 1023 80 10000 4.12 20 09:53 04.03.2021
1874 Clouds 2 1022 80 10000 2.57 350 09:28 04.03.2021
1875 Clear 2 1022 80 10000 2.06 20 08:51 04.03.2021
1876 Clear 2 1022 80 10000 2.06 20 08:25 04.03.2021
1877 Clear 2 1021 80 10000 2.06 30 07:37 04.03.2021
1878 Clear 2 1021 80 10000 2.06 30 06:41 04.03.2021
1879 Clear 2 1021 80 10000 2.06 30 06:21 04.03.2021
1880 Clear 4 1023 80 10000 4.02 353 02:39 04.03.2021
1881 Clear 8 1021 60 10000 3.65 1 00:20 04.03.2021
1882 Clear 12 1016 29 10000 4.12 320 22:39 03.03.2021
1883 Clear 11 1016 29 10000 4.12 320 22:20 03.03.2021
1884 Clear 11 1015 31 10000 3.09 320 21:41 03.03.2021
1885 Clear 11 1015 31 10000 3.09 320 21:23 03.03.2021
1886 Clear 12 1015 35 10000 3.6 320 20:54 03.03.2021
1887 Clear 13 1015 35 10000 3.6 320 20:35 03.03.2021
1888 Clear 11 1015 43 10000 2.06 290 19:51 03.03.2021
1889 Clear 11 1015 43 10000 2.06 290 19:30 03.03.2021
1890 Clear 11 1015 46 10000 2.07 333 18:58 03.03.2021
1891 Clear 11 1015 46 10000 2.07 333 18:39 03.03.2021
1892 Clear 8 1015 53 10000 1.54 290 17:58 03.03.2021
1893 Clear 8 1015 53 10000 1.54 290 17:22 03.03.2021
1894 Clear 7 1014 61 10000 4.12 300 16:55 03.03.2021
1895 Clear 6 1014 61 10000 4.12 300 16:27 03.03.2021
1896 Clear 5 1015 67 10000 2.24 326 15:57 03.03.2021
1897 Clear 5 1014 65 10000 2.06 260 15:33 03.03.2021
1898 Clear 3 1013 70 10000 4.12 240 14:50 03.03.2021
1899 Clear 3 1013 70 10000 4.12 240 14:27 03.03.2021
1900 Clear 3 1013 75 10000 4.12 240 13:47 03.03.2021
1901 Clear 3 1013 75 10000 4.12 240 13:28 03.03.2021
1902 Clear 3 1013 75 10000 3.09 220 12:43 03.03.2021
1903 Clear 3 1013 75 10000 3.09 220 12:23 03.03.2021
1904 Clear 3 1013 70 10000 4.12 210 11:45 03.03.2021
1905 Clear 3 1013 70 10000 4.12 210 11:27 03.03.2021
1906 Clear 4 1013 65 10000 5.66 220 10:46 03.03.2021
1907 Clear 4 1013 65 10000 5.66 220 10:22 03.03.2021
1908 Clear 4 1013 65 10000 5.14 220 09:44 03.03.2021
1909 Clear 4 1014 70 10000 5.14 210 08:55 03.03.2021
1910 Clear 4 1014 70 10000 5.14 210 08:37 03.03.2021
1911 Clear 4 1014 70 10000 5.14 210 08:18 03.03.2021
1912 Clear 4 1014 70 10000 5.66 220 07:34 03.03.2021
1913 Clear 4 1015 70 10000 6.17 220 06:45 03.03.2021
1914 Clear 4 1015 70 10000 5.14 210 05:44 03.03.2021
1915 Clear 4 1015 70 10000 5.14 210 04:49 03.03.2021
1916 Clear 4 1015 70 10000 5.14 210 04:24 03.03.2021
1917 Clear 5 1018 56 10000 6.17 210 00:39 03.03.2021
1918 Clouds 6 1019 49 10000 6.17 200 23:44 02.03.2021
1919 Clear 7 1020 42 10000 7.72 210 22:54 02.03.2021
1920 Clear 6 1020 42 10000 7.72 210 22:24 02.03.2021
1921 Clear 6 1021 42 10000 7.2 220 21:59 02.03.2021
1922 Clear 6 1021 42 10000 7.2 220 21:37 02.03.2021
1923 Clear 5 1021 42 10000 7.2 220 21:18 02.03.2021
1924 Clear 5 1022 45 10000 8.23 240 20:41 02.03.2021
1925 Clear 4 1022 45 10000 8.23 240 20:21 02.03.2021
1926 Clear 4 1023 48 10000 8.75 200 19:49 02.03.2021
1927 Clear 3 1023 48 10000 8.75 200 19:30 02.03.2021
1928 Clear 3 1028 49 10000 0.45 215 18:55 02.03.2021
1929 Clear 2 1028 50 10000 5.91 216 18:36 02.03.2021
1930 Clear 1 1024 47 10000 8.23 210 18:18 02.03.2021
1931 Clear 1 1025 51 10000 7.72 190 17:40 02.03.2021
1932 Clear 0 1025 51 10000 7.72 190 17:20 02.03.2021
1933 Clear -1 1026 47 10000 7.72 190 16:47 02.03.2021
1934 Clear -1 1030 50 10000 5.59 205 15:55 02.03.2021
1935 Clear -2 1030 51 10000 0.45 12 15:27 02.03.2021
1936 Clouds -3 1026 63 10000 1.54 200 14:53 02.03.2021
1937 Clouds -4 1026 63 10000 1.54 200 14:20 02.03.2021
1938 Clouds -4 1027 58 10000 2.06 200 13:47 02.03.2021
1939 Clouds -5 1027 58 10000 2.06 200 13:26 02.03.2021
1940 Clear -5 1027 58 10000 1.54 200 12:50 02.03.2021
1941 Clear -5 1027 58 10000 1.54 200 12:26 02.03.2021
1942 Clear -5 1027 58 10000 1.54 220 11:52 02.03.2021
1943 Clear -5 1027 58 10000 1.54 220 11:25 02.03.2021
1944 Clear -5 1028 58 10000 1.82 190 10:54 02.03.2021
1945 Clear -4 1028 58 10000 0.79 172 10:30 02.03.2021
1946 Clear -4 1029 54 10000 0.79 172 09:44 02.03.2021
1947 Clear -4 1029 54 10000 0.33 20 09:24 02.03.2021
1948 Clear -4 1029 54 10000 1.54 210 08:54 02.03.2021
1949 Clear -4 1029 54 10000 1.54 210 08:33 02.03.2021
1950 Clear -4 1029 46 10000 1.54 230 07:51 02.03.2021
1951 Clear -4 1030 50 10000 2.06 250 06:39 02.03.2021
1952 Clear -3 1030 46 10000 2.06 330 05:52 02.03.2021
1953 Clear -3 1030 46 10000 2.06 330 05:33 02.03.2021
1954 Clear -3 1029 43 10000 2.06 320 04:38 02.03.2021
1955 Clouds -1 1027 40 10000 4.12 320 01:43 02.03.2021
1956 Clouds -1 1027 40 10000 4.12 320 01:21 02.03.2021
1957 Clouds 0 1026 34 10000 4.63 330 23:37 01.03.2021
1958 Clouds 0 1026 34 10000 4.63 330 23:19 01.03.2021
1959 Clouds 1 1026 38 10000 5.66 350 22:38 01.03.2021
1960 Clouds 1 1026 38 10000 5.66 350 22:19 01.03.2021
1961 Clouds 1 1025 47 10000 4.63 350 21:41 01.03.2021
1962 Clouds 1 1025 47 10000 4.63 350 21:23 01.03.2021
1963 Clouds 0 1025 51 10000 5.66 350 20:43 01.03.2021
1964 Clouds 0 1025 51 10000 5.66 350 20:43 01.03.2021
1965 Clouds 0 1029 61 10000 5.39 340 20:21 01.03.2021
1966 Clouds 0 1024 51 10000 3.09 20 19:43 01.03.2021
1967 Clouds 0 1024 51 10000 3.09 20 19:24 01.03.2021
1968 Clouds 0 1023 51 10000 5.14 320 18:43 01.03.2021
1969 Clouds 0 1023 51 10000 5.14 320 18:23 01.03.2021
1970 Clouds 0 1023 55 10000 4.63 330 17:47 01.03.2021
1971 Clouds 0 1023 55 10000 4.63 330 17:22 01.03.2021
1972 Clouds -1 1022 64 10000 5.66 320 16:47 01.03.2021
1973 Clouds -2 1022 64 10000 5.66 320 16:27 01.03.2021
1974 Clouds -2 1026 70 10000 0.45 350 15:49 01.03.2021
1975 Clouds -3 1021 68 10000 4.63 300 15:23 01.03.2021
1976 Clouds -3 1020 68 10000 4.63 290 14:58 01.03.2021
1977 Clouds -3 1020 68 10000 4.63 290 14:39 01.03.2021
1978 Clouds -3 1020 74 10000 3.6 280 13:56 01.03.2021
1979 Clouds -3 1020 74 10000 3.6 280 13:37 01.03.2021
1980 Clouds -3 1020 74 10000 3.6 280 13:19 01.03.2021
1981 Clear -3 1019 69 10000 4.12 290 12:42 01.03.2021
1982 Clear -2 1019 69 10000 4.12 290 12:22 01.03.2021
1983 Clear -2 1018 74 10000 3.6 290 11:47 01.03.2021
1984 Clear -2 1018 74 10000 3.6 290 11:23 01.03.2021
1985 Clouds -1 1017 69 10000 4.12 290 10:42 01.03.2021
1986 Clouds -1 1017 69 10000 4.12 290 10:22 01.03.2021
1987 Clear -1 1017 74 10000 4.12 290 09:50 01.03.2021
1988 Clear -1 1017 74 10000 4.12 290 09:28 01.03.2021
1989 Clear 0 1016 69 10000 5.14 290 08:56 01.03.2021
1990 Clear 0 1016 69 10000 5.14 290 08:30 01.03.2021
1991 Clear 1 1015 75 10000 5.14 300 07:32 01.03.2021
1992 Clear 2 1014 75 10000 4.63 300 06:25 01.03.2021
1993 Clouds 4 1011 70 10000 7.72 290 02:38 01.03.2021
1994 Clouds 5 1008 75 10000 8.75 270 23:47 28.02.2021
1995 Clouds 6 1010 80 10000 1.34 321 22:57 28.02.2021
1996 Clouds 7 1006 87 10000 7.72 250 22:37 28.02.2021
1997 Clouds 8 1009 85 10000 6.68 262 22:18 28.02.2021
1998 Clouds 8 1006 93 10000 8.23 260 21:37 28.02.2021
1999 Clouds 8 1006 93 10000 8.23 260 21:18 28.02.2021
2000 Mist 9 1006 93 8047 6.69 250 20:39 28.02.2021
2001 Mist 9 1006 93 9656 6.17 250 20:18 28.02.2021
2002 Clouds 9 1007 91 370 0.45 299 19:46 28.02.2021
2003 Clouds 9 1007 93 10000 5.66 230 19:25 28.02.2021
2004 Clouds 9 1007 93 10000 5.66 230 18:44 28.02.2021
2005 Clouds 9 1007 93 10000 5.66 230 18:26 28.02.2021
2006 Mist 9 1007 93 6437 5.14 230 17:53 28.02.2021
2007 Mist 8 1007 93 4828 4.12 220 17:29 28.02.2021
2008 Mist 7 1007 100 2414 2.57 200 16:57 28.02.2021
2009 Clouds 7 1010 94 124 4.02 208 16:38 28.02.2021
2010 Mist 7 1007 93 2816 3.09 180 16:19 28.02.2021
2011 Mist 6 1008 87 2414 2.06 170 15:49 28.02.2021
2012 Mist 6 1008 87 2414 2.06 170 15:25 28.02.2021
2013 Mist 5 1008 93 2012 2.06 160 14:53 28.02.2021
2014 Mist 5 1008 93 1609 2.06 150 14:30 28.02.2021
2015 Drizzle 5 1008 87 4023 2.57 140 13:53 28.02.2021
2016 Drizzle 5 1008 87 4023 2.57 140 13:22 28.02.2021
2017 Clouds 5 1009 81 10000 4.63 140 12:59 28.02.2021
2018 Clouds 5 1009 81 10000 4.63 140 12:59 28.02.2021
2019 Clouds 5 1009 81 10000 4.63 140 12:59 28.02.2021
2020 Clouds 5 1009 81 10000 4.63 140 12:40 28.02.2021
2021 Clouds 5 1009 81 10000 4.63 140 12:40 28.02.2021
2022 Clouds 5 1009 81 10000 4.63 140 12:22 28.02.2021
2023 Clouds 5 1010 81 10000 4.12 140 11:55 28.02.2021
2024 Clouds 5 1009 81 10000 4.63 120 11:26 28.02.2021
2025 Clouds 4 1011 81 10000 2.57 120 10:59 28.02.2021
2026 Clouds 4 1012 81 10000 3.09 110 10:29 28.02.2021
2027 Clouds 5 1013 87 10000 3.09 120 09:57 28.02.2021
2028 Clouds 5 1013 87 10000 3.09 120 09:35 28.02.2021
2029 Clouds 4 1014 87 10000 3.6 110 08:55 28.02.2021
2030 Clouds 4 1014 87 10000 3.6 110 08:33 28.02.2021
2031 Clouds 4 1013 86 10000 0.45 64 07:59 28.02.2021
2032 Clouds 4 1015 74 10000 4.24 133 07:39 28.02.2021
2033 Clouds 4 1017 81 10000 2.57 110 07:19 28.02.2021
2034 Clouds 5 1017 81 10000 2.57 110 06:23 28.02.2021
2035 Clouds 6 1018 75 10000 3.6 140 03:48 28.02.2021
2036 Clouds 7 1018 71 10000 3.09 140 02:25 28.02.2021
2037 Clouds 9 1018 66 10000 3.6 180 01:23 28.02.2021
2038 Clouds 10 1018 66 10000 3.6 180 00:39 28.02.2021
2039 Clouds 10 1018 61 10000 3.6 190 23:50 27.02.2021
2040 Clouds 10 1018 61 10000 3.6 190 23:21 27.02.2021
2041 Clouds 10 1018 57 10000 4.12 180 22:50 27.02.2021
2042 Clouds 10 1018 57 10000 4.12 180 22:23 27.02.2021
2043 Clouds 9 1018 57 10000 3.6 190 21:58 27.02.2021
2044 Clouds 9 1018 57 10000 3.6 190 21:37 27.02.2021
2045 Clouds 9 1018 53 10000 3.09 230 20:55 27.02.2021
2046 Clouds 9 1018 53 10000 3.09 230 20:37 27.02.2021
2047 Clouds 9 1018 53 10000 3.09 230 20:18 27.02.2021
2048 Clear 8 1018 61 10000 2.57 230 19:41 27.02.2021
2049 Clouds 7 1017 70 10000 4.63 230 19:23 27.02.2021
2050 Clouds 7 1017 70 10000 4.63 230 18:39 27.02.2021
2051 Clouds 6 1017 70 10000 4.63 230 18:19 27.02.2021
2052 Clear 6 1016 75 10000 4.63 250 17:43 27.02.2021
2053 Clear 5 1016 75 10000 4.63 250 17:20 27.02.2021
2054 Clear 5 1016 75 10000 4.63 250 17:20 27.02.2021
2055 Clear 5 1020 86 10000 3.39 228 16:51 27.02.2021
2056 Clouds 4 1016 93 10000 3.09 210 16:31 27.02.2021
2057 Mist 3 1016 93 4828 3.09 230 15:53 27.02.2021
2058 Mist 2 1016 93 1609 4.12 230 15:33 27.02.2021
2059 Fog 2 1014 93 402 4.12 210 14:48 27.02.2021
2060 Fog 2 1014 100 402 3.6 210 14:30 27.02.2021
2061 Mist 1 1014 93 1207 3.6 220 13:49 27.02.2021
2062 Mist 1 1013 86 2414 3.6 210 13:27 27.02.2021
2063 Mist 1 1012 80 4828 2.57 210 12:55 27.02.2021
2064 Mist 2 1012 80 4828 2.57 210 12:28 27.02.2021
2065 Mist 2 1012 80 8047 3.09 250 11:56 27.02.2021
2066 Mist 2 1012 80 8047 3.09 250 11:38 27.02.2021
2067 Mist 2 1012 80 8047 3.09 250 11:18 27.02.2021
2068 Clouds 2 1011 87 10000 3.09 230 10:41 27.02.2021
2069 Clouds 2 1011 87 10000 3.09 230 10:18 27.02.2021
2070 Clouds 2 1011 87 10000 3.09 230 10:18 27.02.2021
2071 Clouds 2 1011 87 10000 2.57 220 09:43 27.02.2021
2072 Clouds 2 1011 80 10000 2.57 230 09:21 27.02.2021
2073 Clouds 2 1011 80 10000 3.09 210 08:39 27.02.2021
2074 Clouds 2 1011 80 10000 3.09 210 08:19 27.02.2021
2075 Clouds 2 1011 75 10000 3.09 190 07:36 27.02.2021
2076 Clouds 4 1012 56 10000 4.63 130 03:28 27.02.2021
2077 Clouds 4 1014 48 10000 6.17 150 00:37 27.02.2021
2078 Clear 4 1018 57 10000 4.18 136 23:51 26.02.2021
2079 Clouds 5 1015 42 10000 4.63 130 23:26 26.02.2021
2080 Clouds 5 1017 39 10000 4.63 160 22:44 26.02.2021
2081 Clouds 5 1017 39 10000 4.63 160 22:23 26.02.2021
2082 Clouds 6 1018 42 10000 4.63 190 21:39 26.02.2021
2083 Clouds 6 1018 42 10000 4.63 190 21:18 26.02.2021
2084 Clouds 6 1019 36 10000 6.69 180 20:43 26.02.2021
2085 Clouds 6 1019 36 10000 6.69 180 20:20 26.02.2021
2086 Clear 6 1021 41 10000 2.24 154 19:40 26.02.2021
2087 Clouds 5 1023 38 10000 7.2 170 19:18 26.02.2021
2088 Clouds 5 1023 38 10000 7.2 170 18:41 26.02.2021
2089 Clouds 4 1023 38 10000 7.2 170 18:21 26.02.2021
2090 Clouds 3 1024 48 10000 5.66 170 17:39 26.02.2021
2091 Clouds 3 1024 48 10000 5.66 170 17:20 26.02.2021
2092 Clouds 2 1024 60 10000 3.6 160 16:49 26.02.2021
2093 Clouds 2 1024 60 10000 3.6 160 16:30 26.02.2021
2094 Clouds 1 1025 64 10000 3.09 160 15:51 26.02.2021
2095 Clouds 1 1025 64 10000 3.09 160 15:30 26.02.2021
2096 Clouds 0 1024 69 10000 4.63 170 14:59 26.02.2021
2097 Clouds -1 1024 69 10000 4.63 170 14:41 26.02.2021
2098 Clouds -1 1024 69 10000 4.63 170 14:22 26.02.2021
2099 Clear -2 1024 72 10000 2.92 167 13:39 26.02.2021
2100 Clear -2 1024 74 10000 2.32 165 13:20 26.02.2021
2101 Clear -2 1024 74 10000 2.33 173 12:33 26.02.2021
2102 Clear -2 1025 74 10000 2.57 180 11:49 26.02.2021
2103 Clear -1 1025 74 10000 2.57 180 11:28 26.02.2021
2104 Clear -1 1025 69 10000 1.54 180 10:45 26.02.2021
2105 Clear -1 1026 74 10000 2.06 190 09:49 26.02.2021
2106 Clear -1 1026 74 10000 2.06 190 09:29 26.02.2021
2107 Clear -1 1026 69 10000 1.54 200 08:51 26.02.2021
2108 Clear -1 1026 69 10000 1.54 200 08:19 26.02.2021
2109 Clear -1 1030 79 10000 2.19 211 07:41 26.02.2021
2110 Clear -1 1026 69 10000 2.57 210 06:35 26.02.2021
2111 Clear 0 1027 64 10000 2.57 210 05:26 26.02.2021
2112 Clouds 0 1027 64 10000 2.57 220 03:28 26.02.2021
2113 Clouds 2 1027 52 10000 4.63 280 01:29 26.02.2021
2114 Clouds 4 1027 48 10000 4.12 250 23:44 25.02.2021
2115 Clouds 4 1027 48 10000 4.12 250 23:25 25.02.2021
2116 Clouds 4 1027 48 10000 5.14 290 22:47 25.02.2021
2117 Clouds 4 1027 45 10000 5.66 290 21:58 25.02.2021
2118 Clouds 4 1027 45 10000 5.66 290 21:36 25.02.2021
2119 Clouds 4 1027 45 10000 5.66 290 21:18 25.02.2021
2120 Clouds 4 1027 45 10000 5.66 300 20:40 25.02.2021
2121 Clouds 4 1027 45 10000 5.66 300 20:21 25.02.2021
2122 Clouds 4 1028 49 10000 3.13 304 19:51 25.02.2021
2123 Clouds 4 1028 52 10000 6.17 310 19:21 25.02.2021
2124 Clouds 3 1028 52 10000 6.17 310 18:56 25.02.2021
2125 Clouds 3 1028 52 10000 6.17 310 18:20 25.02.2021
2126 Clouds 2 1028 60 10000 3.09 280 17:46 25.02.2021
2127 Clouds 2 1028 60 10000 3.09 280 17:25 25.02.2021
2128 Clear 1 1032 70 10000 0.89 15 16:42 25.02.2021
2129 Clouds 1 1028 64 10000 4.63 280 16:24 25.02.2021
2130 Clear -1 1031 77 10000 3.54 262 15:29 25.02.2021
2131 Clouds -2 1026 80 10000 2.57 250 14:41 25.02.2021
2132 Clear -2 1030 88 10000 2.87 257 14:21 25.02.2021
2133 Clear -2 1025 87 10000 2.87 257 13:50 25.02.2021
2134 Clear -2 1025 74 10000 2.6 269 13:25 25.02.2021
2135 Clear -3 1025 74 10000 2.81 279 12:47 25.02.2021
2136 Clear -2 1025 74 10000 2.66 289 12:21 25.02.2021
2137 Clear -3 1025 74 10000 2.7 290 11:45 25.02.2021
2138 Clear -2 1025 74 10000 2.48 297 11:19 25.02.2021
2139 Clear -2 1025 74 10000 2.48 297 10:38 25.02.2021
2140 Clear -1 1025 80 10000 2.06 290 09:59 25.02.2021
2141 Clear -2 1025 80 10000 2.06 290 09:40 25.02.2021
2142 Clear -1 1025 80 10000 3.09 290 08:54 25.02.2021
2143 Clear -1 1025 80 10000 3.09 290 08:23 25.02.2021
2144 Clear -1 1028 82 10000 3.6 307 07:52 25.02.2021
2145 Clear 0 1024 69 10000 2.57 300 07:26 25.02.2021
2146 Clear 0 1024 69 10000 2.57 300 06:47 25.02.2021
2147 Clouds 1 1024 77 10000 3.75 315 01:57 25.02.2021
2148 Clouds 3 1024 77 10000 3.77 313 01:34 25.02.2021
2149 Clouds 4 1018 60 10000 4.63 350 00:39 25.02.2021
2150 Clouds 4 1017 60 10000 7.72 320 23:47 24.02.2021
2151 Clouds 4 1017 60 10000 7.72 320 23:22 24.02.2021
2152 Clouds 5 1015 56 10000 8.75 330 22:44 24.02.2021
2153 Clouds 5 1015 56 10000 8.75 330 22:24 24.02.2021
2154 Clouds 5 1013 56 10000 5.66 320 21:44 24.02.2021
2155 Clouds 6 1012 57 10000 6.17 310 20:53 24.02.2021
2156 Clouds 6 1012 57 10000 6.17 310 20:29 24.02.2021
2157 Clear 6 1011 61 10000 5.14 290 19:54 24.02.2021
2158 Clouds 7 1009 57 10000 8.23 300 19:26 24.02.2021
2159 Clouds 7 1009 57 10000 8.23 300 18:55 24.02.2021
2160 Clouds 7 1009 57 10000 8.23 300 18:34 24.02.2021
2161 Clouds 6 1008 61 10000 4.63 290 17:50 24.02.2021
2162 Clouds 6 1008 61 10000 4.63 290 17:29 24.02.2021
2163 Clouds 6 1007 70 10000 5.66 270 16:52 24.02.2021
2164 Clouds 5 1007 70 10000 5.66 270 16:22 24.02.2021
2165 Clouds 5 1006 75 10000 5.66 250 15:58 24.02.2021
2166 Clouds 4 1010 81 104 5.51 278 15:36 24.02.2021
2167 Clouds 5 1005 75 10000 6.17 250 14:52 24.02.2021
2168 Clouds 4 1008 81 2169 4.93 260 14:32 24.02.2021
2169 Clouds 5 1005 81 2169 1.34 263 13:56 24.02.2021
2170 Clouds 4 1004 81 2169 0.89 229 13:37 24.02.2021
2171 Clouds 5 1004 75 10000 5.14 230 13:19 24.02.2021
2172 Clouds 5 1004 75 10000 5.14 230 12:42 24.02.2021
2173 Clouds 5 1004 75 10000 5.14 230 12:23 24.02.2021
2174 Clouds 5 1004 65 10000 4.12 220 11:42 24.02.2021
2175 Clouds 5 1004 65 10000 5.66 210 10:48 24.02.2021
2176 Clouds 5 1004 65 10000 5.66 210 10:26 24.02.2021
2177 Clouds 5 1005 61 10000 6.17 210 09:33 24.02.2021
2178 Clouds 6 1006 61 10000 5.66 190 08:58 24.02.2021
2179 Clouds 6 1006 61 10000 5.66 190 08:33 24.02.2021
2180 Clouds 5 1005 79 10000 0.89 197 07:55 24.02.2021
2181 Clouds 5 1008 61 10000 5.14 190 07:19 24.02.2021
2182 Clouds 6 1008 61 10000 5.14 190 06:20 24.02.2021
2183 Clouds 4 1012 60 10000 2.57 190 02:47 24.02.2021
2184 Clouds 7 1011 56 10000 4.63 220 23:59 23.02.2021
2185 Clouds 7 1011 56 10000 4.63 220 23:20 23.02.2021
2186 Clouds 7 1011 53 10000 4.12 250 22:37 23.02.2021
2187 Clouds 7 1011 53 10000 4.12 250 22:18 23.02.2021
2188 Clouds 7 1011 53 10000 5.14 250 21:40 23.02.2021
2189 Clouds 7 1011 53 10000 5.14 250 21:22 23.02.2021
2190 Clouds 8 1011 57 10000 6.17 240 20:46 23.02.2021
2191 Clouds 8 1011 57 10000 6.17 240 20:28 23.02.2021
2192 Clear 7 1012 65 10000 3.09 250 19:47 23.02.2021
2193 Clear 6 1011 61 10000 4.63 280 19:27 23.02.2021
2194 Clear 6 1011 61 10000 4.63 280 18:50 23.02.2021
2195 Clear 6 1011 61 10000 4.63 280 18:29 23.02.2021
2196 Clear 5 1011 65 10000 5.66 260 17:54 23.02.2021
2197 Clear 5 1011 65 10000 5.66 260 17:29 23.02.2021
2198 Clear 4 1009 65 10000 5.66 270 16:47 23.02.2021
2199 Clear 4 1009 65 10000 5.66 270 16:24 23.02.2021
2200 Clear 4 1008 70 10000 4.12 270 15:51 23.02.2021
2201 Clear 4 1008 70 10000 4.12 270 15:33 23.02.2021
2202 Clear 3 1006 75 10000 2.57 270 14:57 23.02.2021
2203 Clear 3 1006 75 10000 2.57 270 14:38 23.02.2021
2204 Clear 3 1006 75 10000 2.57 270 14:19 23.02.2021
2205 Clouds 3 1006 81 10000 2.24 295 13:38 23.02.2021
2206 Clouds 3 1005 70 10000 4.12 270 13:18 23.02.2021
2207 Clouds 3 1005 70 10000 4.12 270 12:44 23.02.2021
2208 Clouds 3 1005 70 10000 4.12 270 12:19 23.02.2021
2209 Clear 3 1003 70 10000 6.17 270 11:45 23.02.2021
2210 Clear 3 1003 70 10000 6.17 270 11:18 23.02.2021
2211 Clear 3 1003 70 10000 5.66 260 10:39 23.02.2021
2212 Clear 3 1003 70 10000 5.66 260 10:39 23.02.2021
2213 Clear 3 1003 70 10000 5.66 260 10:18 23.02.2021
2214 Clouds 3 1003 70 10000 5.66 250 09:41 23.02.2021
2215 Clouds 3 1003 70 10000 5.66 250 09:21 23.02.2021
2216 Clouds 3 1003 70 10000 5.66 250 08:45 23.02.2021
2217 Clouds 4 1003 70 10000 5.66 250 08:20 23.02.2021
2218 Clouds 4 1003 65 10000 7.2 250 07:34 23.02.2021
2219 Clouds 4 1004 60 10000 7.72 240 05:28 23.02.2021
2220 Clouds 3 1006 70 10000 5.14 210 02:43 23.02.2021
2221 Clouds 3 1006 70 10000 5.14 210 02:24 23.02.2021
2222 Clouds 3 1007 70 10000 7.72 210 00:19 23.02.2021
2223 Clouds 3 1007 65 10000 5.66 210 23:32 22.02.2021
2224 Clouds 3 1008 65 10000 5.66 220 22:44 22.02.2021
2225 Clouds 3 1008 65 10000 5.66 220 22:23 22.02.2021
2226 Clouds 2 1009 75 10000 8.23 250 21:58 22.02.2021
2227 Clouds 2 1012 78 10000 0.45 212 21:38 22.02.2021
2228 Clouds 2 1009 75 10000 8.23 250 21:20 22.02.2021
2229 Clouds 1 1013 81 10000 1.34 248 20:44 22.02.2021
2230 Haze 0 1009 74 9656 8.23 240 20:25 22.02.2021
2231 Clouds 0 1014 83 10000 6.34 234 19:46 22.02.2021
2232 Haze 0 1010 74 9656 9.26 240 19:28 22.02.2021
2233 Haze -1 1010 74 9656 9.26 240 18:48 22.02.2021
2234 Haze -1 1010 74 9656 9.26 240 18:29 22.02.2021
2235 Haze -1 1010 74 8047 6.69 250 17:49 22.02.2021
2236 Haze -2 1010 74 8047 6.69 250 17:20 22.02.2021
2237 Clouds -2 1011 80 10000 7.72 280 16:48 22.02.2021
2238 Clouds -3 1011 80 10000 7.72 280 16:29 22.02.2021
2239 Clouds -3 1010 74 10000 6.69 270 15:31 22.02.2021
2240 Clouds -3 1009 69 10000 8.75 280 14:53 22.02.2021
2241 Clouds -3 1009 69 10000 8.75 280 14:35 22.02.2021
2242 Clouds -2 1009 80 5211 3.13 272 13:51 22.02.2021
2243 Clouds -2 1007 74 10000 9.26 270 13:31 22.02.2021
2244 Clouds -1 1007 74 10000 9.26 270 12:48 22.02.2021
2245 Clouds -1 1007 74 10000 9.26 270 12:23 22.02.2021
2246 Clouds -1 1006 80 10000 7.72 260 11:51 22.02.2021
2247 Clouds 0 1006 80 10000 7.72 260 11:29 22.02.2021
2248 Clouds 0 1005 75 10000 9.26 260 10:54 22.02.2021
2249 Clouds 0 1005 75 10000 9.26 260 10:36 22.02.2021
2250 Clouds 0 1005 75 10000 9.26 260 10:18 22.02.2021
2251 Clouds 1 1005 80 10000 9.26 260 09:37 22.02.2021
2252 Clouds 1 1005 80 10000 9.26 260 09:18 22.02.2021
2253 Clouds 1 1005 80 10000 7.72 240 08:44 22.02.2021
2254 Clouds 2 1005 80 10000 7.72 240 08:20 22.02.2021
2255 Clouds 2 1009 92 5341 6.2 241 07:39 22.02.2021
2256 Mist 2 1006 93 6437 6.17 220 07:18 22.02.2021
2257 Rain 2 1006 93 6437 6.17 220 06:24 22.02.2021
2258 Snow 1 1008 86 4828 7.2 170 03:49 22.02.2021
2259 Snow 1 1009 86 4023 7.72 170 03:20 22.02.2021
2260 Snow 1 1016 86 59 7.46 165 00:53 22.02.2021
2261 Snow 1 1013 69 2816 6.69 170 00:28 22.02.2021
2262 Clouds 2 1013 55 10000 7.2 150 23:50 21.02.2021
2263 Clouds 1 1015 55 10000 8.23 140 22:55 21.02.2021
2264 Clouds 2 1015 55 10000 8.23 140 22:25 21.02.2021
2265 Clouds 2 1017 48 10000 7.72 170 21:51 21.02.2021
2266 Clouds 3 1017 48 10000 7.72 170 21:32 21.02.2021
2267 Clouds 2 1018 51 10000 5.14 150 20:55 21.02.2021
2268 Clouds 2 1018 51 10000 5.14 150 20:22 21.02.2021
2269 Clouds 2 1018 59 10000 3.13 184 19:59 21.02.2021
2270 Clouds 2 1024 63 10000 6.46 153 19:39 21.02.2021
2271 Clouds 1 1022 55 10000 6.17 160 19:21 21.02.2021
2272 Clouds 0 1022 55 10000 6.17 160 18:28 21.02.2021
2273 Clouds -1 1023 64 10000 5.14 150 17:52 21.02.2021
2274 Clouds -1 1023 64 10000 5.14 150 17:24 21.02.2021
2275 Clouds -2 1028 71 10000 5.36 150 16:52 21.02.2021
2276 Clouds -3 1024 68 10000 4.63 160 16:31 21.02.2021
2277 Clouds -5 1025 63 10000 4.63 150 15:36 21.02.2021
2278 Clouds -5 1025 63 10000 4.63 150 15:18 21.02.2021
2279 Clouds -6 1025 68 10000 4.12 150 14:39 21.02.2021
2280 Clouds -6 1025 68 10000 4.12 150 14:18 21.02.2021
2281 Clouds -6 1026 68 10000 3.09 160 13:30 21.02.2021
2282 Clouds -6 1026 68 10000 3.09 160 12:56 21.02.2021
2283 Clouds -5 1026 68 10000 3.09 160 12:27 21.02.2021
2284 Clouds -5 1026 63 10000 3.09 150 11:43 21.02.2021
2285 Clouds -5 1027 68 10000 2.06 150 10:52 21.02.2021
2286 Clouds -5 1027 68 10000 2.06 150 10:22 21.02.2021
2287 Clear -5 1027 68 10000 2.57 160 09:52 21.02.2021
2288 Clear -5 1027 68 10000 2.57 160 09:26 21.02.2021
2289 Clouds -5 1027 63 10000 2.06 160 08:43 21.02.2021
2290 Clouds -5 1027 63 10000 2.06 160 08:19 21.02.2021
2291 Clear -5 1028 63 10000 3.09 160 07:30 21.02.2021
2292 Clear -5 1028 63 10000 3.09 160 06:46 21.02.2021
2293 Clear -4 1027 54 10000 3.09 170 02:45 21.02.2021
2294 Clear -4 1027 54 10000 3.09 170 02:24 21.02.2021
2295 Clouds -3 1027 50 10000 4.12 210 00:36 21.02.2021
2296 Clouds -2 1027 50 10000 4.12 210 00:18 21.02.2021
2297 Clouds -2 1027 54 10000 3.6 210 22:59 20.02.2021
2298 Clouds -2 1027 54 10000 3.6 210 22:38 20.02.2021
2299 Clouds -2 1027 54 10000 3.6 210 22:19 20.02.2021
2300 Clouds -2 1027 54 10000 3.09 190 21:41 20.02.2021
2301 Clouds -2 1027 54 10000 3.09 190 21:19 20.02.2021
2302 Clouds -2 1027 54 10000 3.6 190 20:42 20.02.2021
2303 Clouds -3 1027 54 10000 3.6 190 20:21 20.02.2021
2304 Clear -3 1033 56 10000 2.27 200 19:49 20.02.2021
2305 Clouds -5 1028 63 10000 2.57 220 19:19 20.02.2021
2306 Clear -4 1034 58 10000 2.26 202 18:37 20.02.2021
2307 Clear -5 1028 61 10000 2.24 244 18:19 20.02.2021
2308 Clear -6 1033 64 10000 2.16 207 17:36 20.02.2021
2309 Mist -8 1028 92 8047 1.54 200 16:54 20.02.2021
2310 Mist -10 1028 92 8047 1.54 200 16:27 20.02.2021
2311 Clear -10 1033 79 10000 1.57 222 15:44 20.02.2021
2312 Mist -13 1028 92 9656 1.55 242 15:18 20.02.2021
2313 Mist -13 1027 78 6437 1.54 270 14:43 20.02.2021
2314 Mist -15 1027 78 6437 1.54 270 14:22 20.02.2021
2315 Mist -15 1027 78 6437 2.06 250 13:41 20.02.2021
2316 Mist -15 1027 78 6437 2.06 250 13:22 20.02.2021
2317 Mist -14 1027 72 6437 1.54 240 12:49 20.02.2021
2318 Mist -14 1027 72 6437 1.54 240 12:22 20.02.2021
2319 Mist -14 1027 78 8047 2.12 272 11:42 20.02.2021
2320 Mist -14 1027 78 8047 2.54 262 11:23 20.02.2021
2321 Clear -13 1027 79 10000 2.06 240 10:43 20.02.2021
2322 Clear -13 1027 78 10000 1.54 270 09:50 20.02.2021
2323 Clear -13 1027 78 10000 1.54 270 09:22 20.02.2021
2324 Clear -12 1027 79 10000 2.06 280 08:34 20.02.2021
2325 Mist -13 1027 85 6437 2.52 280 07:55 20.02.2021
2326 Clouds -8 1026 63 10000 3.6 260 02:46 20.02.2021
2327 Clouds -8 1026 63 10000 3.6 260 02:22 20.02.2021
2328 Clouds -8 1025 63 10000 4.12 260 01:47 20.02.2021
2329 Clouds -7 1025 63 10000 6.17 250 00:45 20.02.2021
2330 Clouds -7 1025 63 10000 6.69 250 23:51 19.02.2021
2331 Clouds -7 1025 63 10000 6.69 240 22:56 19.02.2021
2332 Clouds -6 1025 63 10000 6.69 240 22:27 19.02.2021
2333 Clouds -6 1025 63 10000 5.66 250 21:50 19.02.2021
2334 Clouds -6 1025 63 10000 5.66 250 21:30 19.02.2021
2335 Clouds -6 1025 58 10000 5.14 270 20:48 19.02.2021
2336 Clouds -6 1030 61 10000 4.22 268 20:28 19.02.2021
2337 Clouds -6 1030 62 10000 0.45 64 19:55 19.02.2021
2338 Clouds -6 1030 62 10000 4.15 259 19:24 19.02.2021
2339 Clear -7 1026 57 10000 5.14 270 18:56 19.02.2021
2340 Clear -7 1026 57 10000 5.14 270 18:33 19.02.2021
2341 Clear -8 1026 57 10000 5.14 290 17:49 19.02.2021
2342 Clouds -10 1031 71 10000 3.52 259 16:52 19.02.2021
2343 Clear -11 1026 72 10000 3.6 270 16:27 19.02.2021
2344 Clear -11 1031 76 10000 3.51 264 15:57 19.02.2021
2345 Haze -12 1026 78 9656 3.6 260 15:31 19.02.2021
2346 Clouds -13 1025 72 10000 4.63 270 14:56 19.02.2021
2347 Clouds -13 1025 72 10000 4.63 270 14:38 19.02.2021
2348 Clear -13 1026 79 10000 4.12 270 13:58 19.02.2021
2349 Haze -13 1026 72 9656 2.06 230 13:39 19.02.2021
2350 Clear -13 1026 72 10000 3.6 260 13:19 19.02.2021
2351 Clear -13 1026 72 10000 3.6 260 12:41 19.02.2021
2352 Clear -12 1026 72 10000 3.6 260 12:22 19.02.2021
2353 Clear -12 1026 67 10000 2.57 280 11:48 19.02.2021
2354 Clear -11 1026 67 10000 2.57 280 11:22 19.02.2021
2355 Clear -11 1026 67 10000 3.09 280 10:42 19.02.2021
2356 Clear -10 1026 67 10000 3.09 280 10:20 19.02.2021
2357 Clouds -9 1026 67 10000 3.6 280 09:39 19.02.2021
2358 Clouds -9 1026 67 10000 3.6 280 09:21 19.02.2021
2359 Clouds -7 1026 68 10000 4.12 290 08:49 19.02.2021
2360 Clouds -7 1026 68 10000 4.12 290 08:22 19.02.2021
2361 Clouds -8 1026 79 10000 2.57 240 07:48 19.02.2021
2362 Clouds -7 1026 68 10000 3.6 290 07:27 19.02.2021
2363 Clouds -7 1026 68 10000 3.6 290 06:47 19.02.2021
2364 Clouds -8 1027 73 10000 2.57 270 04:44 19.02.2021
2365 Clouds -8 1027 73 10000 2.57 270 04:25 19.02.2021
2366 Clear -8 1027 63 10000 1.54 10 01:47 19.02.2021
2367 Clouds -5 1026 63 10000 2.06 20 00:36 19.02.2021
2368 Snow -5 1026 68 4828 3.09 10 23:52 18.02.2021
2369 Snow -4 1026 68 4828 3.09 10 23:33 18.02.2021
2370 Snow -4 1026 63 2816 3.6 340 22:44 18.02.2021
2371 Snow -4 1026 63 2816 3.6 340 22:26 18.02.2021
2372 Snow -4 1026 58 10000 2.57 60 21:45 18.02.2021
2373 Snow -4 1026 58 10000 2.57 60 21:24 18.02.2021
2374 Snow -4 1027 58 10000 2.06 0 20:41 18.02.2021
2375 Snow -4 1027 58 10000 2.06 0 20:23 18.02.2021
2376 Snow -4 1028 63 10000 2.58 47 19:46 18.02.2021
2377 Snow -4 1028 63 10000 2.67 64 19:25 18.02.2021
2378 Snow -4 1028 63 10000 2.67 64 18:52 18.02.2021
2379 Snow -5 1028 63 10000 2.29 76 18:27 18.02.2021
2380 Snow -5 1033 74 3574 2.29 76 17:52 18.02.2021
2381 Snow -5 1032 77 537 1.16 62 17:25 18.02.2021
2382 Snow -6 1027 79 2816 1.16 62 16:52 18.02.2021
2383 Snow -6 1032 78 537 1.16 62 16:34 18.02.2021
2384 Snow -7 1027 93 4828 0.52 72 15:44 18.02.2021
2385 Snow -7 1027 93 4828 0.82 3 15:24 18.02.2021
2386 Snow -7 1027 79 2816 2.06 320 14:58 18.02.2021
2387 Snow -8 1027 79 2816 2.06 320 14:36 18.02.2021
2388 Snow -8 1027 73 3219 1.31 1 13:58 18.02.2021
2389 Snow -8 1027 73 3219 1.28 8 13:40 18.02.2021
2390 Snow -8 1027 73 3219 0.49 15 13:18 18.02.2021
2391 Snow -8 1027 73 4828 1.54 60 12:41 18.02.2021
2392 Snow -8 1027 73 4828 1.54 60 12:18 18.02.2021
2393 Snow -9 1027 73 3219 2.57 80 11:46 18.02.2021
2394 Snow -8 1027 73 3219 2.57 80 11:25 18.02.2021
2395 Snow -8 1027 73 4828 2.57 90 10:44 18.02.2021
2396 Snow -8 1028 73 4023 2.57 60 10:25 18.02.2021
2397 Snow -8 1028 67 3219 1.54 90 09:39 18.02.2021
2398 Snow -8 1028 67 3219 1.54 90 09:20 18.02.2021
2399 Snow -8 1029 62 10000 1.54 130 08:39 18.02.2021
2400 Snow -8 1029 62 10000 1.54 130 08:20 18.02.2021
2401 Clouds -8 1028 63 10000 4.12 120 07:32 18.02.2021
2402 Clouds -8 1028 63 10000 4.12 120 06:41 18.02.2021
2403 Clouds -8 1028 63 10000 1.54 110 02:29 18.02.2021
2404 Clouds -6 1027 50 10000 3.09 90 23:51 17.02.2021
2405 Clouds -6 1027 50 10000 3.09 90 23:21 17.02.2021
2406 Clouds -5 1027 53 10000 2.37 75 22:49 17.02.2021
2407 Clouds -5 1027 53 10000 2.1 90 22:25 17.02.2021
2408 Clouds -5 1028 46 10000 2.1 90 21:48 17.02.2021
2409 Clouds -5 1028 46 10000 1.44 121 21:22 17.02.2021
2410 Clouds -5 1028 53 10000 1.44 121 20:47 17.02.2021
2411 Clouds -5 1028 53 10000 1.54 158 20:28 17.02.2021
2412 Clouds -5 1034 56 10000 1.54 158 19:46 17.02.2021
2413 Clouds -5 1034 56 10000 1.49 165 19:27 17.02.2021
2414 Clouds -6 1030 62 10000 2.06 210 18:41 17.02.2021
2415 Clouds -7 1030 62 10000 2.06 210 18:22 17.02.2021
2416 Clouds -7 1030 62 10000 2.06 210 18:22 17.02.2021
2417 Clouds -7 1035 65 10000 1.36 209 17:40 17.02.2021
2418 Clouds -9 1030 67 10000 2.06 200 17:18 17.02.2021
2419 Clouds -9 1029 79 10000 2.06 230 16:43 17.02.2021
2420 Clouds -11 1029 79 10000 2.06 230 16:22 17.02.2021
2421 Clouds -11 1029 85 10000 1.91 241 15:44 17.02.2021
2422 Clouds -11 1029 85 10000 1.91 241 15:44 17.02.2021
2423 Clouds -13 1029 85 10000 2.33 252 15:23 17.02.2021
2424 Clouds -13 1028 78 10000 1.54 210 14:46 17.02.2021
2425 Clouds -14 1028 78 10000 1.54 210 14:28 17.02.2021
2426 Clouds -15 1027 72 10000 2 269 13:45 17.02.2021
2427 Clouds -13 1027 72 10000 1.78 282 13:27 17.02.2021
2428 Clouds -13 1027 72 10000 1.28 257 12:47 17.02.2021
2429 Clouds -14 1027 72 10000 1.82 272 12:23 17.02.2021
2430 Clouds -13 1027 72 10000 1.82 272 11:42 17.02.2021
2431 Clouds -12 1027 72 10000 2.11 290 11:19 17.02.2021
2432 Clouds -11 1027 67 10000 2.57 240 10:45 17.02.2021
2433 Clouds -11 1027 67 10000 2.57 240 10:25 17.02.2021
2434 Clouds -11 1026 73 10000 2.57 260 09:45 17.02.2021
2435 Clouds -11 1026 73 10000 2.57 260 09:25 17.02.2021
2436 Clouds -10 1026 62 10000 3.09 270 08:43 17.02.2021
2437 Clouds -10 1026 62 10000 3.09 270 08:22 17.02.2021
2438 Clouds -11 1025 67 10000 2.06 300 07:34 17.02.2021
2439 Clouds -10 1025 62 10000 3.09 300 06:35 17.02.2021
2440 Clouds -7 1023 58 10000 2.57 330 02:42 17.02.2021
2441 Clouds -7 1023 58 10000 2.57 330 02:21 17.02.2021
2442 Clouds -7 1022 58 10000 4.12 310 00:33 17.02.2021
2443 Clouds -7 1021 58 10000 4.12 330 23:57 16.02.2021
2444 Clouds -7 1021 58 10000 4.12 330 23:38 16.02.2021
2445 Clouds -7 1026 85 9984 3.78 330 22:44 16.02.2021
2446 Clouds -7 1020 58 10000 4.12 300 22:25 16.02.2021
2447 Clouds -7 1020 58 10000 4.12 300 22:25 16.02.2021
2448 Clouds -7 1020 58 10000 4.12 300 22:25 16.02.2021
2449 Clouds -7 1019 63 10000 6.17 320 21:57 16.02.2021
2450 Clouds -7 1019 63 10000 6.17 320 21:39 16.02.2021
2451 Clouds -7 1019 63 10000 6.17 320 21:20 16.02.2021
2452 Clouds -7 1019 63 10000 5.66 330 20:42 16.02.2021
2453 Snow -7 1019 63 10000 5.66 330 20:20 16.02.2021
2454 Snow -7 1024 89 4548 4.94 328 19:44 16.02.2021
2455 Clouds -8 1024 88 10000 5.64 321 19:25 16.02.2021
2456 Clouds -8 1018 67 10000 5.66 330 18:41 16.02.2021
2457 Clouds -8 1018 67 10000 5.66 330 18:23 16.02.2021
2458 Clouds -9 1018 67 10000 5.66 330 17:53 16.02.2021
2459 Clouds -9 1018 67 10000 5.66 330 17:27 16.02.2021
2460 Clouds -10 1023 89 10000 5.73 323 16:52 16.02.2021
2461 Clouds -10 1023 89 10000 5.73 323 16:52 16.02.2021
2462 Clouds -11 1018 67 10000 6.17 330 16:30 16.02.2021
2463 Snow -11 1023 89 6695 5.52 322 15:53 16.02.2021
2464 Snow -12 1023 90 6695 5.52 322 15:32 16.02.2021
2465 Snow -13 1016 72 8047 5.14 330 14:57 16.02.2021
2466 Snow -13 1016 72 8047 5.14 330 14:38 16.02.2021
2467 Snow -13 1016 72 8047 5.14 330 14:19 16.02.2021
2468 Snow -12 1016 72 8047 5.14 330 13:38 16.02.2021
2469 Snow -12 1016 72 8047 5.14 330 12:52 16.02.2021
2470 Snow -12 1016 72 3219 4.63 330 12:29 16.02.2021
2471 Mist -12 1015 78 1609 5.66 330 11:58 16.02.2021
2472 Mist -13 1015 78 1609 5.66 330 11:39 16.02.2021
2473 Snow -13 1015 78 1207 6.17 330 11:19 16.02.2021
2474 Snow -13 1015 72 2012 6.17 330 10:45 16.02.2021
2475 Snow -13 1015 72 1609 4.63 320 10:27 16.02.2021
2476 Snow -13 1016 78 1609 4.63 340 09:52 16.02.2021
2477 Snow -13 1016 78 1609 4.63 340 09:26 16.02.2021
2478 Snow -13 1016 78 1207 6.17 330 08:51 16.02.2021
2479 Snow -13 1016 78 1207 6.17 330 08:28 16.02.2021
2480 Snow -13 1016 72 1609 7.2 330 07:44 16.02.2021
2481 Snow -12 1016 78 805 6.17 330 06:51 16.02.2021
2482 Snow -10 1018 85 402 6.17 350 02:40 16.02.2021
2483 Snow -9 1021 79 402 5.66 30 23:55 15.02.2021
2484 Snow -9 1021 73 805 8.23 30 23:29 15.02.2021
2485 Snow -8 1021 73 2414 7.2 50 22:50 15.02.2021
2486 Snow -8 1021 73 2414 7.2 50 22:27 15.02.2021
2487 Snow -9 1022 79 10000 5.66 350 21:44 15.02.2021
2488 Snow -9 1022 79 10000 5.66 350 21:24 15.02.2021
2489 Snow -9 1024 73 4828 4.12 350 20:54 15.02.2021
2490 Clouds -8 1029 78 7997 7.63 39 20:36 15.02.2021
2491 Snow -10 1025 72 1609 5.14 350 19:51 15.02.2021
2492 Snow -11 1027 72 1207 4.63 330 19:26 15.02.2021
2493 Snow -11 1033 86 2065 6.23 49 18:57 15.02.2021
2494 Snow -12 1027 72 1207 5.14 350 18:29 15.02.2021
2495 Snow -13 1028 72 805 5.14 350 17:58 15.02.2021
2496 Snow -14 1028 72 1207 4.63 340 17:40 15.02.2021
2497 Snow -14 1028 72 1207 4.63 340 17:20 15.02.2021
2498 Mist -15 1028 72 1207 6.17 350 16:42 15.02.2021
2499 Snow -15 1027 72 2012 6.17 360 16:21 15.02.2021
2500 Snow -16 1028 78 2414 6.17 360 15:42 15.02.2021
2501 Snow -16 1028 72 2816 6.69 350 15:19 15.02.2021
2502 Snow -17 1029 71 10000 7.2 330 14:44 15.02.2021
2503 Snow -17 1029 71 10000 7.2 330 14:20 15.02.2021
2504 Snow -17 1029 71 4828 7.72 330 13:49 15.02.2021
2505 Snow -17 1030 71 4828 7.2 330 13:22 15.02.2021
2506 Snow -17 1030 71 4828 7.2 330 12:47 15.02.2021
2507 Mist -17 1030 71 4023 7.2 330 12:27 15.02.2021
2508 Snow -17 1030 71 4828 6.69 340 11:52 15.02.2021
2509 Snow -17 1030 71 4828 6.69 340 11:26 15.02.2021
2510 Snow -17 1030 71 4828 6.69 330 10:55 15.02.2021
2511 Snow -17 1030 71 4828 6.69 330 10:36 15.02.2021
2512 Snow -17 1030 71 4023 6.17 340 10:18 15.02.2021
2513 Snow -18 1031 71 4023 6.69 330 09:47 15.02.2021
2514 Snow -17 1031 71 4023 6.69 330 09:25 15.02.2021
2515 Mist -17 1031 66 6437 8.23 330 08:22 15.02.2021
2516 Snow -17 1031 66 10000 8.23 330 07:20 15.02.2021
2517 Snow -17 1031 66 10000 8.23 330 06:41 15.02.2021
2518 Snow -17 1032 71 4828 6.69 320 03:33 15.02.2021
2519 Snow -17 1032 71 6437 6.17 320 02:21 15.02.2021
2520 Snow -16 1033 71 3219 3.6 330 00:19 15.02.2021
2521 Clouds -16 1033 51 10000 4.63 320 23:25 14.02.2021
2522 Clouds -16 1031 51 10000 5.66 340 22:46 14.02.2021
2523 Clouds -16 1031 51 10000 5.66 340 22:27 14.02.2021
2524 Clouds -16 1031 47 10000 6.17 320 21:51 14.02.2021
2525 Clouds -16 1031 47 10000 6.17 320 21:30 14.02.2021
2526 Clouds -16 1032 47 10000 4.63 320 20:53 14.02.2021
2527 Clouds -15 1032 47 10000 4.63 320 20:30 14.02.2021
2528 Clouds -15 1038 52 10000 1.34 333 19:49 14.02.2021
2529 Clouds -15 1033 43 10000 4.63 310 19:29 14.02.2021
2530 Clouds -16 1033 43 10000 4.63 310 18:42 14.02.2021
2531 Clouds -16 1033 43 10000 4.63 310 18:21 14.02.2021
2532 Clouds -16 1033 51 10000 4.63 320 17:40 14.02.2021
2533 Clouds -17 1033 46 10000 4.12 340 16:57 14.02.2021
2534 Clouds -18 1033 46 10000 4.12 340 16:38 14.02.2021
2535 Clouds -18 1039 58 10000 0.45 23 16:18 14.02.2021
2536 Clouds -18 1039 59 10000 1.34 288 15:41 14.02.2021
2537 Clouds -19 1032 50 10000 4.12 310 14:58 14.02.2021
2538 Clouds -19 1032 50 10000 4.12 310 14:30 14.02.2021
2539 Clear -19 1030 59 10000 4.63 340 13:56 14.02.2021
2540 Clouds -19 1030 55 10000 6.17 340 13:31 14.02.2021
2541 Clouds -19 1030 55 10000 6.17 340 12:45 14.02.2021
2542 Clouds -20 1030 55 10000 6.17 340 12:21 14.02.2021
2543 Clouds -19 1031 55 10000 6.17 330 11:51 14.02.2021
2544 Clouds -19 1031 55 10000 6.17 330 11:24 14.02.2021
2545 Clouds -19 1037 67 10000 0.45 326 10:49 14.02.2021
2546 Clouds -19 1030 60 10000 6.17 320 09:57 14.02.2021
2547 Clouds -19 1030 60 10000 6.17 320 09:39 14.02.2021
2548 Clear -19 1028 68 10000 4.02 333 09:21 14.02.2021
2549 Clear -19 1036 70 10000 0.89 319 08:41 14.02.2021
2550 Clear -18 1035 71 10000 0.45 342 07:57 14.02.2021
2551 Clouds -18 1028 60 10000 5.66 330 06:51 14.02.2021
2552 Clouds -17 1028 66 10000 5.14 320 05:42 14.02.2021
2553 Clouds -16 1026 66 10000 3.6 310 03:32 14.02.2021
2554 Clouds -15 1026 72 10000 3.6 300 02:21 14.02.2021
2555 Snow -14 1031 80 4144 0.89 336 00:47 14.02.2021
2556 Snow -13 1025 72 10000 4.63 300 00:27 14.02.2021
2557 Snow -13 1025 72 10000 6.69 300 23:41 13.02.2021
2558 Snow -12 1025 72 6437 5.66 300 23:21 13.02.2021
2559 Snow -12 1025 73 805 5.14 290 22:42 13.02.2021
2560 Snow -12 1024 73 2816 6.17 310 22:19 13.02.2021
2561 Snow -11 1024 79 2816 4.63 310 21:42 13.02.2021
2562 Snow -11 1024 79 3219 5.66 300 20:54 13.02.2021
2563 Snow -11 1024 79 3219 4.63 320 20:30 13.02.2021
2564 Snow -11 1024 79 3219 4.63 320 20:30 13.02.2021
2565 Snow -11 1025 73 4828 5.14 320 19:55 13.02.2021
2566 Snow -11 1030 80 626 0.45 50 19:37 13.02.2021
2567 Mist -11 1026 67 10000 4.63 330 19:18 13.02.2021
2568 Snow -12 1026 67 10000 4.63 330 18:38 13.02.2021
2569 Snow -12 1026 72 4828 4.12 330 17:57 13.02.2021
2570 Snow -12 1031 82 595 4.92 323 17:38 13.02.2021
2571 Mist -13 1026 72 4828 4.12 330 17:19 13.02.2021
2572 Snow -14 1027 72 4828 5.66 320 16:42 13.02.2021
2573 Snow -14 1027 72 4828 5.66 320 16:18 13.02.2021
2574 Snow -14 1027 78 1609 5.14 330 15:29 13.02.2021
2575 Snow -14 1027 72 1609 5.14 330 14:50 13.02.2021
2576 Snow -15 1027 72 1609 5.14 330 14:30 13.02.2021
2577 Snow -14 1025 82 190 3.13 22 13:44 13.02.2021
2578 Snow -14 1027 72 3219 3.6 330 13:24 13.02.2021
2579 Snow -14 1027 72 3219 3.6 330 12:41 13.02.2021
2580 Snow -14 1027 72 3219 3.6 330 12:18 13.02.2021
2581 Mist -14 1027 72 2816 7.2 340 11:41 13.02.2021
2582 Snow -15 1027 72 2816 7.2 340 11:19 13.02.2021
2583 Snow -14 1028 72 2414 5.14 330 10:44 13.02.2021
2584 Snow -14 1028 72 2414 5.14 330 10:23 13.02.2021
2585 Snow -14 1034 83 196 4.97 324 09:52 13.02.2021
2586 Snow -14 1034 82 233 0.45 336 09:29 13.02.2021
2587 Snow -14 1034 82 233 5.3 325 08:54 13.02.2021
2588 Snow -14 1029 72 2816 5.14 330 08:30 13.02.2021
2589 Snow -13 1029 72 4023 5.66 340 07:46 13.02.2021
2590 Mist -13 1029 72 3219 4.63 340 06:37 13.02.2021
2591 Snow -13 1029 67 4023 6.17 330 05:19 13.02.2021
2592 Snow -12 1034 71 199 0.45 351 03:46 13.02.2021
2593 Clouds -10 1034 68 10000 4.92 329 01:31 13.02.2021
2594 Clouds -10 1029 53 10000 5.66 320 00:23 13.02.2021
2595 Clouds -9 1028 57 10000 5.14 340 23:48 12.02.2021
2596 Clouds -9 1028 57 10000 5.14 340 23:20 12.02.2021
2597 Clouds -9 1028 57 10000 5.14 330 22:38 12.02.2021
2598 Clouds -9 1028 57 10000 5.14 330 22:18 12.02.2021
2599 Clouds -8 1033 67 7552 4.7 324 21:42 12.02.2021
2600 Clouds -8 1033 67 7019 0.45 39 21:23 12.02.2021
2601 Clouds -7 1028 58 10000 5.66 350 20:45 12.02.2021
2602 Clouds -7 1028 58 10000 5.66 350 20:26 12.02.2021
2603 Clouds -7 1033 68 4901 4.76 329 19:55 12.02.2021
2604 Clouds -7 1033 68 4901 4.76 329 19:30 12.02.2021
2605 Clouds -8 1028 62 10000 3.6 310 18:44 12.02.2021
2606 Clouds -8 1028 62 10000 3.6 310 18:25 12.02.2021
2607 Clouds -8 1029 67 10000 5.14 310 17:41 12.02.2021
2608 Clouds -10 1029 67 10000 5.66 320 16:54 12.02.2021
2609 Clouds -10 1034 78 6698 0.45 347 16:18 12.02.2021
2610 Clouds -10 1028 79 10000 4.63 330 15:43 12.02.2021
2611 Clouds -11 1028 79 10000 4.63 330 15:20 12.02.2021
2612 Clouds -11 1028 73 10000 4.12 310 14:39 12.02.2021
2613 Clouds -11 1027 82 7189 2.24 326 13:56 12.02.2021
2614 Clouds -11 1027 83 10000 1.34 342 13:37 12.02.2021
2615 Clouds -11 1027 73 10000 3.6 360 12:55 12.02.2021
2616 Clouds -11 1027 73 10000 3.6 360 12:36 12.02.2021
2617 Snow -11 1028 79 10000 4.63 330 11:48 12.02.2021
2618 Snow -11 1028 79 10000 4.63 330 11:22 12.02.2021
2619 Clouds -11 1033 82 1307 3.38 310 10:51 12.02.2021
2620 Clouds -11 1033 82 1307 0.45 292 10:33 12.02.2021
2621 Clouds -10 1033 81 7063 0.89 8 09:43 12.02.2021
2622 Clouds -10 1028 73 10000 4.12 320 09:24 12.02.2021
2623 Clouds -9 1027 67 10000 3.6 300 08:47 12.02.2021
2624 Clouds -8 1027 67 10000 3.6 300 08:27 12.02.2021
2625 Snow -10 1027 79 10000 3.09 340 07:52 12.02.2021
2626 Clouds -7 1028 58 10000 5.14 100 07:27 12.02.2021
2627 Clouds -8 1028 58 10000 5.14 100 06:54 12.02.2021
2628 Snow -6 1028 58 10000 4.63 100 05:38 12.02.2021
2629 Snow -5 1028 58 10000 5.66 70 03:46 12.02.2021
2630 Snow -6 1029 63 10000 5.14 40 00:34 12.02.2021
2631 Snow -6 1029 63 10000 4.63 60 23:38 11.02.2021
2632 Snow -6 1029 63 10000 4.63 60 23:18 11.02.2021
2633 Snow -5 1028 63 10000 5.66 60 22:42 11.02.2021
2634 Snow -5 1028 63 10000 5.66 60 22:23 11.02.2021
2635 Mist -6 1029 73 8047 2.06 40 21:43 11.02.2021
2636 Snow -6 1029 73 8047 2.06 40 21:25 11.02.2021
2637 Snow -6 1029 73 10000 4.39 49 20:56 11.02.2021
2638 Snow -6 1029 73 10000 4.39 49 20:37 11.02.2021
2639 Snow -6 1029 73 10000 3.79 56 20:18 11.02.2021
2640 Snow -6 1035 80 8072 3.79 56 19:46 11.02.2021
2641 Snow -7 1030 79 4828 3.6 10 19:25 11.02.2021
2642 Snow -7 1030 79 4828 3.6 10 18:42 11.02.2021
2643 Snow -7 1030 79 4828 3.6 10 18:19 11.02.2021
2644 Snow -8 1036 86 813 2.87 53 17:43 11.02.2021
2645 Snow -9 1031 73 2012 4.12 360 17:20 11.02.2021
2646 Snow -10 1036 83 525 2.52 33 16:44 11.02.2021
2647 Clouds -11 1036 83 1117 3.69 8 16:25 11.02.2021
2648 Clouds -12 1036 82 1117 3.69 8 15:45 11.02.2021
2649 Clouds -13 1030 66 10000 4.63 350 15:26 11.02.2021
2650 Clouds -13 1030 66 10000 4.63 350 15:26 11.02.2021
2651 Clouds -14 1031 66 10000 4.12 330 14:53 11.02.2021
2652 Clouds -15 1031 66 10000 4.12 330 14:31 11.02.2021
2653 Clouds -15 1029 73 6984 1.34 348 13:42 11.02.2021
2654 Clouds -15 1030 61 10000 4.63 350 13:20 11.02.2021
2655 Clouds -14 1030 61 10000 4.63 350 12:56 11.02.2021
2656 Clouds -14 1030 61 10000 4.63 350 12:32 11.02.2021
2657 Clouds -14 1030 56 10000 5.14 350 11:47 11.02.2021
2658 Clouds -14 1030 56 10000 5.14 350 11:27 11.02.2021
2659 Clouds -13 1030 61 10000 6.17 340 10:45 11.02.2021
2660 Clouds -13 1030 61 10000 6.17 340 10:26 11.02.2021
2661 Clouds -11 1030 56 10000 5.66 350 09:55 11.02.2021
2662 Clouds -13 1030 56 10000 5.66 350 09:24 11.02.2021
2663 Clouds -13 1030 56 10000 5.66 360 08:55 11.02.2021
2664 Clouds -13 1030 56 10000 5.66 360 08:55 11.02.2021
2665 Clouds -12 1030 56 10000 5.66 360 08:30 11.02.2021
2666 Snow -11 1029 52 10000 6.69 350 07:39 11.02.2021
2667 Snow -12 1029 52 10000 6.69 350 06:41 11.02.2021
2668 Clouds -11 1029 53 10000 5.66 340 05:44 11.02.2021
2669 Clouds -9 1028 45 10000 4.12 350 02:43 11.02.2021
2670 Clouds -9 1028 45 10000 4.12 350 02:19 11.02.2021
2671 Snow -9 1027 53 10000 4.63 350 00:22 11.02.2021
2672 Snow -9 1027 67 10000 5.66 360 23:46 10.02.2021
2673 Clouds -9 1033 74 10000 4.84 349 23:18 10.02.2021
2674 Clouds -9 1027 73 10000 4.63 320 22:42 10.02.2021
2675 Snow -9 1027 73 10000 4.63 320 22:18 10.02.2021
2676 Snow -9 1027 73 6437 4.63 340 21:39 10.02.2021
2677 Snow -9 1027 73 1609 5.66 330 21:19 10.02.2021
2678 Snow -9 1027 73 1207 5.14 330 20:42 10.02.2021
2679 Snow -10 1027 73 1207 5.14 330 20:24 10.02.2021
2680 Snow -10 1028 73 1207 5.14 330 19:47 10.02.2021
2681 Snow -10 1028 67 1609 3.09 340 19:26 10.02.2021
2682 Snow -10 1028 67 1609 3.09 340 18:47 10.02.2021
2683 Clouds -10 1029 57 10000 2.57 290 18:24 10.02.2021
2684 Clouds -10 1029 62 10000 3.6 330 17:57 10.02.2021
2685 Clouds -10 1029 62 10000 3.6 330 17:26 10.02.2021
2686 Clouds -11 1029 62 10000 3.09 330 16:57 10.02.2021
2687 Clouds -11 1029 62 10000 3.09 330 16:37 10.02.2021
2688 Clouds -11 1029 62 10000 3.09 330 16:19 10.02.2021
2689 Clouds -11 1030 62 10000 2.06 300 15:24 10.02.2021
2690 Clouds -11 1030 62 10000 2.06 300 15:24 10.02.2021
2691 Clouds -12 1028 61 10000 3.6 10 14:52 10.02.2021
2692 Clouds -12 1028 61 10000 3.6 10 14:34 10.02.2021
2693 Clouds -13 1028 71 10000 0.89 337 13:53 10.02.2021
2694 Clouds -13 1029 56 10000 3.09 360 13:29 10.02.2021
2695 Clouds -13 1029 56 10000 3.09 360 12:53 10.02.2021
2696 Clouds -13 1029 56 10000 3.09 360 12:30 10.02.2021
2697 Clouds -13 1030 56 10000 3.6 350 11:57 10.02.2021
2698 Clouds -14 1030 56 10000 3.6 350 11:38 10.02.2021
2699 Clouds -13 1030 56 10000 3.6 350 11:19 10.02.2021
2700 Clouds -13 1030 52 10000 3.09 340 10:23 10.02.2021
2701 Clouds -13 1030 52 10000 2.57 320 09:56 10.02.2021
2702 Clouds -13 1030 52 10000 2.57 320 09:31 10.02.2021
2703 Clouds -14 1030 56 10000 2.57 310 08:53 10.02.2021
2704 Clouds -14 1030 56 10000 2.57 310 08:32 10.02.2021
2705 Clouds -14 1030 51 10000 2.57 300 07:34 10.02.2021
2706 Clouds -13 1029 52 10000 2.57 300 06:21 10.02.2021
2707 Clouds -10 1028 38 10000 1.54 340 01:24 10.02.2021
2708 Clouds -8 1028 35 10000 3.6 340 23:59 09.02.2021
2709 Clouds -9 1028 35 10000 3.6 340 23:32 09.02.2021
2710 Clouds -8 1028 38 10000 1.54 310 22:45 09.02.2021
2711 Clouds -8 1028 38 10000 1.54 310 22:24 09.02.2021
2712 Clouds -8 1028 41 10000 3.09 332 21:48 09.02.2021
2713 Clouds -8 1028 41 10000 3.28 339 21:24 09.02.2021
2714 Clouds -9 1028 38 10000 2.57 350 20:44 09.02.2021
2715 Clouds -9 1028 38 10000 2.57 350 20:25 09.02.2021
2716 Clouds -9 1033 58 10000 3.31 344 19:52 09.02.2021
2717 Clouds -10 1034 61 10000 4.03 332 19:29 09.02.2021
2718 Clouds -10 1029 44 10000 4.63 350 18:49 09.02.2021
2719 Clouds -11 1029 44 10000 4.63 350 18:31 09.02.2021
2720 Clouds -12 1029 52 10000 5.14 330 17:50 09.02.2021
2721 Clouds -13 1029 52 10000 5.14 330 17:28 09.02.2021
2722 Clouds -13 1029 56 10000 4.12 340 16:54 09.02.2021
2723 Clouds -16 1029 56 10000 4.12 340 16:20 09.02.2021
2724 Clouds -15 1028 66 10000 5.14 350 15:58 09.02.2021
2725 Clouds -15 1034 73 10000 4.64 332 15:40 09.02.2021
2726 Clouds -16 1028 66 10000 5.14 350 15:21 09.02.2021
2727 Clouds -16 1028 66 10000 4.63 330 14:43 09.02.2021
2728 Clouds -16 1028 66 10000 4.63 330 14:23 09.02.2021
2729 Clear -16 1027 66 10000 4.12 340 13:43 09.02.2021
2730 Clouds -16 1026 66 10000 4.12 330 13:20 09.02.2021
2731 Clouds -16 1026 66 10000 4.12 330 12:47 09.02.2021
2732 Clouds -16 1026 66 10000 4.12 330 12:27 09.02.2021
2733 Clear -15 1026 66 10000 3.6 340 11:44 09.02.2021
2734 Clouds -15 1024 76 10000 2.68 339 11:22 09.02.2021
2735 Clouds -15 1032 75 10000 0.45 342 10:57 09.02.2021
2736 Clouds -14 1032 75 10000 0.45 335 10:23 09.02.2021
2737 Clouds -14 1032 77 10000 4.11 322 09:54 09.02.2021
2738 Snow -13 1026 78 10000 3.6 320 09:27 09.02.2021
2739 Snow -13 1026 78 9656 2.57 330 08:57 09.02.2021
2740 Clouds -13 1031 83 10000 3.55 330 08:29 09.02.2021
2741 Clouds -13 1032 83 10000 3.55 330 07:53 09.02.2021
2742 Mist -12 1026 79 10000 3.6 330 05:35 09.02.2021
2743 Snow -11 1025 79 3219 3.6 340 03:49 09.02.2021
2744 Snow -11 1031 84 3612 2.63 331 01:57 09.02.2021
2745 Snow -10 1025 79 805 1.47 328 00:31 09.02.2021
2746 Mist -10 1024 79 1609 1.54 110 23:44 08.02.2021
2747 Snow -10 1030 80 141 0.43 61 23:19 08.02.2021
2748 Mist -10 1024 73 2012 0.43 61 22:43 08.02.2021
2749 Snow -10 1024 73 2012 0.79 50 22:22 08.02.2021
2750 Snow -9 1030 75 173 0.79 50 21:46 08.02.2021
2751 Snow -10 1025 79 1609 0.51 110 21:23 08.02.2021
2752 Snow -9 1025 73 2816 0.51 110 20:44 08.02.2021
2753 Snow -9 1025 67 9656 1.15 174 20:25 08.02.2021
2754 Clouds -9 1031 69 662 1.15 174 19:59 08.02.2021
2755 Clouds -10 1031 68 1751 0.98 185 19:41 08.02.2021
2756 Snow -10 1027 62 8047 0.89 190 19:21 08.02.2021
2757 Snow -10 1027 62 8047 0.89 190 18:42 08.02.2021
2758 Snow -10 1027 62 8047 1.09 232 18:19 08.02.2021
2759 Snow -11 1033 73 2076 1.09 232 17:43 08.02.2021
2760 Mist -12 1027 72 4828 1 280 17:23 08.02.2021
2761 Snow -13 1027 66 9656 1.54 340 16:41 08.02.2021
2762 Snow -14 1027 66 9656 1.54 340 16:21 08.02.2021
2763 Mist -14 1027 66 9656 1.1 293 15:41 08.02.2021
2764 Snow -15 1027 66 9656 0.79 297 15:19 08.02.2021
2765 Snow -15 1027 61 9656 0.79 297 14:51 08.02.2021
2766 Mist -16 1027 61 9656 1.86 292 14:30 08.02.2021
2767 Clouds -17 1028 68 2161 1.86 292 13:56 08.02.2021
2768 Snow -17 1027 60 10000 2.06 320 13:32 08.02.2021
2769 Snow -16 1027 60 10000 2.06 320 12:51 08.02.2021
2770 Snow -16 1027 60 10000 2.06 320 12:33 08.02.2021
2771 Snow -16 1027 55 10000 1.54 260 11:43 08.02.2021
2772 Snow -16 1027 55 10000 1.54 260 11:19 08.02.2021
2773 Clouds -16 1027 51 10000 1.54 300 10:44 08.02.2021
2774 Clouds -16 1027 51 10000 1.54 300 10:23 08.02.2021
2775 Clouds -16 1027 55 10000 2.06 320 09:50 08.02.2021
2776 Clouds -16 1027 55 10000 2.06 320 09:29 08.02.2021
2777 Clouds -17 1026 60 10000 1.65 291 08:32 08.02.2021
2778 Clouds -16 1033 64 10000 2.5 286 07:51 08.02.2021
2779 Clouds -17 1027 55 10000 3.09 320 07:22 08.02.2021
2780 Clouds -17 1027 55 10000 2.57 290 05:29 08.02.2021
2781 Clouds -17 1026 55 10000 3.6 280 02:28 08.02.2021
2782 Clouds -16 1026 51 10000 4.63 260 00:56 08.02.2021
2783 Clouds -15 1026 51 10000 4.63 260 00:21 08.02.2021
2784 Clouds -15 1025 47 10000 3.09 270 23:46 07.02.2021
2785 Clouds -15 1025 47 10000 3.09 270 23:20 07.02.2021
2786 Clouds -15 1025 47 10000 3.09 270 22:44 07.02.2021
2787 Clouds -15 1025 47 10000 3.09 270 22:25 07.02.2021
2788 Clouds -14 1024 47 10000 3.09 300 21:52 07.02.2021
2789 Clouds -14 1024 47 10000 3.09 300 21:27 07.02.2021
2790 Clouds -14 1030 55 10000 3.17 291 20:54 07.02.2021
2791 Clouds -15 1030 57 10000 3.25 293 20:33 07.02.2021
2792 Clouds -15 1030 56 10000 3.25 293 19:55 07.02.2021
2793 Clouds -15 1030 58 10000 3.4 301 19:31 07.02.2021
2794 Clouds -16 1026 51 10000 3.09 290 18:56 07.02.2021
2795 Clouds -16 1026 51 10000 3.09 290 18:36 07.02.2021
2796 Clouds -17 1026 51 10000 3.09 290 18:18 07.02.2021
2797 Clouds -17 1025 50 10000 5.14 290 17:41 07.02.2021
2798 Clouds -19 1025 50 10000 5.14 290 17:19 07.02.2021
2799 Clouds -19 1025 55 10000 4.63 310 16:47 07.02.2021
2800 Clouds -20 1025 55 10000 4.63 310 16:26 07.02.2021
2801 Clouds -21 1024 65 10000 6.17 320 15:49 07.02.2021
2802 Clouds -21 1024 65 10000 6.17 320 15:28 07.02.2021
2803 Clouds -21 1023 65 10000 3.6 320 14:57 07.02.2021
2804 Clouds -21 1023 65 10000 3.6 320 14:39 07.02.2021
2805 Clouds -21 1023 65 10000 3.6 320 14:18 07.02.2021
2806 Clear -22 1023 71 10000 2.57 310 13:35 07.02.2021
2807 Clear -20 1022 65 10000 4.12 310 12:54 07.02.2021
2808 Clear -20 1022 65 10000 4.12 310 12:36 07.02.2021
2809 Clear -20 1022 65 10000 4.12 310 12:18 07.02.2021
2810 Clear -20 1021 65 10000 4.63 300 11:28 07.02.2021
2811 Clear -19 1021 60 10000 4.63 300 10:57 07.02.2021
2812 Clear -19 1021 60 10000 4.63 300 10:27 07.02.2021
2813 Clear -18 1021 65 10000 6.17 300 09:50 07.02.2021
2814 Clear -18 1021 65 10000 6.17 300 09:25 07.02.2021
2815 Clear -17 1020 60 10000 4.63 300 08:48 07.02.2021
2816 Clouds -17 1020 66 10000 7.2 300 07:49 07.02.2021
2817 Snow -14 1020 66 10000 7.2 270 05:58 07.02.2021
2818 Snow -14 1020 66 10000 7.2 270 05:58 07.02.2021
2819 Snow -13 1020 66 10000 4.63 280 04:34 07.02.2021
2820 Snow -12 1019 72 6437 4.63 270 02:25 07.02.2021
2821 Snow -12 1019 72 2012 4.63 260 00:37 07.02.2021
2822 Snow -11 1019 67 2414 4.12 270 23:50 06.02.2021
2823 Snow -11 1018 67 2414 3.6 250 22:52 06.02.2021
2824 Clouds -10 1023 60 10000 4.07 270 21:45 06.02.2021
2825 Clouds -10 1024 61 10000 3.84 275 21:24 06.02.2021
2826 Clouds -10 1020 48 10000 5.66 280 20:53 06.02.2021
2827 Clouds -10 1020 48 10000 5.66 280 20:27 06.02.2021
2828 Clouds -10 1025 60 10000 3.87 264 19:59 06.02.2021
2829 Clouds -10 1025 60 10000 3.87 264 19:40 06.02.2021
2830 Clouds -10 1025 61 10000 3.57 263 19:19 06.02.2021
2831 Clouds -11 1020 61 10000 4.12 230 18:43 06.02.2021
2832 Clouds -13 1020 61 10000 4.12 230 18:24 06.02.2021
2833 Clouds -12 1020 61 10000 5.14 260 17:41 06.02.2021
2834 Clouds -12 1020 61 10000 5.14 260 17:21 06.02.2021
2835 Clouds -13 1019 61 10000 4.63 270 16:47 06.02.2021
2836 Clouds -13 1019 61 10000 4.63 270 16:29 06.02.2021
2837 Clouds -14 1019 72 10000 3.6 260 15:52 06.02.2021
2838 Clouds -15 1019 72 10000 3.6 260 15:29 06.02.2021
2839 Clouds -15 1017 78 10000 4.12 240 14:49 06.02.2021
2840 Clouds -15 1017 78 10000 4.12 240 14:29 06.02.2021
2841 Clear -15 1018 72 10000 4.63 260 13:57 06.02.2021
2842 Clear -15 1017 78 10000 2.57 260 13:38 06.02.2021
2843 Clear -15 1016 66 10000 4.63 270 12:24 06.02.2021
2844 Clear -14 1015 72 10000 5.14 270 11:58 06.02.2021
2845 Clear -14 1015 72 10000 5.14 270 11:40 06.02.2021
2846 Clear -14 1015 72 10000 5.14 270 11:20 06.02.2021
2847 Clear -14 1014 66 10000 5.66 270 10:52 06.02.2021
2848 Clear -14 1014 66 10000 5.66 270 10:25 06.02.2021
2849 Clear -14 1014 66 10000 4.12 260 09:38 06.02.2021
2850 Clear -13 1014 66 10000 4.12 260 09:19 06.02.2021
2851 Clouds -13 1018 75 10000 5.65 271 08:58 06.02.2021
2852 Clear -13 1013 66 10000 6.17 260 08:29 06.02.2021
2853 Clear -13 1012 61 10000 7.72 270 06:51 06.02.2021
2854 Clear -12 1012 61 10000 6.69 280 05:41 06.02.2021
2855 Clouds -12 1009 62 10000 8.75 260 02:44 06.02.2021
2856 Clouds -11 1013 71 7107 0.89 120 00:56 06.02.2021
2857 Clouds -11 1008 62 10000 8.75 260 00:37 06.02.2021
2858 Clouds -10 1008 62 10000 8.75 260 00:18 06.02.2021
2859 Clouds -10 1007 53 10000 9.77 260 23:30 05.02.2021
2860 Clouds -9 1011 67 2780 0.45 20 22:51 05.02.2021
2861 Clouds -9 1011 65 2877 0.89 323 22:25 05.02.2021
2862 Clouds -9 1006 57 10000 10.29 250 21:57 05.02.2021
2863 Clouds -9 1006 57 10000 10.29 250 21:37 05.02.2021
2864 Clouds -9 1006 57 10000 8.23 260 20:56 05.02.2021
2865 Clouds -9 1006 57 10000 8.23 260 20:20 05.02.2021
2866 Clouds -9 1010 64 10000 2.24 58 19:45 05.02.2021
2867 Clouds -9 1006 53 10000 9.77 260 19:18 05.02.2021
2868 Clouds -10 1006 53 10000 9.77 260 18:40 05.02.2021
2869 Clouds -10 1006 53 10000 9.77 260 18:19 05.02.2021
2870 Clouds -10 1005 57 10000 9.77 260 17:38 05.02.2021
2871 Clouds -10 1005 57 10000 9.77 260 17:19 05.02.2021
2872 Clouds -10 1004 57 10000 10.8 260 16:43 05.02.2021
2873 Clouds -11 1003 71 10000 5.81 283 16:21 05.02.2021
2874 Clouds -11 1004 62 10000 11.83 260 15:50 05.02.2021
2875 Clouds -11 1008 74 10000 7.98 266 15:22 05.02.2021
2876 Clouds -11 1003 67 10000 9.26 260 14:38 05.02.2021
2877 Clouds -11 1003 67 10000 9.26 260 14:20 05.02.2021
2878 Clouds -11 1002 77 10000 4.47 278 13:52 05.02.2021
2879 Clouds -11 1003 67 10000 9.26 260 13:32 05.02.2021
2880 Clouds -11 1003 67 10000 9.26 260 12:44 05.02.2021
2881 Clouds -11 1003 67 10000 9.26 260 12:23 05.02.2021
2882 Clouds -11 1002 73 10000 8.23 260 11:39 05.02.2021
2883 Snow -11 1002 73 10000 9.77 260 11:20 05.02.2021
2884 Snow -10 1002 67 10000 8.23 270 10:49 05.02.2021
2885 Snow -10 1002 67 10000 8.23 270 10:25 05.02.2021
2886 Snow -10 1001 67 10000 11.32 270 09:43 05.02.2021
2887 Snow -10 1001 67 10000 11.32 270 09:24 05.02.2021
2888 Snow -9 1001 67 8047 11.32 280 08:47 05.02.2021
2889 Snow -8 1004 83 8234 0.89 155 07:52 05.02.2021
2890 Clouds -8 1003 84 8234 9.38 268 07:34 05.02.2021
2891 Snow -7 998 79 9656 12.35 270 06:42 05.02.2021
2892 Snow -5 997 80 6437 11.32 260 05:35 05.02.2021
2893 Snow 0 993 86 2816 8.23 250 02:27 05.02.2021
2894 Snow 1 993 80 2816 11.32 250 01:59 05.02.2021
2895 Mist 1 992 86 1207 6.17 190 00:38 05.02.2021
2896 Snow 1 993 86 1207 5.66 180 00:19 05.02.2021
2897 Snow 1 993 86 1207 5.66 180 23:55 04.02.2021
2898 Snow 1 994 86 1609 7.2 170 23:36 04.02.2021
2899 Snow 1 994 86 1609 7.2 170 23:18 04.02.2021
2900 Snow 1 994 86 1609 7.2 180 22:43 04.02.2021
2901 Snow 1 994 86 2012 7.72 170 22:25 04.02.2021
2902 Snow 1 996 86 1609 5.14 160 21:42 04.02.2021
2903 Mist 1 996 86 1609 5.14 160 21:19 04.02.2021
2904 Fog 1 998 80 805 7.72 170 20:46 04.02.2021
2905 Snow 2 998 80 1207 7.2 170 20:26 04.02.2021
2906 Clouds 3 1003 66 5056 1.79 111 19:42 04.02.2021
2907 Clouds 3 1005 66 10000 1.34 236 18:51 04.02.2021
2908 Clouds 3 1005 66 10000 0.45 73 18:25 04.02.2021
2909 Clouds 3 1004 60 10000 5.14 170 17:53 04.02.2021
2910 Clouds 3 1004 60 10000 5.14 170 17:25 04.02.2021
2911 Clouds 2 1006 55 10000 6.17 170 16:56 04.02.2021
2912 Clouds 2 1006 55 10000 6.17 170 16:38 04.02.2021
2913 Clouds 2 1006 55 10000 6.17 170 16:18 04.02.2021
2914 Clouds 1 1007 60 10000 5.66 170 15:39 04.02.2021
2915 Clouds 1 1007 60 10000 5.66 170 15:20 04.02.2021
2916 Clouds 1 1007 72 10000 2.68 211 14:42 04.02.2021
2917 Clouds 1 1007 60 10000 5.66 160 14:20 04.02.2021
2918 Clouds 0 1008 74 10000 2.68 200 13:45 04.02.2021
2919 Clouds 0 1011 69 10000 4.12 180 13:24 04.02.2021
2920 Clouds -1 1009 78 10000 2.24 206 12:52 04.02.2021
2921 Clouds -1 1009 78 10000 2.24 206 12:52 04.02.2021
2922 Clouds -1 1011 69 10000 4.63 180 11:54 04.02.2021
2923 Clouds -1 1011 69 10000 4.63 180 11:34 04.02.2021
2924 Clouds -1 1012 69 10000 4.63 170 10:54 04.02.2021
2925 Clouds -1 1012 69 10000 4.63 170 10:33 04.02.2021
2926 Clouds -1 1013 69 10000 3.6 180 09:45 04.02.2021
2927 Clouds -1 1013 69 10000 3.6 180 09:20 04.02.2021
2928 Clouds -1 1013 69 10000 5.14 190 08:51 04.02.2021
2929 Clouds -1 1013 69 10000 5.14 190 08:26 04.02.2021
2930 Clouds -1 1013 78 10000 2.24 206 07:56 04.02.2021
2931 Clouds -1 1014 69 10000 4.12 180 07:33 04.02.2021
2932 Clouds -1 1014 69 10000 4.12 180 06:45 04.02.2021
2933 Clouds -2 1015 69 10000 4.12 160 05:45 04.02.2021
2934 Clouds -3 1017 64 10000 3.09 180 02:30 04.02.2021
2935 Clouds -1 1017 64 10000 3.6 190 01:24 04.02.2021
2936 Clouds 0 1018 51 10000 3.09 190 23:55 03.02.2021
2937 Clouds 1 1018 51 10000 3.09 190 23:30 03.02.2021
2938 Clouds 2 1018 48 10000 3.6 210 22:38 03.02.2021
2939 Clouds 1 1018 48 10000 3.6 210 22:20 03.02.2021
2940 Clouds 2 1018 48 10000 2.06 180 21:51 03.02.2021
2941 Clouds 2 1018 48 10000 2.06 180 21:24 03.02.2021
2942 Clouds 1 1019 51 10000 1.54 230 20:51 03.02.2021
2943 Clouds 1 1019 51 10000 1.54 230 20:31 03.02.2021
2944 Clear 1 1019 69 10000 0.89 209 19:55 03.02.2021
2945 Clouds 0 1021 59 10000 1.76 256 19:25 03.02.2021
2946 Clouds 0 1021 59 10000 1.76 256 18:58 03.02.2021
2947 Clouds 0 1021 59 10000 1.35 243 18:37 03.02.2021
2948 Clouds -1 1021 59 10000 1.69 258 18:19 03.02.2021
2949 Clear -1 1025 68 10000 1.69 258 17:44 03.02.2021
2950 Clear -2 1021 72 10000 0.45 319 17:24 03.02.2021
2951 Clear -3 1021 75 10000 0.82 299 16:42 03.02.2021
2952 Clear -4 1022 79 10000 1.99 307 16:22 03.02.2021
2953 Clear -6 1022 79 10000 2.57 280 15:40 03.02.2021
2954 Clear -7 1022 79 10000 2.57 280 15:22 03.02.2021
2955 Clouds -8 1022 79 10000 2.57 310 14:45 03.02.2021
2956 Clouds -7 1022 79 10000 2.57 310 14:22 03.02.2021
2957 Clouds -8 1021 86 10000 1.34 283 13:47 03.02.2021
2958 Clear -7 1022 73 10000 1.54 310 13:21 03.02.2021
2959 Clear -7 1022 73 10000 1.54 310 12:42 03.02.2021
2960 Clear -7 1022 73 10000 1.54 310 12:21 03.02.2021
2961 Clear -7 1022 79 10000 2.57 300 11:43 03.02.2021
2962 Clear -7 1022 79 10000 2.57 300 11:24 03.02.2021
2963 Clear -6 1022 79 10000 3.09 310 10:42 03.02.2021
2964 Clear -6 1022 79 10000 3.09 310 10:20 03.02.2021
2965 Clear -5 1022 74 10000 3.6 300 09:43 03.02.2021
2966 Clear -5 1022 74 10000 3.6 300 09:20 03.02.2021
2967 Clouds -5 1022 68 10000 3.09 310 08:48 03.02.2021
2968 Clouds -4 1022 68 10000 3.09 320 07:58 03.02.2021
2969 Clouds -3 1022 68 10000 3.09 320 07:19 03.02.2021
2970 Clouds -3 1023 64 10000 3.6 300 06:38 03.02.2021
2971 Clouds -2 1027 74 10000 0.89 346 04:49 03.02.2021
2972 Clouds -2 1023 59 10000 4.12 360 03:53 03.02.2021
2973 Clouds -1 1023 64 10000 4.63 360 02:42 03.02.2021
2974 Clouds -1 1023 64 10000 5.14 350 01:48 03.02.2021
2975 Clouds -1 1023 59 10000 5.66 350 00:25 03.02.2021
2976 Clouds -1 1027 69 10000 5.07 344 23:44 02.02.2021
2977 Clouds 0 1023 55 10000 5.66 340 23:26 02.02.2021
2978 Clouds 0 1027 68 10000 2.24 323 22:51 02.02.2021
2979 Clouds 0 1023 55 10000 6.17 350 22:21 02.02.2021
2980 Clouds 0 1027 67 10000 1.34 309 21:47 02.02.2021
2981 Clouds 0 1027 68 10000 5.35 334 21:27 02.02.2021
2982 Clouds 0 1023 55 10000 6.17 330 20:50 02.02.2021
2983 Clouds 0 1023 55 10000 6.17 330 20:23 02.02.2021
2984 Clouds 0 1028 69 10000 1.79 322 19:58 02.02.2021
2985 Clouds 0 1028 69 10000 1.79 308 19:39 02.02.2021
2986 Clouds 0 1024 59 10000 5.66 320 19:21 02.02.2021
2987 Clouds 0 1024 59 10000 5.66 320 18:41 02.02.2021
2988 Clouds 0 1024 59 10000 5.66 320 18:23 02.02.2021
2989 Clouds -1 1024 64 10000 6.17 330 17:40 02.02.2021
2990 Clouds -1 1024 64 10000 6.17 330 17:21 02.02.2021
2991 Clouds -2 1029 76 10000 0.45 340 16:50 02.02.2021
2992 Clouds -2 1024 68 10000 4.63 320 16:31 02.02.2021
2993 Clouds -3 1029 80 10000 0.45 17 15:57 02.02.2021
2994 Clouds -4 1024 79 10000 3.09 310 15:33 02.02.2021
2995 Clouds -5 1024 79 10000 2.57 320 14:56 02.02.2021
2996 Clouds -5 1024 79 10000 2.57 320 14:37 02.02.2021
2997 Clouds -5 1024 79 10000 2.57 320 14:18 02.02.2021
2998 Clouds -6 1023 83 10000 1.79 9 13:42 02.02.2021
2999 Clouds -6 1024 79 10000 3.6 330 13:22 02.02.2021
3000 Clouds -5 1024 79 10000 3.6 330 12:53 02.02.2021
3001 Clouds -5 1024 79 10000 3.6 330 12:22 02.02.2021
3002 Clouds -6 1023 79 10000 3.6 310 11:38 02.02.2021
3003 Clouds -6 1023 79 10000 3.6 310 11:18 02.02.2021
3004 Clouds -5 1024 79 10000 3.09 330 10:43 02.02.2021
3005 Clouds -5 1024 79 10000 3.09 330 10:25 02.02.2021
3006 Clouds -5 1024 74 10000 4.12 320 09:45 02.02.2021
3007 Clouds -4 1024 74 10000 4.12 320 09:21 02.02.2021
3008 Clouds -5 1024 79 10000 3.6 310 08:38 02.02.2021
3009 Clouds -5 1024 74 10000 4.12 310 07:46 02.02.2021
3010 Clouds -4 1024 68 10000 4.12 320 06:49 02.02.2021
3011 Clouds -4 1024 68 10000 4.12 320 06:31 02.02.2021
3012 Clouds -4 1024 68 10000 4.12 330 05:51 02.02.2021
3013 Clear -3 1024 59 10000 4.12 320 03:35 02.02.2021
3014 Clouds -2 1024 69 10000 4.12 330 02:24 02.02.2021
3015 Clouds -1 1023 64 10000 4.63 360 00:38 02.02.2021
3016 Clouds -1 1027 75 10000 0.45 58 23:56 01.02.2021
3017 Clouds 0 1022 60 10000 5.66 10 22:57 01.02.2021
3018 Clouds 0 1022 60 10000 5.66 10 22:57 01.02.2021
3019 Clouds 0 1022 60 10000 5.66 10 22:57 01.02.2021
3020 Clouds 0 1022 60 10000 5.66 10 22:38 01.02.2021
3021 Clouds 0 1026 72 10000 0.89 9 22:19 01.02.2021
3022 Clouds 0 1022 60 10000 6.17 10 21:43 01.02.2021
3023 Clouds 0 1022 60 10000 6.17 10 21:22 01.02.2021
3024 Clouds 0 1022 60 10000 5.66 10 20:42 01.02.2021
3025 Clouds 0 1022 60 10000 5.66 10 20:24 01.02.2021
3026 Clouds 0 1026 76 10000 0.45 352 19:42 01.02.2021
3027 Clouds 0 1026 78 10000 6.49 353 19:21 01.02.2021
3028 Clouds -1 1023 69 10000 5.14 340 18:51 01.02.2021
3029 Clouds -1 1023 69 10000 5.14 340 18:29 01.02.2021
3030 Clouds -1 1023 74 10000 5.66 320 17:57 01.02.2021
3031 Clouds -1 1023 74 10000 5.66 320 17:39 01.02.2021
3032 Clouds -2 1023 74 10000 5.66 320 17:18 01.02.2021
3033 Clouds -2 1022 74 10000 4.63 340 16:33 01.02.2021
3034 Clouds -2 1022 74 10000 5.66 340 15:50 01.02.2021
3035 Clouds -2 1022 80 10000 5.14 330 15:21 01.02.2021
3036 Clouds -2 1022 74 10000 5.14 340 14:57 01.02.2021
3037 Clouds -2 1022 74 10000 5.14 340 14:39 01.02.2021
3038 Clouds -2 1021 88 10000 3.13 7 13:56 01.02.2021
3039 Clouds -2 1021 74 10000 5.66 330 13:38 01.02.2021
3040 Clouds -2 1021 74 10000 5.66 330 13:38 01.02.2021
3041 Clouds -2 1021 74 10000 5.66 330 13:19 01.02.2021
3042 Clouds -2 1021 74 10000 5.66 330 12:44 01.02.2021
3043 Clouds -2 1021 74 10000 5.66 330 12:23 01.02.2021
3044 Clouds -2 1020 80 10000 6.69 340 11:42 01.02.2021
3045 Clouds -2 1020 80 10000 6.69 340 11:20 01.02.2021
3046 Clouds -2 1020 89 10000 3.13 8 10:46 01.02.2021
3047 Clouds -2 1020 90 10000 4.02 356 10:20 01.02.2021
3048 Clouds -2 1020 80 10000 6.69 340 09:44 01.02.2021
3049 Clouds -1 1020 80 10000 6.69 340 09:24 01.02.2021
3050 Clouds -1 1024 90 10000 0.89 21 08:51 01.02.2021
3051 Clouds -1 1019 74 10000 5.66 330 07:53 01.02.2021
3052 Clouds 0 1018 60 10000 4.63 10 06:34 01.02.2021
3053 Snow -1 1022 95 998 7.42 30 04:21 01.02.2021
3054 Snow 0 1017 86 4023 6.69 20 01:41 01.02.2021
3055 Snow 0 1015 86 1207 8.23 30 23:45 31.01.2021
3056 Snow 0 1015 86 1207 7.72 30 22:44 31.01.2021
3057 Snow 0 1014 86 2414 7.72 30 22:25 31.01.2021
3058 Snow 0 1013 80 2414 8.23 20 21:55 31.01.2021
3059 Snow 0 1013 80 2414 8.23 20 21:26 31.01.2021
3060 Snow -1 1013 86 2012 5.66 20 21:00 31.01.2021
3061 Snow -1 1013 86 2012 5.66 20 20:37 31.01.2021
3062 Snow 0 1013 86 2012 5.66 20 20:18 31.01.2021
3063 Snow 0 1013 86 1609 5.66 40 19:37 31.01.2021
3064 Mist 0 1013 86 1609 5.66 40 19:19 31.01.2021
3065 Snow 0 1013 86 1609 5.66 40 18:42 31.01.2021
3066 Snow 0 1013 86 3219 5.14 40 18:23 31.01.2021
3067 Snow 0 1012 86 4828 6.69 60 17:49 31.01.2021
3068 Snow -1 1012 93 4023 7.2 60 17:24 31.01.2021
3069 Snow -1 1012 93 1609 6.69 60 16:58 31.01.2021
3070 Snow -1 1012 93 1609 6.69 60 16:39 31.01.2021
3071 Mist -1 1011 93 1207 7.2 70 16:19 31.01.2021
3072 Snow -1 1011 86 1207 8.23 70 15:43 31.01.2021
3073 Snow -1 1010 86 2816 7.2 70 14:50 31.01.2021
3074 Snow -1 1010 86 3219 7.2 80 14:28 31.01.2021
3075 Snow -1 1010 86 4023 8.23 70 13:57 31.01.2021
3076 Snow -1 1010 86 4023 6.17 80 13:38 31.01.2021
3077 Snow -1 1009 93 3219 7.2 80 12:56 31.01.2021
3078 Snow -1 1009 93 3219 7.2 80 12:37 31.01.2021
3079 Snow -1 1009 93 3219 7.2 80 12:19 31.01.2021
3080 Snow -1 1009 93 2012 8.75 80 11:38 31.01.2021
3081 Snow -1 1009 93 2012 8.75 80 11:19 31.01.2021
3082 Snow -1 1009 93 1609 7.2 90 10:44 31.01.2021
3083 Snow -1 1009 93 1609 7.2 90 10:25 31.01.2021
3084 Snow -1 1009 93 1609 8.75 90 09:34 31.01.2021
3085 Snow -2 1009 93 1207 8.23 80 08:34 31.01.2021
3086 Mist -1 1009 86 1609 8.75 90 07:50 31.01.2021
3087 Snow -1 1011 86 1207 8.23 90 06:25 31.01.2021
3088 Snow -1 1013 86 2012 8.23 100 02:19 31.01.2021
3089 Snow -1 1013 86 3219 8.75 110 00:28 31.01.2021
3090 Snow -1 1015 86 1609 7.72 110 23:43 30.01.2021
3091 Snow -1 1015 86 1609 7.72 110 23:22 30.01.2021
3092 Snow 1 1015 70 295 2.24 152 22:37 30.01.2021
3093 Snow 1 1014 55 10000 11.32 110 21:45 30.01.2021
3094 Clouds 1 1014 55 10000 11.32 110 21:24 30.01.2021
3095 Clouds 1 1016 51 10000 7.72 120 20:58 30.01.2021
3096 Clouds 1 1016 51 10000 7.72 120 20:38 30.01.2021
3097 Clouds 1 1021 69 10000 0.89 44 19:59 30.01.2021
3098 Clouds 0 1021 68 10000 8.48 129 19:40 30.01.2021
3099 Clouds 0 1019 51 10000 7.2 130 19:19 30.01.2021
3100 Clouds 0 1019 51 10000 7.2 130 19:19 30.01.2021
3101 Clouds 0 1019 51 10000 7.2 130 18:40 30.01.2021
3102 Clouds 0 1019 51 10000 7.2 130 18:20 30.01.2021
3103 Clouds 0 1020 55 10000 7.2 130 17:45 30.01.2021
3104 Clouds 0 1020 55 10000 7.2 130 17:19 30.01.2021
3105 Clouds 0 1024 68 10000 7.5 136 16:41 30.01.2021
3106 Clouds 0 1020 59 10000 7.2 120 16:22 30.01.2021
3107 Clouds -1 1019 55 10000 8.23 140 15:49 30.01.2021
3108 Clouds -1 1019 55 10000 8.23 140 15:24 30.01.2021
3109 Clouds -1 1020 55 10000 7.2 140 14:52 30.01.2021
3110 Clouds -1 1020 55 10000 7.2 140 14:32 30.01.2021
3111 Clouds -1 1019 67 10000 1.79 147 13:57 30.01.2021
3112 Clouds -1 1022 59 10000 6.69 140 13:21 30.01.2021
3113 Clouds -1 1022 59 10000 6.69 140 12:44 30.01.2021
3114 Clouds -1 1022 59 10000 6.69 140 12:26 30.01.2021
3115 Clouds -1 1023 59 10000 5.14 140 11:46 30.01.2021
3116 Clouds -2 1023 64 10000 4.63 140 10:57 30.01.2021
3117 Clouds -1 1023 64 10000 4.63 140 10:28 30.01.2021
3118 Clouds -1 1023 64 10000 5.14 130 09:42 30.01.2021
3119 Clouds -2 1023 64 10000 5.14 130 09:24 30.01.2021
3120 Clouds -1 1024 55 10000 4.63 140 08:44 30.01.2021
3121 Clouds -1 1028 73 10000 0.45 162 07:42 30.01.2021
3122 Clouds -1 1025 59 10000 4.63 120 06:33 30.01.2021
3123 Clouds -1 1026 59 10000 3.6 120 03:53 30.01.2021
3124 Clouds -1 1026 59 10000 3.6 120 03:31 30.01.2021
3125 Clouds -1 1025 59 10000 4.12 110 02:22 30.01.2021
3126 Clouds 0 1027 51 10000 3.6 150 00:56 30.01.2021
3127 Clouds -1 1027 51 10000 3.6 150 00:27 30.01.2021
3128 Clouds -1 1027 43 10000 3.09 150 23:54 29.01.2021
3129 Clouds -1 1027 43 10000 3.09 150 23:28 29.01.2021
3130 Clouds -1 1027 43 10000 4.63 140 22:47 29.01.2021
3131 Clouds 0 1027 43 10000 4.63 140 22:28 29.01.2021
3132 Clouds 0 1027 37 10000 4.12 150 21:59 29.01.2021
3133 Clouds 0 1027 37 10000 4.12 150 21:27 29.01.2021
3134 Clouds 0 1028 43 10000 4.63 170 20:43 29.01.2021
3135 Clouds 0 1028 43 10000 4.63 170 20:24 29.01.2021
3136 Clear 0 1033 54 10000 0.45 144 19:40 29.01.2021
3137 Clear -1 1034 53 10000 3.63 161 19:21 29.01.2021
3138 Clear -1 1034 50 10000 3.61 153 18:55 29.01.2021
3139 Clear -2 1035 49 10000 0.45 153 17:50 29.01.2021
3140 Clear -3 1036 53 10000 3.15 165 17:23 29.01.2021
3141 Clear -3 1036 55 10000 3.15 165 16:54 29.01.2021
3142 Clouds -5 1031 58 10000 3.09 190 16:28 29.01.2021
3143 Clear -5 1036 60 10000 2.47 166 15:59 29.01.2021
3144 Clear -5 1036 63 10000 2.47 166 15:41 29.01.2021
3145 Clear -5 1036 63 10000 2.47 166 15:41 29.01.2021
3146 Clouds -6 1031 63 10000 2.06 170 15:21 29.01.2021
3147 Clouds -8 1031 58 10000 2.57 170 14:23 29.01.2021
3148 Clear -9 1034 62 10000 1.74 170 13:57 29.01.2021
3149 Clouds -8 1032 58 10000 1.54 180 13:33 29.01.2021
3150 Clouds -8 1032 58 10000 1.54 180 12:43 29.01.2021
3151 Clouds -7 1032 58 10000 1.54 180 12:19 29.01.2021
3152 Clouds -7 1032 63 10000 0.91 258 11:45 29.01.2021
3153 Clouds -7 1032 63 10000 1.09 254 11:18 29.01.2021
3154 Clouds -7 1032 63 10000 1.09 254 10:47 29.01.2021
3155 Clouds -7 1032 63 10000 0.89 272 10:25 29.01.2021
3156 Clouds -7 1033 63 10000 0.89 272 09:41 29.01.2021
3157 Clouds -8 1033 63 10000 0.85 285 08:52 29.01.2021
3158 Clouds -8 1033 63 10000 1.22 276 08:27 29.01.2021
3159 Clouds -9 1034 73 10000 1.22 276 07:51 29.01.2021
3160 Clouds -8 1034 62 10000 1.71 265 07:31 29.01.2021
3161 Clouds -8 1034 62 10000 1.67 269 06:49 29.01.2021
3162 Clear -9 1035 57 10000 1.83 292 04:53 29.01.2021
3163 Clear -7 1035 53 10000 2.06 290 02:26 29.01.2021
3164 Clouds -5 1036 39 10000 2.06 320 00:37 29.01.2021
3165 Clouds -5 1036 39 10000 2.06 320 00:19 29.01.2021
3166 Clouds -4 1036 39 10000 1.54 330 23:41 28.01.2021
3167 Clouds -4 1036 39 10000 1.54 330 23:22 28.01.2021
3168 Clouds -4 1037 39 10000 2.57 270 22:42 28.01.2021
3169 Clouds -4 1037 39 10000 2.57 270 22:24 28.01.2021
3170 Clouds -4 1037 39 10000 2.57 300 21:48 28.01.2021
3171 Clouds -4 1037 39 10000 2.57 300 21:30 28.01.2021
3172 Clouds -4 1037 42 10000 4.12 350 20:47 28.01.2021
3173 Clouds -5 1037 42 10000 4.12 350 20:20 28.01.2021
3174 Clouds -5 1042 51 10000 0.89 333 19:59 28.01.2021
3175 Clouds -5 1043 52 10000 0.89 335 19:36 28.01.2021
3176 Clouds -5 1038 45 10000 4.12 10 19:18 28.01.2021
3177 Clouds -5 1038 45 10000 4.12 10 18:41 28.01.2021
3178 Clouds -6 1038 45 10000 4.12 10 18:19 28.01.2021
3179 Clouds -6 1039 49 10000 5.66 330 17:44 28.01.2021
3180 Clouds -7 1039 49 10000 5.66 330 17:24 28.01.2021
3181 Clouds -8 1038 57 10000 3.6 330 16:44 28.01.2021
3182 Clouds -8 1038 57 10000 3.6 330 16:21 28.01.2021
3183 Clouds -10 1041 72 10000 4.13 315 15:39 28.01.2021
3184 Clouds -11 1036 67 10000 3.6 330 14:58 28.01.2021
3185 Clouds -11 1036 67 10000 3.6 330 14:39 28.01.2021
3186 Clouds -11 1036 67 10000 3.6 330 14:20 28.01.2021
3187 Clouds -11 1036 67 10000 3.6 330 14:20 28.01.2021
3188 Clouds -11 1034 75 10000 0.89 319 13:44 28.01.2021
3189 Clear -11 1036 67 10000 3.6 310 12:53 28.01.2021
3190 Clear -11 1036 67 10000 3.6 310 12:34 28.01.2021
3191 Clear -10 1036 62 10000 5.66 330 11:59 28.01.2021
3192 Clear -10 1036 62 10000 5.66 330 11:40 28.01.2021
3193 Clear -10 1036 62 10000 5.66 330 11:19 28.01.2021
3194 Clear -10 1034 57 10000 5.14 330 10:50 28.01.2021
3195 Clear -10 1034 57 10000 5.14 330 10:32 28.01.2021
3196 Clear -9 1034 62 10000 4.63 330 09:44 28.01.2021
3197 Clear -9 1034 62 10000 4.63 330 09:22 28.01.2021
3198 Clouds -9 1034 62 10000 5.14 330 08:54 28.01.2021
3199 Clouds -9 1034 62 10000 5.14 330 08:18 28.01.2021
3200 Clouds -9 1032 72 10000 2.68 355 07:44 28.01.2021
3201 Clouds -9 1033 67 10000 4.63 330 06:49 28.01.2021
3202 Clear -9 1033 62 10000 6.17 340 05:35 28.01.2021
3203 Clouds -8 1031 71 9795 2.24 5 03:49 28.01.2021
3204 Clouds -4 1030 75 10000 2.68 1 01:37 28.01.2021
3205 Clouds -3 1028 79 10000 2.68 16 23:47 27.01.2021
3206 Snow -3 1028 69 10000 5.66 360 23:23 27.01.2021
3207 Snow -3 1027 69 10000 4.63 350 22:41 27.01.2021
3208 Snow -3 1027 69 10000 4.63 350 22:21 27.01.2021
3209 Snow -3 1027 74 10000 4.63 360 21:43 27.01.2021
3210 Snow -3 1027 74 10000 4.63 360 21:23 27.01.2021
3211 Snow -3 1027 74 10000 5.14 360 20:52 27.01.2021
3212 Snow -3 1027 74 10000 5.14 360 20:24 27.01.2021
3213 Snow -4 1026 88 7894 2.24 23 19:49 27.01.2021
3214 Snow -3 1028 80 10000 4.12 30 19:23 27.01.2021
3215 Snow -3 1028 80 10000 4.12 30 18:46 27.01.2021
3216 Snow -3 1028 80 10000 4.12 30 18:24 27.01.2021
3217 Clouds -3 1027 74 10000 4.63 30 17:55 27.01.2021
3218 Clouds -3 1027 74 10000 4.63 30 17:35 27.01.2021
3219 Clouds -4 1027 74 10000 4.63 10 16:57 27.01.2021
3220 Clouds -4 1027 74 10000 4.63 10 16:39 27.01.2021
3221 Clouds -4 1027 74 10000 4.63 10 16:21 27.01.2021
3222 Clouds -4 1026 74 10000 5.14 350 15:49 27.01.2021
3223 Clouds -4 1026 74 10000 5.14 350 15:29 27.01.2021
3224 Clouds -4 1026 74 10000 6.17 360 14:24 27.01.2021
3225 Clouds -4 1026 74 10000 4.12 330 13:53 27.01.2021
3226 Clouds -4 1026 74 10000 4.12 330 13:35 27.01.2021
3227 Clouds -4 1025 74 10000 4.12 350 12:42 27.01.2021
3228 Snow -4 1023 68 10000 5.66 20 12:23 27.01.2021
3229 Snow -4 1025 68 10000 5.14 360 11:48 27.01.2021
3230 Snow -4 1025 68 10000 5.14 360 11:26 27.01.2021
3231 Snow -4 1025 63 10000 5.14 340 10:47 27.01.2021
3232 Snow -4 1025 63 10000 5.14 340 10:25 27.01.2021
3233 Snow -4 1025 63 10000 5.14 340 09:55 27.01.2021
3234 Snow -4 1025 63 10000 6.17 330 09:28 27.01.2021
3235 Snow -4 1024 63 10000 4.63 330 08:42 27.01.2021
3236 Snow -4 1023 77 584 3.58 344 07:49 27.01.2021
3237 Clouds -4 1022 68 10000 5.66 350 07:30 27.01.2021
3238 Clouds -4 1022 79 4725 2.68 8 06:26 27.01.2021
3239 Clouds -4 1021 79 4725 3.13 352 05:53 27.01.2021
3240 Snow -4 1022 68 10000 6.69 350 05:33 27.01.2021
3241 Snow -2 1019 87 1495 3.58 17 02:46 27.01.2021
3242 Snow -2 1019 74 10000 5.66 360 02:20 27.01.2021
3243 Snow -1 1017 86 8047 7.72 360 00:56 27.01.2021
3244 Snow -1 1017 86 8047 7.72 360 00:18 27.01.2021
3245 Snow -1 1016 86 1609 4.12 360 23:32 26.01.2021
3246 Snow 0 1015 80 805 6.69 360 22:58 26.01.2021
3247 Snow 0 1015 80 805 6.69 360 22:37 26.01.2021
3248 Mist 0 1014 80 4828 5.66 10 22:18 26.01.2021
3249 Snow 0 1014 80 1609 6.17 20 21:46 26.01.2021
3250 Snow 0 1013 80 6437 6.17 10 21:21 26.01.2021
3251 Snow 0 1012 80 2816 5.14 20 20:41 26.01.2021
3252 Snow 0 1012 80 2816 5.14 20 20:23 26.01.2021
3253 Snow 0 1011 80 4828 5.66 20 19:50 26.01.2021
3254 Snow 0 1011 80 4828 5.66 20 19:29 26.01.2021
3255 Mist -1 1011 80 4828 5.66 20 18:57 26.01.2021
3256 Snow -1 1011 80 4828 5.66 20 18:39 26.01.2021
3257 Snow -1 1010 96 227 4.47 37 18:19 26.01.2021
3258 Snow -1 1010 86 6437 4.63 30 17:46 26.01.2021
3259 Snow -1 1010 80 1207 6.69 50 17:22 26.01.2021
3260 Mist -1 1009 86 4828 8.23 60 16:42 26.01.2021
3261 Mist -1 1009 86 4828 8.23 60 16:42 26.01.2021
3262 Snow -1 1008 86 4828 7.2 50 16:20 26.01.2021
3263 Snow -1 1007 86 10000 7.72 60 15:49 26.01.2021
3264 Snow -1 1007 86 10000 7.72 60 15:27 26.01.2021
3265 Snow -1 1006 86 9656 8.75 50 14:49 26.01.2021
3266 Snow -1 1006 86 9656 8.75 50 14:29 26.01.2021
3267 Snow -1 1007 86 6437 7.72 50 13:42 26.01.2021
3268 Snow -1 1006 86 6437 8.75 60 13:21 26.01.2021
3269 Snow -1 1006 86 6437 8.75 60 12:44 26.01.2021
3270 Snow -1 1006 86 6437 8.75 60 12:25 26.01.2021
3271 Snow -1 1006 93 2816 6.17 60 11:58 26.01.2021
3272 Snow -1 1006 93 1207 7.2 50 11:38 26.01.2021
3273 Snow -1 1006 93 1207 8.75 60 10:47 26.01.2021
3274 Snow -1 1006 93 1207 8.75 60 10:29 26.01.2021
3275 Snow -1 1006 93 1207 7.2 70 09:47 26.01.2021
3276 Snow -1 1006 93 1207 7.2 70 09:26 26.01.2021
3277 Snow -1 1006 93 1207 7.72 60 08:53 26.01.2021
3278 Snow -1 1006 93 1207 7.72 60 08:29 26.01.2021
3279 Snow -1 1007 86 1207 7.72 80 07:43 26.01.2021
3280 Snow -1 1012 91 162 0.89 195 06:23 26.01.2021
3281 Snow 0 1012 90 162 8.71 72 05:43 26.01.2021
3282 Snow 0 1010 80 2414 10.29 70 04:28 26.01.2021
3283 Snow 0 1011 86 1609 9.26 70 02:44 26.01.2021
3284 Snow 0 1017 80 970 8.78 63 00:56 26.01.2021
3285 Snow 1 1013 69 10000 7.72 70 23:39 25.01.2021
3286 Clouds 1 1013 64 10000 8.75 60 22:57 25.01.2021
3287 Clouds 1 1013 64 10000 8.75 60 22:38 25.01.2021
3288 Clouds 1 1013 69 10000 7.72 80 21:50 25.01.2021
3289 Clouds 1 1013 69 10000 7.72 80 21:28 25.01.2021
3290 Clouds 1 1014 69 10000 7.72 90 20:52 25.01.2021
3291 Clouds 1 1014 69 10000 7.72 90 20:33 25.01.2021
3292 Clouds 1 1015 69 10000 6.17 70 19:52 25.01.2021
3293 Clouds 1 1015 69 10000 6.17 70 19:32 25.01.2021
3294 Clouds 1 1017 69 10000 3.6 70 18:49 25.01.2021
3295 Clouds 1 1017 69 10000 3.6 70 18:28 25.01.2021
3296 Clouds 1 1018 69 10000 5.14 100 17:59 25.01.2021
3297 Clouds 1 1018 69 10000 5.14 100 17:41 25.01.2021
3298 Clouds 0 1018 69 10000 5.14 100 17:23 25.01.2021
3299 Clouds 0 1017 74 10000 3.6 30 16:41 25.01.2021
3300 Clouds 0 1017 74 10000 3.6 30 16:22 25.01.2021
3301 Clouds 0 1019 69 10000 3.09 360 15:50 25.01.2021
3302 Clouds -1 1019 69 10000 3.09 360 15:31 25.01.2021
3303 Clouds -1 1018 74 10000 4.12 20 14:50 25.01.2021
3304 Clouds -1 1018 74 10000 4.12 20 14:20 25.01.2021
3305 Clouds -1 1019 74 10000 4.12 10 13:54 25.01.2021
3306 Clouds -1 1019 74 10000 4.12 10 13:34 25.01.2021
3307 Clouds -1 1019 69 10000 3.09 10 12:46 25.01.2021
3308 Clouds -1 1019 69 10000 3.09 10 12:24 25.01.2021
3309 Clouds -1 1018 69 10000 5.66 20 11:55 25.01.2021
3310 Clouds -1 1018 69 10000 5.66 20 11:20 25.01.2021
3311 Clouds -1 1020 74 10000 3.6 350 10:43 25.01.2021
3312 Clouds -1 1020 74 10000 3.6 350 10:20 25.01.2021
3313 Clouds -1 1020 69 10000 3.09 330 09:46 25.01.2021
3314 Clouds -1 1020 69 10000 3.09 330 09:28 25.01.2021
3315 Clouds -1 1024 79 10000 1.96 18 08:32 25.01.2021
3316 Clouds -1 1023 79 10000 2.7 14 07:46 25.01.2021
3317 Clouds -1 1023 78 10000 3.18 5 07:26 25.01.2021
3318 Clouds 0 1019 64 10000 2.57 20 06:22 25.01.2021
3319 Clouds 1 1018 69 10000 2.06 10 01:34 25.01.2021
3320 Clouds 1 1018 64 10000 3.09 330 00:31 25.01.2021
3321 Clouds 1 1018 69 10000 3.09 310 23:20 24.01.2021
3322 Clouds 1 1018 64 10000 2.57 280 22:47 24.01.2021
3323 Clouds 1 1018 64 10000 2.57 280 22:27 24.01.2021
3324 -273 0 0 0 0 0 22:27 24.01.2021
3325 Clouds 1 1018 64 10000 2.57 280 22:25 24.01.2021
3326 Clouds 1 1017 64 10000 2.57 260 21:51 24.01.2021
3327 Clouds 1 1017 64 10000 2.57 200 21:24 24.01.2021
3328 Clouds 1 1017 64 10000 3.09 210 20:46 24.01.2021
3329 Clouds 1 1017 64 10000 3.09 210 20:22 24.01.2021
3330 Clouds 0 1021 78 10000 2.45 206 19:55 24.01.2021
3331 Clouds 0 1018 80 10000 3.09 180 19:28 24.01.2021
3332 Clouds 0 1019 74 10000 3.6 170 18:59 24.01.2021
3333 Clouds -1 1019 74 10000 3.6 170 18:40 24.01.2021
3334 Clouds -1 1019 74 10000 3.6 170 18:21 24.01.2021
3335 Clouds -1 1019 74 10000 2.57 180 17:51 24.01.2021
3336 Clouds -2 1019 86 10000 2.06 160 17:31 24.01.2021
3337 Snow -2 1019 80 8047 3.09 160 16:59 24.01.2021
3338 Snow -2 1019 80 8047 3.09 160 16:40 24.01.2021
3339 Snow -2 1019 80 8047 3.09 160 16:20 24.01.2021
3340 Snow -2 1019 80 9656 2.06 140 15:45 24.01.2021
3341 Snow -2 1019 80 9656 2.06 140 15:20 24.01.2021
3342 Snow -2 1019 80 10000 3.09 140 14:47 24.01.2021
3343 Snow -2 1019 80 10000 3.09 140 14:24 24.01.2021
3344 Snow -2 1019 74 2816 4.63 140 13:34 24.01.2021
3345 Snow -2 1020 59 10000 3.6 190 12:51 24.01.2021
3346 Snow -1 1019 51 10000 4.12 160 12:23 24.01.2021
3347 Snow -1 1020 47 10000 5.14 140 11:55 24.01.2021
3348 Clouds -1 1020 47 10000 5.14 140 11:27 24.01.2021
3349 Clouds -1 1021 51 10000 3.09 140 10:59 24.01.2021
3350 Clouds -1 1021 51 10000 3.09 140 10:30 24.01.2021
3351 Snow -1 1022 51 10000 3.6 120 09:47 24.01.2021
3352 Snow -1 1022 51 10000 3.6 120 09:47 24.01.2021
3353 Clouds -1 1022 51 10000 3.6 120 09:19 24.01.2021
3354 Clouds -1 1022 55 10000 4.12 140 08:38 24.01.2021
3355 Clouds -2 1025 50 10000 3.09 140 03:51 24.01.2021
3356 Clouds -2 1026 50 10000 3.6 160 02:19 24.01.2021
3357 Clouds -2 1026 43 10000 3.09 170 00:56 24.01.2021
3358 Clouds -2 1026 43 10000 3.09 170 00:21 24.01.2021
3359 Clouds -1 1027 43 10000 2.06 190 23:41 23.01.2021
3360 Clouds -1 1027 43 10000 2.06 190 23:20 23.01.2021
3361 Clouds -1 1027 46 10000 2.57 180 22:41 23.01.2021
3362 Clouds -1 1027 46 10000 2.57 180 22:20 23.01.2021
3363 Clouds -2 1027 43 10000 3.09 210 21:24 23.01.2021
3364 Clouds -1 1028 43 10000 3.6 200 20:58 23.01.2021
3365 Clouds -1 1028 43 10000 3.6 200 20:38 23.01.2021
3366 Clouds -2 1028 43 10000 3.6 200 20:20 23.01.2021
3367 Clouds -2 1028 46 10000 3.6 220 19:43 23.01.2021
3368 Clouds -2 1028 46 10000 3.6 220 19:20 23.01.2021
3369 Clouds -3 1029 46 10000 5.14 210 18:43 23.01.2021
3370 Clouds -3 1029 46 10000 5.14 210 18:23 23.01.2021
3371 Clouds -4 1034 55 10000 2.52 215 17:43 23.01.2021
3372 Clouds -5 1035 55 10000 2.12 212 17:24 23.01.2021
3373 Clouds -6 1034 56 10000 2.12 212 16:45 23.01.2021
3374 Clear -8 1034 58 10000 1.61 223 15:58 23.01.2021
3375 Clouds -10 1028 62 10000 1.81 248 15:30 23.01.2021
3376 Clouds -10 1029 62 10000 1.54 260 14:53 23.01.2021
3377 Clouds -11 1029 62 10000 1.54 260 14:28 23.01.2021
3378 Clear -11 1029 62 10000 2.06 280 13:50 23.01.2021
3379 Clear -11 1029 62 10000 2.06 280 13:26 23.01.2021
3380 Clear -11 1028 62 10000 2.06 290 12:46 23.01.2021
3381 Clear -11 1028 62 10000 2.06 290 12:25 23.01.2021
3382 Clear -11 1028 62 10000 2.06 290 11:44 23.01.2021
3383 Clear -11 1028 62 10000 2.06 290 11:18 23.01.2021
3384 Clear -11 1028 62 10000 2.57 270 10:27 23.01.2021
3385 Clear -10 1027 62 10000 2.06 280 09:54 23.01.2021
3386 Clear -10 1027 62 10000 2.06 280 09:29 23.01.2021
3387 Clear -11 1026 57 10000 2.06 310 08:44 23.01.2021
3388 Clear -10 1026 62 10000 1.54 290 07:50 23.01.2021
3389 Clear -10 1026 52 10000 2.57 290 06:59 23.01.2021
3390 Clear -9 1025 45 10000 3.09 300 03:34 23.01.2021
3391 Clouds -9 1023 41 10000 6.17 320 00:34 23.01.2021
3392 Clouds -8 1022 38 10000 4.63 290 23:36 22.01.2021
3393 Clouds -7 1022 42 10000 5.14 280 22:45 22.01.2021
3394 Clouds -7 1022 42 10000 5.14 280 22:21 22.01.2021
3395 Clouds -7 1021 38 10000 4.63 310 21:45 22.01.2021
3396 Clouds -6 1021 38 10000 4.63 310 21:24 22.01.2021
3397 Clouds -7 1021 42 10000 3.09 310 20:51 22.01.2021
3398 Clouds -7 1021 42 10000 3.09 310 20:31 22.01.2021
3399 Clouds -7 1021 42 10000 3.6 280 19:48 22.01.2021
3400 Clouds -7 1021 42 10000 3.6 280 19:21 22.01.2021
3401 Clouds -8 1021 49 10000 4.63 310 18:48 22.01.2021
3402 Clouds -8 1021 49 10000 4.63 310 18:26 22.01.2021
3403 Clouds -8 1021 45 10000 6.69 320 17:52 22.01.2021
3404 Clouds -9 1025 59 10000 5.33 310 17:33 22.01.2021
3405 Clouds -9 1020 53 10000 6.17 310 16:56 22.01.2021
3406 Clouds -9 1020 53 10000 6.17 310 16:31 22.01.2021
3407 Clouds -10 1019 57 10000 5.14 310 15:48 22.01.2021
3408 Clouds -10 1019 57 10000 5.14 310 15:25 22.01.2021
3409 Clouds -10 1017 61 10000 4.92 349 14:37 22.01.2021
3410 Clouds -9 1018 64 10000 6.67 322 14:18 22.01.2021
3411 Clouds -9 1016 60 10000 5.36 360 13:36 22.01.2021
3412 Clouds -8 1017 63 10000 6.79 320 12:59 22.01.2021
3413 Clear -7 1015 58 10000 7.72 340 12:28 22.01.2021
3414 Clouds -7 1014 59 10000 2.24 337 11:51 22.01.2021
3415 Clouds -7 1018 57 10000 2.68 349 11:32 22.01.2021
3416 Clouds -5 1018 57 10000 2.68 349 10:48 22.01.2021
3417 Clouds -5 1017 58 10000 2.24 120 10:23 22.01.2021
3418 Clouds -3 1012 59 10000 5.66 300 09:43 22.01.2021
3419 Clouds -2 1012 64 10000 6.17 290 08:57 22.01.2021
3420 Clouds -2 1012 64 10000 6.17 290 08:31 22.01.2021
3421 Clouds -1 1011 64 10000 5.66 280 07:41 22.01.2021
3422 Clouds 1 1010 55 10000 7.2 270 04:59 22.01.2021
3423 Clouds 2 1008 55 10000 6.69 270 01:20 22.01.2021
3424 Clouds 2 1007 52 10000 8.75 260 00:27 22.01.2021
3425 Clear 3 1011 62 10000 6.32 270 23:43 21.01.2021
3426 Clouds 3 1007 48 10000 8.75 270 23:20 21.01.2021
3427 Clouds 4 1007 48 10000 8.23 260 22:42 21.01.2021
3428 Clear 5 1010 52 10000 0.89 34 21:44 21.01.2021
3429 Clear 5 1010 51 10000 7.29 268 21:24 21.01.2021
3430 Clear 5 1010 51 10000 7.29 268 20:59 21.01.2021
3431 Clear 5 1006 42 10000 9.77 270 20:41 21.01.2021
3432 Clear 5 1006 42 10000 9.77 270 20:20 21.01.2021
3433 Clear 5 1010 52 10000 0.45 300 19:46 21.01.2021
3434 Clear 5 1010 53 10000 6.72 260 19:25 21.01.2021
3435 Clear 4 1011 55 10000 6.72 260 18:43 21.01.2021
3436 Clouds 4 1007 52 10000 8.23 260 18:21 21.01.2021
3437 Clouds 4 1008 52 10000 6.17 260 17:57 21.01.2021
3438 Clouds 3 1008 52 10000 6.17 260 17:21 21.01.2021
3439 Clear 3 1011 61 10000 6.12 264 16:56 21.01.2021
3440 Clear 2 1011 64 10000 6.12 264 16:38 21.01.2021
3441 Clear 2 1011 65 10000 6.08 266 16:19 21.01.2021
3442 Clouds 1 1007 60 10000 5.66 240 15:46 21.01.2021
3443 Clouds 0 1007 60 10000 5.66 240 15:24 21.01.2021
3444 Clouds 0 1007 64 10000 5.14 250 14:44 21.01.2021
3445 Clouds 0 1007 64 10000 5.14 250 14:23 21.01.2021
3446 Clear 0 1007 64 10000 5.66 240 13:43 21.01.2021
3447 Clear 0 1007 64 10000 5.66 240 13:23 21.01.2021
3448 Clear 0 1007 69 10000 4.12 240 12:42 21.01.2021
3449 Clear 0 1007 69 10000 4.12 240 12:24 21.01.2021
3450 Clear 1 1007 69 10000 4.63 250 11:51 21.01.2021
3451 Clear 1 1007 69 10000 4.63 250 11:30 21.01.2021
3452 Clouds 1 1006 69 10000 6.69 240 10:52 21.01.2021
3453 Clouds 1 1006 69 10000 6.69 240 10:33 21.01.2021
3454 Clouds 2 1007 64 10000 5.66 240 09:45 21.01.2021
3455 Clouds 1 1007 64 10000 5.66 240 09:25 21.01.2021
3456 Clouds 2 1007 64 10000 6.69 250 08:48 21.01.2021
3457 Clouds 2 1007 64 10000 6.69 250 08:25 21.01.2021
3458 Clouds 2 1007 64 10000 6.17 230 07:28 21.01.2021
3459 Clouds 1 1008 69 10000 6.69 230 06:58 21.01.2021
3460 Clouds 1 1008 64 10000 8.23 210 05:24 21.01.2021
3461 Clear -1 1010 64 10000 8.23 210 02:59 21.01.2021
3462 Clouds -1 1011 64 10000 9.26 200 01:21 21.01.2021
3463 Clouds -2 1014 59 10000 7.72 200 23:56 20.01.2021
3464 Clouds -2 1014 59 10000 7.72 200 23:36 20.01.2021
3465 Clouds -2 1014 59 10000 7.72 200 23:18 20.01.2021
3466 Clouds -2 1016 59 10000 7.2 200 22:46 20.01.2021
3467 Clouds -2 1016 59 10000 7.2 200 22:28 20.01.2021
3468 Clouds -2 1016 59 10000 7.2 200 22:28 20.01.2021
3469 Clouds -3 1018 54 10000 7.72 210 21:43 20.01.2021
3470 Clouds -3 1018 54 10000 7.72 210 21:22 20.01.2021
3471 Clouds -3 1019 58 10000 5.14 200 20:50 20.01.2021
3472 Clouds -3 1023 67 10000 0.89 208 20:20 20.01.2021
3473 Clouds -4 1024 66 10000 0.89 290 19:46 20.01.2021
3474 Clouds -5 1024 67 10000 0.45 199 19:27 20.01.2021
3475 Clouds -5 1027 68 10000 5.58 211 18:42 20.01.2021
3476 Clouds -6 1023 63 10000 3.6 220 18:20 20.01.2021
3477 Clouds -6 1028 72 10000 4.64 219 17:43 20.01.2021
3478 Clouds -7 1028 72 10000 0.45 164 17:24 20.01.2021
3479 Clouds -8 1025 67 10000 4.63 240 16:45 20.01.2021
3480 Clouds -9 1024 67 10000 4.12 230 15:56 20.01.2021
3481 Clouds -9 1024 67 10000 4.12 230 15:36 20.01.2021
3482 Clouds -10 1025 67 10000 3.09 240 14:55 20.01.2021
3483 Clouds -9 1025 67 10000 3.09 240 14:29 20.01.2021
3484 Clouds -10 1023 79 10000 1.34 247 14:00 20.01.2021
3485 Clouds -9 1023 79 10000 0.45 270 13:36 20.01.2021
3486 Clouds -9 1023 79 10000 0.45 270 13:36 20.01.2021
3487 Clouds -9 1024 67 10000 2.57 310 12:55 20.01.2021
3488 Clouds -9 1024 67 10000 2.57 310 12:22 20.01.2021
3489 Clouds -9 1025 62 10000 4.12 310 11:39 20.01.2021
3490 Clouds -8 1025 62 10000 4.12 310 11:19 20.01.2021
3491 Clouds -8 1023 77 10000 2.24 352 10:45 20.01.2021
3492 Clouds -8 1024 63 10000 6.17 320 10:22 20.01.2021
3493 Clouds -7 1029 76 10000 0.45 24 09:38 20.01.2021
3494 Snow -6 1024 63 10000 7.2 310 09:18 20.01.2021
3495 Clouds -5 1028 71 10000 2.24 352 08:41 20.01.2021
3496 Clouds -5 1027 72 10000 2.68 251 08:20 20.01.2021
3497 Clouds -4 1026 78 10000 1.34 41 07:37 20.01.2021
3498 Clouds -4 1026 78 10000 2.68 319 06:56 20.01.2021
3499 Snow 0 1018 86 2414 5.66 250 03:37 20.01.2021
3500 Snow -1 1019 86 4828 5.14 240 01:51 20.01.2021
3501 Snow -1 1019 80 4023 4.63 240 00:52 20.01.2021
3502 Mist -2 1020 74 9656 4.12 240 23:51 19.01.2021
3503 Snow -2 1020 74 9656 4.12 240 23:32 19.01.2021
3504 Snow -2 1020 74 9656 5.14 230 22:58 19.01.2021
3505 Snow -2 1020 74 10000 4.63 250 22:38 19.01.2021
3506 Snow -2 1020 74 10000 4.63 250 22:20 19.01.2021
3507 Snow -2 1021 69 10000 5.14 250 21:54 19.01.2021
3508 Snow -2 1021 69 10000 5.14 250 21:32 19.01.2021
3509 Snow -2 1021 64 10000 6.69 240 20:49 19.01.2021
3510 Snow -2 1021 64 10000 6.69 240 20:27 19.01.2021
3511 Snow -2 1021 64 10000 4.12 230 19:56 19.01.2021
3512 Snow -2 1021 64 10000 4.12 230 19:31 19.01.2021
3513 Clouds -2 1022 63 10000 5.14 260 18:51 19.01.2021
3514 Clouds -3 1022 63 10000 5.14 260 18:32 19.01.2021
3515 Clouds -3 1023 68 10000 5.66 240 17:55 19.01.2021
3516 Clouds -4 1023 68 10000 5.66 240 17:37 19.01.2021
3517 Clouds -4 1023 68 10000 5.66 240 17:18 19.01.2021
3518 Clouds -4 1022 74 10000 4.12 240 16:38 19.01.2021
3519 Clouds -5 1022 74 10000 4.12 240 16:18 19.01.2021
3520 Clouds -5 1022 73 10000 3.09 230 15:47 19.01.2021
3521 Clouds -5 1022 73 10000 3.09 230 15:29 19.01.2021
3522 Clouds -5 1021 73 10000 3.09 220 14:42 19.01.2021
3523 Clouds -5 1021 73 10000 3.09 220 14:23 19.01.2021
3524 Clouds -6 1021 73 10000 3.09 250 13:49 19.01.2021
3525 Clouds -6 1021 73 10000 3.09 250 13:22 19.01.2021
3526 Clouds -6 1020 73 10000 2.57 260 12:48 19.01.2021
3527 Clouds -6 1020 73 10000 2.57 260 12:30 19.01.2021
3528 Clouds -6 1020 73 10000 3.09 270 11:50 19.01.2021
3529 Clouds -6 1020 73 10000 3.09 270 11:28 19.01.2021
3530 Clouds -6 1020 73 10000 3.09 270 11:28 19.01.2021
3531 Clouds -6 1020 73 10000 3.6 270 10:52 19.01.2021
3532 Clouds -6 1020 73 10000 3.6 270 10:32 19.01.2021
3533 Clear -6 1020 73 10000 2.57 260 09:54 19.01.2021
3534 Clear -5 1020 73 10000 2.57 260 09:31 19.01.2021
3535 Clear -5 1019 68 10000 3.09 280 08:59 19.01.2021
3536 Clear -5 1019 68 10000 3.09 280 08:26 19.01.2021
3537 Clear -5 1019 68 10000 3.09 270 07:49 19.01.2021
3538 Clouds -4 1018 63 10000 3.6 270 06:54 19.01.2021
3539 Clouds -3 1016 64 10000 5.66 270 02:56 19.01.2021
3540 Clouds -3 1016 64 10000 5.66 270 02:20 19.01.2021
3541 Clouds -2 1014 69 10000 6.69 270 23:59 18.01.2021
3542 Clouds -2 1014 69 10000 6.69 270 23:35 18.01.2021
3543 Snow -2 1013 69 10000 6.69 260 22:58 18.01.2021
3544 Snow -2 1013 69 10000 6.69 260 22:38 18.01.2021
3545 Snow -2 1013 69 10000 6.69 260 22:18 18.01.2021
3546 Snow -1 1013 74 10000 4.63 260 21:40 18.01.2021
3547 Snow -1 1013 74 10000 4.63 260 21:21 18.01.2021
3548 Snow -1 1012 69 10000 5.66 250 20:43 18.01.2021
3549 Snow -1 1012 69 10000 5.66 250 20:43 18.01.2021
3550 Snow -1 1012 69 10000 5.66 250 20:25 18.01.2021
3551 Snow -1 1012 69 10000 5.14 240 19:51 18.01.2021
3552 Snow -1 1012 69 10000 5.14 240 19:33 18.01.2021
3553 Clouds -1 1013 69 10000 5.14 250 18:47 18.01.2021
3554 Clouds -1 1013 69 10000 5.14 250 18:23 18.01.2021
3555 Clouds -2 1013 74 10000 5.14 240 17:45 18.01.2021
3556 Clouds -2 1013 74 10000 5.14 240 17:24 18.01.2021
3557 Clouds -2 1012 80 10000 4.12 230 16:48 18.01.2021
3558 Clouds -2 1012 80 10000 4.12 230 16:22 18.01.2021
3559 Clouds -3 1011 80 10000 4.63 240 15:49 18.01.2021
3560 Clouds -3 1011 80 10000 4.63 240 15:25 18.01.2021
3561 Clouds -3 1011 80 10000 4.12 240 14:46 18.01.2021
3562 Clouds -3 1011 80 10000 4.12 240 14:28 18.01.2021
3563 Clouds -3 1010 80 10000 3.6 240 13:47 18.01.2021
3564 Clouds -3 1010 80 10000 3.6 240 13:28 18.01.2021
3565 Clouds -2 1010 74 10000 3.6 240 12:56 18.01.2021
3566 Clouds -2 1010 74 10000 3.6 240 12:36 18.01.2021
3567 Clouds -2 1009 74 10000 3.6 250 12:18 18.01.2021
3568 Snow -2 1009 74 10000 2.57 230 11:40 18.01.2021
3569 Snow -2 1009 74 10000 2.57 230 11:20 18.01.2021
3570 Snow -2 1009 80 10000 2.57 260 10:46 18.01.2021
3571 Clouds -2 1009 80 10000 2.57 260 09:50 18.01.2021
3572 Clouds -2 1009 80 10000 2.57 260 09:32 18.01.2021
3573 Clouds -2 1008 80 10000 4.12 280 08:55 18.01.2021
3574 Clouds -2 1008 80 10000 4.12 280 08:25 18.01.2021
3575 Clouds -2 1008 80 10000 4.12 300 07:38 18.01.2021
3576 Clouds -2 1008 80 10000 2.57 280 05:49 18.01.2021
3577 Snow -1 1008 80 10000 3.09 290 04:40 18.01.2021
3578 Snow -1 1008 80 10000 3.09 290 04:18 18.01.2021
3579 Snow -1 1007 80 10000 3.6 300 03:43 18.01.2021
3580 Snow -1 1007 80 10000 3.6 300 03:20 18.01.2021
3581 Snow -1 1007 86 10000 3.09 280 02:40 18.01.2021
3582 Snow 0 1007 86 10000 3.09 270 01:39 18.01.2021
3583 Snow 0 1006 86 9656 3.09 270 00:35 18.01.2021
3584 Snow -1 1006 86 4828 3.6 240 23:49 17.01.2021
3585 Snow -1 1006 86 4828 3.6 240 23:22 17.01.2021
3586 Snow -1 1005 80 9656 3.6 240 22:46 17.01.2021
3587 Snow -1 1005 80 9656 3.6 240 22:22 17.01.2021
3588 Snow -1 1005 80 4023 4.12 260 21:42 17.01.2021
3589 Snow -1 1005 80 4023 4.12 260 21:24 17.01.2021
3590 Snow -1 1005 80 10000 3.6 250 20:49 17.01.2021
3591 Snow -1 1005 80 10000 3.6 250 20:30 17.01.2021
3592 Snow -1 1006 80 10000 3.6 250 19:43 17.01.2021
3593 Snow -1 1006 80 10000 3.6 250 19:25 17.01.2021
3594 Snow -1 1006 80 10000 3.6 250 19:25 17.01.2021
3595 Snow -1 1006 80 10000 3.09 240 18:49 17.01.2021
3596 Snow -1 1006 80 10000 3.09 240 18:27 17.01.2021
3597 Snow -1 1007 80 10000 4.12 250 17:49 17.01.2021
3598 Mist -1 1007 80 10000 4.12 250 17:28 17.01.2021
3599 Snow -1 1007 80 9656 4.12 230 16:44 17.01.2021
3600 Snow -1 1006 86 8047 4.12 240 16:24 17.01.2021
3601 Snow -1 1006 86 4828 3.6 240 15:44 17.01.2021
3602 Snow -1 1006 86 3219 4.12 250 15:25 17.01.2021
3603 Snow -1 1006 86 2012 3.09 250 14:50 17.01.2021
3604 Mist -1 1006 86 4023 3.09 250 14:27 17.01.2021
3605 Snow -1 1006 86 4023 3.6 240 13:58 17.01.2021
3606 Snow -1 1006 86 4828 3.09 240 13:36 17.01.2021
3607 Snow -1 1006 86 4828 4.12 240 13:18 17.01.2021
3608 Snow 0 1006 86 8047 3.09 260 12:37 17.01.2021
3609 Snow 0 1006 86 8047 3.09 260 12:18 17.01.2021
3610 Snow 0 1006 86 9656 3.6 250 11:25 17.01.2021
3611 Clouds 0 1006 80 10000 3.6 260 10:50 17.01.2021
3612 Clouds 1 1006 80 10000 3.6 260 10:24 17.01.2021
3613 Clouds 0 1006 80 10000 3.6 250 09:46 17.01.2021
3614 Snow 1 1006 86 10000 4.63 250 08:47 17.01.2021
3615 Snow 1 1006 86 10000 3.6 250 07:51 17.01.2021
3616 Clouds 2 1006 75 10000 3.09 290 04:29 17.01.2021
3617 Clouds 2 1006 75 10000 3.6 290 02:49 17.01.2021
3618 Drizzle 2 1005 70 10000 4.12 300 00:52 17.01.2021
3619 Drizzle 2 1005 70 10000 4.12 300 00:20 17.01.2021
3620 Drizzle 2 1005 70 10000 5.66 300 23:51 16.01.2021
3621 Clouds 2 1005 70 10000 4.63 300 23:20 16.01.2021
3622 Clouds 2 1004 75 10000 4.63 310 22:45 16.01.2021
3623 Clouds 3 1003 75 10000 4.63 310 21:59 16.01.2021
3624 Clouds 2 1003 75 10000 4.63 310 21:38 16.01.2021
3625 Clouds 2 1003 75 10000 4.63 310 21:18 16.01.2021
3626 Clouds 2 1002 75 10000 5.14 310 20:44 16.01.2021
3627 Clouds 2 1002 75 10000 5.14 310 20:22 16.01.2021
3628 Clouds 2 1002 80 10000 4.12 320 19:48 16.01.2021
3629 Clouds 2 1002 80 10000 4.12 310 19:29 16.01.2021
3630 Clouds 2 1002 80 10000 4.12 310 18:43 16.01.2021
3631 Clouds 2 1002 80 10000 4.12 310 18:25 16.01.2021
3632 Snow 1 1002 86 6437 3.6 300 17:48 16.01.2021
3633 Snow 1 1002 86 6437 3.6 300 17:29 16.01.2021
3634 Snow 1 1002 86 6437 4.12 300 16:47 16.01.2021
3635 Snow 1 1002 86 6437 4.12 300 16:29 16.01.2021
3636 Mist 1 1001 86 6437 3.09 300 15:54 16.01.2021
3637 Snow 1 1001 86 3219 3.09 280 15:26 16.01.2021
3638 Snow 0 1001 93 2414 3.6 240 14:30 16.01.2021
3639 Snow 0 1001 86 2816 3.6 230 13:50 16.01.2021
3640 Snow 0 1001 86 2816 3.6 230 13:30 16.01.2021
3641 Snow -1 1001 86 2816 3.6 230 12:47 16.01.2021
3642 Snow -1 1001 86 2816 3.6 220 12:21 16.01.2021
3643 Snow -1 1001 86 2816 3.6 220 11:54 16.01.2021
3644 Snow 0 1001 86 3219 4.12 230 11:25 16.01.2021
3645 Mist -1 1001 86 3219 4.12 240 10:50 16.01.2021
3646 Snow 0 1001 86 3219 4.12 240 10:30 16.01.2021
3647 Mist 0 1002 86 8047 2.06 220 09:42 16.01.2021
3648 Mist 0 1002 86 8047 2.06 220 09:19 16.01.2021
3649 Mist -1 1002 93 6437 3.09 200 07:53 16.01.2021
3650 Mist -1 1002 86 8047 2.06 190 06:44 16.01.2021
3651 Mist -1 1002 86 8047 2.06 190 06:44 16.01.2021
3652 Clouds 0 1002 80 10000 3.09 230 04:52 16.01.2021
3653 Clouds 0 1002 80 10000 1.54 200 02:58 16.01.2021
3654 Clouds 0 1002 80 10000 1.54 200 02:25 16.01.2021
3655 Clouds 1 1000 80 10000 2.57 200 00:44 16.01.2021
3656 Clouds 1 1000 80 10000 2.57 200 00:20 16.01.2021
3657 Clouds 2 1000 75 10000 3.09 160 23:28 15.01.2021
3658 Clouds 2 999 65 10000 2.57 150 22:27 15.01.2021
3659 Clouds 3 998 65 10000 3.09 180 21:48 15.01.2021
3660 Clouds 3 998 65 10000 3.09 180 21:30 15.01.2021
3661 Clouds 3 998 75 10000 2.57 220 20:43 15.01.2021
3662 Clouds 2 998 75 10000 2.57 220 20:23 15.01.2021
3663 Clouds 2 998 75 10000 4.12 170 19:45 15.01.2021
3664 Clouds 2 998 75 10000 4.12 170 19:25 15.01.2021
3665 Clouds 2 998 75 10000 4.63 170 18:45 15.01.2021
3666 Clouds 2 998 75 10000 4.63 170 18:20 15.01.2021
3667 Clouds 2 998 80 10000 3.6 170 17:56 15.01.2021
3668 Snow 2 998 80 10000 3.6 170 17:37 15.01.2021
3669 Snow 2 998 80 10000 3.6 170 17:19 15.01.2021
3670 Snow 1 997 86 10000 2.57 160 16:40 15.01.2021
3671 Snow 1 997 86 10000 2.57 160 16:21 15.01.2021
3672 Snow 2 997 80 10000 3.09 160 15:40 15.01.2021
3673 Snow 2 997 80 10000 3.09 160 15:18 15.01.2021
3674 Snow 1 997 80 10000 3.09 170 14:38 15.01.2021
3675 Snow 1 997 80 10000 3.09 180 14:18 15.01.2021
3676 Snow 1 997 80 10000 4.63 200 13:40 15.01.2021
3677 Clouds 2 997 80 10000 4.63 180 13:19 15.01.2021
3678 Clouds 2 997 80 10000 4.12 180 12:45 15.01.2021
3679 Clouds 2 997 80 10000 4.12 180 12:22 15.01.2021
3680 Clouds 2 997 80 10000 5.14 190 11:42 15.01.2021
3681 Clouds 2 997 80 10000 5.14 190 11:20 15.01.2021
3682 Clouds 2 997 80 10000 3.6 190 10:51 15.01.2021
3683 Clouds 2 997 80 10000 3.6 190 10:21 15.01.2021
3684 Clouds 2 997 80 10000 4.12 170 09:48 15.01.2021
3685 Clouds 2 997 80 10000 4.12 170 09:29 15.01.2021
3686 Clouds 2 997 87 10000 4.12 190 08:28 15.01.2021
3687 Mist 2 997 87 9656 4.12 190 07:45 15.01.2021
3688 Mist 2 997 87 9656 4.12 190 07:23 15.01.2021
3689 Mist 2 998 86 9656 4.63 190 06:51 15.01.2021
3690 Rain 3 998 87 10000 6.69 180 02:45 15.01.2021
3691 Rain 4 999 81 10000 6.17 160 00:52 15.01.2021
3692 Clouds 5 999 75 10000 5.14 170 23:35 14.01.2021
3693 Clouds 4 998 70 10000 4.63 150 22:58 14.01.2021
3694 Clouds 4 998 70 10000 4.63 150 22:38 14.01.2021
3695 Clouds 4 998 70 10000 4.63 150 22:20 14.01.2021
3696 Clouds 4 999 70 10000 5.66 150 21:41 14.01.2021
3697 Clouds 4 999 70 10000 5.66 150 21:20 14.01.2021
3698 Clouds 4 999 70 10000 4.63 170 20:48 14.01.2021
3699 Clouds 5 999 70 10000 4.63 170 20:22 14.01.2021
3700 Clouds 5 1000 70 10000 4.63 180 19:42 14.01.2021
3701 Clouds 5 1000 70 10000 4.63 180 19:23 14.01.2021
3702 Clouds 4 1002 75 10000 5.14 180 18:50 14.01.2021
3703 Clouds 4 1002 75 10000 5.14 180 18:19 14.01.2021
3704 Clouds 4 1002 75 10000 5.14 160 17:45 14.01.2021
3705 Clouds 3 1002 75 10000 5.14 160 17:26 14.01.2021
3706 Clouds 3 1002 75 10000 3.6 170 16:40 14.01.2021
3707 Clouds 2 1002 80 10000 3.6 170 15:57 14.01.2021
3708 Clouds 2 1002 80 10000 3.6 170 15:39 14.01.2021
3709 Clouds 1 1002 80 10000 4.12 170 14:58 14.01.2021
3710 Clouds 1 1002 80 10000 4.12 170 14:37 14.01.2021
3711 Clouds 1 1002 80 10000 4.12 170 14:18 14.01.2021
3712 Clouds 1 1003 75 10000 3.09 180 13:48 14.01.2021
3713 Clouds 1 1003 75 10000 3.09 180 13:20 14.01.2021
3714 Clouds 1 1003 80 10000 2.57 200 12:38 14.01.2021
3715 Clouds 1 1003 80 10000 2.57 200 12:18 14.01.2021
3716 Clouds 1 1003 75 10000 3.6 170 11:42 14.01.2021
3717 Clouds 1 1003 75 10000 3.6 170 11:20 14.01.2021
3718 Clear 1 1004 80 10000 3.09 200 10:50 14.01.2021
3719 Clear 2 1004 80 10000 3.09 200 10:22 14.01.2021
3720 Clear 2 1004 75 10000 2.57 180 09:45 14.01.2021
3721 Clear 2 1004 75 10000 2.57 180 09:22 14.01.2021
3722 Clear 2 1004 75 10000 3.09 190 08:49 14.01.2021
3723 Clear 2 1004 75 10000 3.09 190 08:25 14.01.2021
3724 Clouds 3 1005 75 10000 2.06 200 07:48 14.01.2021
3725 Clouds 3 1005 75 10000 3.6 200 06:52 14.01.2021
3726 Clouds 4 1006 70 10000 4.12 210 05:46 14.01.2021
3727 Clouds 4 1007 65 10000 5.66 240 00:45 14.01.2021
3728 Clouds 4 1007 65 10000 4.63 210 23:54 13.01.2021
3729 Clouds 4 1007 65 10000 4.63 210 23:22 13.01.2021
3730 Clouds 5 1007 65 10000 5.14 210 22:29 13.01.2021
3731 Clouds 5 1007 60 10000 4.12 200 21:57 13.01.2021
3732 Clouds 5 1007 60 10000 4.12 200 21:38 13.01.2021
3733 Clouds 5 1008 60 10000 5.66 230 20:59 13.01.2021
3734 Clouds 5 1008 60 10000 5.66 230 20:33 13.01.2021
3735 Clouds 5 1009 65 10000 5.66 230 19:58 13.01.2021
3736 Clouds 5 1009 65 10000 5.66 230 19:39 13.01.2021
3737 Clouds 5 1009 65 10000 5.66 230 19:19 13.01.2021
3738 Clouds 4 1010 65 10000 5.14 210 18:40 13.01.2021
3739 Clouds 4 1011 70 10000 4.63 220 17:51 13.01.2021
3740 Clouds 4 1011 70 10000 4.63 220 17:25 13.01.2021
3741 Clouds 3 1012 75 10000 4.63 220 16:51 13.01.2021
3742 Clouds 3 1012 75 10000 4.63 220 16:22 13.01.2021
3743 Clouds 2 1012 75 10000 3.6 210 15:56 13.01.2021
3744 Clouds 2 1012 75 10000 3.6 210 15:38 13.01.2021
3745 Clouds 1 1012 75 10000 2.57 210 14:49 13.01.2021
3746 Clouds 1 1012 80 10000 4.63 200 13:55 13.01.2021
3747 Clouds 1 1012 80 10000 4.63 200 13:32 13.01.2021
3748 Clouds 1 1013 80 10000 4.12 210 12:59 13.01.2021
3749 Clouds 1 1013 80 10000 4.12 210 12:39 13.01.2021
3750 Clouds 1 1013 80 10000 4.12 210 12:19 13.01.2021
3751 Clouds 0 1013 80 10000 3.09 190 11:45 13.01.2021
3752 Clouds 0 1013 80 10000 3.09 190 11:22 13.01.2021
3753 Clouds 0 1014 80 10000 2.06 200 10:42 13.01.2021
3754 Clouds 0 1014 80 10000 2.06 200 10:24 13.01.2021
3755 Clouds 0 1014 80 10000 2.57 200 09:37 13.01.2021
3756 Clouds 1 1014 80 10000 3.09 210 08:57 13.01.2021
3757 Clouds 0 1014 80 10000 3.09 210 08:33 13.01.2021
3758 Clouds 0 1015 86 10000 2.57 210 07:51 13.01.2021
3759 Clouds 0 1015 86 10000 2.57 210 07:24 13.01.2021
3760 Clouds 0 1016 86 10000 3.09 210 04:21 13.01.2021
3761 Clear 0 1017 86 10000 3.09 220 03:49 13.01.2021
3762 Clear 0 1017 86 10000 3.09 220 03:30 13.01.2021
3763 Clear 1 1017 75 10000 4.63 210 02:19 13.01.2021
3764 Clouds 2 1017 69 10000 5.14 240 00:29 13.01.2021
3765 Clouds 2 1017 65 10000 6.17 250 23:29 12.01.2021
3766 Clouds 3 1017 65 10000 6.69 250 22:47 12.01.2021
3767 Clouds 3 1017 65 10000 6.69 250 22:25 12.01.2021
3768 Clouds 3 1017 60 10000 5.66 250 21:53 12.01.2021
3769 Clouds 3 1017 60 10000 5.66 250 21:34 12.01.2021
3770 Clouds 3 1017 65 10000 5.14 240 20:53 12.01.2021
3771 Clouds 3 1017 65 10000 5.14 240 20:29 12.01.2021
3772 Clouds 3 1018 69 10000 4.63 250 19:56 12.01.2021
3773 Clouds 3 1018 69 10000 4.63 250 19:37 12.01.2021
3774 Clouds 2 1019 64 10000 6.17 230 18:52 12.01.2021
3775 Clouds 2 1023 76 10000 4.77 237 18:25 12.01.2021
3776 Clouds 1 1023 78 10000 4.77 237 17:55 12.01.2021
3777 Clouds 1 1023 78 10000 4.77 237 17:55 12.01.2021
3778 Clouds 0 1019 74 10000 4.63 220 17:31 12.01.2021
3779 Clouds -1 1019 74 10000 5.66 230 16:44 12.01.2021
3780 Clouds -1 1019 74 10000 5.66 230 16:25 12.01.2021
3781 Clouds -2 1019 80 10000 4.12 210 15:45 12.01.2021
3782 Clouds -3 1019 80 10000 4.12 210 15:24 12.01.2021
3783 Clear -3 1019 80 10000 4.63 210 14:49 12.01.2021
3784 Clear -3 1019 80 10000 4.63 210 14:26 12.01.2021
3785 Clear -3 1019 80 10000 5.66 230 13:54 12.01.2021
3786 Clear -3 1019 80 10000 5.66 230 13:33 12.01.2021
3787 Clear -3 1018 74 10000 5.66 200 12:33 12.01.2021
3788 Clouds -3 1019 74 10000 4.12 200 11:42 12.01.2021
3789 Clouds -3 1019 80 10000 4.63 200 10:59 12.01.2021
3790 Clouds -2 1019 80 10000 4.63 200 10:40 12.01.2021
3791 Clouds -2 1020 74 10000 4.63 210 10:19 12.01.2021
3792 Clouds -2 1020 74 10000 5.66 210 09:43 12.01.2021
3793 Clouds -2 1020 74 10000 5.66 210 09:20 12.01.2021
3794 Clouds -2 1020 74 10000 5.66 220 08:26 12.01.2021
3795 Clouds -2 1020 80 10000 6.17 210 07:41 12.01.2021
3796 Clouds -2 1020 80 10000 6.17 210 07:21 12.01.2021
3797 Clouds -1 1021 80 10000 4.63 210 05:38 12.01.2021
3798 Clouds -1 1021 74 10000 7.2 220 03:46 12.01.2021
3799 Clouds -1 1021 74 10000 7.2 220 03:19 12.01.2021
3800 Clouds -2 1022 74 10000 6.69 210 01:43 12.01.2021
3801 Clouds -2 1022 74 10000 6.17 230 00:32 12.01.2021
3802 Clouds -2 1023 69 10000 7.2 250 23:40 11.01.2021
3803 Clouds -2 1023 69 10000 7.2 250 23:18 11.01.2021
3804 Clouds -3 1023 74 10000 6.69 260 22:45 11.01.2021
3805 Clouds -3 1023 74 10000 6.69 260 22:27 11.01.2021
3806 Clouds -3 1023 69 10000 5.66 240 21:45 11.01.2021
3807 Clouds -3 1023 69 10000 5.66 240 21:25 11.01.2021
3808 Clouds -3 1023 69 10000 7.2 230 20:57 11.01.2021
3809 Clouds -3 1023 69 10000 7.2 230 20:36 11.01.2021
3810 Clouds -3 1023 69 10000 7.2 230 20:36 11.01.2021
3811 Clouds -3 1023 74 10000 6.17 240 20:18 11.01.2021
3812 Clouds -3 1024 74 10000 6.69 230 19:41 11.01.2021
3813 Clouds -3 1024 74 10000 6.69 230 19:21 11.01.2021
3814 Clouds -3 1025 80 10000 7.2 250 18:42 11.01.2021
3815 Clouds -3 1025 80 10000 7.2 250 18:23 11.01.2021
3816 Clouds -4 1026 80 10000 6.17 250 17:42 11.01.2021
3817 Clouds -4 1026 80 10000 6.17 250 17:24 11.01.2021
3818 Clouds -4 1026 80 10000 4.12 250 16:47 11.01.2021
3819 Clouds -4 1026 80 10000 4.12 250 16:28 11.01.2021
3820 Clouds -4 1026 80 10000 4.63 260 15:53 11.01.2021
3821 Clouds -4 1026 80 10000 4.63 260 15:33 11.01.2021
3822 Clouds -5 1026 80 10000 3.6 260 14:45 11.01.2021
3823 Clouds -5 1026 80 10000 3.6 260 14:26 11.01.2021
3824 Clouds -5 1026 80 10000 6.69 270 13:45 11.01.2021
3825 Clouds -5 1026 80 10000 6.69 270 13:22 11.01.2021
3826 Clouds -5 1025 86 10000 3.09 250 12:42 11.01.2021
3827 Clouds -5 1025 86 10000 3.09 250 12:24 11.01.2021
3828 Mist -6 1026 86 8047 5.66 230 11:45 11.01.2021
3829 Mist -5 1027 86 9656 5.66 260 10:58 11.01.2021
3830 Mist -5 1027 86 9656 5.66 260 10:38 11.01.2021
3831 Clouds -5 1027 80 10000 5.66 250 09:54 11.01.2021
3832 Clouds -5 1027 80 10000 5.66 250 09:36 11.01.2021
3833 Clouds -4 1027 74 10000 4.63 260 08:52 11.01.2021
3834 Clouds -4 1026 74 10000 5.14 250 08:33 11.01.2021
3835 Clouds -4 1027 74 10000 4.63 230 07:45 11.01.2021
3836 Clouds -4 1027 74 10000 4.63 230 07:25 11.01.2021
3837 Clouds -4 1027 68 10000 4.12 240 06:49 11.01.2021
3838 Clouds -2 1027 69 10000 3.6 290 02:30 11.01.2021
3839 Clouds -2 1026 69 10000 3.09 280 00:41 11.01.2021
3840 Clouds -1 1026 69 10000 3.6 260 23:48 10.01.2021
3841 Clouds -1 1026 64 10000 3.6 270 22:57 10.01.2021
3842 Clouds -1 1026 64 10000 3.6 270 22:38 10.01.2021
3843 Clouds -1 1026 64 10000 3.6 270 22:18 10.01.2021
3844 Clouds -1 1026 64 10000 2.57 280 21:40 10.01.2021
3845 Clouds -1 1026 64 10000 2.57 280 21:18 10.01.2021
3846 Clouds -1 1026 64 10000 3.09 300 20:47 10.01.2021
3847 Clouds -1 1026 64 10000 3.09 300 20:27 10.01.2021
3848 Clouds -1 1027 69 10000 2.57 270 19:40 10.01.2021
3849 Clouds -1 1027 69 10000 2.57 270 19:22 10.01.2021
3850 Clouds -1 1027 69 10000 2.06 310 18:45 10.01.2021
3851 Clouds -1 1027 69 10000 2.06 310 18:20 10.01.2021
3852 Clouds -1 1028 69 10000 2.06 300 17:26 10.01.2021
3853 Clouds -2 1028 74 10000 3.09 290 16:51 10.01.2021
3854 Clouds -2 1028 74 10000 3.09 290 16:30 10.01.2021
3855 Clouds -2 1027 74 10000 1.54 250 15:41 10.01.2021
3856 Clouds -2 1027 74 10000 1.54 250 15:22 10.01.2021
3857 Clouds -2 1027 80 10000 2.06 250 14:41 10.01.2021
3858 Clouds -2 1027 80 10000 2.06 250 14:22 10.01.2021
3859 Clouds -2 1027 80 10000 1.54 220 13:46 10.01.2021
3860 Clouds -2 1027 80 10000 1.54 220 13:27 10.01.2021
3861 Clouds -2 1026 74 10000 2.63 296 12:58 10.01.2021
3862 Clouds -2 1026 74 10000 2.63 296 12:40 10.01.2021
3863 Clouds -2 1026 74 10000 1.54 300 11:56 10.01.2021
3864 Clouds -2 1026 74 10000 1.54 300 11:21 10.01.2021
3865 Clouds -2 1027 80 10000 1.54 280 10:51 10.01.2021
3866 Clouds -2 1027 80 10000 1.54 280 10:24 10.01.2021
3867 Clouds -2 1027 74 10000 2.06 280 09:46 10.01.2021
3868 Clouds -2 1026 74 10000 3.09 287 08:49 10.01.2021
3869 Clouds -2 1026 80 10000 2.77 293 07:47 10.01.2021
3870 Clouds -2 1026 80 10000 2.06 270 06:50 10.01.2021
3871 Clouds -2 1026 80 10000 2.06 270 06:18 10.01.2021
3872 Clouds -1 1027 74 10000 1.54 250 05:27 10.01.2021
3873 Clouds 0 1027 60 10000 1.54 350 02:37 10.01.2021
3874 Clouds 1 1026 60 10000 2.57 20 00:23 10.01.2021
3875 Clouds 2 1031 70 10000 1.88 353 23:41 09.01.2021
3876 Clouds 2 1026 56 10000 3.6 350 23:20 09.01.2021
3877 Clouds 2 1026 56 10000 2.57 30 22:22 09.01.2021
3878 Clouds 3 1025 60 10000 2.57 50 21:59 09.01.2021
3879 Clouds 2 1025 60 10000 2.57 50 21:39 09.01.2021
3880 Clouds 3 1025 60 10000 2.57 50 21:21 09.01.2021
3881 Clouds 2 1025 60 10000 4.12 60 20:56 09.01.2021
3882 Clouds 2 1025 60 10000 4.12 60 20:36 09.01.2021
3883 Clouds 2 1026 60 10000 5.14 360 19:40 09.01.2021
3884 Clouds 2 1026 60 10000 5.14 360 19:21 09.01.2021
3885 Clouds 2 1026 60 10000 5.14 10 18:38 09.01.2021
3886 Clouds 1 1026 60 10000 5.14 10 18:19 09.01.2021
3887 Clouds 1 1027 64 10000 4.12 350 17:42 09.01.2021
3888 Clouds 1 1027 64 10000 4.12 350 17:22 09.01.2021
3889 Clouds 0 1026 69 10000 4.12 340 16:29 09.01.2021
3890 Clouds -1 1026 69 10000 3.09 320 15:42 09.01.2021
3891 Clouds -1 1026 69 10000 3.09 320 15:24 09.01.2021
3892 Clouds -1 1025 69 10000 3.6 350 14:37 09.01.2021
3893 Clouds -1 1025 69 10000 3.6 350 14:19 09.01.2021
3894 Clouds -1 1025 69 10000 3.6 360 13:46 09.01.2021
3895 Clouds -1 1025 69 10000 3.6 360 13:27 09.01.2021
3896 Clouds -1 1024 69 10000 3.09 330 12:46 09.01.2021
3897 Clouds -1 1024 69 10000 3.09 330 12:21 09.01.2021
3898 Clouds -1 1024 69 10000 3.09 330 11:41 09.01.2021
3899 Clouds -1 1024 69 10000 3.09 330 11:22 09.01.2021
3900 Clouds -1 1024 69 10000 4.12 340 10:50 09.01.2021
3901 Clouds -1 1024 69 10000 4.12 340 10:26 09.01.2021
3902 Clouds -1 1024 69 10000 4.12 330 09:45 09.01.2021
3903 Clouds -1 1024 69 10000 4.12 330 09:21 09.01.2021
3904 Clouds -1 1023 69 10000 5.66 350 08:19 09.01.2021
3905 Clouds -1 1024 69 10000 4.63 340 06:55 09.01.2021
3906 Clouds -1 1024 69 10000 4.63 340 06:36 09.01.2021
3907 Clouds 0 1024 69 10000 4.63 340 04:25 09.01.2021
3908 Clouds 0 1024 69 10000 6.17 350 02:46 09.01.2021
3909 Clouds 0 1024 69 10000 6.17 350 02:27 09.01.2021
3910 Clouds 0 1028 80 10000 6.81 3 01:25 09.01.2021
3911 Clouds 0 1028 81 10000 0.45 360 00:34 09.01.2021
3912 Clouds 0 1028 82 10000 6.16 4 23:49 08.01.2021
3913 Clouds 0 1023 80 10000 7.72 360 22:47 08.01.2021
3914 Snow 0 1023 80 8047 7.2 10 21:54 08.01.2021
3915 Snow 0 1023 80 3219 5.66 10 21:26 08.01.2021
3916 Clouds 1 1024 69 10000 6.69 50 20:38 08.01.2021
3917 Clouds 1 1024 64 10000 6.17 30 19:58 08.01.2021
3918 Clouds 2 1024 64 10000 6.17 30 19:25 08.01.2021
3919 Clouds 2 1025 64 10000 6.17 60 18:54 08.01.2021
3920 Clouds 2 1025 64 10000 6.17 60 18:33 08.01.2021
3921 Clouds 1 1025 64 10000 7.2 40 17:55 08.01.2021
3922 Clouds 1 1025 64 10000 7.2 40 17:25 08.01.2021
3923 Clouds 1 1025 64 10000 6.17 30 16:49 08.01.2021
3924 Clouds 1 1025 60 10000 8.75 30 15:55 08.01.2021
3925 Clouds 1 1025 60 10000 8.75 30 15:33 08.01.2021
3926 Clouds 1 1025 69 10000 2.68 46 14:40 08.01.2021
3927 Clouds 2 1025 64 10000 6.69 30 14:18 08.01.2021
3928 Clouds 2 1024 64 10000 5.66 30 13:22 08.01.2021
3929 Clouds 2 1024 64 10000 4.12 50 12:52 08.01.2021
3930 Clouds 2 1024 64 10000 4.12 50 12:22 08.01.2021
3931 Clouds 2 1024 64 10000 4.12 50 12:22 08.01.2021
3932 Clouds 2 1025 64 10000 4.63 80 11:50 08.01.2021
3933 Clouds 2 1025 64 10000 4.63 80 11:30 08.01.2021
3934 Clouds 2 1025 64 10000 3.6 70 10:57 08.01.2021
3935 Clouds 2 1025 64 10000 3.6 70 10:38 08.01.2021
3936 Clouds 2 1025 64 10000 4.63 60 09:53 08.01.2021
3937 Clouds 2 1025 64 10000 4.63 60 09:35 08.01.2021
3938 Clouds 2 1025 64 10000 5.66 70 08:42 08.01.2021
3939 Clouds 2 1025 64 10000 4.63 70 07:29 08.01.2021
3940 Clouds 2 1026 64 10000 4.63 90 06:43 08.01.2021
3941 Clouds 3 1027 52 10000 5.14 60 00:35 08.01.2021
3942 Clouds 3 1027 52 10000 5.66 70 23:42 07.01.2021
3943 Clouds 3 1026 56 10000 6.17 60 22:51 07.01.2021
3944 Clouds 3 1026 56 10000 6.17 60 22:33 07.01.2021
3945 Clouds 3 1026 56 10000 5.66 60 21:50 07.01.2021
3946 Clouds 3 1026 56 10000 5.66 60 21:30 07.01.2021
3947 Clouds 3 1026 65 10000 5.14 70 20:52 07.01.2021
3948 Clouds 3 1026 65 10000 5.14 70 20:34 07.01.2021
3949 Clouds 3 1027 70 10000 5.66 70 19:47 07.01.2021
3950 Clouds 3 1027 70 10000 5.66 70 19:24 07.01.2021
3951 Clouds 3 1028 75 10000 5.14 70 18:46 07.01.2021
3952 Clouds 3 1028 70 10000 5.66 60 18:20 07.01.2021
3953 Clouds 3 1029 60 10000 4.12 70 17:34 07.01.2021
3954 Clouds 3 1029 52 10000 4.63 80 16:56 07.01.2021
3955 Clouds 3 1029 52 10000 4.63 80 16:32 07.01.2021
3956 Clouds 3 1028 52 10000 4.12 80 15:52 07.01.2021
3957 Clouds 3 1028 52 10000 4.12 80 15:30 07.01.2021
3958 Clouds 3 1028 52 10000 5.14 90 14:32 07.01.2021
3959 Clouds 3 1028 56 10000 4.63 80 13:58 07.01.2021
3960 Clouds 3 1028 56 10000 4.63 80 13:30 07.01.2021
3961 Clouds 3 1028 58 10000 1.79 121 12:55 07.01.2021
3962 Clouds 2 1028 64 10000 2.1 80 12:23 07.01.2021
3963 Clouds 2 1028 64 10000 2.1 80 11:41 07.01.2021
3964 Clouds 3 1028 64 10000 2.1 80 11:23 07.01.2021
3965 Clouds 3 1028 64 10000 2.1 90 10:37 07.01.2021
3966 Clouds 3 1028 64 10000 2.6 100 10:18 07.01.2021
3967 Clouds 3 1028 64 10000 2.6 100 09:41 07.01.2021
3968 Clouds 3 1028 59 10000 2.1 100 08:40 07.01.2021
3969 Clouds 3 1028 59 10000 2.1 100 08:21 07.01.2021
3970 Clouds 3 1028 64 10000 2.1 120 07:42 07.01.2021
3971 Clouds 3 1028 74 10000 2.1 80 06:46 07.01.2021
3972 Clouds 2 1028 74 10000 3.1 50 02:18 07.01.2021
3973 Clouds 2 1027 69 10000 1.5 80 23:58 06.01.2021
3974 Clouds 2 1027 69 10000 1.5 80 23:25 06.01.2021
3975 Clouds 3 1027 64 10000 2.1 140 22:23 06.01.2021
3976 Clouds 3 1027 64 10000 2.1 140 21:41 06.01.2021
3977 Clouds 3 1027 64 10000 2.1 140 21:22 06.01.2021
3978 Clouds 3 1027 64 10000 2.1 140 21:22 06.01.2021
3979 Clouds 3 1027 69 10000 3.1 90 20:42 06.01.2021
3980 Clouds 3 1027 64 10000 2.1 140 20:22 06.01.2021
3981 Clouds 3 1027 64 10000 2.1 140 19:47 06.01.2021
3982 Clouds 3 1027 64 10000 2.1 140 19:27 06.01.2021
3983 Clouds 3 1028 69 10000 1.5 230 18:46 06.01.2021
3984 Clouds 3 1032 78 10000 0.83 61 18:28 06.01.2021
3985 Clouds 2 1028 74 10000 0.83 61 17:46 06.01.2021
3986 Clouds 2 1028 74 10000 0.8 39 17:27 06.01.2021
3987 Clouds 1 1033 85 10000 0.8 39 16:57 06.01.2021
3988 Haze 0 1029 86 9656 2.1 270 16:21 06.01.2021
3989 Haze 0 1028 80 9656 0.89 357 15:59 06.01.2021
3990 Haze 0 1028 80 9656 0.89 357 15:35 06.01.2021
3991 Clouds -1 1027 86 10000 1.5 250 14:58 06.01.2021
3992 Clouds -1 1027 86 10000 1.5 250 14:30 06.01.2021
3993 Mist -1 1027 80 8047 2.6 250 13:52 06.01.2021
3994 Mist -1 1027 80 8047 2.6 250 13:26 06.01.2021
3995 Mist -1 1027 86 8047 2.6 250 12:55 06.01.2021
3996 Mist -1 1026 80 8047 2.6 240 12:30 06.01.2021
3997 Mist -1 1025 97 9656 1.5 220 11:44 06.01.2021
3998 Mist -1 1025 96 9656 1.5 220 11:21 06.01.2021
3999 Mist 0 1025 74 9656 1.5 180 10:35 06.01.2021
4000 Mist 0 1025 74 8047 2.1 100 09:52 06.01.2021
4001 Mist 0 1025 74 8047 2.1 100 09:27 06.01.2021
4002 Mist 1 1025 74 8047 1.5 220 08:51 06.01.2021
4003 Mist 0 1025 97 6437 2.1 220 08:18 06.01.2021
4004 Mist 0 1025 97 6437 2.1 220 07:49 06.01.2021
4005 Haze 0 1024 97 6437 1.5 220 05:59 06.01.2021
4006 Haze 0 1024 97 6437 0.81 324 04:43 06.01.2021
4007 Haze 0 1023 97 8047 2.1 230 02:55 06.01.2021
4008 Haze 0 1023 74 8047 0.81 325 02:36 06.01.2021
4009 Clouds 0 1022 74 10000 2.1 270 02:18 06.01.2021
4010 Clouds 1 1021 74 10000 2.1 330 23:48 05.01.2021
4011 Clouds 2 1021 74 10000 2.1 270 22:55 05.01.2021
4012 Clouds 2 1021 74 10000 2.1 270 22:36 05.01.2021
4013 Clouds 2 1020 74 10000 3.1 300 22:18 05.01.2021
4014 Clouds 3 1019 74 10000 3.1 300 21:19 05.01.2021
4015 Clouds 2 1019 74 10000 3.1 300 20:30 05.01.2021
4016 Clouds 2 1019 80 10000 2.6 300 19:45 05.01.2021
4017 Clouds 1 1019 80 10000 2.6 300 19:24 05.01.2021
4018 Clouds 1 1019 80 10000 3.6 300 18:49 05.01.2021
4019 Clouds 1 1019 80 10000 3.6 300 18:28 05.01.2021
4020 Clouds 1 1019 80 10000 4.1 310 17:54 05.01.2021
4021 Clouds 1 1019 80 10000 4.1 310 17:32 05.01.2021
4022 Clouds 0 1019 80 10000 3.6 310 16:54 05.01.2021
4023 Clouds 0 1019 80 10000 3.6 310 16:24 05.01.2021
4024 Clouds 0 1018 95 10000 3.6 300 15:59 05.01.2021
4025 Clouds 0 1018 95 10000 3.6 300 15:35 05.01.2021
4026 Clouds 0 1017 93 10000 3.6 310 14:48 05.01.2021
4027 Clouds 0 1017 92 10000 4.1 300 14:18 05.01.2021
4028 Clouds 0 1017 92 10000 4.1 300 13:39 05.01.2021
4029 Clouds 0 1016 93 10000 2.6 290 13:20 05.01.2021
4030 Clouds 0 1016 94 10000 2.6 290 12:46 05.01.2021
4031 Clouds 0 1016 94 10000 2.6 290 12:20 05.01.2021
4032 Clouds -1 1016 86 10000 3.1 300 11:32 05.01.2021
4033 Clouds -1 1016 86 10000 3.1 300 11:31 05.01.2021
4034 Clouds -1 1015 86 10000 4.1 330 10:46 05.01.2021
4035 Clouds -1 1015 86 10000 4.1 330 10:25 05.01.2021
4036 Snow -1 1015 86 8047 4.1 310 09:47 05.01.2021
4037 Snow -1 1015 86 8047 4.1 310 09:26 05.01.2021
4038 Clouds -2 1014 86 10000 4.1 290 08:23 05.01.2021
4039 Snow -2 1014 86 10000 2.6 270 06:46 05.01.2021
4040 Snow -2 1014 86 3219 3.1 270 03:48 05.01.2021
4041 Mist -1 1014 92 2816 3.1 230 00:45 05.01.2021
4042 Mist -1 1014 86 4828 5.1 240 23:44 04.01.2021
4043 Mist -1 1014 86 6437 4.6 220 23:24 04.01.2021
4044 Mist -1 1014 86 6437 4.6 220 22:49 04.01.2021
4045 Mist -1 1014 86 6437 4.6 220 22:22 04.01.2021
4046 Mist -1 1013 86 6437 6.2 210 21:45 04.01.2021
4047 Mist -1 1013 86 6437 6.2 210 21:25 04.01.2021
4048 Clouds -1 1017 89 10000 4.2 221 20:43 04.01.2021
4049 Clouds -1 1017 89 10000 0.89 316 20:22 04.01.2021
4050 Mist -1 1014 86 4828 3.6 230 19:48 04.01.2021
4051 Clouds -2 1018 90 6161 3.73 226 19:22 04.01.2021
4052 Clouds -2 1019 90 6161 3.73 226 18:48 04.01.2021
4053 Mist -3 1017 92 1609 4.1 210 18:19 04.01.2021
4054 Mist -3 1017 92 1207 4.1 210 17:41 04.01.2021
4055 Snow -3 1017 92 1207 4.1 200 17:22 04.01.2021
4056 Snow -3 1017 92 1207 4.1 200 16:45 04.01.2021
4057 Snow -3 1017 92 1207 4.1 200 16:26 04.01.2021
4058 Mist -4 1017 92 1207 3.1 200 15:49 04.01.2021
4059 Mist -3 1016 92 1207 3.6 170 15:25 04.01.2021
4060 Mist -4 1016 86 1207 3.6 200 14:34 04.01.2021
4061 Mist -4 1016 92 1207 3.1 200 13:44 04.01.2021
4062 Mist -3 1017 92 4023 3.6 180 13:22 04.01.2021
4063 Mist -3 1017 92 4828 2.6 210 12:36 04.01.2021
4064 Mist -3 1017 86 2816 4.1 220 11:55 04.01.2021
4065 Mist -3 1017 86 2816 4.1 220 11:21 04.01.2021
4066 Mist -3 1017 85 6437 3.1 200 10:47 04.01.2021
4067 Mist -4 1017 85 6437 3.1 200 10:25 04.01.2021
4068 Clouds -3 1017 79 10000 5.1 200 09:51 04.01.2021
4069 Clouds -3 1017 79 10000 5.1 200 09:19 04.01.2021
4070 Clouds -3 1017 79 10000 4.1 200 08:41 04.01.2021
4071 Clouds -3 1017 86 10000 3.6 220 07:54 04.01.2021
4072 Clouds -3 1017 79 10000 4.1 210 07:18 04.01.2021
4073 Clouds -2 1016 79 10000 4.6 250 05:21 04.01.2021
4074 Clouds -1 1017 80 10000 3.6 210 02:35 04.01.2021
4075 Clouds 0 1017 98 10000 3.1 260 00:34 04.01.2021
4076 Clouds 0 1016 98 10000 3.6 290 23:48 03.01.2021
4077 Clouds 0 1016 98 10000 2.6 230 23:20 03.01.2021
4078 Clouds 0 1016 98 10000 2.6 230 22:51 03.01.2021
4079 Clouds 0 1016 98 10000 2.6 230 22:30 03.01.2021
4080 Clouds 1 1015 80 10000 4.6 280 21:48 03.01.2021
4081 Clouds 1 1015 80 10000 4.6 280 21:25 03.01.2021
4082 Clouds 1 1015 80 10000 3.6 270 20:44 03.01.2021
4083 Clouds 1 1015 80 10000 3.6 270 20:24 03.01.2021
4084 Mist 1 1015 86 8047 2.6 290 19:55 03.01.2021
4085 Mist 1 1015 86 8047 2.6 290 19:34 03.01.2021
4086 Mist 1 1015 86 8047 3.1 300 18:54 03.01.2021
4087 Mist 1 1015 86 8047 3.1 300 18:36 03.01.2021
4088 Mist 1 1015 80 8047 2.6 300 17:59 03.01.2021
4089 Mist 1 1015 80 8047 2.6 300 17:40 03.01.2021
4090 Mist 0 1015 80 8047 2.6 300 17:22 03.01.2021
4091 Mist 0 1015 96 4828 3.6 300 16:42 03.01.2021
4092 Snow 0 1014 98 4828 1.5 320 16:19 03.01.2021
4093 Mist 0 1014 98 4828 1.5 320 15:45 03.01.2021
4094 Snow 0 1014 98 4828 1.5 320 15:23 03.01.2021
4095 Snow 0 1014 98 4828 3.1 330 14:45 03.01.2021
4096 Snow 0 1014 99 4828 3.1 330 14:24 03.01.2021
4097 Snow 0 1014 99 4828 2.6 330 13:39 03.01.2021
4098 Mist 0 1014 99 4828 2.6 330 13:21 03.01.2021
4099 Snow 0 1013 86 2816 2.6 320 11:57 03.01.2021
4100 Snow 0 1013 86 2816 2.6 320 11:39 03.01.2021
4101 Snow 0 1013 86 3219 1.5 310 11:21 03.01.2021
4102 Snow 0 1013 86 1609 0.84 326 10:34 03.01.2021
4103 Snow 1 1013 86 2414 0.11 131 09:52 03.01.2021
4104 Snow 1 1013 86 2414 1.76 111 09:28 03.01.2021
4105 Snow 1 1013 86 2816 1.76 111 08:34 03.01.2021
4106 Snow 1 1014 86 8047 2.1 80 07:24 03.01.2021
4107 Mist 1 1015 86 9656 2.1 80 05:23 03.01.2021
4108 Clouds 1 1017 86 10000 3.6 90 02:26 03.01.2021
4109 Clouds 2 1017 80 10000 3.6 50 00:54 03.01.2021
4110 Mist 1 1017 80 9656 4.1 30 23:53 02.01.2021
4111 Clouds 1 1017 74 10000 3.1 40 23:20 02.01.2021
4112 Clouds 1 1017 74 10000 4.1 60 22:48 02.01.2021
4113 Clouds 1 1017 74 10000 4.1 60 22:29 02.01.2021
4114 Clouds 1 1018 74 10000 3.1 70 21:49 02.01.2021
4115 Clouds 1 1018 74 10000 3.1 70 21:29 02.01.2021
4116 Clouds 2 1018 74 10000 2.1 30 20:46 02.01.2021
4117 Clouds 2 1018 74 10000 2.1 30 20:26 02.01.2021
4118 Clouds 2 1019 80 10000 1.5 330 19:48 02.01.2021
4119 Clouds 1 1019 80 10000 1.5 330 19:20 02.01.2021
4120 Clouds 1 1019 80 10000 2.6 330 18:51 02.01.2021
4121 Clouds 1 1019 80 10000 2.6 330 18:32 02.01.2021
4122 Mist 0 1020 98 8047 2.6 310 17:46 02.01.2021
4123 Mist 0 1020 98 8047 3.6 330 17:28 02.01.2021
4124 Mist -1 1019 86 8047 4.1 350 16:46 02.01.2021
4125 Mist -1 1019 86 8047 4.1 350 16:21 02.01.2021
4126 Mist -1 1019 86 6437 4.6 340 15:46 02.01.2021
4127 Mist -1 1019 86 6437 4.6 340 15:27 02.01.2021
4128 Mist -1 1019 92 4828 3.6 330 14:47 02.01.2021
4129 Mist -1 1019 92 4828 3.6 330 14:23 02.01.2021
4130 Mist -1 1017 97 4023 5.1 330 13:43 02.01.2021
4131 Clouds -1 1017 95 10000 2.24 335 12:55 02.01.2021
4132 Mist 0 1017 86 8047 3.6 310 12:32 02.01.2021
4133 Mist 0 1017 86 8047 3.1 320 11:59 02.01.2021
4134 Mist 0 1017 86 8047 3.1 320 11:26 02.01.2021
4135 Mist 0 1016 86 8047 3.6 350 10:59 02.01.2021
4136 Mist 0 1016 86 6437 4.6 350 10:35 02.01.2021
4137 Mist 1 1015 86 4828 4.1 330 09:59 02.01.2021
4138 Mist 1 1015 86 4828 4.1 330 09:39 02.01.2021
4139 Clouds 1 1019 93 10000 5.18 343 09:19 02.01.2021
4140 Clouds 1 1019 93 10000 5.18 343 08:41 02.01.2021
4141 Mist 1 1014 80 4023 5.1 340 08:18 02.01.2021
4142 Clouds 1 1012 86 10000 5.7 360 07:24 02.01.2021
4143 Snow 1 1011 86 9656 6.7 360 06:57 02.01.2021
4144 Snow 1 1011 86 4828 5.1 360 05:55 02.01.2021
4145 Rain 1 1009 95 3219 4.6 50 01:58 02.01.2021
4146 Mist 1 1009 95 3219 6.7 60 00:38 02.01.2021
4147 Mist 1 1008 86 3219 7.7 60 23:58 01.01.2021
4148 Snow 1 1008 86 3219 7.7 60 23:24 01.01.2021
4149 Rain 1 1009 86 2816 8.2 60 22:52 01.01.2021
4150 Rain 1 1009 86 2816 8.2 60 22:27 01.01.2021
4151 Rain 1 1010 80 2816 8.2 60 22:00 01.01.2021
4152 Rain 1 1010 80 2816 8.2 60 21:41 01.01.2021
4153 Mist 1 1011 80 8047 8.2 70 21:19 01.01.2021
4154 Rain 1 1012 80 8047 8.2 50 20:48 01.01.2021
4155 Rain 0 1013 97 8047 6.7 50 20:18 01.01.2021
4156 Rain 0 1013 97 6437 11.3 60 19:42 01.01.2021
4157 Rain 0 1013 97 6437 11.3 60 19:22 01.01.2021
4158 Snow 0 1017 97 10000 7.2 60 18:45 01.01.2021
4159 Snow 0 1017 97 10000 7.2 60 18:23 01.01.2021
4160 Snow 0 1019 97 10000 5.7 60 17:47 01.01.2021
4161 Rain 0 1019 95 10000 5.7 60 17:23 01.01.2021
4162 Snow 0 1019 95 8047 6.2 60 16:50 01.01.2021
4163 Snow 0 1020 96 10000 7.2 80 16:25 01.01.2021
4164 Snow 0 1021 80 10000 5.7 60 15:41 01.01.2021
4165 Clouds -1 1022 80 10000 5.1 60 14:49 01.01.2021
4166 Clouds -1 1021 74 10000 6.2 60 14:28 01.01.2021
4167 Clouds -2 1022 74 10000 4.6 70 13:40 01.01.2021
4168 Clouds -2 1022 74 10000 4.6 70 13:40 01.01.2021
4169 Clouds -2 1024 74 10000 3.6 80 12:57 01.01.2021
4170 Clouds -2 1024 74 10000 3.6 80 12:57 01.01.2021
4171 Clouds -2 1024 74 10000 3.6 80 12:36 01.01.2021
4172 Clouds -2 1026 79 10000 3.1 150 11:43 01.01.2021
4173 Clouds -2 1026 79 10000 3.1 150 11:23 01.01.2021
4174 Clouds -1 1025 74 10000 4.1 140 10:59 01.01.2021
4175 Clouds -2 1025 79 10000 3.1 120 10:33 01.01.2021
4176 Clouds -2 1026 73 10000 2.6 90 09:39 01.01.2021
4177 Clouds -2 1026 73 10000 2.1 90 08:52 01.01.2021
4178 Clouds -2 1026 73 10000 2.1 90 08:25 01.01.2021
4179 Clouds -3 1027 68 10000 1.5 80 04:52 01.01.2021
4180 Clouds -4 1027 68 10000 1.01 66 02:25 01.01.2021
4181 Clouds -3 1027 68 10000 2.6 240 00:37 01.01.2021
4182 Clouds -2 1026 63 10000 3.1 200 23:56 31.12.2020
4183 Clouds -2 1026 63 10000 3.1 200 23:22 31.12.2020
4184 Clouds -2 1026 63 10000 2.1 210 22:56 31.12.2020
4185 Clouds -2 1026 63 10000 2.1 210 22:37 31.12.2020
4186 Clouds -1 1026 63 10000 2.1 210 22:19 31.12.2020
4187 Clouds -1 1025 63 10000 2.1 160 21:44 31.12.2020
4188 Clouds -1 1025 63 10000 2.1 160 21:21 31.12.2020
4189 Clouds -1 1025 63 10000 2.1 130 20:31 31.12.2020
4190 Clouds -2 1025 68 10000 2.1 160 19:59 31.12.2020
4191 Clouds -2 1025 63 10000 1.5 120 19:36 31.12.2020
4192 Clouds -3 1026 68 10000 1.5 230 19:18 31.12.2020
4193 Clouds -3 1026 68 10000 1.5 230 18:41 31.12.2020
4194 Clouds -3 1026 68 10000 1.5 230 18:23 31.12.2020
4195 Clouds -3 1027 68 10000 1.5 230 17:41 31.12.2020
4196 Clouds -4 1027 68 10000 1.5 230 17:21 31.12.2020
4197 Clouds -4 1026 68 10000 2.6 240 16:39 31.12.2020
4198 Clouds -4 1025 68 10000 2.6 250 16:20 31.12.2020
4199 Clouds -4 1025 68 10000 2.6 250 15:45 31.12.2020
4200 Clouds -4 1024 62 10000 2.16 298 15:20 31.12.2020
4201 Clouds -5 1024 62 10000 2.16 298 14:54 31.12.2020
4202 Clouds -5 1024 62 10000 2.16 298 14:36 31.12.2020
4203 Clouds -5 1024 62 10000 3.02 278 14:18 31.12.2020
4204 Clouds -5 1024 62 10000 3.02 278 13:38 31.12.2020
4205 Clouds -5 1022 68 10000 2.1 330 13:19 31.12.2020
4206 Clouds -5 1022 68 10000 2.1 330 13:19 31.12.2020
4207 Clouds -4 1022 68 10000 2.1 330 12:52 31.12.2020
4208 Clouds -4 1022 68 10000 4.1 290 12:32 31.12.2020
4209 Clouds -4 1022 68 10000 4.1 290 11:51 31.12.2020
4210 Clouds -4 1022 68 10000 4.1 290 11:32 31.12.2020
4211 Clouds -4 1022 63 10000 3.6 280 10:46 31.12.2020
4212 Clouds -4 1022 63 10000 3.6 280 10:28 31.12.2020
4213 Clouds -4 1022 63 10000 3.6 260 09:51 31.12.2020
4214 Clouds -4 1022 63 10000 3.6 260 09:26 31.12.2020
4215 Clouds -4 1020 63 10000 4.1 280 08:50 31.12.2020
4216 Clouds -4 1020 63 10000 4.1 280 08:31 31.12.2020
4217 Clouds -3 1020 63 10000 3.1 300 07:56 31.12.2020
4218 Clouds -3 1020 63 10000 3.1 300 07:28 31.12.2020
4219 Clouds -3 1019 63 10000 4.6 290 05:30 31.12.2020
4220 Clouds -3 1018 63 10000 7.7 290 03:40 31.12.2020
4221 Clouds -3 1018 68 10000 7.2 280 02:45 31.12.2020
4222 Clouds -3 1018 68 10000 7.2 280 02:25 31.12.2020
4223 Clouds -3 1016 73 10000 7.7 270 01:43 31.12.2020
4224 Clouds -3 1016 73 10000 7.7 270 01:24 31.12.2020
4225 Clouds -2 1015 68 10000 6.7 270 00:44 31.12.2020
4226 Clouds -1 1014 68 10000 6.7 260 23:48 30.12.2020
4227 Clouds -1 1018 77 10000 0.45 119 23:19 30.12.2020
4228 Clouds -1 1015 68 10000 6.7 270 22:47 30.12.2020
4229 Clouds -1 1015 68 10000 6.7 270 22:47 30.12.2020
4230 Clouds -1 1015 68 10000 6.7 270 22:29 30.12.2020
4231 Clouds -1 1013 74 10000 8.2 280 21:39 30.12.2020
4232 Clouds -1 1013 74 10000 8.2 280 21:20 30.12.2020
4233 Clouds -1 1013 80 10000 8.7 270 20:48 30.12.2020
4234 Clouds -1 1017 80 10000 0.45 23 20:20 30.12.2020
4235 Clouds 0 1016 83 10000 6.47 260 19:40 30.12.2020
4236 Clouds 0 1012 69 10000 10.3 270 19:21 30.12.2020
4237 Clouds 1 1012 74 10000 7.2 270 18:46 30.12.2020
4238 Clouds 1 1012 74 10000 7.2 270 18:27 30.12.2020
4239 Clouds 1 1013 74 10000 8.7 260 17:51 30.12.2020
4240 Clouds 1 1012 93 10000 7.2 260 17:32 30.12.2020
4241 Mist 1 1011 93 8047 6.2 260 16:53 30.12.2020
4242 Mist 2 1011 93 8047 6.7 250 16:29 30.12.2020
4243 Mist 2 1009 93 3219 4.6 240 15:47 30.12.2020
4244 Drizzle 2 1009 93 3219 4.6 240 15:24 30.12.2020
4245 Mist 2 1011 93 4828 6.7 220 14:44 30.12.2020
4246 Mist 2 1009 80 6437 5.1 210 14:22 30.12.2020
4247 Mist 2 1009 80 6437 5.1 210 13:29 30.12.2020
4248 Rain 1 1011 80 8047 5.7 200 12:29 30.12.2020
4249 Rain 1 1011 86 8047 6.2 200 11:57 30.12.2020
4250 Rain 1 1011 86 8047 6.2 200 11:36 30.12.2020
4251 Rain 1 1013 80 8047 5.1 190 11:18 30.12.2020
4252 Rain 1 1013 80 8047 5.1 190 10:40 30.12.2020
4253 Rain 1 1013 80 8047 5.1 190 10:21 30.12.2020
4254 Rain 0 1013 80 8047 4.6 200 09:48 30.12.2020
4255 Rain 0 1014 80 8047 5.1 190 09:25 30.12.2020
4256 Rain 0 1015 97 6437 6.2 170 08:27 30.12.2020
4257 Rain 0 1016 98 4828 6.7 160 07:29 30.12.2020
4258 Snow 0 1020 84 552 0.45 113 06:51 30.12.2020
4259 Rain 0 1017 59 10000 5.1 150 06:29 30.12.2020
4260 Snow 0 1019 96 10000 3.6 120 05:42 30.12.2020
4261 Snow 0 1019 93 10000 3.6 120 05:24 30.12.2020
4262 Snow -1 1022 68 10000 6.2 150 03:28 30.12.2020
4263 Snow -2 1023 86 4828 7.7 130 02:39 30.12.2020
4264 Snow -2 1026 92 805 5.7 130 01:56 30.12.2020
4265 Snow -3 1026 92 805 5.7 130 01:32 30.12.2020
4266 Snow -3 1028 86 805 5.1 130 00:47 30.12.2020
4267 Snow -2 1028 86 805 5.1 130 00:29 30.12.2020
4268 Snow -3 1028 86 805 4.6 150 23:54 29.12.2020
4269 Snow -2 1029 74 1207 5.7 160 23:35 29.12.2020
4270 Snow 0 1029 80 10000 6.7 150 22:56 29.12.2020
4271 Snow 0 1029 80 10000 6.7 150 22:37 29.12.2020
4272 Snow 0 1029 54 10000 5.1 160 22:19 29.12.2020
4273 Snow -1 1029 54 10000 5.1 160 21:44 29.12.2020
4274 Clouds -1 1029 54 10000 5.1 160 21:24 29.12.2020
4275 Clouds -1 1031 58 10000 5.1 160 20:45 29.12.2020
4276 Clouds -1 1031 58 10000 5.1 160 20:25 29.12.2020
4277 Clouds -1 1033 58 10000 3.6 160 19:46 29.12.2020
4278 Clouds -1 1033 58 10000 3.6 160 19:23 29.12.2020
4279 Clouds -1 1034 68 10000 2.1 160 18:54 29.12.2020
4280 Clouds -1 1034 68 10000 2.1 160 18:29 29.12.2020
4281 Clouds -2 1034 73 10000 2.1 130 17:55 29.12.2020
4282 Clouds -2 1034 73 10000 2.1 130 17:36 29.12.2020
4283 Clouds -2 1039 80 10000 3.06 147 17:18 29.12.2020
4284 Clouds -4 1034 68 10000 1.5 130 16:34 29.12.2020
4285 Clouds -5 1034 73 10000 2.15 129 15:52 29.12.2020
4286 Clouds -5 1034 73 10000 2.15 129 15:33 29.12.2020
4287 Clouds -7 1034 73 10000 0.7 71 14:46 29.12.2020
4288 Clouds -7 1034 73 10000 0.74 338 14:28 29.12.2020
4289 Clouds -7 1035 73 10000 0.74 338 13:59 29.12.2020
4290 Clouds -7 1034 78 10000 1.5 290 13:25 29.12.2020
4291 Clouds -7 1034 78 10000 1.5 290 12:56 29.12.2020
4292 Clouds -8 1034 78 10000 1.5 290 12:36 29.12.2020
4293 Clouds -7 1034 73 10000 2.1 320 12:18 29.12.2020
4294 Clouds -7 1034 73 10000 2.1 320 11:45 29.12.2020
4295 Clouds -7 1034 73 10000 2.1 320 11:24 29.12.2020
4296 Clouds -7 1034 73 10000 2.1 280 10:20 29.12.2020
4297 Clear -7 1033 73 10000 1.5 260 09:41 29.12.2020
4298 Clear -6 1033 73 10000 2.1 270 09:19 29.12.2020
4299 Clear -6 1033 73 10000 2.1 270 08:49 29.12.2020
4300 Clear -6 1032 73 10000 2.6 270 07:40 29.12.2020
4301 Clear -6 1032 73 10000 2.6 270 07:20 29.12.2020
4302 Clear -4 1031 68 10000 3.6 270 05:50 29.12.2020
4303 Clear -2 1030 54 10000 2.6 270 02:33 29.12.2020
4304 Clouds -1 1029 50 10000 4.6 300 00:26 29.12.2020
4305 Clouds 0 1028 83 10000 4.6 300 23:39 28.12.2020
4306 Clouds 0 1027 43 10000 4.1 290 22:56 28.12.2020
4307 Clouds 1 1027 43 10000 4.1 290 22:20 28.12.2020
4308 Clouds 1 1026 43 10000 4.1 280 21:41 28.12.2020
4309 Clouds 1 1026 47 10000 5.7 290 21:20 28.12.2020
4310 Clouds 1 1026 47 10000 5.7 290 20:40 28.12.2020
4311 Clouds 1 1026 50 10000 5.7 310 20:21 28.12.2020
4312 Clouds 0 1026 50 10000 5.7 310 19:42 28.12.2020
4313 Clouds 0 1026 50 10000 5.7 310 19:22 28.12.2020
4314 Clouds -1 1026 58 10000 5.7 290 18:49 28.12.2020
4315 Clouds -1 1026 58 10000 5.7 290 18:28 28.12.2020
4316 Clouds -1 1025 58 10000 5.7 300 17:41 28.12.2020
4317 Clouds -1 1025 58 10000 6.2 290 17:18 28.12.2020
4318 Clouds -1 1024 63 10000 6.7 300 16:33 28.12.2020
4319 Clouds -1 1023 68 10000 4.6 300 15:59 28.12.2020
4320 Clouds -1 1023 68 10000 4.6 300 15:41 28.12.2020
4321 Clouds -1 1021 68 10000 5.7 310 14:49 28.12.2020
4322 Clouds -1 1020 68 10000 4.1 300 13:51 28.12.2020
4323 Clouds -1 1020 68 10000 4.1 300 13:24 28.12.2020
4324 Clouds -1 1019 68 10000 4.6 290 12:40 28.12.2020
4325 Clouds -1 1019 68 10000 4.6 290 12:20 28.12.2020
4326 Clouds -1 1018 92 10000 6.2 300 11:45 28.12.2020
4327 Clouds -1 1018 92 10000 6.2 300 11:22 28.12.2020
4328 Clouds 0 1017 92 10000 6.2 290 10:43 28.12.2020
4329 Clouds 0 1017 93 10000 6.2 290 10:25 28.12.2020
4330 Clouds 0 1015 69 10000 5.7 290 09:45 28.12.2020
4331 Clouds 0 1019 77 10000 0.45 68 09:18 28.12.2020
4332 Clouds 1 1012 74 10000 7.2 280 07:21 28.12.2020
4333 Clouds 1 1010 69 10000 7.7 300 06:43 28.12.2020
4334 Clouds 3 1006 74 10000 7.2 280 04:22 28.12.2020
4335 Clouds 7 1003 70 10000 5.1 210 01:57 28.12.2020
4336 Clouds 7 1003 65 10000 4.6 210 00:30 28.12.2020
4337 Clouds 6 1002 65 10000 2.1 180 23:46 27.12.2020
4338 Clouds 8 1003 61 10000 6.2 190 23:19 27.12.2020
4339 Clouds 8 1003 61 10000 6.2 200 21:57 27.12.2020
4340 Clouds 8 1003 61 10000 6.2 200 21:57 27.12.2020
4341 Clouds 8 1003 61 10000 6.2 200 21:26 27.12.2020
4342 Clouds 7 1004 56 10000 5.1 190 20:45 27.12.2020
4343 Clouds 6 1005 56 10000 5.7 190 19:25 27.12.2020
4344 Clouds 5 1010 69 10000 5.18 184 18:55 27.12.2020
4345 Clouds 4 1010 70 10000 5.18 184 18:37 27.12.2020
4346 Clouds 4 1011 71 10000 0.45 148 18:18 27.12.2020
4347 Clouds 2 1008 69 10000 5.1 150 17:43 27.12.2020
4348 Clouds 1 1008 69 10000 5.1 150 17:21 27.12.2020
4349 Clouds 0 1009 68 10000 4.1 130 16:30 27.12.2020
4350 Clouds 0 1010 74 10000 4.1 130 15:50 27.12.2020
4351 Clouds -1 1011 68 10000 3.6 110 14:58 27.12.2020
4352 Clouds -1 1011 68 10000 3.6 110 14:38 27.12.2020
4353 Clouds -1 1011 68 10000 3.1 120 13:55 27.12.2020
4354 Clouds -1 1011 68 10000 3.1 120 13:19 27.12.2020
4355 Clouds -1 1012 73 10000 3.1 120 12:43 27.12.2020
4356 Clouds -2 1012 73 10000 3.1 140 11:49 27.12.2020
4357 Clouds -2 1012 73 10000 3.1 140 11:29 27.12.2020
4358 Clouds -2 1013 73 10000 3.1 140 10:51 27.12.2020
4359 Clouds -2 1013 73 10000 3.1 140 10:24 27.12.2020
4360 Clouds -1 1014 73 10000 3.1 130 09:42 27.12.2020
4361 Clouds -2 1014 73 10000 2.1 120 08:29 27.12.2020
4362 Clouds -2 1015 73 10000 2.1 120 07:59 27.12.2020
4363 Clouds -2 1015 73 10000 2.1 120 07:25 27.12.2020
4364 Clouds -2 1015 68 10000 3.6 130 05:44 27.12.2020
4365 Clouds -2 1015 68 10000 2.6 150 03:26 27.12.2020
4366 Clouds -2 1015 68 10000 2.6 140 02:42 27.12.2020
4367 Clouds -2 1015 63 10000 2.6 100 01:32 27.12.2020
4368 Clouds -1 1019 71 10000 1.05 276 23:57 26.12.2020
4369 Clouds -1 1015 40 10000 2.6 250 23:27 26.12.2020
4370 Clouds 0 1015 40 10000 2.6 250 22:47 26.12.2020
4371 Clouds 0 1015 40 10000 2.6 250 22:20 26.12.2020
4372 Clouds 1 1014 43 10000 2.26 298 21:55 26.12.2020
4373 Clouds 1 1014 43 10000 2.69 293 21:33 26.12.2020
4374 Clouds 0 1014 83 10000 2.69 293 20:59 26.12.2020
4375 Clouds 0 1014 83 10000 2.69 293 20:36 26.12.2020
4376 Clouds 0 1014 83 10000 2.69 293 20:36 26.12.2020
4377 Clouds 0 1014 84 10000 3.22 284 20:18 26.12.2020
4378 Clouds -1 1015 50 10000 4.1 310 19:25 26.12.2020
4379 Smoke -2 1016 53 10000 4.1 290 18:49 26.12.2020
4380 Smoke -3 1016 53 10000 4.1 290 18:27 26.12.2020
4381 Clouds -4 1015 58 10000 4.1 290 17:40 26.12.2020
4382 Clear -4 1020 71 10000 3.78 283 17:20 26.12.2020
4383 Clouds -5 1015 73 10000 4.1 270 16:35 26.12.2020
4384 Clouds -6 1014 73 10000 3.6 280 15:27 26.12.2020
4385 Clouds -6 1014 73 10000 3.6 280 15:27 26.12.2020
4386 Clouds -6 1014 73 10000 2.6 290 14:50 26.12.2020
4387 Clouds -6 1013 67 10000 3.1 280 14:28 26.12.2020
4388 Clouds -6 1013 67 10000 3.6 260 13:43 26.12.2020
4389 Clouds -6 1012 62 10000 3.6 260 13:25 26.12.2020
4390 Clouds -7 1012 62 10000 4.6 270 12:44 26.12.2020
4391 Clouds -7 1012 62 10000 4.6 270 12:22 26.12.2020
4392 Clouds -7 1012 57 10000 4.6 270 11:51 26.12.2020
4393 Clouds -7 1012 57 10000 4.6 270 11:22 26.12.2020
4394 Clouds -7 1012 57 10000 4.6 270 11:22 26.12.2020
4395 Clouds -7 1012 57 10000 4.1 250 10:54 26.12.2020
4396 Clouds -7 1012 57 10000 4.1 250 10:27 26.12.2020
4397 Clouds -7 1012 52 10000 4.1 250 09:50 26.12.2020
4398 Clouds -7 1012 52 10000 4.1 250 09:25 26.12.2020
4399 Clouds -7 1012 48 10000 6.2 250 08:29 26.12.2020
4400 Clear -7 1011 48 10000 7.2 240 07:52 26.12.2020
4401 Clouds -7 1013 48 10000 8.7 250 06:31 26.12.2020
4402 Clouds -7 1014 52 10000 7.2 250 03:19 26.12.2020
4403 Clear -7 1014 48 10000 6.2 250 01:32 26.12.2020
4404 Clouds -6 1014 48 10000 7.7 260 00:25 26.12.2020
4405 Clouds -6 1014 48 10000 7.7 260 23:39 25.12.2020
4406 Clouds -6 1014 48 10000 7.7 260 23:21 25.12.2020
4407 Clouds -6 1013 44 10000 7.7 260 22:40 25.12.2020
4408 Clouds -6 1014 44 10000 6.7 270 21:54 25.12.2020
4409 Clouds -6 1014 44 10000 6.7 270 21:34 25.12.2020
4410 Clouds -6 1014 44 10000 6.2 260 20:50 25.12.2020
4411 Clouds -6 1014 44 10000 6.2 260 20:31 25.12.2020
4412 Clouds -7 1014 48 10000 5.1 280 19:47 25.12.2020
4413 Clouds -7 1014 52 10000 4.6 270 19:20 25.12.2020
4414 Clouds -8 1014 52 10000 4.6 270 18:39 25.12.2020
4415 Clouds -9 1015 52 10000 5.7 290 17:47 25.12.2020
4416 Clouds -9 1015 52 10000 5.7 290 17:28 25.12.2020
4417 Clouds -11 1014 61 10000 6.2 290 16:33 25.12.2020
4418 Clouds -11 1014 66 10000 4.1 310 15:59 25.12.2020
4419 Clouds -12 1014 66 10000 4.1 310 15:36 25.12.2020
4420 Clouds -12 1014 60 10000 6.2 300 14:54 25.12.2020
4421 Clouds -12 1014 60 10000 6.2 300 14:29 25.12.2020
4422 Clouds -12 1014 60 10000 4.1 310 13:44 25.12.2020
4423 Clouds -12 1014 60 10000 4.1 310 13:26 25.12.2020
4424 Clouds -12 1013 60 10000 4.1 320 12:45 25.12.2020
4425 Snow -12 1013 60 10000 4.1 320 11:58 25.12.2020
4426 Snow -12 1013 60 10000 4.1 320 11:40 25.12.2020
4427 Clouds -12 1013 60 10000 5.1 310 11:19 25.12.2020
4428 Clouds -13 1013 60 10000 5.1 310 10:27 25.12.2020
4429 Clouds -13 1013 60 10000 5.7 310 09:37 25.12.2020
4430 Clouds -13 1013 65 10000 5.7 300 08:48 25.12.2020
4431 Clouds -13 1013 65 10000 5.7 300 08:25 25.12.2020
4432 Snow -12 1014 56 10000 5.7 310 06:47 25.12.2020
4433 Snow -10 1012 61 10000 5.1 330 04:29 25.12.2020
4434 Snow -10 1013 56 10000 4.1 290 01:42 25.12.2020
4435 Snow -9 1011 52 10000 6.2 290 00:18 25.12.2020
4436 Snow -9 1011 52 10000 6.2 290 23:23 24.12.2020
4437 Snow -9 1010 52 10000 5.7 310 22:50 24.12.2020
4438 Snow -9 1010 52 10000 5.7 310 22:21 24.12.2020
4439 Snow -9 1009 56 10000 5.7 300 21:36 24.12.2020
4440 Snow -9 1009 52 10000 6.7 290 20:42 24.12.2020
4441 Clouds -9 1010 56 10000 8.7 260 18:52 24.12.2020
4442 Clouds -10 1010 64 10000 6.64 280 18:19 24.12.2020
4443 Clouds -10 1010 61 10000 7.2 270 17:37 24.12.2020
4444 Clouds -10 1009 61 10000 9.8 270 16:49 24.12.2020
4445 Clouds -11 1009 61 10000 9.8 270 16:22 24.12.2020
4446 Clouds -11 1009 61 10000 10.3 270 15:42 24.12.2020
4447 Clouds -11 1009 61 10000 10.3 270 15:19 24.12.2020
4448 Mist -10 1008 56 8047 8.7 240 14:50 24.12.2020
4449 Snow -10 1008 56 8047 8.7 240 14:24 24.12.2020
4450 Snow -9 1006 61 8047 9.8 250 13:48 24.12.2020
4451 Clouds -9 1005 66 10000 2.68 264 13:29 24.12.2020
4452 Snow -9 1006 52 10000 7.7 250 12:44 24.12.2020
4453 Snow -9 1006 52 10000 7.7 250 12:21 24.12.2020
4454 Clouds -8 1005 66 10000 8.28 262 11:47 24.12.2020
4455 Snow -8 1005 52 10000 10.3 260 11:21 24.12.2020
4456 Snow -8 1005 57 10000 11.3 250 10:53 24.12.2020
4457 Snow -8 1005 57 10000 11.3 250 10:35 24.12.2020
4458 Clouds -7 1004 63 10000 9.4 251 09:52 24.12.2020
4459 Snow -6 1003 53 10000 11.8 250 09:26 24.12.2020
4460 Clouds -6 1006 72 10000 1.34 321 08:43 24.12.2020
4461 Snow -4 1002 53 10000 13.4 260 07:43 24.12.2020
4462 Snow -3 1002 53 10000 13.4 260 07:20 24.12.2020
4463 Clouds 0 1003 70 10000 1.34 245 05:49 24.12.2020
4464 Clouds 9 998 76 10000 5.7 230 02:26 24.12.2020
4465 Rain 9 1001 82 10000 7.36 247 01:43 24.12.2020
4466 Clouds 10 1001 82 7801 8.09 203 01:18 24.12.2020
4467 Clouds 11 1000 82 10000 8.65 197 00:22 24.12.2020
4468 Rain 12 1000 77 10000 1.79 237 23:49 23.12.2020
4469 Rain 12 1000 77 10000 1.79 237 23:49 23.12.2020
4470 Clouds 13 1000 72 10000 1.79 248 23:30 23.12.2020
4471 Clouds 13 997 62 10000 11.3 190 22:57 23.12.2020
4472 Clouds 13 997 62 10000 11.3 190 22:33 23.12.2020
4473 Clouds 13 1001 66 10000 9.87 196 21:57 23.12.2020
4474 Clouds 13 1001 64 10000 1.34 230 21:28 23.12.2020
4475 Clouds 13 999 54 10000 11.8 200 20:56 23.12.2020
4476 Clouds 13 999 54 10000 11.8 200 20:37 23.12.2020
4477 Clouds 13 1000 50 10000 13.4 200 20:19 23.12.2020
4478 Clouds 12 1000 50 10000 13.4 200 19:40 23.12.2020
4479 Clouds 12 1003 60 10000 2.68 21 19:21 23.12.2020
4480 Clouds 11 1002 50 10000 12.9 190 18:49 23.12.2020
4481 Clouds 11 1005 57 10000 1.34 70 18:30 23.12.2020
4482 Clouds 11 1003 50 10000 7.2 180 17:42 23.12.2020
4483 Clouds 10 1004 49 10000 7.2 180 17:22 23.12.2020
4484 Clouds 9 1004 49 10000 7.2 180 16:49 23.12.2020
4485 Clouds 9 1004 49 10000 7.2 180 16:30 23.12.2020
4486 Clouds 8 1006 49 10000 7.7 180 15:58 23.12.2020
4487 Clouds 8 1006 49 10000 7.7 180 15:38 23.12.2020
4488 Clouds 8 1006 45 10000 9.3 180 15:20 23.12.2020
4489 Clouds 8 1006 45 10000 9.3 180 14:41 23.12.2020
4490 Clouds 8 1006 45 10000 9.3 180 14:21 23.12.2020
4491 Clouds 7 1008 45 10000 7.2 180 13:45 23.12.2020
4492 Clouds 7 1009 45 10000 6.2 180 13:20 23.12.2020
4493 Clouds 7 1009 45 10000 6.2 180 12:54 23.12.2020
4494 Clouds 7 1009 45 10000 6.2 180 12:30 23.12.2020
4495 Clouds 6 1010 52 10000 7.2 190 11:56 23.12.2020
4496 Clouds 6 1010 52 10000 7.2 190 11:31 23.12.2020
4497 Clouds 6 1011 52 10000 6.7 180 10:56 23.12.2020
4498 Clouds 6 1011 52 10000 6.7 180 10:37 23.12.2020
4499 Clouds 6 1012 52 10000 7.7 180 09:38 23.12.2020
4500 Clouds 5 1013 56 10000 6.7 190 08:57 23.12.2020
4501 Clouds 5 1013 56 10000 6.7 190 08:31 23.12.2020
4502 Clouds 5 1013 52 10000 7.2 190 07:48 23.12.2020
4503 Clouds 5 1014 56 10000 8.2 180 06:42 23.12.2020
4504 Clouds 5 1015 60 10000 7.2 170 05:58 23.12.2020
4505 Clear 4 1017 64 10000 4.6 170 05:22 23.12.2020
4506 Clouds 4 1018 64 10000 4.1 160 01:57 23.12.2020
4507 Clouds 4 1020 60 10000 3.6 190 00:32 23.12.2020
4508 Clouds 4 1020 60 10000 3.6 190 23:41 22.12.2020
4509 Clouds 4 1020 60 10000 3.6 190 23:22 22.12.2020
4510 Clouds 5 1020 60 10000 5.7 180 22:42 22.12.2020
4511 Clouds 5 1020 60 10000 5.7 180 22:24 22.12.2020
4512 Clouds 5 1020 60 10000 5.1 200 21:48 22.12.2020
4513 Clouds 4 1022 60 10000 4.6 220 21:20 22.12.2020
4514 Clouds 4 1022 60 10000 4.6 220 20:53 22.12.2020
4515 Clouds 4 1022 60 10000 4.6 220 20:35 22.12.2020
4516 Clouds 4 1022 60 10000 5.7 230 19:54 22.12.2020
4517 Clouds 4 1022 60 10000 5.7 230 19:29 22.12.2020
4518 Clear 4 1026 66 10000 0.89 18 18:59 22.12.2020
4519 Clear 4 1026 66 10000 2.99 218 18:38 22.12.2020
4520 Clear 4 1026 67 10000 2.7 232 18:20 22.12.2020
4521 Clear 3 1026 69 10000 2.7 232 17:38 22.12.2020
4522 Clear 3 1027 70 10000 1.83 251 17:18 22.12.2020
4523 Clouds 2 1022 69 10000 3.1 270 16:47 22.12.2020
4524 Clouds 1 1022 89 10000 3.6 270 16:21 22.12.2020
4525 Clouds 1 1022 89 10000 3.6 270 15:47 22.12.2020
4526 Clouds 1 1022 90 10000 3.6 270 15:29 22.12.2020
4527 Clouds 1 1021 90 10000 2.6 250 14:57 22.12.2020
4528 Clouds 1 1021 90 10000 2.6 250 14:39 22.12.2020
4529 Clouds 1 1020 69 10000 2.1 320 14:19 22.12.2020
4530 Clouds 1 1020 69 10000 2.1 320 13:43 22.12.2020
4531 Clouds 1 1019 64 10000 3.1 320 13:18 22.12.2020
4532 Clouds 2 1019 64 10000 3.1 320 12:46 22.12.2020
4533 Clouds 2 1019 64 10000 3.1 320 12:27 22.12.2020
4534 Clouds 2 1018 64 10000 5.1 310 11:57 22.12.2020
4535 Clouds 3 1018 64 10000 5.1 310 11:39 22.12.2020
4536 Clouds 3 1018 64 10000 5.7 310 11:19 22.12.2020
4537 Clouds 3 1018 64 10000 5.7 310 10:51 22.12.2020
4538 Clouds 3 1018 64 10000 5.7 310 10:24 22.12.2020
4539 Clouds 3 1016 64 10000 6.2 310 09:56 22.12.2020
4540 Clouds 3 1016 64 10000 6.2 310 09:23 22.12.2020
4541 Clouds 3 1015 64 10000 7.7 310 08:53 22.12.2020
4542 Clouds 3 1015 64 10000 7.7 310 08:29 22.12.2020
4543 Clouds 3 1014 59 10000 6.7 300 07:48 22.12.2020
4544 Clouds 3 1013 55 10000 8.2 300 06:48 22.12.2020
4545 Clouds 4 1011 60 10000 7.2 310 05:47 22.12.2020
4546 Clouds 4 1009 60 10000 9.3 300 03:40 22.12.2020
4547 Clouds 5 1006 52 10000 9.3 270 00:47 22.12.2020
4548 Clouds 6 1009 61 10000 0.45 286 23:54 21.12.2020
4549 Clouds 6 1009 61 10000 0.45 286 23:54 21.12.2020
4550 Clouds 6 1006 48 10000 7.7 280 23:36 21.12.2020
4551 Clouds 6 1008 59 10000 3.58 18 22:39 21.12.2020
4552 Clouds 7 1008 59 10000 8.02 278 22:20 21.12.2020
4553 Clouds 7 1003 45 10000 10.8 290 21:59 21.12.2020
4554 Clouds 7 1006 57 10000 8.02 278 21:40 21.12.2020
4555 Clouds 7 1003 45 10000 10.8 290 21:22 21.12.2020
4556 Clouds 8 1003 49 10000 9.3 280 20:36 21.12.2020
4557 Clouds 7 1002 56 10000 7.2 260 20:18 21.12.2020
4558 Clouds 7 1002 56 10000 7.2 260 20:18 21.12.2020
4559 Clouds 7 1002 56 10000 7.2 260 19:44 21.12.2020
4560 Clouds 7 1002 56 10000 7.2 260 19:19 21.12.2020
4561 Clouds 6 1005 69 10000 7.22 269 18:52 21.12.2020
4562 Clouds 5 1003 65 10000 8.2 260 18:34 21.12.2020
4563 Clouds 5 1003 69 10000 5.7 210 17:43 21.12.2020
4564 Clouds 4 1003 69 10000 5.7 210 17:24 21.12.2020
4565 Clouds 3 1003 74 10000 5.1 210 16:48 21.12.2020
4566 Clouds 3 1004 69 10000 4.6 200 16:27 21.12.2020
4567 Clouds 3 1004 69 10000 4.6 200 15:57 21.12.2020
4568 Clouds 3 1004 69 10000 4.6 200 15:37 21.12.2020
4569 Clouds 2 1004 74 10000 5.1 180 14:57 21.12.2020
4570 Clouds 2 1004 74 10000 5.1 180 14:21 21.12.2020
4571 Snow 2 1004 80 10000 3.6 150 13:45 21.12.2020
4572 Snow 2 1004 80 10000 3.6 150 13:26 21.12.2020
4573 Clouds 1 1005 80 10000 3.1 160 12:45 21.12.2020
4574 Clouds 1 1005 80 10000 3.1 160 12:25 21.12.2020
4575 Clouds 1 1006 80 10000 2.6 190 11:58 21.12.2020
4576 Clouds 1 1006 80 10000 2.6 190 11:40 21.12.2020
4577 Clouds 1 1006 80 10000 2.6 190 11:22 21.12.2020
4578 Clouds 1 1007 80 10000 1.5 170 10:48 21.12.2020
4579 Clouds 1 1007 80 10000 1.5 170 10:30 21.12.2020
4580 Clouds 1 1008 74 10000 2.6 240 09:47 21.12.2020
4581 Clouds 1 1008 74 10000 2.6 240 09:25 21.12.2020
4582 Clouds 1 1009 80 10000 3.6 270 08:52 21.12.2020
4583 Clouds 2 1008 74 10000 2.1 220 07:52 21.12.2020
4584 Clouds 2 1008 74 10000 2.1 220 07:52 21.12.2020
4585 Clouds 2 1008 74 10000 1.5 220 06:47 21.12.2020
4586 Clouds 2 1009 74 10000 3.1 260 04:49 21.12.2020
4587 Clouds 3 1009 69 10000 2.6 240 01:26 21.12.2020
4588 Clouds 4 1009 60 10000 3.6 230 00:32 21.12.2020
4589 Clouds 4 1009 56 10000 5.1 240 23:36 20.12.2020
4590 Clouds 5 1008 56 10000 6.2 210 22:59 20.12.2020
4591 Clouds 5 1008 56 10000 6.2 210 22:59 20.12.2020
4592 Clouds 5 1008 56 10000 6.2 210 22:41 20.12.2020
4593 Clouds 5 1008 56 10000 6.2 210 22:22 20.12.2020
4594 Clouds 5 1009 52 10000 6.2 210 21:40 20.12.2020
4595 Clouds 5 1009 52 10000 6.2 210 21:20 20.12.2020
4596 Clear 5 1012 59 10000 0.89 236 20:51 20.12.2020
4597 Clouds 5 1010 55 10000 6.2 220 20:24 20.12.2020
4598 Clear 4 1014 62 10000 5.63 222 19:46 20.12.2020
4599 Clear 4 1014 62 10000 5.63 222 19:46 20.12.2020
4600 Clouds 4 1011 55 10000 6.7 220 19:28 20.12.2020
4601 Clouds 3 1013 64 10000 5.7 200 18:58 20.12.2020
4602 Clouds 3 1013 64 10000 5.7 200 18:38 20.12.2020
4603 Clouds 3 1013 64 10000 5.7 200 18:19 20.12.2020
4604 Clouds 2 1014 69 10000 5.1 240 17:43 20.12.2020
4605 Clouds 1 1014 69 10000 5.1 240 17:22 20.12.2020
4606 Clouds 1 1014 87 10000 6.2 260 16:45 20.12.2020
4607 Clouds 1 1014 92 10000 6.2 260 16:25 20.12.2020
4608 Clouds 0 1014 92 10000 6.2 270 15:47 20.12.2020
4609 Clouds 0 1014 93 10000 6.2 270 15:24 20.12.2020
4610 Clouds 1 1014 64 10000 5.1 260 14:54 20.12.2020
4611 Clouds 1 1014 64 10000 5.1 260 14:30 20.12.2020
4612 Clouds 1 1014 69 10000 5.1 250 13:47 20.12.2020
4613 Clouds 1 1014 69 10000 5.1 250 13:25 20.12.2020
4614 Clouds 1 1014 74 10000 4.1 240 12:58 20.12.2020
4615 Clouds 1 1014 74 10000 4.1 240 12:39 20.12.2020
4616 Clouds 1 1014 74 10000 4.6 250 12:19 20.12.2020
4617 Clouds 1 1014 74 10000 4.6 250 11:42 20.12.2020
4618 Clouds 2 1015 74 10000 4.1 250 10:59 20.12.2020
4619 Clouds 2 1015 74 10000 4.1 250 10:41 20.12.2020
4620 Clouds 2 1015 74 10000 4.1 250 10:20 20.12.2020
4621 Clouds 2 1015 74 10000 4.1 250 09:45 20.12.2020
4622 Clouds 2 1015 74 10000 4.1 250 09:27 20.12.2020
4623 Clouds 2 1015 74 10000 4.1 250 09:27 20.12.2020
4624 Clouds 2 1015 80 10000 3.1 250 08:52 20.12.2020
4625 Clouds 2 1015 80 10000 4.1 270 08:33 20.12.2020
4626 Clouds 3 1015 69 10000 4.1 280 07:23 20.12.2020
4627 Clouds 3 1015 69 10000 4.1 280 07:23 20.12.2020
4628 Clouds 3 1016 69 10000 3.6 280 05:44 20.12.2020
4629 Clouds 5 1016 65 10000 3.6 290 01:35 20.12.2020
4630 Clouds 5 1019 74 10000 3.8 284 00:37 20.12.2020
4631 Clouds 6 1019 75 10000 3.93 261 23:20 19.12.2020
4632 Clouds 6 1018 75 10000 3.93 261 22:56 19.12.2020
4633 Clouds 6 1014 65 10000 5.1 250 22:37 19.12.2020
4634 Clouds 6 1018 76 10000 3.53 240 22:19 19.12.2020
4635 Clouds 6 1014 65 10000 5.1 220 21:42 19.12.2020
4636 Clouds 7 1014 65 10000 5.1 220 21:23 19.12.2020
4637 Clouds 6 1014 65 10000 4.6 210 20:44 19.12.2020
4638 Clouds 6 1014 65 10000 4.6 210 20:21 19.12.2020
4639 Clouds 6 1015 70 10000 3.6 220 19:51 19.12.2020
4640 Clouds 6 1015 70 10000 3.6 220 19:33 19.12.2020
4641 Clouds 5 1016 75 10000 3.1 200 18:41 19.12.2020
4642 Clouds 5 1016 75 10000 3.1 200 18:23 19.12.2020
4643 Clouds 4 1016 90 10000 4.6 200 17:48 19.12.2020
4644 Clouds 4 1016 89 10000 4.6 200 17:24 19.12.2020
4645 Clouds 4 1016 89 10000 4.1 210 16:45 19.12.2020
4646 Clouds 4 1016 89 10000 4.1 210 16:27 19.12.2020
4647 Clouds 4 1016 69 10000 4.1 190 15:59 19.12.2020
4648 Clouds 4 1016 69 10000 4.1 190 15:40 19.12.2020
4649 Clouds 4 1016 69 10000 4.6 200 14:43 19.12.2020
4650 Clouds 3 1016 69 10000 4.6 200 14:22 19.12.2020
4651 Clouds 3 1016 74 10000 5.7 200 13:41 19.12.2020
4652 Clouds 3 1016 74 10000 4.6 200 13:20 19.12.2020
4653 Clouds 3 1016 74 10000 4.6 200 12:45 19.12.2020
4654 Clouds 3 1016 74 10000 4.6 200 12:26 19.12.2020
4655 Clouds 3 1017 74 10000 4.6 190 11:58 19.12.2020
4656 Clouds 3 1017 74 10000 4.6 190 11:40 19.12.2020
4657 Clouds 3 1017 69 10000 6.7 190 10:45 19.12.2020
4658 Clouds 3 1017 69 10000 6.7 190 10:27 19.12.2020
4659 Clouds 3 1018 69 10000 6.7 200 09:58 19.12.2020
4660 Clouds 3 1018 69 10000 6.7 200 09:38 19.12.2020
4661 Clouds 2 1018 69 10000 5.1 190 08:37 19.12.2020
4662 Clouds 2 1019 74 10000 4.6 190 07:53 19.12.2020
4663 Clouds 2 1019 74 10000 4.6 190 07:18 19.12.2020
4664 Clouds 1 1019 74 10000 6.7 190 06:39 19.12.2020
4665 Clouds 1 1020 69 10000 5.1 190 05:19 19.12.2020
4666 Clouds 1 1021 69 10000 6.2 170 03:28 19.12.2020
4667 Clouds 1 1023 69 10000 4.6 170 00:41 19.12.2020
4668 Clouds 1 1023 64 10000 5.1 170 00:18 19.12.2020
4669 Clouds 1 1023 64 10000 5.1 170 23:48 18.12.2020
4670 Clouds 2 1023 64 10000 5.1 170 23:24 18.12.2020
4671 Clouds 2 1024 64 10000 6.2 180 22:47 18.12.2020
4672 Clouds 3 1024 64 10000 6.2 180 22:24 18.12.2020
4673 Clouds 2 1024 64 10000 7.2 180 21:51 18.12.2020
4674 Clouds 2 1024 64 10000 7.2 180 21:31 18.12.2020
4675 Clouds 3 1025 59 10000 6.7 190 20:43 18.12.2020
4676 Clouds 3 1026 59 10000 7.2 190 20:22 18.12.2020
4677 Clouds 2 1026 59 10000 7.2 190 19:46 18.12.2020
4678 Clouds 2 1029 68 10000 0.89 110 19:22 18.12.2020
4679 Clouds 2 1027 59 10000 5.7 190 18:45 18.12.2020
4680 Clouds 1 1027 59 10000 5.7 190 18:25 18.12.2020
4681 Clouds 1 1027 86 10000 4.6 180 17:36 18.12.2020
4682 Clouds 0 1032 76 10000 4.67 186 16:57 18.12.2020
4683 Clouds -1 1027 68 10000 3.6 160 16:38 18.12.2020
4684 Clouds -2 1027 73 10000 2.6 180 16:20 18.12.2020
4685 Clouds -2 1027 73 10000 2.6 180 15:43 18.12.2020
4686 Clouds -3 1027 73 10000 2.1 190 15:24 18.12.2020
4687 Clouds -3 1027 73 10000 2.1 190 14:55 18.12.2020
4688 Clouds -3 1027 79 10000 2.6 180 14:23 18.12.2020
4689 Clouds -3 1027 79 10000 2.6 180 13:51 18.12.2020
4690 Clouds -3 1027 79 10000 2.6 180 13:32 18.12.2020
4691 Clear -3 1026 79 10000 2.1 180 12:57 18.12.2020
4692 Clear -3 1026 79 10000 2.1 180 12:34 18.12.2020
4693 Clear -3 1026 73 10000 2.1 190 11:28 18.12.2020
4694 Clear -3 1026 73 10000 1.5 200 10:40 18.12.2020
4695 Clear -2 1025 73 10000 2.1 210 10:21 18.12.2020
4696 Clear -3 1025 73 10000 2.1 210 09:57 18.12.2020
4697 Clear -2 1025 73 10000 2.1 210 09:37 18.12.2020
4698 Clear -2 1025 73 10000 2.1 220 09:18 18.12.2020
4699 Clear -2 1025 73 10000 2.1 220 08:43 18.12.2020
4700 Clear -2 1024 74 10000 1.5 200 07:56 18.12.2020
4701 Clouds -2 1024 68 10000 2.1 220 07:19 18.12.2020
4702 Clouds -2 1024 68 10000 2.1 220 06:59 18.12.2020
4703 Clouds -1 1024 68 10000 1.71 273 05:44 18.12.2020
4704 Clouds 0 1023 68 10000 1.5 260 04:52 18.12.2020
4705 Clouds 0 1023 93 10000 1.5 270 03:20 18.12.2020
4706 Clouds 1 1022 59 10000 2.6 290 01:44 18.12.2020
4707 Clouds 1 1022 59 10000 2.1 300 00:29 18.12.2020
4708 Clouds 1 1021 59 10000 2.6 300 23:52 17.12.2020
4709 Clouds 1 1021 55 10000 2.1 340 23:21 17.12.2020
4710 Clouds 1 1021 55 10000 2.1 340 22:48 17.12.2020
4711 Snow 1 1021 55 10000 2.1 340 22:27 17.12.2020
4712 Snow 1 1020 64 10000 2.1 350 21:46 17.12.2020
4713 Snow 1 1020 64 10000 2.1 350 21:22 17.12.2020
4714 Snow 1 1020 64 10000 2.6 340 20:55 17.12.2020
4715 Snow 1 1020 64 10000 3.1 330 20:36 17.12.2020
4716 Snow 1 1020 64 10000 3.1 330 20:18 17.12.2020
4717 Snow 1 1020 64 10000 3.1 330 19:39 17.12.2020
4718 Snow 0 1020 64 10000 2.6 310 19:21 17.12.2020
4719 Snow 1 1020 64 10000 2.6 310 18:40 17.12.2020
4720 Snow 1 1020 59 10000 3.1 330 18:19 17.12.2020
4721 Snow 0 1020 59 10000 3.1 330 17:46 17.12.2020
4722 Snow 1 1020 59 10000 3.1 330 17:27 17.12.2020
4723 Snow 0 1020 64 10000 2.1 310 16:41 17.12.2020
4724 Clouds 0 1019 59 10000 3.1 330 16:22 17.12.2020
4725 Clouds 0 1019 59 10000 3.1 330 15:50 17.12.2020
4726 Clouds 0 1019 59 10000 3.1 330 15:28 17.12.2020
4727 Snow 0 1019 64 10000 4.1 330 14:50 17.12.2020
4728 Snow 0 1019 64 10000 4.1 330 14:28 17.12.2020
4729 Snow 0 1018 64 10000 2.6 330 13:50 17.12.2020
4730 Snow 0 1018 64 10000 4.1 340 13:23 17.12.2020
4731 Snow 0 1018 64 10000 4.1 340 12:43 17.12.2020
4732 Snow 0 1018 64 10000 3.6 330 12:24 17.12.2020
4733 Snow 0 1018 64 10000 3.6 330 11:43 17.12.2020
4734 Snow 0 1018 64 10000 3.6 330 11:22 17.12.2020
4735 Snow 1 1018 64 10000 3.1 330 10:49 17.12.2020
4736 Clouds 1 1017 64 10000 3.6 340 09:42 17.12.2020
4737 Clouds 1 1017 69 10000 4.1 330 09:21 17.12.2020
4738 Clouds 1 1017 69 10000 2.6 20 07:49 17.12.2020
4739 Clouds 1 1017 69 10000 2.6 20 07:28 17.12.2020
4740 Snow 1 1016 69 10000 2.6 10 06:51 17.12.2020
4741 Snow 1 1016 69 10000 2.6 10 06:32 17.12.2020
4742 Snow 1 1016 69 10000 4.1 20 03:55 17.12.2020
4743 Snow 1 1016 69 10000 3.6 10 00:29 17.12.2020
4744 Snow 0 1016 69 10000 3.6 20 23:50 16.12.2020
4745 Snow 0 1015 64 10000 3.1 30 23:19 16.12.2020
4746 Snow 0 1015 64 10000 3.1 30 22:50 16.12.2020
4747 Snow 0 1015 64 10000 3.1 30 22:31 16.12.2020
4748 Snow 0 1015 64 10000 2.6 30 21:46 16.12.2020
4749 Snow 0 1015 64 10000 2.6 30 21:26 16.12.2020
4750 Snow 0 1015 93 10000 1.5 80 20:52 16.12.2020
4751 Snow 0 1015 95 10000 1.5 80 20:20 16.12.2020
4752 Snow 0 1015 74 10000 2.1 100 19:45 16.12.2020
4753 Snow 0 1016 74 10000 2.1 130 19:18 16.12.2020
4754 Snow 0 1016 74 10000 2.1 130 18:52 16.12.2020
4755 Snow 0 1016 74 10000 2.1 130 18:26 16.12.2020
4756 Mist -1 1017 74 9656 2.6 120 17:43 16.12.2020
4757 Snow -1 1017 74 10000 4.1 100 16:58 16.12.2020
4758 Snow -1 1017 74 10000 4.1 100 16:38 16.12.2020
4759 Clouds -1 1017 68 10000 4.1 100 16:19 16.12.2020
4760 Clouds -1 1017 63 10000 5.7 100 15:48 16.12.2020
4761 Clouds -1 1017 63 10000 4.1 110 15:23 16.12.2020
4762 Clouds -1 1017 63 10000 4.1 110 14:46 16.12.2020
4763 Clouds -1 1017 63 10000 4.1 110 14:27 16.12.2020
4764 Clouds -1 1018 63 10000 6.2 100 13:42 16.12.2020
4765 Clouds -1 1018 63 10000 6.2 100 13:21 16.12.2020
4766 Clouds -1 1018 63 10000 6.2 100 12:46 16.12.2020
4767 Clouds -1 1018 63 10000 4.6 100 12:20 16.12.2020
4768 Clouds -1 1018 63 10000 4.6 100 11:38 16.12.2020
4769 Clouds -1 1019 63 10000 6.2 80 11:19 16.12.2020
4770 Clouds -1 1019 63 10000 6.2 80 10:41 16.12.2020
4771 Clouds -1 1020 68 10000 4.1 90 10:18 16.12.2020
4772 Clouds -2 1020 68 10000 4.1 90 09:34 16.12.2020
4773 Clouds -2 1020 68 10000 4.1 100 08:23 16.12.2020
4774 Clouds -2 1020 63 10000 6.7 90 07:47 16.12.2020
4775 Clouds -2 1020 63 10000 6.7 90 07:29 16.12.2020
4776 Clouds -2 1022 58 10000 5.1 100 05:42 16.12.2020
4777 Clouds -1 1024 58 10000 6.2 90 02:20 16.12.2020
4778 Clouds -1 1025 58 10000 5.1 90 23:57 15.12.2020
4779 Clouds -1 1025 58 10000 5.1 90 23:37 15.12.2020
4780 Clouds -1 1025 58 10000 4.6 90 22:44 15.12.2020
4781 Clouds 0 1026 84 10000 3.6 110 22:22 15.12.2020
4782 Clouds 0 1026 84 10000 3.6 110 21:49 15.12.2020
4783 Clouds 0 1026 85 10000 3.6 110 21:24 15.12.2020
4784 Clouds 0 1026 50 10000 4.6 120 20:46 15.12.2020
4785 Clouds 0 1026 50 10000 4.6 120 20:27 15.12.2020
4786 Clouds 0 1027 50 10000 4.1 50 19:55 15.12.2020
4787 Clouds 0 1027 50 10000 4.1 50 19:34 15.12.2020
4788 Clouds 0 1028 58 10000 2.6 340 18:55 15.12.2020
4789 Clouds 0 1028 58 10000 2.6 340 18:36 15.12.2020
4790 Clouds -1 1029 63 10000 1.5 360 18:18 15.12.2020
4791 Clouds -2 1029 63 10000 1.5 360 17:41 15.12.2020
4792 Clouds -2 1029 63 10000 1.5 360 17:21 15.12.2020
4793 Clouds -4 1029 68 10000 2.6 360 16:34 15.12.2020
4794 Clouds -6 1029 62 10000 2.1 360 15:59 15.12.2020
4795 Clouds -6 1029 62 10000 2.1 360 15:34 15.12.2020
4796 Clouds -7 1028 62 10000 2.53 40 14:51 15.12.2020
4797 Clouds -7 1028 62 10000 2.89 19 14:27 15.12.2020
4798 Clouds -6 1029 49 10000 3.1 350 13:59 15.12.2020
4799 Clouds -6 1029 49 10000 3.1 350 13:40 15.12.2020
4800 Clouds -6 1029 49 10000 3.1 350 13:22 15.12.2020
4801 Clouds -6 1029 53 10000 3.1 350 12:43 15.12.2020
4802 Clouds -6 1029 48 10000 4.1 360 12:18 15.12.2020
4803 Clouds -6 1029 48 10000 4.1 360 11:43 15.12.2020
4804 Clouds -6 1029 45 10000 2.6 340 11:20 15.12.2020
4805 Clouds -5 1029 45 10000 2.6 340 10:41 15.12.2020
4806 Clouds -6 1034 55 10000 2.56 345 09:53 15.12.2020
4807 Clouds -5 1028 41 10000 4.1 350 09:32 15.12.2020
4808 Clouds -5 1028 45 10000 3.1 320 08:58 15.12.2020
4809 Clouds -5 1028 45 10000 3.1 320 08:30 15.12.2020
4810 Clouds -5 1033 54 10000 2.69 346 07:59 15.12.2020
4811 Clouds -5 1028 45 10000 3.1 350 07:37 15.12.2020
4812 Clouds -5 1028 45 10000 3.6 360 06:40 15.12.2020
4813 Clouds -4 1027 49 10000 4.1 350 04:55 15.12.2020
4814 Clouds -3 1026 46 10000 5.1 330 00:37 15.12.2020
4815 Clouds -2 1030 58 10000 4.64 326 23:47 14.12.2020
4816 Clouds -2 1025 50 10000 4.1 300 23:19 14.12.2020
4817 Clouds -1 1025 50 10000 4.1 300 22:39 14.12.2020
4818 Clouds -1 1024 83 10000 6.7 320 21:56 14.12.2020
4819 Clouds 0 1024 83 10000 6.7 320 21:36 14.12.2020
4820 Clouds 0 1024 83 10000 5.7 300 20:57 14.12.2020
4821 Clouds 0 1024 83 10000 5.7 300 20:39 14.12.2020
4822 Clouds 0 1024 84 10000 4.1 290 20:18 14.12.2020
4823 Clouds 0 1024 86 10000 4.1 290 19:34 14.12.2020
4824 Clouds 0 1024 86 10000 6.2 310 18:57 14.12.2020
4825 Clouds 0 1024 83 10000 6.2 310 18:38 14.12.2020
4826 Clouds -1 1023 85 10000 5.1 310 18:18 14.12.2020
4827 Clouds -1 1023 86 10000 5.1 310 17:33 14.12.2020
4828 Clouds -1 1023 54 10000 4.1 280 16:57 14.12.2020
4829 Clouds -1 1023 54 10000 4.1 280 16:38 14.12.2020
4830 Clouds -1 1027 59 10000 5.6 304 16:18 14.12.2020
4831 Clouds -2 1022 58 10000 5.1 310 15:33 14.12.2020
4832 Clouds -2 1021 58 10000 6.2 320 14:48 14.12.2020
4833 Clouds -2 1021 58 10000 6.2 320 14:29 14.12.2020
4834 Clouds -2 1021 58 10000 5.1 330 13:55 14.12.2020
4835 Clouds -2 1021 58 10000 5.1 330 13:34 14.12.2020
4836 Clouds -2 1020 63 10000 6.7 310 12:56 14.12.2020
4837 Clouds -2 1020 63 10000 6.7 310 12:32 14.12.2020
4838 Clouds -2 1019 63 10000 6.2 330 11:56 14.12.2020
4839 Clouds -2 1019 63 10000 6.2 330 11:23 14.12.2020
4840 Clouds -2 1019 68 10000 6.2 290 10:28 14.12.2020
4841 Clouds -2 1019 68 10000 4.6 300 09:53 14.12.2020
4842 Clouds -3 1019 73 10000 5.7 290 08:57 14.12.2020
4843 Clouds -3 1019 73 10000 5.7 290 08:39 14.12.2020
4844 Clouds -3 1019 73 10000 5.7 300 07:59 14.12.2020
4845 Clouds -3 1019 73 10000 5.7 300 07:19 14.12.2020
4846 Clouds -3 1020 74 10000 7.7 280 06:42 14.12.2020
4847 Clouds 1 1019 69 10000 5.7 260 03:58 14.12.2020
4848 Clouds 1 1019 69 10000 6.2 250 02:23 14.12.2020
4849 Clouds 1 1023 77 10000 2.49 248 00:49 14.12.2020
4850 Clouds 1 1020 69 10000 4.1 240 00:27 14.12.2020
4851 Clouds 2 1021 69 10000 4.6 250 23:44 13.12.2020
4852 Clouds 3 1020 69 10000 4.6 250 22:58 13.12.2020
4853 Clouds 3 1020 69 10000 4.6 260 22:39 13.12.2020
4854 Clouds 3 1020 59 10000 4.1 240 22:18 13.12.2020
4855 Clouds 3 1020 59 10000 4.1 240 21:41 13.12.2020
4856 Clouds 3 1020 64 10000 3.1 260 20:55 13.12.2020
4857 Clouds 3 1020 64 10000 3.1 260 20:28 13.12.2020
4858 Clouds 2 1021 64 10000 1.5 270 19:48 13.12.2020
4859 Clouds 2 1021 64 10000 1.5 270 19:24 13.12.2020
4860 Clouds 1 1022 79 10000 1.1 294 18:56 13.12.2020
4861 Clouds 1 1022 78 10000 1.4 279 18:36 13.12.2020
4862 Clouds 0 1022 74 10000 1.21 299 18:18 13.12.2020
4863 Clouds -1 1022 74 10000 1.21 299 17:45 13.12.2020
4864 Clouds -1 1022 74 10000 2.1 330 17:18 13.12.2020
4865 Clouds -1 1022 74 10000 2.1 330 16:50 13.12.2020
4866 Clouds -1 1022 74 10000 2.1 330 16:31 13.12.2020
4867 Clouds -2 1022 79 10000 2.1 310 15:48 13.12.2020
4868 Clouds -2 1022 79 10000 2.1 310 15:27 13.12.2020
4869 Clouds -2 1022 86 10000 3.1 300 14:47 13.12.2020
4870 Clouds -2 1022 86 10000 3.1 300 14:29 13.12.2020
4871 Clouds -1 1021 86 10000 1.5 270 13:56 13.12.2020
4872 Clouds -1 1021 86 10000 1.5 270 13:35 13.12.2020
4873 Clouds -1 1020 86 10000 2.1 300 12:57 13.12.2020
4874 Clouds -1 1020 86 10000 2.1 300 12:25 13.12.2020
4875 Clouds -1 1020 80 10000 2.1 270 11:59 13.12.2020
4876 Clouds -1 1020 80 10000 2.1 300 11:33 13.12.2020
4877 Clouds -1 1019 90 10000 3.6 340 10:45 13.12.2020
4878 Clouds 0 1019 89 10000 3.6 340 10:21 13.12.2020
4879 Clouds 0 1019 80 10000 1.5 300 09:47 13.12.2020
4880 Clouds 0 1018 80 10000 3.1 330 08:52 13.12.2020
4881 Clouds 0 1018 80 10000 3.1 330 08:52 13.12.2020
4882 Clouds 0 1017 80 10000 2.1 350 08:30 13.12.2020
4883 Snow 0 1017 90 10000 4.1 360 07:25 13.12.2020
4884 Clouds 1 1018 84 10000 2.24 314 03:26 13.12.2020
4885 Snow 1 1013 80 10000 6.7 330 02:32 13.12.2020
4886 Snow 1 1013 80 10000 6.7 330 01:37 13.12.2020
4887 Rain 2 1011 84 10000 5.7 330 00:45 13.12.2020
4888 Clouds 2 1014 91 10000 0.89 333 23:45 12.12.2020
4889 Clouds 2 1013 91 10000 1.79 96 23:27 12.12.2020
4890 Clouds 3 1008 86 10000 7.2 360 22:37 12.12.2020
4891 Rain 3 1007 86 10000 5.1 350 21:47 12.12.2020
4892 Rain 3 1007 86 10000 5.1 350 21:23 12.12.2020
4893 Drizzle 3 1006 86 2414 6.7 340 20:46 12.12.2020
4894 Rain 3 1006 86 2414 6.7 340 20:21 12.12.2020
4895 Clouds 3 1009 91 10000 6.66 346 19:54 12.12.2020
4896 Clouds 3 1008 91 10000 6.17 351 19:34 12.12.2020
4897 Clouds 4 1004 86 10000 7.2 350 18:58 12.12.2020
4898 Clouds 4 1004 86 10000 7.2 350 18:40 12.12.2020
4899 Clouds 4 1004 86 10000 7.2 350 18:22 12.12.2020
4900 Clouds 5 1003 86 10000 6.7 360 17:41 12.12.2020
4901 Rain 5 1003 96 10000 2.24 14 16:52 12.12.2020
4902 Rain 5 1002 97 10000 4.47 33 15:58 12.12.2020
4903 Mist 5 1002 87 6437 4.6 20 15:40 12.12.2020
4904 Mist 5 1002 87 6437 5.7 40 14:54 12.12.2020
4905 Rain 5 1002 87 6437 5.7 40 14:54 12.12.2020
4906 Rain 5 1002 87 6437 5.7 40 14:35 12.12.2020
4907 Rain 5 1003 87 4828 6.2 10 13:47 12.12.2020
4908 Rain 5 1003 87 4828 6.2 10 13:26 12.12.2020
4909 Mist 5 1003 87 4828 6.2 20 12:43 12.12.2020
4910 Mist 5 1004 87 9656 5.1 30 11:39 12.12.2020
4911 Rain 5 1005 87 8047 6.7 50 10:51 12.12.2020
4912 Rain 5 1006 87 8047 5.7 40 09:25 12.12.2020
4913 Rain 5 1007 87 6437 6.7 50 08:42 12.12.2020
4914 Rain 5 1012 81 6437 7.2 50 01:59 12.12.2020
4915 Rain 5 1013 81 9656 5.1 50 23:40 11.12.2020
4916 Rain 6 1013 86 10000 3.58 69 22:21 11.12.2020
4917 Clouds 6 1013 75 10000 7.7 20 19:57 11.12.2020
4918 Haze 6 1015 81 6437 7.2 30 17:30 11.12.2020
4919 Clouds 6 1013 75 10000 5.7 30 14:39 11.12.2020
4920 Clouds 6 1013 80 10000 3.13 39 13:46 11.12.2020
4921 Clouds 6 1013 81 10000 1.79 38 12:29 11.12.2020
4922 Clouds 6 1012 82 10000 0.89 67 11:56 11.12.2020
4923 Clouds 6 1013 83 10000 0.45 22 11:37 11.12.2020
4924 Clouds 6 1016 79 10000 2.48 358 10:41 11.12.2020
4925 Clouds 7 1012 70 10000 2.6 200 07:51 11.12.2020
4926 Clouds 8 1012 65 10000 2.1 190 05:36 11.12.2020
4927 Clouds 8 1012 61 10000 3.1 170 04:47 11.12.2020
4928 Clouds 11 1013 47 10000 2.1 200 01:20 11.12.2020
4929 Clouds 13 1013 47 10000 2.6 190 23:37 10.12.2020
4930 Clouds 13 1013 43 10000 5.7 220 21:59 10.12.2020
4931 Clouds 13 1013 43 10000 5.7 220 21:29 10.12.2020
4932 Clouds 13 1014 43 10000 4.6 200 20:38 10.12.2020
4933 Clouds 12 1015 46 10000 3.6 190 19:33 10.12.2020
4934 Clear 11 1018 58 10000 3.47 179 18:50 10.12.2020
4935 Clear 9 1020 64 10000 3.44 173 17:45 10.12.2020
4936 Clear 6 1020 70 10000 4 170 16:24 10.12.2020
4937 Clouds 3 1017 74 10000 1.5 170 15:24 10.12.2020
4938 Clouds 2 1017 80 10000 3.56 170 14:47 10.12.2020
4939 Clouds 2 1017 80 10000 3.12 169 14:24 10.12.2020
4940 Clear 2 1016 80 10000 1.5 180 12:33 10.12.2020
4941 Clear 2 1017 80 10000 1.73 169 10:59 10.12.2020
4942 Clear 3 1016 74 10000 0.38 229 08:47 10.12.2020
4943 Clear 4 1016 80 10000 1.5 220 07:37 10.12.2020
4944 Clouds 4 1016 80 10000 1.29 327 06:40 10.12.2020
4945 Clear 6 1014 60 10000 2.6 280 02:51 10.12.2020
4946 Clear 7 1014 56 10000 2.6 300 01:56 10.12.2020
4947 Clouds 10 1013 62 10000 2.6 290 23:50 09.12.2020
4948 Clear 10 1011 46 10000 3.6 290 20:43 09.12.2020
4949 Clear 10 1012 52 10000 3.1 260 20:24 09.12.2020
4950 Clear 8 1012 56 10000 4.1 260 18:58 09.12.2020
4951 Clouds 6 1015 70 10000 3.19 261 17:39 09.12.2020
4952 Clouds 4 1014 78 10000 3.05 263 16:40 09.12.2020
4953 Clouds 3 1014 79 10000 3.32 269 16:20 09.12.2020
4954 Mist 1 1010 83 8047 4.1 240 14:53 09.12.2020
4955 Mist 1 1010 85 8047 4.1 240 14:27 09.12.2020
4956 Mist 1 1010 85 8047 2.6 250 13:51 09.12.2020
4957 Mist 1 1010 80 8047 4.1 270 13:18 09.12.2020
4958 Mist 1 1010 80 8047 4.1 270 12:43 09.12.2020
4959 Mist 2 1009 74 9656 3.6 250 11:46 09.12.2020
4960 Mist 2 1009 80 8047 3.6 230 09:59 09.12.2020
4961 Mist 2 1010 80 8047 4.6 220 08:45 09.12.2020
4962 Mist 2 1011 80 8047 5.1 230 07:42 09.12.2020
4963 Haze 2 1013 74 9656 5.7 250 05:42 09.12.2020
4964 Haze 1 1015 69 9656 6.7 240 02:59 09.12.2020
4965 Clouds 1 1015 69 10000 7.2 250 00:56 09.12.2020
4966 Clouds 1 1015 69 10000 7.2 230 23:41 08.12.2020
4967 Clouds 1 1016 69 10000 6.7 250 22:43 08.12.2020
4968 Clouds 1 1016 64 10000 6.7 230 20:50 08.12.2020
4969 Clouds 1 1018 69 10000 4.6 240 19:32 08.12.2020
4970 Clouds 1 1018 69 10000 5.1 230 18:57 08.12.2020
4971 Clouds 1 1019 69 10000 3.6 250 17:28 08.12.2020
4972 Clouds 1 1019 69 10000 3.6 240 15:43 08.12.2020
4973 Clouds 2 1019 64 10000 3.6 270 13:59 08.12.2020
4974 Clouds 2 1019 64 10000 3.6 280 13:24 08.12.2020
4975 Clouds 2 1019 64 10000 3.1 290 12:23 08.12.2020
4976 Clouds 2 1018 64 10000 3.1 250 11:28 08.12.2020
4977 Clouds 2 1018 64 10000 1.8 235 10:42 08.12.2020
4978 Clouds 2 1019 69 10000 2.6 310 09:47 08.12.2020
4979 Clouds 2 1023 72 10000 1.47 281 07:50 08.12.2020
4980 Clouds 2 1019 69 10000 2.1 220 06:33 08.12.2020
4981 Clouds 3 1019 64 10000 1.29 328 02:59 08.12.2020
4982 Clouds 3 1018 64 10000 0.86 343 00:45 08.12.2020
4983 Clouds 3 1018 64 10000 0.68 342 23:50 07.12.2020
4984 Clouds 3 1018 64 10000 1.5 300 22:32 07.12.2020
4985 Clouds 2 1017 74 10000 0.78 338 21:49 07.12.2020
4986 Clouds 2 1018 69 10000 2.6 180 19:46 07.12.2020
4987 Clouds 2 1018 69 10000 2.6 30 18:20 07.12.2020
4988 Clouds 2 1018 69 10000 2.6 30 17:26 07.12.2020
4989 Clouds 2 1018 64 10000 2.6 350 16:48 07.12.2020
4990 Clouds 2 1017 64 10000 3.1 350 15:26 07.12.2020
4991 Clouds 1 1016 69 10000 3.6 330 14:40 07.12.2020
4992 Clouds 2 1016 64 10000 3.6 330 13:43 07.12.2020
4993 Clouds 2 1016 69 10000 3.1 330 12:34 07.12.2020
4994 Clouds 2 1016 69 10000 2.6 320 11:43 07.12.2020
4995 Clouds 2 1016 74 10000 1.5 320 10:38 07.12.2020
4996 Clouds 2 1015 74 10000 2.1 310 09:24 07.12.2020
4997 Clouds 2 1015 80 10000 1.5 300 07:51 07.12.2020
4998 Clouds 2 1016 74 10000 2.1 320 05:34 07.12.2020
4999 Clouds 2 1017 80 10000 2.6 330 04:40 07.12.2020
5000 Clouds 2 1017 80 10000 2.6 320 01:23 07.12.2020
5001 Clouds 2 1017 80 10000 2.1 260 22:53 06.12.2020
5002 Clouds 2 1017 74 10000 2.18 46 22:19 06.12.2020
5003 Clouds 2 1018 74 10000 2.32 43 20:52 06.12.2020
5004 Clouds 2 1018 74 10000 2.07 40 20:34 06.12.2020
5005 Clouds 2 1018 74 10000 2.07 40 19:43 06.12.2020
5006 Clouds 2 1019 74 10000 2.1 140 17:54 06.12.2020
5007 Clouds 2 1019 86 10000 1.5 170 16:39 06.12.2020
5008 Snow 1 1018 86 8047 0.99 120 14:50 06.12.2020
5009 Snow 2 1018 74 4023 3.1 10 13:31 06.12.2020
5010 Clouds 2 1018 69 10000 3.6 320 12:36 06.12.2020
5011 Clouds 2 1018 69 10000 1.5 280 11:54 06.12.2020
5012 Clouds 2 1018 69 10000 1.5 280 11:28 06.12.2020
5013 Clouds 2 1018 69 10000 2.1 250 10:39 06.12.2020
5014 Clouds 3 1019 69 10000 1.5 230 09:39 06.12.2020
5015 Clouds 2 1020 69 10000 1.29 24 07:53 06.12.2020
5016 Clouds 2 1024 73 10000 1.77 40 05:22 06.12.2020
5017 Clouds 3 1021 59 10000 3.6 50 00:48 06.12.2020
5018 Clouds 3 1021 59 10000 3.6 50 00:27 06.12.2020
5019 Clouds 3 1020 59 10000 3.6 40 23:58 05.12.2020
5020 Clouds 4 1020 55 10000 3.6 50 22:26 05.12.2020
5021 Clouds 4 1021 55 10000 3.6 60 21:57 05.12.2020
5022 Clouds 4 1021 55 10000 3.6 60 21:31 05.12.2020
5023 Clouds 4 1021 55 10000 4.6 50 20:59 05.12.2020
5024 Clouds 4 1022 64 10000 3.6 20 18:50 05.12.2020
5025 Clouds 3 1022 69 10000 2.1 360 17:57 05.12.2020
5026 Clouds 2 1022 74 10000 2.6 320 16:49 05.12.2020
5027 Clouds 1 1022 74 10000 2.6 320 16:28 05.12.2020
5028 Clouds 1 1021 74 10000 1.5 320 15:21 05.12.2020
5029 Clouds 1 1020 82 10000 2.6 310 13:33 05.12.2020
5030 Clouds 2 1019 80 10000 2.1 320 11:50 05.12.2020
5031 Clouds 3 1019 69 10000 1.79 32 10:39 05.12.2020
5032 Clouds 3 1019 76 10000 2.6 330 09:31 05.12.2020
5033 Clouds 3 1022 68 10000 3.95 18 07:48 05.12.2020
5034 Clouds 4 1021 69 10000 5.22 14 05:34 05.12.2020
5035 Clouds 4 1014 64 10000 4.6 20 00:55 05.12.2020
5036 Clear 5 1017 71 10000 3.45 351 23:36 04.12.2020
5037 Clouds 7 1012 48 10000 4.1 310 21:35 04.12.2020
5038 Clear 6 1013 52 10000 5.1 250 19:21 04.12.2020
5039 Clear 5 1016 58 10000 4.26 271 18:39 04.12.2020
5040 Clear 4 1014 55 10000 5.7 250 17:47 04.12.2020
5041 Clear 3 1013 64 10000 5.1 250 16:37 04.12.2020
5042 Clouds 1 1013 69 10000 5.7 230 15:25 04.12.2020
5043 Clouds 1 1013 69 10000 5.1 250 13:37 04.12.2020
5044 Clouds 1 1013 74 10000 4.6 250 13:18 04.12.2020
5045 Clouds 1 1013 74 10000 4.6 250 12:22 04.12.2020
5046 Clouds 2 1014 69 10000 5.7 250 10:37 04.12.2020
5047 Clouds 3 1015 64 10000 5.7 240 09:24 04.12.2020
5048 Clear 2 1016 59 10000 4.6 240 06:40 04.12.2020
5049 Clear 3 1017 55 10000 6.2 250 04:53 04.12.2020
5050 Clouds 4 1017 55 10000 5.1 230 01:53 04.12.2020
5051 Clouds 6 1018 45 10000 6.2 240 22:51 03.12.2020
5052 Clouds 7 1018 42 10000 8.2 260 21:37 03.12.2020
5053 Clouds 8 1018 42 10000 8.2 260 20:46 03.12.2020
5054 Clouds 6 1019 45 10000 5.7 240 19:24 03.12.2020
5055 Clouds 6 1023 53 10000 5.69 249 18:48 03.12.2020
5056 Clouds 3 1021 51 10000 5.7 230 17:21 03.12.2020
5057 Clouds 2 1022 55 10000 3.6 250 16:43 03.12.2020
5058 Clouds 0 1022 58 10000 4.6 210 15:33 03.12.2020
5059 Clouds -1 1022 58 10000 3.6 240 14:49 03.12.2020
5060 Clouds 0 1022 58 10000 2.6 250 13:55 03.12.2020
5061 Clouds 0 1022 79 10000 4.6 230 12:54 03.12.2020
5062 Clouds 0 1022 77 10000 4.6 230 12:24 03.12.2020
5063 Clouds 0 1022 58 10000 4.1 240 10:55 03.12.2020
5064 Clouds 0 1023 73 10000 4.6 240 08:49 03.12.2020
5065 Clouds 2 1025 55 10000 4.6 240 04:21 03.12.2020
5066 Clouds 4 1025 51 10000 3.1 240 02:20 03.12.2020
5067 Clouds 6 1025 35 10000 2.6 240 00:32 03.12.2020
5068 Clouds 9 1026 28 10000 3.1 260 22:47 02.12.2020
5069 Clouds 8 1026 26 10000 3.6 260 21:55 02.12.2020
5070 Clouds 8 1026 30 10000 3.6 250 20:51 02.12.2020
5071 Clouds 8 1026 30 10000 3.6 250 20:33 02.12.2020
5072 Clouds 7 1027 35 10000 3.1 0 19:54 02.12.2020
5073 Clouds 3 1032 50 10000 3.2 273 17:51 02.12.2020
5074 Clouds 2 1027 50 10000 2.1 300 17:33 02.12.2020
5075 Clouds 1 1027 58 10000 2.1 290 16:57 02.12.2020
5076 Clouds -4 1026 68 10000 2.6 270 14:47 02.12.2020
5077 Clouds -3 1024 68 10000 2.6 290 11:34 02.12.2020
5078 Clouds -2 1024 68 10000 2.6 290 10:28 02.12.2020
5079 Clear -2 1023 68 10000 3.1 300 08:24 02.12.2020
5080 Clouds 0 1020 86 10000 3.6 290 00:57 02.12.2020
5081 Clouds 1 1018 50 10000 4.1 300 22:21 01.12.2020
5082 Clear 0 1022 65 10000 4.82 314 20:36 01.12.2020
5083 Clouds -1 1022 66 10000 0.89 275 19:34 01.12.2020
5084 Clouds -2 1018 63 10000 5.1 310 17:29 01.12.2020
5085 Clouds -3 1017 63 10000 3.1 300 15:40 01.12.2020
5086 Clouds -3 1016 58 10000 4.6 320 13:37 01.12.2020
5087 Clouds -3 1016 58 10000 6.7 300 11:44 01.12.2020
5088 Clouds -3 1016 58 10000 6.7 300 11:26 01.12.2020
5089 Clouds -2 1016 58 10000 5.7 310 10:37 01.12.2020
5090 Clouds -2 1016 58 10000 6.7 320 08:20 01.12.2020
5091 Clouds -2 1016 58 10000 9.3 310 06:46 01.12.2020
5092 Clouds -1 1016 58 10000 10.8 330 01:51 01.12.2020
5093 Snow -1 1016 63 10000 8.2 330 00:52 01.12.2020
5094 Clouds -1 1015 58 10000 9.3 330 23:21 30.11.2020
5095 Clouds -1 1015 58 10000 9.3 330 22:43 30.11.2020
5096 Clouds -1 1015 58 10000 9.3 330 22:25 30.11.2020
5097 Clouds -1 1015 63 10000 8.2 350 20:47 30.11.2020
5098 Clouds -1 1014 68 10000 4.92 5 19:42 30.11.2020
5099 Snow -1 1015 83 10000 10.3 330 19:42 30.11.2020
5100 Clouds -1 1018 67 10000 9.82 345 18:23 30.11.2020
5101 Clouds -1 1019 65 10000 4.02 49 17:47 30.11.2020
5102 Clouds 0 1019 65 10000 2.68 309 16:55 30.11.2020
5103 Clouds 0 1015 55 10000 10.3 340 15:59 30.11.2020
5104 Snow 1 1015 50 10000 7.7 350 14:31 30.11.2020
5105 Snow 1 1015 51 10000 9.3 350 13:42 30.11.2020
5106 Snow 2 1014 51 10000 7.7 350 12:26 30.11.2020
5107 Snow 2 1014 51 10000 8.2 340 11:57 30.11.2020
5108 Clouds 2 1014 51 10000 8.7 340 10:26 30.11.2020
5109 Clouds 2 1014 51 10000 8.7 350 09:45 30.11.2020
5110 Clouds 3 1015 51 10000 8.7 350 07:18 30.11.2020
5111 Clouds 8 1013 61 10000 3.1 290 23:58 29.11.2020
5112 Clouds 9 1016 60 10000 4.04 281 21:51 29.11.2020
5113 Clouds 9 1012 59 10000 5.1 240 21:31 29.11.2020
5114 Clouds 9 1016 56 10000 2.24 257 19:54 29.11.2020
5115 Clouds 7 1015 60 10000 4.1 220 17:47 29.11.2020
5116 Clouds 5 1019 69 10000 5.4 233 16:24 29.11.2020
5117 Clouds 4 1016 69 10000 3.6 210 13:23 29.11.2020
5118 Clear 4 1016 74 10000 3.6 210 11:41 29.11.2020
5119 Clear 4 1017 74 10000 4.1 210 10:34 29.11.2020
5120 Clear 5 1017 69 10000 3.6 210 08:38 29.11.2020
5121 Clear 6 1017 70 10000 4.6 220 06:32 29.11.2020
5122 Clear 9 1018 57 10000 5.1 210 23:52 28.11.2020
5123 Clear 9 1018 49 10000 5.1 220 22:56 28.11.2020
5124 Clouds 10 1019 45 10000 6.7 210 20:47 28.11.2020
5125 Clouds 9 1021 49 10000 4.6 210 19:48 28.11.2020
5126 Clouds 8 1021 49 10000 4.6 210 19:22 28.11.2020
5127 Clouds 7 1022 52 10000 5.1 220 18:27 28.11.2020
5128 Clear 5 1026 62 10000 5.41 228 17:47 28.11.2020
5129 Clear 3 1026 65 10000 0.45 186 16:40 28.11.2020
5130 Clouds 0 1022 74 10000 2.6 210 14:54 28.11.2020
5131 Clear 0 1022 68 10000 2.6 230 12:35 28.11.2020
5132 Clear -1 1021 68 10000 2.1 270 10:36 28.11.2020
5133 Clear 1 1021 59 10000 3.6 300 06:36 28.11.2020
5134 Clear 3 1020 69 10000 3.6 290 03:26 28.11.2020
5135 Clouds 4 1020 69 10000 4.6 280 01:50 28.11.2020
5136 Clouds 7 1018 58 10000 3.6 270 22:56 27.11.2020
5137 Clouds 7 1018 65 10000 4.6 250 21:33 27.11.2020
5138 Clouds 7 1018 70 10000 3.1 260 20:31 27.11.2020
5139 Mist 6 1018 81 8047 3.6 250 19:25 27.11.2020
5140 Mist 6 1019 86 6437 3.1 250 18:44 27.11.2020
5141 Mist 5 1019 86 4828 2.1 240 14:47 27.11.2020
5142 Mist 5 1019 86 9656 4.1 240 13:26 27.11.2020
5143 Clouds 5 1018 86 10000 3.1 220 12:47 27.11.2020
5144 Clouds 5 1019 86 10000 2.6 220 11:47 27.11.2020
5145 Clouds 5 1019 80 10000 3.1 220 10:50 27.11.2020
5146 Clouds 5 1019 80 10000 3.1 220 10:19 27.11.2020
5147 Clouds 5 1022 87 10000 3.7 235 07:29 27.11.2020
5148 Clouds 7 1019 76 10000 4.33 235 22:28 26.11.2020
5149 Clouds 7 1019 75 10000 4.33 235 21:56 26.11.2020
5150 Clouds 8 1016 65 10000 7.7 240 20:59 26.11.2020
5151 Clouds 8 1017 75 10000 5.7 240 19:19 26.11.2020
5152 Clouds 7 1017 75 10000 5.7 240 17:53 26.11.2020
5153 Mist 6 1016 81 9656 3.6 250 14:57 26.11.2020
5154 Mist 6 1015 87 9656 3.6 260 13:42 26.11.2020
5155 Mist 6 1014 87 9656 3.6 270 12:44 26.11.2020
5156 Clouds 6 1014 87 10000 4.6 270 11:47 26.11.2020
5157 Clouds 6 1013 87 10000 4.6 270 10:37 26.11.2020
5158 Clouds 6 1013 87 10000 4.1 280 09:48 26.11.2020
5159 Clouds 6 1013 87 10000 4.1 280 09:29 26.11.2020
5160 Clouds 6 1012 87 10000 3.1 300 08:39 26.11.2020
5161 Clouds 7 1010 87 10000 5.1 330 06:50 26.11.2020
5162 Mist 8 1006 93 1609 3.1 30 23:54 25.11.2020
5163 Rain 8 1006 93 4828 2.1 90 20:46 25.11.2020
5164 Rain 8 1006 93 4828 3.6 40 19:55 25.11.2020
5165 Rain 8 1007 93 4023 2.6 70 18:28 25.11.2020
5166 Mist 8 1008 93 4828 4.6 70 16:44 25.11.2020
5167 Mist 7 1010 93 4828 2.1 120 15:40 25.11.2020
5168 Mist 7 1010 93 3219 3.1 140 13:57 25.11.2020
5169 Mist 7 1010 93 4828 3.1 140 13:38 25.11.2020
5170 Mist 7 1011 93 3219 1.5 190 11:58 25.11.2020
5171 Drizzle 7 1011 87 3219 2.6 190 11:18 25.11.2020
5172 Drizzle 7 1011 87 10000 3.6 210 09:19 25.11.2020
5173 Clouds 7 1011 87 10000 4.1 210 08:44 25.11.2020
5174 Rain 7 1013 75 10000 3.6 180 03:59 25.11.2020
5175 Rain 6 1014 75 10000 4.6 170 02:26 25.11.2020
5176 Mist 6 1015 81 4828 5.1 140 00:24 25.11.2020
5177 Rain 5 1016 81 6437 3.6 140 23:52 24.11.2020
5178 Rain 5 1016 81 6437 3.6 140 23:34 24.11.2020
5179 Mist 5 1017 86 6437 4.6 140 21:51 24.11.2020
5180 Rain 5 1017 86 6437 4.6 140 21:30 24.11.2020
5181 Rain 5 1018 86 6437 6.2 140 20:42 24.11.2020
5182 Mist 4 1021 86 6437 6.7 160 18:57 24.11.2020
5183 Rain 3 1022 86 6437 5.1 140 17:31 24.11.2020
5184 Mist 3 1023 94 4828 4.1 150 16:54 24.11.2020
5185 Rain 3 1023 94 4828 4.1 150 16:35 24.11.2020
5186 Mist 2 1024 86 4828 4.1 130 15:54 24.11.2020
5187 Mist 2 1024 86 4828 3.6 140 15:19 24.11.2020
5188 Rain 1 1024 86 3219 3.1 120 14:43 24.11.2020
5189 Rain 2 1025 86 2414 3.6 180 12:55 24.11.2020
5190 Rain 3 1025 80 6437 4.6 170 12:22 24.11.2020
5191 Rain 4 1025 64 10000 3.1 150 11:53 24.11.2020
5192 Clouds 4 1025 64 10000 3.6 130 10:46 24.11.2020
5193 Clouds 4 1025 64 10000 3.6 130 10:24 24.11.2020
5194 Clouds 3 1025 64 10000 4.1 140 09:35 24.11.2020
5195 Clouds 4 1025 69 10000 2.6 140 07:58 24.11.2020
5196 Clouds 4 1026 69 10000 2.6 140 04:48 24.11.2020
5197 Clouds 6 1026 45 10000 1.65 51 22:35 23.11.2020
5198 Clouds 7 1026 48 10000 1.5 190 21:38 23.11.2020
5199 Clouds 7 1026 48 10000 3.1 330 20:56 23.11.2020
5200 Clouds 7 1026 48 10000 3.1 330 20:28 23.11.2020
5201 Clouds 7 1026 48 10000 1.89 356 19:32 23.11.2020
5202 Clouds 5 1027 56 10000 3.6 340 17:27 23.11.2020
5203 Clear 5 1031 66 10000 3.13 327 16:37 23.11.2020
5204 Clouds 1 1025 74 10000 2.1 300 14:49 23.11.2020
5205 Clear 1 1025 74 10000 2.1 300 13:43 23.11.2020
5206 Clear 2 1024 74 10000 3.1 300 12:38 23.11.2020
5207 Clear 2 1024 74 10000 3.1 300 11:49 23.11.2020
5208 Clear 2 1024 74 10000 3.1 300 11:25 23.11.2020
5209 Clouds 3 1023 74 10000 3.6 290 09:42 23.11.2020
5210 Clouds 4 1022 69 10000 4.1 290 08:49 23.11.2020
5211 Clouds 5 1022 75 10000 4.1 280 07:29 23.11.2020
5212 Clouds 6 1021 66 10000 3.1 240 01:45 23.11.2020
5213 Clouds 7 1021 65 10000 3.6 250 23:41 22.11.2020
5214 Clouds 7 1021 70 10000 2.1 140 22:19 22.11.2020
5215 Clouds 6 1021 75 10000 2.1 150 21:23 22.11.2020
5216 Clouds 7 1022 81 10000 1.36 4 19:58 22.11.2020
5217 Clouds 5 1024 86 10000 3.1 300 18:57 22.11.2020
5218 Clouds 5 1024 80 10000 1.5 0 17:54 22.11.2020
5219 Rain 5 1024 80 10000 3.1 80 16:25 22.11.2020
5220 Rain 5 1025 86 10000 2.71 84 14:58 22.11.2020
5221 Clouds 5 1025 75 10000 1.5 130 12:51 22.11.2020
5222 Clouds 5 1025 75 10000 1.5 130 12:31 22.11.2020
5223 Clouds 5 1026 75 10000 4.1 130 11:39 22.11.2020
5224 Clouds 6 1026 60 10000 4.6 130 10:47 22.11.2020
5225 Clouds 6 1026 60 10000 4.6 130 10:29 22.11.2020
5226 Clouds 5 1031 70 10000 3.6 70 02:47 22.11.2020
5227 Clouds 5 1032 70 10000 4.6 70 23:54 21.11.2020
5228 Clouds 6 1035 75 10000 3.29 41 22:41 21.11.2020
5229 Clouds 6 1032 65 10000 3.1 20 21:30 21.11.2020
5230 Clouds 6 1033 65 10000 3.6 60 20:49 21.11.2020
5231 Clouds 7 1033 64 10000 3.1 30 20:18 21.11.2020
5232 Clouds 7 1033 64 10000 3.1 30 19:39 21.11.2020
5233 Clouds 7 1034 61 10000 2.1 0 18:50 21.11.2020
5234 Clouds 6 1035 64 10000 2.6 360 17:30 21.11.2020
5235 Clouds 5 1035 65 10000 2.6 10 16:44 21.11.2020
5236 Clouds 4 1035 64 10000 4.6 350 15:40 21.11.2020
5237 Clouds 4 1034 69 10000 3.1 350 15:20 21.11.2020
5238 Clouds 4 1034 69 10000 3.1 350 14:40 21.11.2020
5239 Clouds 5 1033 65 10000 2.6 350 12:44 21.11.2020
5240 Clouds 5 1033 65 10000 2.6 350 12:21 21.11.2020
5241 Clouds 5 1033 69 10000 3.1 30 11:36 21.11.2020
5242 Clouds 5 1033 68 10000 4.6 20 10:27 21.11.2020
5243 Clouds 6 1032 70 10000 3.6 30 08:52 21.11.2020
5244 Clouds 6 1032 65 10000 4.6 30 07:58 21.11.2020
5245 Clouds 7 1035 70 10000 4.26 359 05:40 21.11.2020
5246 Clouds 12 1028 37 10000 2.1 310 01:56 21.11.2020
5247 Clouds 13 1027 30 10000 6.2 330 23:59 20.11.2020
5248 Clouds 15 1030 41 10000 0.89 300 22:43 20.11.2020
5249 Clouds 15 1029 48 10000 3.36 316 21:44 20.11.2020
5250 Clouds 15 1029 48 10000 3.36 316 21:44 20.11.2020
5251 Clouds 15 1025 41 10000 5.7 330 21:21 20.11.2020
5252 Clouds 16 1024 42 10000 4.6 300 19:55 20.11.2020
5253 Clouds 16 1024 44 10000 3.6 300 18:53 20.11.2020
5254 Clouds 15 1024 54 10000 4.1 290 17:58 20.11.2020
5255 Clouds 14 1024 54 10000 4.1 290 17:29 20.11.2020
5256 Clouds 13 1023 62 10000 3.1 270 16:40 20.11.2020
5257 Clouds 13 1022 58 10000 6.2 260 15:59 20.11.2020
5258 Clouds 12 1022 58 10000 6.2 260 15:34 20.11.2020
5259 Clear 13 1019 54 10000 5.1 230 13:49 20.11.2020
5260 Clear 13 1019 54 10000 6.2 230 13:19 20.11.2020
5261 Clear 13 1019 54 10000 6.2 230 12:39 20.11.2020
5262 Clear 14 1018 50 10000 7.7 220 11:46 20.11.2020
5263 Clear 14 1018 50 10000 7.7 220 11:20 20.11.2020
5264 Clouds 14 1017 44 10000 9.3 220 09:45 20.11.2020
5265 Clouds 14 1017 47 10000 9.3 220 08:27 20.11.2020
5266 Clouds 14 1017 44 10000 8.2 220 07:34 20.11.2020
5267 Clouds 15 1015 36 10000 9.3 210 03:45 20.11.2020
5268 Clouds 18 1013 31 10000 9.3 200 23:25 19.11.2020
5269 Clouds 18 1013 29 10000 10.8 220 22:27 19.11.2020
5270 Clouds 19 1013 32 10000 11.3 220 21:49 19.11.2020
5271 Clouds 18 1014 34 10000 8.7 220 20:37 19.11.2020
5272 Clouds 18 1014 31 10000 12.9 220 20:18 19.11.2020
5273 Clouds 18 1014 31 10000 12.9 220 19:25 19.11.2020
5274 Clouds 15 1016 35 10000 7.7 220 17:50 19.11.2020
5275 Clouds 14 1019 41 10000 2.68 256 17:18 19.11.2020
5276 Clouds 11 1019 45 10000 10.01 217 15:59 19.11.2020
5277 Clouds 11 1016 39 10000 8.2 210 15:28 19.11.2020
5278 Clouds 9 1017 39 10000 8.2 210 13:47 19.11.2020
5279 Clouds 10 1017 39 10000 8.2 210 13:25 19.11.2020
5280 Clouds 10 1017 37 10000 7.7 210 12:51 19.11.2020
5281 Clouds 10 1017 37 10000 7.7 210 12:25 19.11.2020
5282 Clouds 10 1017 37 10000 7.7 210 11:40 19.11.2020
5283 Clouds 10 1018 39 10000 9.3 210 11:00 19.11.2020
5284 Clouds 9 1018 39 10000 9.3 210 10:28 19.11.2020
5285 Clouds 9 1018 39 10000 7.2 200 09:45 19.11.2020
5286 Clouds 9 1018 39 10000 7.2 200 09:25 19.11.2020
5287 Clouds 8 1019 39 10000 7.7 200 08:20 19.11.2020
5288 Clouds 8 1020 36 10000 8.7 200 06:49 19.11.2020
5289 Clouds 8 1022 33 10000 6.2 190 01:46 19.11.2020
5290 Clouds 9 1023 31 10000 8.2 180 00:28 19.11.2020
5291 Clouds 9 1024 29 10000 7.2 180 23:25 18.11.2020
5292 Clouds 10 1025 31 10000 7.7 190 22:36 18.11.2020
5293 Clouds 10 1026 29 10000 7.2 200 22:18 18.11.2020
5294 Clouds 10 1026 29 10000 7.2 200 21:39 18.11.2020
5295 Clear 10 1030 35 10000 7.55 184 21:20 18.11.2020
5296 Clouds 9 1029 29 10000 8.7 190 19:49 18.11.2020
5297 Clouds 9 1029 29 10000 8.7 190 19:27 18.11.2020
5298 Clouds 9 1031 33 10000 8.2 200 18:56 18.11.2020
5299 Clouds 8 1031 33 10000 8.2 200 18:37 18.11.2020
5300 Clouds 7 1032 33 10000 5.7 190 17:37 18.11.2020
5301 Clouds 5 1037 45 10000 0.89 217 16:24 18.11.2020
5302 Clouds 4 1033 51 10000 4.1 170 15:47 18.11.2020
5303 Clouds 3 1033 55 10000 2.6 160 14:41 18.11.2020
5304 Clouds 3 1033 59 10000 2.1 170 13:45 18.11.2020
5305 Clouds 3 1033 55 10000 2.6 160 13:20 18.11.2020
5306 Clouds 3 1033 55 10000 2.6 160 12:30 18.11.2020
5307 Clouds 3 1034 55 10000 2.1 160 11:35 18.11.2020
5308 Clouds 4 1034 51 10000 1.5 200 10:31 18.11.2020
5309 Clouds 3 1033 59 10000 2.1 200 09:57 18.11.2020
5310 Clouds 3 1033 59 10000 1.5 240 07:54 18.11.2020
5311 Clouds 4 1033 55 10000 1.5 250 06:34 18.11.2020
5312 Clouds 3 1033 40 10000 3.1 280 00:29 18.11.2020
5313 Smoke 4 1033 35 10000 4.1 290 23:34 17.11.2020
5314 Smoke 5 1033 33 10000 4.1 300 22:49 17.11.2020
5315 Smoke 5 1033 33 10000 4.1 300 22:28 17.11.2020
5316 Clouds 5 1033 35 10000 6.2 310 21:50 17.11.2020
5317 Clouds 5 1033 35 10000 6.2 310 21:50 17.11.2020
5318 Clouds 5 1033 35 10000 6.2 310 21:30 17.11.2020
5319 Clouds 5 1033 35 10000 6.2 310 21:30 17.11.2020
5320 Clear 5 1036 42 10000 5.09 309 20:50 17.11.2020
5321 Clouds 5 1033 41 10000 4.6 300 20:25 17.11.2020
5322 Clouds 4 1033 38 10000 6.2 300 19:54 17.11.2020
5323 Clouds 3 1033 37 10000 4.6 300 18:25 17.11.2020
5324 Clouds 2 1033 40 10000 4.1 310 17:39 17.11.2020
5325 Clouds 1 1033 43 10000 8.2 320 16:53 17.11.2020
5326 Clouds 0 1031 54 10000 4.1 330 16:18 17.11.2020
5327 Clouds -1 1031 54 10000 4.1 330 15:40 17.11.2020
5328 Clouds -1 1030 54 10000 6.2 330 15:22 17.11.2020
5329 Clouds -1 1030 54 10000 6.2 330 14:53 17.11.2020
5330 Clouds -2 1028 54 10000 5.1 330 13:59 17.11.2020
5331 Clouds -1 1028 54 10000 5.1 330 13:30 17.11.2020
5332 Clouds -1 1027 85 10000 5.7 310 12:43 17.11.2020
5333 Clouds 0 1026 86 10000 5.1 310 11:46 17.11.2020
5334 Clouds 0 1026 84 10000 5.1 310 11:28 17.11.2020
5335 Clouds 0 1025 55 10000 7.7 310 10:39 17.11.2020
5336 Clouds 1 1029 66 10000 3.13 331 10:20 17.11.2020
5337 Clouds 1 1024 59 10000 7.7 330 09:43 17.11.2020
5338 Clouds 2 1022 59 10000 5.7 310 08:46 17.11.2020
5339 Clouds 2 1021 59 10000 9.3 330 07:59 17.11.2020
5340 Clouds 3 1021 59 10000 9.3 330 07:32 17.11.2020
5341 Clouds 7 1017 56 10000 7.2 300 04:31 17.11.2020
5342 Clear 7 1016 52 10000 7.7 280 03:28 17.11.2020
5343 Clear 7 1016 52 10000 6.2 270 02:29 17.11.2020
5344 Clouds 7 1015 56 10000 3.38 264 00:56 17.11.2020
5345 Clouds 7 1015 49 10000 4.1 170 23:54 16.11.2020
5346 Clouds 8 1015 49 10000 4.1 170 23:32 16.11.2020
5347 Clouds 8 1017 42 10000 5.1 230 22:58 16.11.2020
5348 Clouds 8 1017 42 10000 5.1 230 22:24 16.11.2020
5349 Clouds 8 1016 39 10000 5.1 200 21:56 16.11.2020
5350 Clouds 8 1016 39 10000 5.1 200 21:37 16.11.2020
5351 Clouds 8 1016 39 10000 5.1 200 21:19 16.11.2020
5352 Clouds 8 1017 36 10000 6.7 200 20:26 16.11.2020
5353 Clear 7 1022 42 10000 3.82 230 19:51 16.11.2020
5354 Clouds 6 1019 38 10000 4.1 220 19:29 16.11.2020
5355 Clouds 6 1020 44 10000 4.6 220 18:50 16.11.2020
5356 Clear 5 1024 52 10000 4.13 230 18:18 16.11.2020
5357 Clear 4 1025 58 10000 4.04 240 17:27 16.11.2020
5358 Clouds 3 1021 55 10000 5.1 280 16:57 16.11.2020
5359 Clouds 3 1021 55 10000 5.1 280 16:39 16.11.2020
5360 Clouds 2 1021 55 10000 5.1 280 16:19 16.11.2020
5361 Clouds 1 1020 59 10000 5.1 270 15:43 16.11.2020
5362 Clouds 1 1020 59 10000 5.1 270 15:22 16.11.2020
5363 Clouds 0 1020 80 10000 5.1 260 14:47 16.11.2020
5364 Clear 0 1019 82 10000 6.7 270 13:37 16.11.2020
5365 Clear 0 1018 82 10000 7.2 260 12:45 16.11.2020
5366 Clear 0 1018 80 10000 7.2 260 12:45 16.11.2020
5367 Clear 0 1018 80 10000 7.2 260 12:23 16.11.2020
5368 Clear 0 1018 69 10000 6.2 260 11:38 16.11.2020
5369 Clear 0 1018 69 10000 5.7 250 11:19 16.11.2020
5370 Clear 0 1018 69 10000 5.7 250 10:41 16.11.2020
5371 Clear 0 1018 69 10000 5.7 250 10:23 16.11.2020
5372 Clear 0 1017 69 10000 6.7 270 09:43 16.11.2020
5373 Clear 1 1017 69 10000 6.7 270 09:19 16.11.2020
5374 Clear 1 1017 64 10000 6.2 280 08:38 16.11.2020
5375 Clear 1 1016 64 10000 8.2 280 07:44 16.11.2020
5376 Clouds 1 1015 64 10000 7.2 280 06:49 16.11.2020
5377 Clouds 2 1014 64 10000 8.2 290 05:57 16.11.2020
5378 Clouds 3 1013 59 10000 9.8 280 04:37 16.11.2020
5379 Clouds 4 1012 60 10000 13.9 280 02:29 16.11.2020
5380 Clouds 4 1011 56 10000 9.3 270 01:39 16.11.2020
5381 Clouds 5 1008 60 10000 13.4 260 23:54 15.11.2020
5382 Clouds 4 1008 60 10000 13.4 260 23:22 15.11.2020
5383 Rain 4 1011 75 10000 1.79 89 22:48 15.11.2020
5384 Clouds 5 1007 52 10000 12.3 270 22:21 15.11.2020
5385 Clouds 5 1005 56 10000 13.9 260 21:44 15.11.2020
5386 Clouds 5 1005 56 10000 13.9 260 21:24 15.11.2020
5387 Clouds 5 1004 56 10000 11.3 280 20:41 15.11.2020
5388 Clouds 4 1003 60 10000 12.9 280 20:19 15.11.2020
5389 Clouds 4 1003 60 10000 12.9 280 19:48 15.11.2020
5390 Clouds 4 1003 60 10000 12.9 280 19:22 15.11.2020
5391 Clouds 5 1005 70 10000 0.89 188 18:57 15.11.2020
5392 Clouds 5 1001 70 10000 11.8 270 18:39 15.11.2020
5393 Clouds 5 1000 75 10000 10.8 270 18:19 15.11.2020
5394 Clouds 5 1000 75 10000 10.8 270 17:44 15.11.2020
5395 Clouds 5 1000 75 10000 10.8 270 17:24 15.11.2020
5396 Rain 4 998 86 10000 10.8 270 16:46 15.11.2020
5397 Rain 4 998 86 10000 10.8 270 16:20 15.11.2020
5398 Rain 5 996 81 10000 7.2 260 15:50 15.11.2020
5399 Rain 6 996 81 3219 9.3 250 15:28 15.11.2020
5400 Clouds 7 995 84 10000 4.47 281 14:58 15.11.2020
5401 Clouds 7 994 70 10000 10.3 260 14:30 15.11.2020
5402 Rain 8 994 70 10000 10.8 260 13:56 15.11.2020
5403 Clouds 10 993 76 10000 12.9 260 13:36 15.11.2020
5404 Clouds 12 992 82 10000 7.7 220 12:50 15.11.2020
5405 Clouds 13 992 82 10000 7.7 220 12:23 15.11.2020
5406 Clouds 12 992 81 10000 5.7 200 11:46 15.11.2020
5407 Clouds 12 994 81 10000 6.2 220 11:20 15.11.2020
5408 Clouds 12 994 81 10000 6.2 220 10:54 15.11.2020
5409 Clouds 12 994 81 10000 6.2 220 10:32 15.11.2020
5410 Clouds 12 994 81 10000 7.7 200 09:58 15.11.2020
5411 Clouds 12 994 81 10000 7.7 200 09:40 15.11.2020
5412 Clouds 12 994 81 10000 7.7 200 09:18 15.11.2020
5413 Clouds 11 995 81 10000 10.3 160 08:46 15.11.2020
5414 Rain 10 998 81 10000 5.7 180 07:47 15.11.2020
5415 Rain 10 999 81 10000 7.7 170 06:50 15.11.2020
5416 Clouds 8 1004 87 10000 6.7 160 04:57 15.11.2020
5417 Rain 8 1006 81 10000 7.2 150 02:31 15.11.2020
5418 Clouds 7 1008 75 10000 7.2 150 00:42 15.11.2020
5419 Clouds 7 1008 75 10000 7.2 150 00:24 15.11.2020
5420 Clouds 7 1009 70 10000 6.2 140 23:30 14.11.2020
5421 Clouds 7 1011 65 10000 6.2 150 22:46 14.11.2020
5422 Clouds 7 1011 65 10000 6.2 150 22:27 14.11.2020
5423 Clouds 6 1012 60 10000 5.7 150 21:40 14.11.2020
5424 Clouds 6 1012 60 10000 5.7 150 21:21 14.11.2020
5425 Clouds 6 1013 56 10000 5.7 150 20:48 14.11.2020
5426 Clouds 6 1013 56 10000 5.7 150 20:26 14.11.2020
5427 Clouds 6 1015 52 10000 5.1 160 19:46 14.11.2020
5428 Clouds 6 1015 52 10000 5.1 160 19:27 14.11.2020
5429 Clouds 5 1017 55 10000 5.1 180 18:43 14.11.2020
5430 Clouds 5 1017 55 10000 5.1 180 18:23 14.11.2020
5431 Clouds 5 1017 60 10000 8.2 160 17:47 14.11.2020
5432 Clouds 5 1017 60 10000 8.2 160 17:47 14.11.2020
5433 Clouds 4 1017 60 10000 8.2 160 17:29 14.11.2020
5434 Clear 4 1017 63 10000 6.87 160 16:53 14.11.2020
5435 Clouds 3 1018 69 10000 4.1 150 16:34 14.11.2020
5436 Clear 2 1018 64 10000 6.62 164 15:58 14.11.2020
5437 Clouds 1 1019 80 10000 4.6 160 15:33 14.11.2020
5438 Clouds 1 1019 74 10000 4.1 160 14:59 14.11.2020
5439 Clouds 0 1019 74 10000 4.1 160 14:31 14.11.2020
5440 Clouds 0 1019 74 10000 4.1 160 13:58 14.11.2020
5441 Clouds 0 1019 74 10000 4.1 160 13:58 14.11.2020
5442 Clouds 0 1019 74 10000 4.1 160 13:39 14.11.2020
5443 Clouds -1 1019 74 10000 4.1 160 13:21 14.11.2020
5444 Clear -1 1019 74 10000 3.6 160 12:41 14.11.2020
5445 Clear 0 1019 74 10000 3.6 160 12:23 14.11.2020
5446 Clear 0 1020 74 10000 3.6 160 11:40 14.11.2020
5447 Clear 0 1020 74 10000 3.6 160 11:21 14.11.2020
5448 Clear 0 1021 68 10000 2.6 170 10:40 14.11.2020
5449 Clear 0 1021 68 10000 2.6 170 10:22 14.11.2020
5450 Clear 0 1021 68 10000 3.83 183 09:45 14.11.2020
5451 Clear -1 1021 68 10000 3.43 190 09:27 14.11.2020
5452 Clear -1 1021 74 10000 2.1 180 08:44 14.11.2020
5453 Clear -1 1021 74 10000 2.1 180 08:23 14.11.2020
5454 Clear 0 1022 68 10000 3.3 193 07:42 14.11.2020
5455 Clear -1 1022 68 10000 3.24 207 07:21 14.11.2020
5456 Clear 0 1022 65 10000 2.1 220 06:29 14.11.2020
5457 Clouds 0 1022 59 10000 2.1 240 05:18 14.11.2020
5458 Clear 2 1022 59 10000 2.1 250 03:28 14.11.2020
5459 Clear 3 1022 47 10000 2.1 280 00:42 14.11.2020
5460 Clear 4 1023 44 10000 2.1 270 23:38 13.11.2020
5461 Clear 4 1023 44 10000 2.1 270 23:20 13.11.2020
5462 Clear 4 1022 44 10000 3.1 340 22:42 13.11.2020
5463 Clear 5 1022 44 10000 3.1 340 22:23 13.11.2020
5464 Clear 5 1022 48 10000 1.5 0 21:51 13.11.2020
5465 Clear 5 1022 48 10000 1.5 0 21:29 13.11.2020
5466 Clouds 4 1023 48 10000 3.1 290 20:55 13.11.2020
5467 Clouds 4 1023 48 10000 3.1 290 20:36 13.11.2020
5468 Clouds 4 1023 48 10000 3.1 290 20:18 13.11.2020
5469 Clouds 4 1023 55 10000 3.6 300 19:44 13.11.2020
5470 Clouds 4 1023 55 10000 3.6 300 19:44 13.11.2020
5471 Clouds 4 1023 55 10000 3.6 300 19:22 13.11.2020
5472 Clouds 3 1023 59 10000 3.6 310 18:49 13.11.2020
5473 Clouds 2 1023 59 10000 3.6 280 17:59 13.11.2020
5474 Clouds 2 1023 64 10000 4.6 310 17:36 13.11.2020
5475 Clouds 2 1022 64 10000 3.6 300 17:18 13.11.2020
5476 Clouds 1 1022 64 10000 3.6 300 16:42 13.11.2020
5477 Clouds 1 1022 64 10000 3.6 300 16:21 13.11.2020
5478 Clear 1 1025 71 10000 0.45 286 15:41 13.11.2020
5479 Clear 1 1025 71 10000 5.96 311 15:22 13.11.2020
5480 Clouds 1 1020 69 10000 5.7 320 14:39 13.11.2020
5481 Clouds 1 1019 69 10000 6.7 300 14:19 13.11.2020
5482 Clear 1 1024 75 10000 5.99 315 14:19 13.11.2020
5483 Clouds 2 1019 69 10000 6.7 300 13:37 13.11.2020
5484 Clouds 2 1019 75 10000 4.92 337 13:18 13.11.2020
5485 Clouds 3 1019 77 10000 2.24 356 12:43 13.11.2020
5486 Clouds 3 1019 78 10000 4.92 315 12:24 13.11.2020
5487 Clouds 4 1018 80 10000 3.13 315 11:47 13.11.2020
5488 Clouds 5 1018 77 10000 4.02 356 11:24 13.11.2020
5489 Clouds 6 1017 75 10000 6.7 300 10:54 13.11.2020
5490 Clouds 7 1016 75 10000 4.1 270 10:34 13.11.2020
5491 Clouds 7 1016 75 10000 3.6 220 09:53 13.11.2020
5492 Clouds 7 1016 75 10000 3.6 220 09:32 13.11.2020
5493 Clouds 8 1016 70 10000 3.1 210 08:55 13.11.2020
5494 Clouds 8 1016 70 10000 3.1 210 08:32 13.11.2020
5495 Rain 8 1016 65 10000 3.6 200 07:55 13.11.2020
5496 Clouds 8 1016 65 10000 3.6 200 07:36 13.11.2020
5497 Clouds 8 1017 61 10000 2.6 210 07:18 13.11.2020
5498 Clouds 8 1017 61 10000 2.6 210 06:37 13.11.2020
5499 Rain 8 1017 52 10000 3.1 190 05:42 13.11.2020
5500 Clouds 9 1017 51 10000 4.6 180 04:24 13.11.2020
5501 Clouds 9 1016 45 10000 3.1 140 01:43 13.11.2020
5502 Clouds 10 1017 43 10000 4.1 170 00:37 13.11.2020
5503 Clouds 10 1017 40 10000 5.7 170 23:59 12.11.2020
5504 Clouds 11 1017 40 10000 5.7 170 23:36 12.11.2020
5505 Clouds 11 1018 40 10000 4.6 170 23:18 12.11.2020
5506 Clouds 12 1018 40 10000 4.6 170 22:41 12.11.2020
5507 Clouds 12 1018 37 10000 5.7 200 22:20 12.11.2020
5508 Clouds 12 1018 37 10000 5.7 200 21:41 12.11.2020
5509 Clouds 12 1018 37 10000 5.7 200 21:23 12.11.2020
5510 Clouds 12 1021 43 10000 3.74 169 20:45 12.11.2020
5511 Clouds 12 1017 44 10000 1.34 191 20:25 12.11.2020
5512 Clouds 12 1018 45 10000 1.79 195 19:58 12.11.2020
5513 Clouds 11 1020 46 10000 4.1 190 19:40 12.11.2020
5514 Clouds 11 1020 49 10000 4.1 190 19:21 12.11.2020
5515 Clouds 11 1021 53 10000 4.1 200 18:48 12.11.2020
5516 Clouds 10 1019 55 10000 0.89 177 18:20 12.11.2020
5517 Clouds 10 1025 59 10000 0.45 216 17:43 12.11.2020
5518 Clouds 9 1021 56 10000 2.48 197 17:25 12.11.2020
5519 Clouds 8 1022 70 10000 2.48 197 16:46 12.11.2020
5520 Clouds 8 1022 70 10000 2.48 197 16:46 12.11.2020
5521 Clouds 7 1022 70 10000 2.27 199 16:24 12.11.2020
5522 Clouds 7 1025 70 10000 2.27 199 15:54 12.11.2020
5523 Clouds 5 1025 74 10000 2.58 208 15:31 12.11.2020
5524 Clouds 5 1025 81 10000 2.58 208 14:57 12.11.2020
5525 Clouds 4 1021 80 10000 2.1 0 14:38 12.11.2020
5526 Clouds 4 1021 80 10000 2.1 210 14:20 12.11.2020
5527 Clouds 3 1021 80 10000 2.1 210 13:45 12.11.2020
5528 Clouds 3 1021 80 10000 2.1 190 13:21 12.11.2020
5529 Clouds 3 1021 80 10000 2.1 190 12:49 12.11.2020
5530 Clouds 2 1021 80 10000 2.1 190 12:26 12.11.2020
5531 Clear 2 1021 80 10000 2.6 200 11:58 12.11.2020
5532 Clear 2 1021 80 10000 2.6 200 11:40 12.11.2020
5533 Clear 1 1021 80 10000 1.5 220 10:58 12.11.2020
5534 Clear 1 1021 80 10000 1.5 220 10:36 12.11.2020
5535 Clear 2 1021 80 10000 2.1 200 09:58 12.11.2020
5536 Clear 3 1021 80 10000 2.1 200 09:38 12.11.2020
5537 Clear 3 1021 74 10000 2.6 190 09:18 12.11.2020
5538 Clear 3 1021 74 10000 2.6 190 08:40 12.11.2020
5539 Clear 3 1021 74 10000 2.6 190 08:40 12.11.2020
5540 Clear 3 1021 74 10000 2.6 190 08:21 12.11.2020
5541 Clear 2 1021 74 10000 1.5 210 07:56 12.11.2020
5542 Clear 4 1021 74 10000 1.5 210 07:37 12.11.2020
5543 Clear 4 1021 74 10000 2.1 210 06:52 12.11.2020
5544 Clear 4 1021 74 10000 2.1 210 06:27 12.11.2020
5545 Clear 5 1020 65 10000 1.5 220 03:50 12.11.2020
5546 Clear 5 1020 65 10000 1.5 220 03:20 12.11.2020
5547 Clear 6 1019 56 10000 4.1 250 00:45 12.11.2020
5548 Smoke 7 1019 52 10000 4.1 270 23:45 11.11.2020
5549 Smoke 7 1019 52 10000 4.1 270 23:25 11.11.2020
5550 Smoke 7 1018 48 10000 3.6 280 22:48 11.11.2020
5551 Smoke 7 1018 48 10000 3.6 280 22:24 11.11.2020
5552 Clear 7 1018 48 10000 4.6 260 22:24 11.11.2020
5553 Clear 8 1018 48 10000 4.6 260 21:59 11.11.2020
5554 Clear 8 1018 48 10000 4.6 260 21:40 11.11.2020
5555 Clear 8 1021 53 10000 2.75 272 21:20 11.11.2020
5556 Clear 8 1018 52 10000 4.1 260 20:54 11.11.2020
5557 Clear 8 1021 55 10000 2.75 272 20:36 11.11.2020
5558 Clouds 7 1018 56 10000 5.1 250 20:18 11.11.2020
5559 Clouds 6 1018 56 10000 5.1 250 19:41 11.11.2020
5560 Clouds 6 1018 56 10000 5.1 250 19:22 11.11.2020
5561 Clouds 5 1019 64 10000 5.1 270 18:47 11.11.2020
5562 Clouds 5 1019 64 10000 5.7 270 18:27 11.11.2020
5563 Clouds 4 1018 59 10000 5.7 270 17:41 11.11.2020
5564 Clear 4 1021 70 10000 4.31 282 17:21 11.11.2020
5565 Clouds 3 1018 64 10000 5.1 290 16:45 11.11.2020
5566 Clouds 3 1018 64 10000 5.1 290 16:27 11.11.2020
5567 Clouds 3 1017 69 10000 5.1 300 15:44 11.11.2020
5568 Clouds 2 1017 69 10000 5.1 300 15:26 11.11.2020
5569 Clouds 2 1016 69 10000 6.2 290 14:52 11.11.2020
5570 Clouds 2 1016 69 10000 6.2 290 14:52 11.11.2020
5571 Clouds 2 1016 69 10000 6.2 290 14:31 11.11.2020
5572 Clouds 2 1016 64 10000 6.2 280 13:52 11.11.2020
5573 Clouds 2 1016 64 10000 6.2 280 13:52 11.11.2020
5574 Clouds 2 1016 64 10000 6.2 280 13:32 11.11.2020
5575 Clouds 2 1015 69 10000 4.1 270 12:40 11.11.2020
5576 Clouds 2 1015 69 10000 4.1 270 12:20 11.11.2020
5577 Clouds 2 1014 69 10000 7.7 260 11:48 11.11.2020
5578 Clouds 2 1014 69 10000 7.7 260 11:26 11.11.2020
5579 Clouds 2 1013 74 10000 7.2 260 10:40 11.11.2020
5580 Clouds 2 1013 74 10000 7.2 260 10:40 11.11.2020
5581 Clouds 2 1013 74 10000 7.2 260 10:20 11.11.2020
5582 Clouds 3 1012 69 10000 6.2 270 09:44 11.11.2020
5583 Clouds 3 1012 69 10000 6.2 270 09:25 11.11.2020
5584 Clouds 4 1011 86 10000 8.2 260 08:46 11.11.2020
5585 Clouds 5 1011 86 10000 8.2 260 08:27 11.11.2020
5586 Clear 5 1013 75 10000 8.53 265 07:49 11.11.2020
5587 Clouds 6 1010 70 10000 11.3 260 07:18 11.11.2020
5588 Clouds 8 1009 58 10000 10.3 250 06:26 11.11.2020
5589 Clouds 14 1007 81 10000 2.24 42 03:57 11.11.2020
5590 Rain 16 1003 82 2414 12.9 230 01:31 11.11.2020
5591 Rain 22 1004 71 10000 1.34 13 00:28 11.11.2020
5592 Clouds 22 1003 64 10000 10.8 180 23:55 10.11.2020
5593 Clouds 22 1004 72 10000 2.68 105 23:24 10.11.2020
5594 Clouds 22 1005 72 10000 2.68 243 22:57 10.11.2020
5595 Clouds 22 1004 60 10000 11.3 190 22:27 10.11.2020
5596 Clouds 23 1004 60 10000 9.3 200 21:54 10.11.2020
5597 Clouds 23 1004 60 10000 9.3 200 21:36 10.11.2020
5598 Clouds 23 1005 56 10000 8.7 200 21:18 10.11.2020
5599 Clouds 23 1005 56 10000 8.7 200 20:42 10.11.2020
5600 Clouds 23 1005 56 10000 8.7 200 20:23 10.11.2020
5601 Clouds 23 1006 60 10000 7.7 200 19:50 10.11.2020
5602 Clouds 23 1006 60 10000 7.7 200 19:32 10.11.2020
5603 Clouds 23 1008 69 10000 1.34 275 18:59 10.11.2020
5604 Clouds 22 1007 64 10000 11.3 200 18:40 10.11.2020
5605 Clouds 22 1007 64 10000 8.2 190 18:19 10.11.2020
5606 Clouds 21 1009 68 10000 7.7 190 17:44 10.11.2020
5607 Clouds 21 1009 68 10000 7.7 190 17:26 10.11.2020
5608 Clouds 20 1009 72 10000 8.2 200 16:57 10.11.2020
5609 Clouds 20 1009 72 10000 8.2 200 16:37 10.11.2020
5610 Clouds 20 1010 77 10000 7.2 210 16:19 10.11.2020
5611 Clouds 20 1010 77 10000 7.2 210 15:45 10.11.2020
5612 Clouds 19 1010 77 10000 7.2 210 15:23 10.11.2020
5613 Clouds 19 1010 82 10000 8.2 200 14:42 10.11.2020
5614 Clouds 19 1010 82 10000 8.2 200 14:22 10.11.2020
5615 Clouds 20 1011 77 10000 5.7 200 13:57 10.11.2020
5616 Clouds 20 1011 77 10000 5.7 200 13:36 10.11.2020
5617 Clouds 20 1011 77 10000 6.7 200 13:18 10.11.2020
5618 Clouds 20 1011 77 10000 6.7 200 12:44 10.11.2020
5619 Clouds 20 1011 77 10000 6.7 200 12:24 10.11.2020
5620 Clouds 20 1011 72 10000 5.7 200 11:39 10.11.2020
5621 Clouds 20 1011 72 10000 5.7 200 11:20 10.11.2020
5622 Clouds 20 1012 72 10000 6.7 210 10:45 10.11.2020
5623 Clouds 20 1012 72 10000 6.7 210 10:27 10.11.2020
5624 Clouds 20 1013 68 10000 6.7 210 09:51 10.11.2020
5625 Clouds 20 1013 68 10000 6.7 210 09:51 10.11.2020
5626 Clouds 20 1013 68 10000 6.7 210 09:27 10.11.2020
5627 Clouds 20 1013 72 10000 6.7 200 08:59 10.11.2020
5628 Clouds 20 1013 72 10000 6.7 200 08:40 10.11.2020
5629 Clouds 20 1013 72 10000 6.7 200 08:22 10.11.2020
5630 Clouds 20 1013 64 10000 7.2 200 07:39 10.11.2020
5631 Clouds 20 1014 64 10000 6.7 210 07:19 10.11.2020
5632 Clouds 21 1014 64 10000 6.7 210 06:38 10.11.2020
5633 Clouds 21 1014 64 10000 5.7 190 05:33 10.11.2020
5634 Clouds 22 1015 60 10000 6.2 200 03:36 10.11.2020
5635 Clouds 22 1015 56 10000 3.1 190 01:41 10.11.2020
5636 Clouds 22 1017 66 10000 6.68 193 00:52 10.11.2020
5637 Clouds 23 1015 53 10000 7.7 190 23:47 09.11.2020
5638 Clouds 23 1015 53 10000 7.7 190 23:23 09.11.2020
5639 Clouds 24 1015 53 10000 6.2 190 22:42 09.11.2020
5640 Clouds 24 1015 53 10000 6.2 190 22:22 09.11.2020
5641 Clouds 24 1016 53 10000 7.2 210 21:44 09.11.2020
5642 Clouds 24 1016 53 10000 7.2 210 21:26 09.11.2020
5643 Clouds 24 1017 53 10000 6.7 200 20:42 09.11.2020
5644 Clouds 24 1017 53 10000 6.7 200 20:22 09.11.2020
5645 Clouds 23 1018 56 10000 6.7 190 19:49 09.11.2020
5646 Clouds 24 1018 56 10000 6.7 190 19:24 09.11.2020
5647 Clouds 23 1018 56 10000 7.2 170 18:58 09.11.2020
5648 Clouds 23 1018 56 10000 7.2 170 18:39 09.11.2020
5649 Clouds 23 1019 56 10000 6.2 200 18:19 09.11.2020
5650 Clouds 23 1019 56 10000 6.2 200 17:44 09.11.2020
5651 Clouds 22 1019 56 10000 6.2 200 17:25 09.11.2020
5652 Clouds 22 1021 65 10000 0.45 145 16:44 09.11.2020
5653 Clouds 21 1021 66 10000 1.34 186 16:23 09.11.2020
5654 Clouds 19 1020 68 10000 4.1 190 15:45 09.11.2020
5655 Clouds 18 1020 68 10000 4.1 190 15:25 09.11.2020
5656 Clouds 18 1020 67 10000 5.7 180 14:49 09.11.2020
5657 Clouds 18 1020 67 10000 5.7 180 14:28 09.11.2020
5658 Clouds 18 1020 63 10000 3.6 180 13:57 09.11.2020
5659 Clouds 18 1020 63 10000 3.6 180 13:37 09.11.2020
5660 Clouds 18 1020 59 10000 4.1 200 13:18 09.11.2020
5661 Clouds 18 1020 59 10000 4.1 200 12:41 09.11.2020
5662 Clouds 18 1020 59 10000 4.1 200 12:21 09.11.2020
5663 Clouds 19 1020 59 10000 4.1 190 11:43 09.11.2020
5664 Clouds 19 1020 59 10000 4.1 190 11:24 09.11.2020
5665 Clouds 19 1020 59 10000 2.6 180 10:57 09.11.2020
5666 Clouds 19 1020 59 10000 2.6 180 10:39 09.11.2020
5667 Clouds 19 1020 59 10000 2.6 180 10:21 09.11.2020
5668 Clouds 19 1021 63 10000 3.6 180 09:30 09.11.2020
5669 Clouds 19 1021 72 10000 2.1 150 08:50 09.11.2020
5670 Clouds 19 1021 72 10000 2.1 150 08:27 09.11.2020
5671 Clouds 19 1021 68 10000 1.5 180 07:44 09.11.2020
5672 Clouds 19 1021 68 10000 1.5 180 07:23 09.11.2020
5673 Clouds 19 1021 68 10000 3.1 170 06:51 09.11.2020
5674 Clouds 20 1021 60 10000 3.6 170 04:30 09.11.2020
5675 Clouds 22 1021 56 10000 4.6 170 01:57 09.11.2020
5676 Clouds 22 1021 56 10000 4.6 170 01:39 09.11.2020
5677 Clouds 23 1021 53 10000 3.1 190 00:40 09.11.2020
5678 Clouds 24 1021 50 10000 4.6 190 23:40 08.11.2020
5679 Clouds 24 1021 50 10000 4.6 190 23:22 08.11.2020
5680 Clouds 24 1021 50 10000 7.7 200 22:42 08.11.2020
5681 Clouds 24 1021 50 10000 7.7 200 22:21 08.11.2020
5682 Clouds 24 1021 53 10000 5.7 190 21:46 08.11.2020
5683 Clouds 24 1021 53 10000 5.7 190 21:21 08.11.2020
5684 Clouds 24 1022 50 10000 7.2 210 20:57 08.11.2020
5685 Clouds 24 1022 50 10000 7.2 210 20:38 08.11.2020
5686 Clouds 23 1022 50 10000 7.2 210 20:19 08.11.2020
5687 Clouds 23 1022 49 10000 5.7 200 19:45 08.11.2020
5688 Clouds 22 1022 49 10000 5.7 200 19:21 08.11.2020
5689 Clouds 22 1023 52 10000 4.1 180 18:56 08.11.2020
5690 Clouds 22 1023 52 10000 4.1 180 18:38 08.11.2020
5691 Clouds 21 1023 52 10000 4.1 180 18:20 08.11.2020
5692 Clear 20 1026 59 10000 4.87 181 17:42 08.11.2020
5693 Clouds 19 1023 55 10000 3.6 180 17:20 08.11.2020
5694 Clear 19 1026 63 10000 4.97 174 16:57 08.11.2020
5695 Clouds 18 1024 59 10000 2.6 180 16:37 08.11.2020
5696 Clouds 17 1024 59 10000 2.6 180 16:18 08.11.2020
5697 Clouds 16 1024 63 10000 3.1 190 15:44 08.11.2020
5698 Clouds 16 1024 63 10000 3.1 190 15:26 08.11.2020
5699 Clear 15 1026 72 10000 4.44 172 14:42 08.11.2020
5700 Clouds 14 1023 71 10000 2.6 180 14:23 08.11.2020
5701 Clouds 14 1023 71 10000 2.6 180 14:23 08.11.2020
5702 Clear 14 1023 71 10000 1.5 170 13:50 08.11.2020
5703 Clear 14 1023 71 10000 1.5 170 13:24 08.11.2020
5704 Clear 14 1023 71 10000 1.5 170 13:24 08.11.2020
5705 Clear 14 1022 71 10000 3.7 180 12:47 08.11.2020
5706 Clear 14 1022 71 10000 3.92 175 12:29 08.11.2020
5707 Clear 14 1022 71 10000 2.1 180 11:59 08.11.2020
5708 Clear 14 1022 71 10000 2.1 180 11:40 08.11.2020
5709 Clear 14 1022 71 10000 2.1 180 11:22 08.11.2020
5710 Clear 14 1021 67 10000 3.6 180 10:51 08.11.2020
5711 Clear 14 1021 67 10000 3.6 180 10:20 08.11.2020
5712 Clear 14 1021 67 10000 3.1 180 09:59 08.11.2020
5713 Clear 15 1021 67 10000 3.1 180 09:40 08.11.2020
5714 Clear 15 1021 67 10000 3.1 180 09:18 08.11.2020
5715 Clear 15 1021 59 10000 4.1 180 08:41 08.11.2020
5716 Clear 15 1021 59 10000 4.1 180 08:21 08.11.2020
5717 Clear 15 1021 59 10000 4.1 180 08:21 08.11.2020
5718 Clear 15 1021 59 10000 3.1 180 07:53 08.11.2020
5719 Clear 16 1021 59 10000 3.1 180 07:30 08.11.2020
5720 Clear 16 1021 59 10000 4.1 180 06:26 08.11.2020
5721 Clear 16 1021 59 10000 3.1 180 05:53 08.11.2020
5722 Clear 16 1021 55 10000 3.1 180 04:50 08.11.2020
5723 Clear 18 1020 48 10000 3.1 170 01:54 08.11.2020
5724 Clear 19 1020 48 10000 3.1 170 01:19 08.11.2020
5725 Clouds 20 1020 42 10000 3.1 180 00:30 08.11.2020
5726 Clouds 20 1020 37 10000 5.1 210 23:50 07.11.2020
5727 Clear 21 1022 46 10000 4.36 202 23:30 07.11.2020
5728 Clouds 22 1020 35 10000 6.2 210 22:47 07.11.2020
5729 Clouds 22 1020 35 10000 6.2 210 22:28 07.11.2020
5730 Clouds 22 1020 37 10000 5.7 200 21:56 07.11.2020
5731 Clear 22 1022 41 10000 4.93 208 21:38 07.11.2020
5732 Clouds 22 1020 37 10000 5.7 200 21:18 07.11.2020
5733 Clouds 22 1021 40 10000 5.1 210 20:44 07.11.2020
5734 Clouds 22 1021 40 10000 5.1 210 20:25 07.11.2020
5735 Clouds 21 1021 43 10000 5.1 200 19:45 07.11.2020
5736 Clouds 21 1021 43 10000 5.1 200 19:27 07.11.2020
5737 Clouds 20 1022 48 10000 5.7 200 18:43 07.11.2020
5738 Clouds 19 1022 48 10000 5.7 200 18:24 07.11.2020
5739 Clouds 19 1022 48 10000 5.1 220 17:47 07.11.2020
5740 Clouds 18 1022 48 10000 5.1 220 17:28 07.11.2020
5741 Clouds 17 1023 55 10000 5.7 210 16:46 07.11.2020
5742 Clouds 16 1023 55 10000 5.7 210 16:25 07.11.2020
5743 Clear 15 1025 63 10000 0.45 257 15:57 07.11.2020
5744 Clear 14 1025 65 10000 0.45 212 15:39 07.11.2020
5745 Clouds 14 1022 62 10000 4.6 200 15:19 07.11.2020
5746 Clouds 13 1022 66 10000 3.6 200 14:41 07.11.2020
5747 Clouds 12 1022 66 10000 3.6 200 14:21 07.11.2020
5748 Clouds 12 1021 66 10000 4.1 210 13:46 07.11.2020
5749 Clouds 12 1021 66 10000 4.1 210 13:25 07.11.2020
5750 Clouds 12 1021 66 10000 4.6 220 12:40 07.11.2020
5751 Clouds 13 1021 66 10000 4.6 220 12:18 07.11.2020
5752 Clouds 13 1021 66 10000 4.6 220 12:18 07.11.2020
5753 Clouds 13 1021 62 10000 4.6 210 11:39 07.11.2020
5754 Clouds 13 1021 62 10000 4.6 210 11:20 07.11.2020
5755 Clouds 13 1021 62 10000 3.6 200 10:45 07.11.2020
5756 Clouds 13 1021 62 10000 3.6 200 10:24 07.11.2020
5757 Clouds 14 1021 62 10000 3.1 200 09:49 07.11.2020
5758 Clouds 14 1021 62 10000 3.1 200 09:25 07.11.2020
5759 Clouds 14 1021 58 10000 4.1 210 08:51 07.11.2020
5760 Clouds 14 1021 58 10000 4.1 210 08:33 07.11.2020
5761 Clouds 14 1021 58 10000 4.6 200 07:49 07.11.2020
5762 Clouds 15 1021 55 10000 4.6 210 07:18 07.11.2020
5763 Clouds 16 1021 55 10000 4.6 210 06:43 07.11.2020
5764 Clouds 18 1021 52 10000 5.7 210 04:32 07.11.2020
5765 Clouds 18 1020 52 10000 5.7 200 03:22 07.11.2020
5766 Clouds 20 1020 46 10000 4.1 210 01:28 07.11.2020
5767 Clouds 20 1020 46 10000 4.1 210 01:28 07.11.2020
5768 Clouds 20 1020 43 10000 3.6 210 00:40 07.11.2020
5769 Clouds 23 1020 40 10000 5.7 220 23:49 06.11.2020
5770 Clouds 22 1020 40 10000 5.7 220 23:19 06.11.2020
5771 Clouds 23 1020 40 10000 5.7 220 22:41 06.11.2020
5772 Clouds 23 1020 40 10000 5.7 220 22:19 06.11.2020
5773 Clouds 23 1020 40 10000 7.2 230 22:19 06.11.2020
5774 Clouds 23 1020 40 10000 7.2 230 21:44 06.11.2020
5775 Clouds 23 1021 40 10000 5.7 220 21:21 06.11.2020
5776 Clouds 23 1021 40 10000 5.7 220 20:51 06.11.2020
5777 Clouds 23 1022 43 10000 6.2 210 20:22 06.11.2020
5778 Clouds 22 1022 43 10000 6.2 210 19:55 06.11.2020
5779 Clouds 22 1022 43 10000 6.2 210 19:37 06.11.2020
5780 Clouds 22 1022 43 10000 6.2 210 19:19 06.11.2020
5781 Clouds 20 1022 48 10000 3.6 210 18:44 06.11.2020
5782 Clouds 19 1022 48 10000 3.6 210 18:22 06.11.2020
5783 Clear 19 1025 55 10000 3.77 216 17:50 06.11.2020
5784 Clear 18 1025 57 10000 4.05 214 17:25 06.11.2020
5785 Clouds 16 1023 62 10000 4.1 210 16:48 06.11.2020
5786 Clouds 15 1023 62 10000 4.1 210 16:25 06.11.2020
5787 Clear 14 1025 66 10000 4.1 213 15:47 06.11.2020
5788 Clouds 13 1022 71 10000 3.6 210 15:28 06.11.2020
5789 Clear 12 1025 74 10000 3.86 213 14:53 06.11.2020
5790 Clouds 11 1022 81 10000 3.1 220 14:25 06.11.2020
5791 Clouds 11 1022 76 10000 3.6 190 13:45 06.11.2020
5792 Clouds 11 1022 76 10000 3.6 190 13:24 06.11.2020
5793 Clouds 11 1022 76 10000 3.1 210 12:45 06.11.2020
5794 Clouds 11 1022 76 10000 3.1 210 12:23 06.11.2020
5795 Clouds 11 1021 71 10000 3.1 210 11:49 06.11.2020
5796 Clouds 12 1021 71 10000 3.1 210 11:28 06.11.2020
5797 Clear 12 1021 71 10000 3.1 210 10:44 06.11.2020
5798 Clear 12 1021 71 10000 3.1 210 10:25 06.11.2020
5799 Clear 12 1021 66 10000 3.6 210 09:49 06.11.2020
5800 Clear 13 1021 66 10000 3.6 210 09:22 06.11.2020
5801 Clear 13 1021 66 10000 3.1 210 08:51 06.11.2020
5802 Clear 13 1021 66 10000 3.1 210 08:29 06.11.2020
5803 Clear 13 1021 62 10000 4.1 220 07:53 06.11.2020
5804 Clear 13 1021 62 10000 4.1 220 07:34 06.11.2020
5805 Clear 14 1021 58 10000 4.1 210 06:58 06.11.2020
5806 Clear 14 1021 58 10000 4.1 210 06:24 06.11.2020
5807 Clear 15 1021 58 10000 4.1 210 04:42 06.11.2020
5808 Clouds 18 1020 45 10000 3.6 230 01:22 06.11.2020
5809 Clouds 19 1020 45 10000 3.6 230 00:21 06.11.2020
5810 Clouds 21 1019 37 10000 6.2 220 23:32 05.11.2020
5811 Clouds 22 1019 37 10000 6.2 220 22:58 05.11.2020
5812 Clouds 22 1019 37 10000 6.2 220 22:39 05.11.2020
5813 Clouds 22 1020 35 10000 6.7 230 22:20 05.11.2020
5814 Clouds 22 1020 35 10000 6.7 230 21:43 05.11.2020
5815 Clouds 22 1020 35 10000 6.7 230 21:22 05.11.2020
5816 Clouds 21 1020 37 10000 6.7 250 20:55 05.11.2020
5817 Clouds 21 1020 37 10000 6.7 250 20:37 05.11.2020
5818 Clouds 20 1020 42 10000 6.2 230 20:18 05.11.2020
5819 Clouds 20 1020 42 10000 6.2 230 19:41 05.11.2020
5820 Clouds 20 1020 42 10000 6.2 230 19:23 05.11.2020
5821 Clouds 19 1021 45 10000 5.1 250 18:46 05.11.2020
5822 Clouds 18 1021 45 10000 5.1 250 18:26 05.11.2020
5823 Clouds 17 1021 45 10000 7.2 250 17:52 05.11.2020
5824 Clouds 17 1021 45 10000 7.2 250 17:31 05.11.2020
5825 Clouds 16 1021 48 10000 4.6 240 16:59 05.11.2020
5826 Clouds 16 1021 48 10000 4.6 240 16:41 05.11.2020
5827 Clouds 16 1021 48 10000 4.6 240 16:20 05.11.2020
5828 Clouds 15 1023 56 10000 5.4 233 15:46 05.11.2020
5829 Clouds 15 1020 54 10000 4.1 220 15:22 05.11.2020
5830 Clouds 15 1020 54 10000 5.1 220 14:46 05.11.2020
5831 Clouds 14 1020 54 10000 5.1 220 14:27 05.11.2020
5832 Clouds 14 1019 54 10000 5.7 220 13:49 05.11.2020
5833 Clouds 14 1019 54 10000 5.7 220 13:30 05.11.2020
5834 Clouds 14 1019 54 10000 5.1 220 12:53 05.11.2020
5835 Clouds 14 1019 54 10000 5.1 220 12:29 05.11.2020
5836 Clouds 14 1019 54 10000 5.7 220 11:55 05.11.2020
5837 Clouds 14 1019 54 10000 5.7 220 11:37 05.11.2020
5838 Clouds 15 1019 54 10000 5.1 210 11:18 05.11.2020
5839 Clouds 15 1019 54 10000 5.1 210 10:41 05.11.2020
5840 Clouds 15 1019 54 10000 5.1 210 10:22 05.11.2020
5841 Clouds 16 1019 51 10000 5.1 210 09:45 05.11.2020
5842 Clouds 15 1019 51 10000 5.1 210 09:22 05.11.2020
5843 Clouds 16 1019 48 10000 5.7 210 08:44 05.11.2020
5844 Clouds 16 1019 48 10000 5.7 210 08:26 05.11.2020
5845 Clouds 16 1019 48 10000 5.1 210 07:41 05.11.2020
5846 Clouds 17 1019 48 10000 5.1 210 07:20 05.11.2020
5847 Clouds 17 1019 45 10000 6.2 220 06:41 05.11.2020
5848 Clouds 17 1019 45 10000 6.2 220 05:44 05.11.2020
5849 Clouds 20 1018 37 10000 5.7 220 01:35 05.11.2020
5850 Clouds 22 1017 30 10000 6.2 200 00:33 05.11.2020
5851 Clouds 23 1017 28 10000 5.7 200 23:44 04.11.2020
5852 Clouds 23 1017 28 10000 5.7 200 23:26 04.11.2020
5853 Clouds 23 1017 28 10000 8.7 220 22:52 04.11.2020
5854 Clouds 23 1017 28 10000 8.7 220 22:26 04.11.2020
5855 Clouds 23 1017 28 10000 9.3 210 21:58 04.11.2020
5856 Clouds 23 1017 28 10000 9.3 210 21:37 04.11.2020
5857 Clouds 23 1018 33 10000 6.7 210 21:18 04.11.2020
5858 Clouds 23 1018 33 10000 6.7 210 20:43 04.11.2020
5859 Clouds 22 1018 33 10000 6.7 210 20:25 04.11.2020
5860 Clouds 21 1018 35 10000 7.7 210 19:49 04.11.2020
5861 Clouds 21 1018 35 10000 7.7 210 19:29 04.11.2020
5862 Clouds 20 1019 39 10000 6.7 220 18:55 04.11.2020
5863 Clouds 20 1019 39 10000 6.7 220 18:55 04.11.2020
5864 Clouds 20 1019 39 10000 6.7 220 18:37 04.11.2020
5865 Clouds 18 1019 48 10000 5.7 220 18:18 04.11.2020
5866 Clear 18 1022 50 10000 0.89 64 17:40 04.11.2020
5867 Clouds 17 1019 48 10000 5.7 220 17:21 04.11.2020
5868 Clear 15 1020 54 10000 4.1 220 16:38 04.11.2020
5869 Clear 15 1022 58 10000 6.19 209 16:20 04.11.2020
5870 Clear 14 1022 62 10000 6.19 209 15:47 04.11.2020
5871 Clear 13 1022 64 10000 6.13 211 15:25 04.11.2020
5872 Clear 11 1019 70 10000 4.1 200 14:57 04.11.2020
5873 Clear 11 1019 70 10000 4.1 200 14:39 04.11.2020
5874 Clear 10 1019 70 10000 4.1 200 14:19 04.11.2020
5875 Clear 11 1018 70 10000 4.1 200 13:42 04.11.2020
5876 Clear 10 1018 70 10000 4.1 200 13:20 04.11.2020
5877 Clear 11 1018 66 10000 4.6 210 12:51 04.11.2020
5878 Clear 11 1018 66 10000 4.6 210 12:27 04.11.2020
5879 Clear 11 1018 66 10000 4.6 210 11:56 04.11.2020
5880 Clear 11 1018 66 10000 4.6 210 11:56 04.11.2020
5881 Clear 11 1018 66 10000 4.6 210 11:37 04.11.2020
5882 Clear 11 1018 66 10000 4.6 210 11:19 04.11.2020
5883 Clear 11 1018 62 10000 5.7 210 10:46 04.11.2020
5884 Clear 11 1018 62 10000 5.7 210 10:22 04.11.2020
5885 Clear 11 1018 62 10000 6.2 210 09:51 04.11.2020
5886 Clear 12 1018 62 10000 6.2 210 09:23 04.11.2020
5887 Clear 12 1018 62 10000 4.6 210 08:46 04.11.2020
5888 Clear 12 1018 62 10000 4.6 210 08:19 04.11.2020
5889 Clear 13 1018 58 10000 5.1 210 07:50 04.11.2020
5890 Clear 13 1018 58 10000 5.1 210 07:27 04.11.2020
5891 Clear 13 1018 50 10000 4.6 210 06:45 04.11.2020
5892 Clear 14 1018 50 10000 4.6 210 06:26 04.11.2020
5893 Clear 16 1017 38 10000 4.6 200 02:32 04.11.2020
5894 Clear 17 1017 34 10000 4.1 200 01:49 04.11.2020
5895 Clear 18 1017 34 10000 4.1 210 00:43 04.11.2020
5896 Clear 20 1017 28 10000 4.6 210 23:40 03.11.2020
5897 Clear 20 1017 28 10000 4.6 210 23:20 03.11.2020
5898 Clear 21 1017 26 10000 5.7 210 22:41 03.11.2020
5899 Clear 21 1017 26 10000 5.7 210 22:20 03.11.2020
5900 Clear 21 1017 26 10000 5.7 220 21:56 03.11.2020
5901 Clear 21 1017 26 10000 5.7 220 21:37 03.11.2020
5902 Clear 20 1017 26 10000 5.7 220 21:18 03.11.2020
5903 Clear 20 1018 29 10000 6.7 210 20:42 03.11.2020
5904 Clear 19 1018 29 10000 6.7 210 20:22 03.11.2020
5905 Clear 19 1019 39 10000 4.6 240 19:43 03.11.2020
5906 Clear 17 1019 41 10000 4.6 240 19:20 03.11.2020
5907 Clear 17 1019 48 10000 5.1 210 18:44 03.11.2020
5908 Clear 15 1019 52 10000 5.1 210 18:20 03.11.2020
5909 Clouds 14 1020 52 10000 4.1 240 17:56 03.11.2020
5910 Clouds 14 1020 52 10000 4.1 240 17:37 03.11.2020
5911 Clouds 12 1020 56 10000 4.1 230 17:18 03.11.2020
5912 Clouds 11 1020 56 10000 4.1 230 16:43 03.11.2020
5913 Clouds 11 1020 59 10000 4.1 230 16:21 03.11.2020
5914 Clear 9 1023 55 10000 4.11 223 15:41 03.11.2020
5915 Clouds 8 1020 56 10000 4.1 250 15:23 03.11.2020
5916 Clouds 6 1023 68 10000 3.58 229 14:49 03.11.2020
5917 Clouds 5 1019 64 10000 2.6 230 14:30 03.11.2020
5918 Clouds 4 1019 64 10000 2.1 210 13:46 03.11.2020
5919 Clouds 4 1019 64 10000 2.1 210 13:23 03.11.2020
5920 Clear 4 1019 60 10000 2.6 220 12:59 03.11.2020
5921 Clear 4 1019 60 10000 2.6 220 12:37 03.11.2020
5922 Clear 4 1019 60 10000 2.6 210 12:18 03.11.2020
5923 Clear 4 1019 60 10000 2.6 210 11:41 03.11.2020
5924 Clear 4 1019 60 10000 2.6 210 11:20 03.11.2020
5925 Clear 5 1019 60 10000 2.6 220 10:39 03.11.2020
5926 Clear 5 1019 60 10000 2.6 220 10:21 03.11.2020
5927 Clear 5 1019 56 10000 2.6 250 09:51 03.11.2020
5928 Clear 5 1019 56 10000 2.6 250 09:33 03.11.2020
5929 Clear 5 1019 52 10000 3.6 250 08:56 03.11.2020
5930 Clear 5 1019 52 10000 3.6 250 08:35 03.11.2020
5931 Clear 6 1019 48 10000 4.1 250 07:49 03.11.2020
5932 Clear 6 1019 48 10000 4.1 250 07:22 03.11.2020
5933 Clear 7 1019 45 10000 6.7 250 06:46 03.11.2020
5934 Clear 8 1019 45 10000 5.1 230 05:38 03.11.2020
5935 Clouds 8 1020 36 10000 4.1 220 02:43 03.11.2020
5936 Clouds 9 1020 33 10000 4.6 230 00:41 03.11.2020
5937 Clouds 9 1020 29 10000 5.1 240 23:52 02.11.2020
5938 Clouds 10 1020 29 10000 5.1 240 23:33 02.11.2020
5939 Clouds 10 1020 29 10000 8.2 220 22:55 02.11.2020
5940 Clouds 10 1020 29 10000 8.2 220 22:36 02.11.2020
5941 Clouds 10 1022 27 10000 8.7 240 21:59 02.11.2020
5942 Clouds 10 1022 27 10000 8.7 240 21:38 02.11.2020
5943 Clouds 10 1022 27 10000 8.7 240 21:19 02.11.2020
5944 Clouds 9 1023 29 10000 9.3 240 20:40 02.11.2020
5945 Clouds 9 1023 29 10000 9.3 240 20:20 02.11.2020
5946 Clouds 9 1024 28 10000 6.7 240 19:48 02.11.2020
5947 Clouds 8 1024 28 10000 6.7 240 19:48 02.11.2020
5948 Clouds 8 1024 28 10000 6.7 240 19:27 02.11.2020
5949 Clouds 7 1026 30 10000 6.7 230 18:56 02.11.2020
5950 Clouds 7 1026 30 10000 6.7 230 18:56 02.11.2020
5951 Clouds 7 1026 30 10000 6.7 230 18:38 02.11.2020
5952 Clouds 6 1026 30 10000 6.7 230 18:19 02.11.2020
5953 Clouds 5 1027 35 10000 6.7 240 17:42 02.11.2020
5954 Clouds 4 1027 35 10000 6.7 240 17:24 02.11.2020
5955 Clear 4 1031 41 10000 6.43 237 16:51 02.11.2020
5956 Clouds 3 1028 47 10000 6.7 240 16:32 02.11.2020
5957 Clear 2 1032 49 10000 4.9 235 15:57 02.11.2020
5958 Clear 1 1032 52 10000 4.9 235 15:39 02.11.2020
5959 Clouds 0 1028 54 10000 3.1 250 15:20 02.11.2020
5960 Clouds -1 1028 58 10000 3.1 240 14:49 02.11.2020
5961 Clouds -1 1029 54 10000 3.1 260 14:19 02.11.2020
5962 Clouds -1 1029 54 10000 3.1 260 13:51 02.11.2020
5963 Clouds -1 1029 54 10000 3.1 260 13:22 02.11.2020
5964 Clouds -1 1028 54 10000 3.1 270 12:52 02.11.2020
5965 Clouds -1 1028 54 10000 3.1 270 12:28 02.11.2020
5966 Clouds -1 1028 54 10000 2.6 280 11:46 02.11.2020
5967 Clouds -1 1028 54 10000 2.6 280 11:22 02.11.2020
5968 Clouds -1 1029 54 10000 4.1 290 10:59 02.11.2020
5969 Clouds -1 1029 54 10000 4.1 290 10:39 02.11.2020
5970 Clouds -1 1029 54 10000 4.1 290 10:18 02.11.2020
5971 Clouds -1 1029 58 10000 3.6 290 09:42 02.11.2020
5972 Clouds -2 1029 58 10000 3.6 290 09:21 02.11.2020
5973 Clear -1 1029 54 10000 2.6 290 08:39 02.11.2020
5974 Clear -1 1029 54 10000 3.1 300 08:19 02.11.2020
5975 Clear -1 1029 54 10000 3.1 300 07:43 02.11.2020
5976 Clear 0 1029 73 10000 3.6 300 06:48 02.11.2020
5977 Clear 0 1029 72 10000 3.6 300 06:22 02.11.2020
5978 Clear 3 1028 37 10000 6.7 310 01:35 02.11.2020
5979 Clouds 3 1027 35 10000 6.2 310 00:42 02.11.2020
5980 Clouds 4 1027 35 10000 6.2 310 00:23 02.11.2020
5981 Clouds 4 1030 42 10000 9.07 317 23:40 01.11.2020
5982 Clouds 4 1026 32 10000 8.2 320 23:21 01.11.2020
5983 Clouds 5 1029 40 10000 0.89 14 22:45 01.11.2020
5984 Clouds 5 1028 40 10000 9.24 315 22:23 01.11.2020
5985 Clouds 5 1024 35 10000 8.7 290 21:46 01.11.2020
5986 Clouds 5 1024 35 10000 8.7 290 21:27 01.11.2020
5987 Clouds 5 1023 32 10000 11.8 330 20:52 01.11.2020
5988 Clouds 5 1023 32 10000 11.8 330 20:30 01.11.2020
5989 Clouds 4 1022 38 10000 9.3 300 19:59 01.11.2020
5990 Clouds 4 1022 38 10000 9.3 300 19:41 01.11.2020
5991 Clouds 4 1022 38 10000 9.3 300 19:21 01.11.2020
5992 Clouds 3 1021 37 10000 10.3 310 18:40 01.11.2020
5993 Clouds 3 1021 37 10000 10.3 310 18:19 01.11.2020
5994 Clouds 3 1020 40 10000 12.3 320 17:56 01.11.2020
5995 Clouds 3 1020 40 10000 12.3 320 17:37 01.11.2020
5996 Clouds 3 1019 47 10000 7.7 300 17:18 01.11.2020
5997 Clouds 2 1019 47 10000 7.7 300 16:39 01.11.2020
5998 Clouds 2 1018 51 10000 8.2 290 16:19 01.11.2020
5999 Clouds 2 1018 51 10000 8.2 290 15:40 01.11.2020
6000 Clouds 2 1018 51 10000 8.2 290 15:21 01.11.2020
6001 Clouds 2 1016 55 10000 7.7 280 14:54 01.11.2020
6002 Clouds 2 1016 55 10000 7.7 280 14:36 01.11.2020
6003 Clouds 2 1016 55 10000 7.7 280 14:18 01.11.2020
6004 Clouds 2 1015 47 10000 10.3 290 13:44 01.11.2020
6005 Clouds 2 1015 47 10000 10.3 290 13:26 01.11.2020
6006 Clear 3 1014 47 10000 8.7 290 12:43 01.11.2020
6007 Clear 3 1014 47 10000 8.7 290 12:22 01.11.2020
6008 Clouds 3 1013 53 10000 6.26 337 11:50 01.11.2020
6009 Clouds 5 1012 42 10000 12.9 280 11:19 01.11.2020
6010 Clouds 7 1012 42 10000 12.9 280 10:43 01.11.2020
6011 Clouds 7 1012 42 10000 12.9 280 10:24 01.11.2020
6012 Clouds 8 1014 49 10000 0.89 311 09:53 01.11.2020
6013 Clouds 8 1014 49 10000 1.79 189 09:34 01.11.2020
6014 Clouds 12 1011 50 10000 8.7 290 08:46 01.11.2020
6015 Clouds 11 1010 58 10000 7.2 250 08:19 01.11.2020
6016 Clouds 12 1010 58 10000 7.2 250 07:35 01.11.2020
6017 Clouds 12 1013 54 10000 8.2 200 03:26 01.11.2020
6018 Clouds 13 1014 50 10000 7.7 190 01:47 01.11.2020
6019 Clouds 13 1014 44 10000 6.7 180 00:23 01.11.2020
6020 Clear 14 1018 48 10000 7.42 193 23:25 31.10.2020
6021 Clear 14 1016 38 10000 6.7 190 22:56 31.10.2020
6022 Clear 15 1016 38 10000 6.7 190 22:36 31.10.2020
6023 Clear 15 1016 38 10000 6.7 190 22:18 31.10.2020
6024 Clear 15 1017 41 10000 9.3 200 21:43 31.10.2020
6025 Clear 14 1021 46 10000 1.79 19 21:18 31.10.2020
6026 Clear 14 1022 46 10000 0.45 212 20:38 31.10.2020
6027 Clear 14 1022 46 10000 7.15 193 20:18 31.10.2020
6028 Clear 13 1021 46 10000 9.3 190 19:40 31.10.2020
6029 Clear 12 1021 47 10000 9.3 190 19:20 31.10.2020
6030 Clouds 11 1023 47 10000 5.1 190 18:47 31.10.2020
6031 Clouds 11 1023 51 10000 5.1 190 18:23 31.10.2020
6032 Clouds 10 1024 49 10000 5.7 190 17:40 31.10.2020
6033 Clear 9 1027 57 10000 1.34 39 17:22 31.10.2020
6034 Clear 8 1028 59 10000 1.34 168 16:43 31.10.2020
6035 Clear 7 1028 60 10000 1.34 19 16:25 31.10.2020
6036 Clear 5 1029 64 10000 6.68 183 15:45 31.10.2020
6037 Clear 4 1029 67 10000 6.42 176 15:24 31.10.2020
6038 Clear 2 1025 74 10000 4.1 170 14:49 31.10.2020
6039 Clear 2 1025 74 10000 4.1 170 14:31 31.10.2020
6040 Clear 2 1026 69 10000 3.6 160 13:50 31.10.2020
6041 Clear 2 1026 69 10000 3.6 160 13:26 31.10.2020
6042 Clear 2 1026 69 10000 3.1 160 12:43 31.10.2020
6043 Clear 1 1027 64 10000 3.1 160 11:51 31.10.2020
6044 Clear 1 1027 64 10000 3.1 160 11:30 31.10.2020
6045 Clouds 1 1027 69 10000 3.1 160 10:59 31.10.2020
6046 Clouds 1 1027 69 10000 3.1 160 10:36 31.10.2020
6047 Clear 1 1027 74 10000 2.1 160 09:47 31.10.2020
6048 Clear 1 1027 73 10000 2.1 160 09:28 31.10.2020
6049 Clear 1 1028 69 10000 1.5 190 08:47 31.10.2020
6050 Clear 1 1028 69 10000 2.1 180 08:18 31.10.2020
6051 Clear 2 1028 69 10000 2.1 180 07:28 31.10.2020
6052 Clear 2 1027 64 10000 2.32 133 06:42 31.10.2020
6053 Clear 2 1027 64 10000 1.86 112 06:20 31.10.2020
6054 Clear 3 1027 59 10000 3.1 60 03:46 31.10.2020
6055 Clear 3 1027 59 10000 3.6 90 01:44 31.10.2020
6056 Clouds 3 1026 55 10000 3.6 80 00:49 31.10.2020
6057 Clouds 3 1026 48 10000 4.1 100 23:53 30.10.2020
6058 Clouds 4 1026 48 10000 4.1 100 23:28 30.10.2020
6059 Clouds 4 1026 44 10000 4.6 80 22:56 30.10.2020
6060 Clouds 4 1026 44 10000 4.6 80 22:37 30.10.2020
6061 Clouds 5 1026 38 10000 1.5 140 22:18 30.10.2020
6062 Clouds 5 1026 38 10000 1.5 140 21:42 30.10.2020
6063 Clouds 6 1026 38 10000 1.5 140 21:22 30.10.2020
6064 Clouds 6 1026 38 10000 2.6 0 20:44 30.10.2020
6065 Clouds 6 1026 38 10000 2.6 0 20:25 30.10.2020
6066 Clouds 6 1026 38 10000 2.6 330 19:54 30.10.2020
6067 Clouds 5 1026 38 10000 2.6 330 19:22 30.10.2020
6068 Clouds 5 1026 41 10000 4.1 340 18:53 30.10.2020
6069 Clouds 5 1026 41 10000 4.1 340 18:34 30.10.2020
6070 Clouds 4 1026 44 10000 5.1 320 17:59 30.10.2020
6071 Clouds 4 1026 44 10000 5.1 320 17:40 30.10.2020
6072 Clouds 4 1026 51 10000 4.6 320 17:20 30.10.2020
6073 Clouds 3 1026 51 10000 4.6 320 16:49 30.10.2020
6074 Clouds 3 1026 51 10000 4.6 320 16:24 30.10.2020
6075 Clouds 2 1025 59 10000 3.1 320 15:41 30.10.2020
6076 Clouds 1 1024 74 10000 2.1 320 15:21 30.10.2020
6077 Clouds 1 1024 74 10000 2.1 320 14:55 30.10.2020
6078 Clouds 0 1024 74 10000 2.1 320 14:36 30.10.2020
6079 Clouds 0 1023 68 10000 2.1 300 14:18 30.10.2020
6080 Clouds 0 1023 68 10000 2.1 300 13:41 30.10.2020
6081 Clouds 0 1022 76 10000 3.1 330 13:19 30.10.2020
6082 Clouds 0 1022 77 10000 3.1 330 12:41 30.10.2020
6083 Clouds 0 1022 75 10000 3.1 330 12:21 30.10.2020
6084 Clouds 0 1022 69 10000 5.23 326 11:44 30.10.2020
6085 Clouds 0 1021 59 10000 4.1 330 11:20 30.10.2020
6086 Clouds 0 1021 59 10000 4.1 330 10:50 30.10.2020
6087 Clouds 1 1021 59 10000 4.1 330 10:25 30.10.2020
6088 Clouds 1 1021 59 10000 4.1 320 09:46 30.10.2020
6089 Clouds 1 1021 59 10000 4.1 320 09:24 30.10.2020
6090 Clouds 1 1020 55 10000 4.6 330 08:55 30.10.2020
6091 Clouds 2 1020 55 10000 4.6 330 08:31 30.10.2020
6092 Clouds 2 1020 55 10000 5.1 320 07:51 30.10.2020
6093 Clouds 2 1020 55 10000 5.1 320 07:33 30.10.2020
6094 Clouds 2 1019 55 10000 4.6 310 06:47 30.10.2020
6095 Clouds 3 1019 51 10000 6.7 320 05:22 30.10.2020
6096 Clouds 4 1017 64 10000 5.7 360 02:30 30.10.2020
6097 Clouds 5 1015 60 10000 9.8 10 00:46 30.10.2020
6098 Clouds 5 1018 75 10000 2.24 58 23:54 29.10.2020
6099 Clouds 5 1015 70 10000 7.7 10 23:36 29.10.2020
6100 Clouds 6 1015 70 10000 7.7 10 23:18 29.10.2020
6101 Clouds 6 1017 76 10000 2.24 317 22:42 29.10.2020
6102 Clouds 6 1017 75 10000 1.34 271 22:23 29.10.2020
6103 Clouds 6 1016 76 10000 0.89 212 21:40 29.10.2020
6104 Clouds 7 1013 70 10000 8.2 20 21:20 29.10.2020
6105 Clouds 7 1016 74 10000 1.34 310 20:42 29.10.2020
6106 Clouds 8 1012 65 10000 10.3 30 20:20 29.10.2020
6107 Clouds 8 1012 65 10000 10.3 30 19:43 29.10.2020
6108 Clouds 8 1012 65 10000 10.3 30 19:22 29.10.2020
6109 Clouds 8 1015 73 10000 8.31 11 18:56 29.10.2020
6110 Clouds 8 1015 74 10000 0.89 269 18:37 29.10.2020
6111 Clouds 8 1011 70 10000 9.3 40 18:18 29.10.2020
6112 Clouds 9 1011 70 10000 9.3 40 17:41 29.10.2020
6113 Clouds 9 1011 70 10000 9.3 40 17:21 29.10.2020
6114 Clouds 9 1011 81 10000 5.1 20 16:47 29.10.2020
6115 Clouds 9 1011 81 10000 5.1 20 16:21 29.10.2020
6116 Clouds 8 1011 70 10000 7.2 20 15:57 29.10.2020
6117 Clouds 8 1011 70 10000 7.2 20 15:38 29.10.2020
6118 Clouds 8 1010 75 10000 7.7 30 15:19 29.10.2020
6119 Clouds 8 1010 75 10000 7.7 30 14:46 29.10.2020
6120 Clouds 8 1010 75 10000 7.7 30 14:23 29.10.2020
6121 Clouds 8 1011 75 10000 6.7 20 13:48 29.10.2020
6122 Clouds 8 1011 75 10000 6.7 20 13:28 29.10.2020
6123 Clouds 8 1011 75 10000 6.2 10 12:57 29.10.2020
6124 Clouds 8 1011 75 10000 6.2 10 12:39 29.10.2020
6125 Clouds 8 1010 56 10000 4.6 20 12:18 29.10.2020
6126 Clouds 7 1010 56 10000 4.6 20 11:42 29.10.2020
6127 Clouds 7 1010 56 10000 4.6 20 11:24 29.10.2020
6128 Clouds 6 1011 60 10000 2.6 340 10:37 29.10.2020
6129 Clouds 6 1011 60 10000 2.6 340 10:19 29.10.2020
6130 Clouds 6 1011 57 10000 3.1 330 09:50 29.10.2020
6131 Clouds 6 1011 54 10000 3.1 330 09:27 29.10.2020
6132 Clouds 6 1012 54 10000 1.5 290 08:52 29.10.2020
6133 Clouds 6 1012 52 10000 1.5 290 08:26 29.10.2020
6134 Clouds 6 1013 70 10000 1.5 260 07:53 29.10.2020
6135 Clouds 6 1013 70 10000 1.5 260 07:24 29.10.2020
6136 Clouds 6 1013 51 10000 1.45 289 06:54 29.10.2020
6137 Clouds 7 1014 50 10000 2.1 230 04:51 29.10.2020
6138 Clouds 8 1015 52 10000 2.1 180 02:51 29.10.2020
6139 Clouds 8 1019 55 10000 2.69 232 00:51 29.10.2020
6140 Clouds 9 1019 53 10000 3.22 237 00:30 29.10.2020
6141 Clouds 9 1019 51 10000 3.22 237 23:45 28.10.2020
6142 Clouds 9 1019 50 10000 3.79 232 23:20 28.10.2020
6143 Clouds 10 1019 49 10000 0.89 269 22:44 28.10.2020
6144 Clouds 10 1019 49 10000 0.89 269 22:44 28.10.2020
6145 Clouds 10 1016 34 10000 5.7 230 22:26 28.10.2020
6146 Clouds 10 1016 34 10000 5.7 230 21:55 28.10.2020
6147 Clouds 10 1016 34 10000 5.7 230 21:37 28.10.2020
6148 Clouds 10 1016 42 10000 5.7 210 21:18 28.10.2020
6149 Clouds 10 1016 42 10000 5.7 210 20:41 28.10.2020
6150 Clouds 10 1016 42 10000 5.7 210 20:20 28.10.2020
6151 Clouds 10 1016 45 10000 5.1 260 19:49 28.10.2020
6152 Clouds 9 1016 45 10000 5.1 260 19:27 28.10.2020
6153 Clouds 9 1017 42 10000 4.6 270 18:47 28.10.2020
6154 Clear 8 1021 45 10000 4.77 238 18:21 28.10.2020
6155 Clouds 8 1018 48 10000 6.2 250 17:44 28.10.2020
6156 Clouds 7 1018 48 10000 6.2 250 17:25 28.10.2020
6157 Clear 6 1021 53 10000 5.22 237 16:50 28.10.2020
6158 Clouds 5 1018 55 10000 4.6 250 16:32 28.10.2020
6159 Clear 4 1022 63 10000 5.07 241 15:55 28.10.2020
6160 Clear 3 1022 63 10000 5.07 241 15:36 28.10.2020
6161 Clear 2 1022 69 10000 5.35 252 15:18 28.10.2020
6162 Clear 1 1018 74 10000 5.35 252 14:41 28.10.2020
6163 Clear 1 1022 77 10000 5.17 260 14:20 28.10.2020
6164 Clouds 0 1018 80 10000 5.17 255 12:40 28.10.2020
6165 Clouds 0 1018 80 10000 5.12 250 12:21 28.10.2020
6166 Clouds 1 1018 81 10000 5.12 250 11:45 28.10.2020
6167 Clouds 1 1019 74 10000 2.6 260 11:24 28.10.2020
6168 Clouds 1 1018 83 10000 5.48 245 11:00 28.10.2020
6169 Clouds 1 1018 84 10000 5.48 245 10:41 28.10.2020
6170 Clouds 1 1020 80 10000 2.6 240 10:22 28.10.2020
6171 Clouds 1 1020 80 10000 2.6 240 09:42 28.10.2020
6172 Clouds 1 1020 80 10000 2.6 240 09:22 28.10.2020
6173 Clouds 1 1020 74 10000 3.1 230 08:49 28.10.2020
6174 Clouds 1 1020 74 10000 3.1 230 08:28 28.10.2020
6175 Clouds 1 1024 82 10000 4.44 242 07:50 28.10.2020
6176 Clouds 1 1021 74 10000 3.1 230 07:30 28.10.2020
6177 Clouds 2 1021 74 10000 3.1 250 06:42 28.10.2020
6178 Clouds 2 1021 74 10000 3.1 250 05:53 28.10.2020
6179 Clouds 2 1021 74 10000 3.1 250 05:21 28.10.2020
6180 Clouds 2 1021 74 10000 3.6 220 04:26 28.10.2020
6181 Clouds 3 1022 74 10000 3.6 200 02:26 28.10.2020
6182 Clouds 3 1022 74 10000 2.1 210 01:51 28.10.2020
6183 Clouds 3 1022 74 10000 1.5 220 00:29 28.10.2020
6184 Clouds 2 1023 80 10000 2.6 240 23:45 27.10.2020
6185 Clouds 2 1023 80 10000 2.6 240 23:21 27.10.2020
6186 Clouds 2 1023 74 10000 2.1 290 22:44 27.10.2020
6187 Clouds 2 1023 74 10000 2.1 290 22:19 27.10.2020
6188 Clouds 2 1024 80 10000 2.1 250 21:56 27.10.2020
6189 Clouds 2 1024 80 10000 2.1 250 21:37 27.10.2020
6190 Clouds 2 1024 80 10000 2.1 250 21:19 27.10.2020
6191 Clouds 2 1024 74 10000 1.5 200 20:46 27.10.2020
6192 Clouds 2 1024 74 10000 1.5 200 20:24 27.10.2020
6193 Mist 1 1026 86 4828 2.1 310 19:55 27.10.2020
6194 Mist 1 1026 86 4828 2.1 310 19:36 27.10.2020
6195 Mist 1 1026 86 4023 2.6 330 19:18 27.10.2020
6196 Clouds 1 1026 86 10000 3.6 320 18:44 27.10.2020
6197 Clouds 1 1026 86 10000 3.6 320 18:21 27.10.2020
6198 Mist 1 1026 86 8047 3.6 330 17:57 27.10.2020
6199 Mist 1 1026 86 2414 2.1 320 17:36 27.10.2020
6200 Mist 1 1027 86 2414 2.1 300 17:18 27.10.2020
6201 Mist 1 1027 86 2414 2.1 300 16:41 27.10.2020
6202 Mist 1 1027 86 2414 2.1 300 16:22 27.10.2020
6203 Mist 1 1027 86 1609 1.5 300 15:41 27.10.2020
6204 Mist 1 1027 86 1609 1.5 300 15:23 27.10.2020
6205 Rain 1 1026 74 2414 3.1 340 14:48 27.10.2020
6206 Rain 1 1026 74 2414 3.1 340 14:29 27.10.2020
6207 Clouds 2 1026 74 10000 2.1 310 13:58 27.10.2020
6208 Clouds 1 1026 74 10000 2.1 310 13:28 27.10.2020
6209 Clouds 1 1027 74 10000 2.6 320 12:44 27.10.2020
6210 Clouds 1 1027 74 10000 2.6 320 12:25 27.10.2020
6211 Mist 1 1027 74 8047 3.6 320 11:58 27.10.2020
6212 Mist 1 1027 74 8047 3.6 320 11:40 27.10.2020
6213 Clouds 1 1027 74 10000 3.1 310 11:20 27.10.2020
6214 Mist 1 1027 74 8047 3.6 320 11:20 27.10.2020
6215 Clouds 2 1027 74 10000 3.1 310 10:39 27.10.2020
6216 Clouds 2 1027 74 10000 3.1 310 10:19 27.10.2020
6217 Clouds 2 1027 74 10000 2.1 300 09:28 27.10.2020
6218 Drizzle 2 1027 64 10000 3.1 330 08:56 27.10.2020
6219 Drizzle 2 1027 64 10000 3.1 330 08:29 27.10.2020
6220 Clouds 2 1027 64 10000 3.1 340 07:52 27.10.2020
6221 Clouds 2 1027 64 10000 3.1 340 07:34 27.10.2020
6222 Clouds 2 1027 64 10000 3.6 350 06:52 27.10.2020
6223 Clouds 2 1027 64 10000 3.6 320 06:19 27.10.2020
6224 Clouds 2 1027 64 10000 3.1 340 05:44 27.10.2020
6225 Clouds 2 1027 64 10000 3.1 340 05:23 27.10.2020
6226 Clouds 3 1026 64 10000 2.6 350 02:51 27.10.2020
6227 Clouds 3 1026 69 10000 3.6 330 01:18 27.10.2020
6228 Clouds 3 1026 69 10000 3.1 340 23:59 26.10.2020
6229 Clouds 3 1026 69 10000 3.1 340 23:36 26.10.2020
6230 Clouds 4 1025 74 10000 3.1 340 22:57 26.10.2020
6231 Clouds 4 1025 74 10000 3.1 340 22:31 26.10.2020
6232 Clouds 4 1025 74 10000 5.1 330 21:57 26.10.2020
6233 Clouds 4 1025 74 10000 5.1 330 21:36 26.10.2020
6234 Clouds 3 1025 74 10000 5.1 330 21:18 26.10.2020
6235 Clouds 3 1025 74 10000 5.1 330 20:49 26.10.2020
6236 Clouds 3 1025 74 10000 5.1 330 20:27 26.10.2020
6237 Clouds 3 1025 64 10000 3.6 330 19:49 26.10.2020
6238 Clouds 3 1025 64 10000 3.6 330 19:49 26.10.2020
6239 Clouds 3 1025 66 10000 3.6 330 19:28 26.10.2020
6240 Clouds 2 1025 80 10000 4.1 350 18:58 26.10.2020
6241 Clouds 2 1025 80 10000 5.7 340 18:39 26.10.2020
6242 Clouds 2 1025 80 10000 5.7 340 18:19 26.10.2020
6243 Mist 1 1025 86 2414 4.1 340 17:41 26.10.2020
6244 Rain 1 1025 86 2414 4.1 340 17:23 26.10.2020
6245 Rain 1 1025 74 4023 6.2 340 16:45 26.10.2020
6246 Mist 1 1025 74 4023 6.2 340 16:22 26.10.2020
6247 Clouds 2 1029 83 10000 0.45 69 15:55 26.10.2020
6248 Clouds 2 1029 83 10000 0.45 69 15:55 26.10.2020
6249 Clouds 2 1029 83 10000 0.45 291 15:36 26.10.2020
6250 Clouds 2 1023 80 10000 5.1 350 15:18 26.10.2020
6251 Clouds 2 1023 80 10000 5.1 350 14:44 26.10.2020
6252 Clouds 2 1023 80 10000 6.2 360 14:18 26.10.2020
6253 Clouds 2 1023 80 10000 5.7 360 13:38 26.10.2020
6254 Clouds 2 1023 80 10000 5.7 360 13:20 26.10.2020
6255 Clouds 2 1023 84 10000 6.2 360 12:44 26.10.2020
6256 Clouds 2 1023 86 10000 6.2 360 12:23 26.10.2020
6257 Clouds 2 1023 86 10000 6.2 350 11:48 26.10.2020
6258 Clouds 2 1022 80 10000 5.7 350 11:25 26.10.2020
6259 Clouds 2 1022 80 10000 6.7 350 10:58 26.10.2020
6260 Clouds 2 1022 80 10000 6.7 350 10:58 26.10.2020
6261 Clouds 3 1021 80 10000 7.2 360 10:40 26.10.2020
6262 Rain 3 1021 80 10000 7.2 360 10:19 26.10.2020
6263 Clouds 3 1025 88 10000 6.75 355 09:42 26.10.2020
6264 Clouds 4 1021 80 10000 7.2 360 09:19 26.10.2020
6265 Clouds 4 1021 86 10000 5.7 360 08:28 26.10.2020
6266 Clouds 5 1025 90 10000 0.45 9 07:52 26.10.2020
6267 Clouds 5 1025 89 10000 0.45 322 07:33 26.10.2020
6268 Clouds 6 1024 84 10000 0.45 30 06:19 26.10.2020
6269 Clouds 7 1021 70 10000 6.2 10 04:21 26.10.2020
6270 Clouds 7 1021 70 10000 6.2 10 03:21 26.10.2020
6271 Clouds 7 1021 70 10000 6.2 10 03:21 26.10.2020
6272 Clouds 7 1025 72 10000 6.22 36 01:37 26.10.2020
6273 Clouds 7 1021 70 10000 6.7 40 00:54 26.10.2020
6274 Clouds 7 1021 66 10000 6.7 40 00:31 26.10.2020
6275 Clouds 8 1021 61 10000 5.1 50 23:38 25.10.2020
6276 Clouds 8 1021 61 10000 5.1 50 23:19 25.10.2020
6277 Clouds 8 1020 61 10000 5.7 60 22:40 25.10.2020
6278 Clouds 8 1020 61 10000 5.7 60 22:20 25.10.2020
6279 Clouds 8 1021 61 10000 6.2 50 21:40 25.10.2020
6280 Clouds 8 1021 61 10000 6.2 50 21:21 25.10.2020
6281 Clouds 8 1021 61 10000 5.7 50 20:46 25.10.2020
6282 Clouds 8 1021 61 10000 5.7 50 20:27 25.10.2020
6283 Clouds 8 1022 61 10000 6.2 70 19:59 25.10.2020
6284 Clouds 8 1022 61 10000 6.2 70 19:41 25.10.2020
6285 Clouds 8 1022 61 10000 6.2 70 19:21 25.10.2020
6286 Clouds 8 1022 61 10000 5.7 90 18:41 25.10.2020
6287 Clouds 8 1022 61 10000 5.7 90 18:23 25.10.2020
6288 Clouds 8 1023 65 10000 5.1 80 17:58 25.10.2020
6289 Clouds 8 1023 65 10000 5.7 90 17:38 25.10.2020
6290 Clouds 8 1023 65 10000 5.7 90 17:20 25.10.2020
6291 Clouds 8 1023 61 10000 6.2 90 16:52 25.10.2020
6292 Clouds 8 1023 61 10000 6.2 90 16:31 25.10.2020
6293 Clouds 8 1023 61 10000 4.6 60 15:52 25.10.2020
6294 Clouds 8 1023 61 10000 4.6 60 15:32 25.10.2020
6295 Clouds 7 1023 65 10000 5.1 50 14:59 25.10.2020
6296 Clouds 7 1023 65 10000 5.1 50 14:38 25.10.2020
6297 Clouds 7 1023 65 10000 5.1 50 14:19 25.10.2020
6298 Clouds 6 1023 75 10000 4.1 10 13:42 25.10.2020
6299 Clouds 6 1023 75 10000 4.1 10 13:19 25.10.2020
6300 Clouds 6 1023 75 10000 4.1 10 13:19 25.10.2020
6301 Clouds 6 1039 83 10000 4.97 73 12:46 25.10.2020
6302 Clouds 6 1039 83 10000 5.42 74 12:25 25.10.2020
6303 Clouds 6 1023 65 10000 6.7 50 11:44 25.10.2020
6304 Clouds 6 1023 65 10000 6.7 50 11:21 25.10.2020
6305 Clouds 6 1023 65 10000 6.7 50 11:21 25.10.2020
6306 Clouds 6 1023 65 10000 5.1 30 10:57 25.10.2020
6307 Clouds 6 1023 65 10000 5.1 30 10:38 25.10.2020
6308 Clouds 6 1023 65 10000 5.1 30 10:19 25.10.2020
6309 Clouds 6 1023 60 10000 4.6 20 09:40 25.10.2020
6310 Clouds 6 1023 60 10000 4.6 20 09:19 25.10.2020
6311 Clouds 6 1023 60 10000 4.6 20 08:41 25.10.2020
6312 Clouds 6 1023 60 10000 4.6 20 08:41 25.10.2020
6313 Clouds 6 1023 60 10000 4.6 20 08:22 25.10.2020
6314 Clouds 6 1023 60 10000 6.2 30 07:46 25.10.2020
6315 Clouds 6 1023 60 10000 6.2 30 07:24 25.10.2020
6316 Clouds 6 1023 60 10000 5.1 20 06:45 25.10.2020
6317 Clouds 6 1023 60 10000 3.6 20 05:36 25.10.2020
6318 Clouds 6 1023 60 10000 2.6 50 04:51 25.10.2020
6319 Clouds 5 1023 56 10000 5.7 30 02:45 25.10.2020
6320 Clouds 6 1023 60 10000 4.1 40 01:47 25.10.2020
6321 Clouds 6 1023 56 10000 3.1 70 00:49 25.10.2020
6322 Clouds 6 1023 56 10000 3.1 70 00:20 25.10.2020
6323 Clouds 7 1023 56 10000 3.1 40 23:54 24.10.2020
6324 Clouds 7 1023 56 10000 3.1 40 23:26 24.10.2020
6325 Clouds 7 1023 56 10000 4.6 80 22:55 24.10.2020
6326 Clouds 7 1023 56 10000 4.6 80 22:37 24.10.2020
6327 Clouds 7 1023 56 10000 4.6 80 22:19 24.10.2020
6328 Clouds 7 1024 56 10000 3.6 40 21:41 24.10.2020
6329 Clouds 7 1024 56 10000 3.6 40 21:21 24.10.2020
6330 Clouds 7 1024 52 10000 2.6 0 20:47 24.10.2020
6331 Clouds 7 1024 52 10000 2.6 0 20:23 24.10.2020
6332 Clouds 7 1025 52 10000 2.6 0 19:55 24.10.2020
6333 Clouds 7 1025 52 10000 2.6 0 19:37 24.10.2020
6334 Clouds 7 1026 52 10000 4.1 350 19:18 24.10.2020
6335 Clouds 6 1026 52 10000 4.1 350 18:42 24.10.2020
6336 Clouds 6 1026 56 10000 4.1 360 18:22 24.10.2020
6337 Clouds 5 1026 56 10000 4.6 350 17:39 24.10.2020
6338 Clouds 5 1026 56 10000 4.6 350 17:20 24.10.2020
6339 Clouds 4 1026 64 10000 4.6 330 16:45 24.10.2020
6340 Clouds 4 1026 64 10000 4.6 330 16:22 24.10.2020
6341 Clouds 2 1026 74 10000 3.6 340 15:40 24.10.2020
6342 Clouds 2 1026 74 10000 3.6 330 15:19 24.10.2020
6343 Clouds 2 1026 74 10000 3.6 330 14:50 24.10.2020
6344 Clouds 2 1026 74 10000 3.6 330 14:28 24.10.2020
6345 Clouds 2 1025 69 10000 4.6 340 13:46 24.10.2020
6346 Clouds 3 1025 69 10000 4.6 340 13:24 24.10.2020
6347 Clouds 3 1025 74 10000 5.7 340 12:48 24.10.2020
6348 Clouds 3 1025 74 10000 5.7 340 12:21 24.10.2020
6349 Clouds 3 1025 74 10000 5.7 340 11:53 24.10.2020
6350 Clouds 3 1025 74 10000 5.7 340 11:35 24.10.2020
6351 Clouds 3 1025 69 10000 4.1 330 10:54 24.10.2020
6352 Clouds 3 1025 69 10000 4.1 330 10:34 24.10.2020
6353 Clouds 3 1024 64 10000 6.7 330 09:55 24.10.2020
6354 Clouds 3 1024 64 10000 6.7 330 09:37 24.10.2020
6355 Clouds 3 1024 64 10000 6.7 330 09:19 24.10.2020
6356 Clouds 4 1024 65 10000 7.2 350 08:20 24.10.2020
6357 Clouds 5 1027 73 10000 0.45 341 07:54 24.10.2020
6358 Clouds 5 1024 60 10000 3.1 340 07:25 24.10.2020
6359 Clouds 5 1024 56 10000 6.7 350 06:53 24.10.2020
6360 Clouds 5 1027 70 10000 1.79 282 06:23 24.10.2020
6361 Clouds 6 1025 74 10000 1.79 317 03:36 24.10.2020
6362 Clouds 7 1019 75 10000 6.7 330 02:18 24.10.2020
6363 Clouds 7 1018 81 10000 7.2 330 00:42 24.10.2020
6364 Clouds 7 1018 81 10000 7.2 330 00:22 24.10.2020
6365 Clouds 7 1017 81 10000 8.2 320 23:49 23.10.2020
6366 Clouds 7 1017 81 10000 8.2 320 23:26 23.10.2020
6367 Clouds 7 1017 87 10000 5.7 310 22:58 23.10.2020
6368 Clouds 7 1016 87 10000 6.2 320 22:40 23.10.2020
6369 Clouds 7 1016 87 10000 6.2 320 22:20 23.10.2020
6370 Mist 7 1016 87 6437 5.7 280 21:46 23.10.2020
6371 Mist 7 1016 87 6437 5.7 280 21:25 23.10.2020
6372 Mist 7 1016 87 6437 5.7 280 21:25 23.10.2020
6373 Rain 8 1015 93 10000 4.6 300 20:41 23.10.2020
6374 Clouds 8 1015 93 10000 4.6 300 20:23 23.10.2020
6375 Clouds 9 1014 87 10000 5.1 290 19:54 23.10.2020
6376 Clouds 9 1014 87 10000 5.1 290 19:33 23.10.2020
6377 Rain 9 1013 87 8047 3.6 330 18:57 23.10.2020
6378 Rain 10 1013 87 8047 3.6 330 18:37 23.10.2020
6379 Rain 11 1013 87 8047 3.6 330 18:19 23.10.2020
6380 Rain 12 1012 87 9656 3.6 10 17:42 23.10.2020
6381 Rain 13 1012 87 9656 3.6 10 17:20 23.10.2020
6382 Rain 16 1011 88 10000 3.1 340 16:39 23.10.2020
6383 Mist 17 1011 88 4828 3.6 250 16:21 23.10.2020
6384 Clouds 15 1010 82 10000 5.7 210 15:43 23.10.2020
6385 Clouds 16 1010 82 10000 5.7 210 15:24 23.10.2020
6386 Clouds 18 1010 77 10000 5.7 210 14:53 23.10.2020
6387 Clouds 20 1010 77 10000 5.7 210 14:35 23.10.2020
6388 Clouds 19 1026 86 10000 6.18 218 13:56 23.10.2020
6389 Clouds 20 1010 77 10000 5.1 220 13:37 23.10.2020
6390 Clouds 20 1010 77 10000 5.1 220 13:19 23.10.2020
6391 Clouds 20 1010 77 10000 5.7 220 12:43 23.10.2020
6392 Clouds 20 1010 77 10000 5.7 220 12:24 23.10.2020
6393 Clouds 20 1012 82 10000 0.45 148 11:46 23.10.2020
6394 Rain 20 1026 82 10000 6.67 215 11:21 23.10.2020
6395 Clouds 20 1011 73 10000 5.7 200 10:43 23.10.2020
6396 Clouds 20 1011 73 10000 5.7 200 10:25 23.10.2020
6397 Clouds 20 1011 73 10000 7.7 200 09:45 23.10.2020
6398 Clouds 20 1011 73 10000 7.7 200 09:26 23.10.2020
6399 Clouds 21 1011 73 10000 6.2 210 08:52 23.10.2020
6400 Clouds 21 1011 73 10000 6.2 210 08:32 23.10.2020
6401 Clouds 21 1011 68 10000 7.2 200 07:35 23.10.2020
6402 Clouds 21 1011 68 10000 6.7 200 06:59 23.10.2020
6403 Clouds 21 1011 68 10000 6.7 200 06:20 23.10.2020
6404 Clouds 22 1014 75 10000 0.89 165 04:56 23.10.2020
6405 Clouds 23 1012 60 10000 5.1 180 02:32 23.10.2020
6406 Clouds 22 1013 61 10000 4.6 190 01:23 23.10.2020
6407 Clouds 20 1013 57 10000 4.6 200 00:36 23.10.2020
6408 Clouds 21 1013 57 10000 5.1 190 23:40 22.10.2020
6409 Clouds 21 1013 57 10000 5.1 190 23:22 22.10.2020
6410 Clouds 21 1014 73 10000 2.6 190 22:48 22.10.2020
6411 Clouds 21 1014 73 10000 2.6 190 22:26 22.10.2020
6412 Clouds 21 1015 73 10000 3.1 220 21:58 22.10.2020
6413 Clouds 21 1015 73 10000 3.1 220 21:40 22.10.2020
6414 Clouds 19 1015 73 10000 3.1 220 21:20 22.10.2020
6415 Clouds 18 1015 77 10000 3.1 180 20:44 22.10.2020
6416 Clouds 16 1031 93 10000 3.28 165 20:25 22.10.2020
6417 Mist 14 1016 93 4828 3.6 170 19:44 22.10.2020
6418 Mist 14 1016 93 4828 3.6 170 19:21 22.10.2020
6419 Mist 13 1016 93 3219 3.6 170 18:59 22.10.2020
6420 Mist 13 1017 93 1207 3.6 140 18:39 22.10.2020
6421 Mist 12 1017 93 1207 4.6 140 18:19 22.10.2020
6422 Mist 12 1018 93 1609 3.6 120 17:44 22.10.2020
6423 Mist 12 1018 93 1609 3.6 120 17:21 22.10.2020
6424 Mist 12 1018 93 4023 5.1 120 16:45 22.10.2020
6425 Mist 11 1018 93 4023 5.1 120 16:25 22.10.2020
6426 Clouds 11 1018 87 10000 6.7 120 15:50 22.10.2020
6427 Clouds 11 1018 87 10000 6.7 120 15:27 22.10.2020
6428 Mist 10 1019 93 9656 7.2 100 14:56 22.10.2020
6429 Mist 10 1019 93 9656 7.2 100 14:37 22.10.2020
6430 Rain 9 1020 93 4828 5.7 70 14:19 22.10.2020
6431 Drizzle 9 1021 93 3219 4.1 20 13:42 22.10.2020
6432 Drizzle 9 1021 93 3219 4.1 20 13:22 22.10.2020
6433 Rain 9 1020 93 4023 4.6 30 12:41 22.10.2020
6434 Mist 9 1020 93 4023 4.6 30 12:22 22.10.2020
6435 Rain 9 1019 93 9656 7.2 80 11:43 22.10.2020
6436 Thunderstorm 9 1020 93 4828 5.1 50 11:18 22.10.2020
6437 Mist 9 1020 93 4023 5.1 60 10:47 22.10.2020
6438 Rain 9 1020 93 4023 5.1 60 10:25 22.10.2020
6439 Rain 9 1023 93 2816 5.1 320 09:43 22.10.2020
6440 Rain 9 1023 93 2816 5.1 320 09:21 22.10.2020
6441 Rain 9 1021 87 2816 4.6 50 08:41 22.10.2020
6442 Rain 9 1021 87 2816 4.6 50 08:23 22.10.2020
6443 Rain 10 1024 89 10000 5.83 78 07:43 22.10.2020
6444 Rain 10 1024 88 10000 3.99 70 07:18 22.10.2020
6445 Rain 10 1025 86 10000 3.99 70 06:45 22.10.2020
6446 Drizzle 10 1022 87 8047 3.1 50 06:23 22.10.2020
6447 Rain 10 1022 81 4023 3.6 70 05:38 22.10.2020
6448 Clouds 11 1022 81 10000 4.1 120 03:25 22.10.2020
6449 Rain 11 1027 77 10000 3 91 01:34 22.10.2020
6450 Clouds 12 1022 62 10000 4.1 90 00:24 22.10.2020
6451 Clouds 13 1022 50 10000 2.6 0 23:43 21.10.2020
6452 Clouds 13 1022 54 10000 1.34 81 23:19 21.10.2020
6453 Clouds 13 1022 54 10000 1.34 81 22:39 21.10.2020
6454 Clouds 13 1022 58 10000 2.6 150 22:19 21.10.2020
6455 Clouds 13 1025 64 10000 0.83 150 21:46 21.10.2020
6456 Clouds 13 1026 65 10000 0.76 151 21:20 21.10.2020
6457 Clouds 13 1026 65 10000 0.76 151 20:59 21.10.2020
6458 Clouds 12 1026 65 10000 0.76 151 20:40 21.10.2020
6459 Clouds 12 1026 67 10000 0.88 185 20:18 21.10.2020
6460 Clouds 11 1023 66 10000 2.6 0 19:41 21.10.2020
6461 Clouds 11 1023 66 10000 2.6 0 19:22 21.10.2020
6462 Clouds 10 1023 70 10000 2.6 290 18:52 21.10.2020
6463 Clouds 10 1023 70 10000 2.6 290 18:30 21.10.2020
6464 Clouds 9 1026 77 10000 3.2 294 17:50 21.10.2020
6465 Clouds 9 1023 75 10000 4.1 300 17:22 21.10.2020
6466 Clouds 8 1022 75 10000 5.7 280 16:59 21.10.2020
6467 Clouds 8 1022 75 10000 5.7 280 16:59 21.10.2020
6468 Clouds 8 1022 75 10000 5.7 280 16:39 21.10.2020
6469 Clouds 8 1022 75 10000 5.7 280 16:20 21.10.2020
6470 Clouds 8 1022 81 10000 5.1 270 15:45 21.10.2020
6471 Clouds 8 1022 81 10000 5.1 270 15:22 21.10.2020
6472 Clouds 9 1021 76 10000 6.2 280 14:49 21.10.2020
6473 Clouds 9 1021 76 10000 6.2 280 14:29 21.10.2020
6474 Clouds 9 1020 81 10000 4.6 260 13:58 21.10.2020
6475 Clouds 9 1020 81 10000 4.6 260 13:40 21.10.2020
6476 Clouds 9 1020 81 10000 4.6 260 13:20 21.10.2020
6477 Clouds 9 1019 81 10000 4.1 280 12:40 21.10.2020
6478 Clouds 9 1019 81 10000 4.1 280 12:20 21.10.2020
6479 Clouds 9 1017 81 10000 4.6 280 11:46 21.10.2020
6480 Clouds 9 1017 81 10000 4.6 280 11:21 21.10.2020
6481 Clouds 9 1017 81 10000 4.6 280 10:57 21.10.2020
6482 Clouds 9 1016 87 10000 5.7 280 10:38 21.10.2020
6483 Clouds 10 1016 81 10000 5.7 280 10:20 21.10.2020
6484 Clouds 10 1015 87 10000 7.2 270 09:39 21.10.2020
6485 Clouds 11 1018 93 10000 6.26 260 08:59 21.10.2020
6486 Clouds 11 1018 94 10000 6.26 260 08:40 21.10.2020
6487 Rain 11 1018 94 10000 6.27 249 08:22 21.10.2020
6488 Mist 11 1014 87 3219 4.6 220 07:48 21.10.2020
6489 Drizzle 10 1014 93 4828 3.1 200 06:59 21.10.2020
6490 Drizzle 10 1014 93 4828 3.1 200 06:33 21.10.2020
6491 Rain 10 1015 87 4023 3.1 180 05:23 21.10.2020
6492 Rain 11 1017 81 10000 5.1 150 02:37 21.10.2020
6493 Clouds 11 1018 58 10000 4.1 100 00:25 21.10.2020
6494 Clouds 11 1019 54 10000 4.6 90 23:28 20.10.2020
6495 Clouds 11 1021 57 10000 5.1 90 22:38 20.10.2020
6496 Clouds 11 1021 57 10000 5.1 90 22:20 20.10.2020
6497 Clouds 11 1022 57 10000 6.2 90 21:47 20.10.2020
6498 Clouds 10 1022 57 10000 6.2 90 21:19 20.10.2020
6499 Clouds 10 1023 57 10000 6.2 100 20:43 20.10.2020
6500 Clouds 10 1023 57 10000 6.2 100 20:24 20.10.2020
6501 Clouds 10 1024 66 10000 4.6 90 19:45 20.10.2020
6502 Clouds 10 1024 66 10000 4.6 90 19:22 20.10.2020
6503 Clouds 9 1025 75 10000 5.84 91 18:59 20.10.2020
6504 Clouds 8 1025 75 10000 5.84 91 18:38 20.10.2020
6505 Drizzle 8 1025 81 9656 3.1 160 17:51 20.10.2020
6506 Drizzle 8 1025 81 9656 3.1 160 17:33 20.10.2020
6507 Clouds 8 1025 70 10000 2.1 20 16:59 20.10.2020
6508 Clouds 8 1025 70 10000 2.1 20 16:40 20.10.2020
6509 Clouds 8 1025 70 10000 2.1 20 16:22 20.10.2020
6510 Clouds 8 1025 75 10000 5.1 350 15:46 20.10.2020
6511 Clouds 8 1025 75 10000 5.1 350 15:27 20.10.2020
6512 Clouds 7 1024 70 10000 4.1 360 14:45 20.10.2020
6513 Clouds 7 1024 70 10000 4.1 360 14:25 20.10.2020
6514 Clouds 7 1024 70 10000 5.7 10 13:58 20.10.2020
6515 Clouds 7 1024 70 10000 5.7 10 13:40 20.10.2020
6516 Clouds 7 1024 70 10000 5.7 10 13:19 20.10.2020
6517 Clouds 6 1024 70 10000 5.1 10 12:49 20.10.2020
6518 Clouds 6 1024 70 10000 5.1 10 12:30 20.10.2020
6519 Clouds 6 1024 70 10000 5.1 10 12:30 20.10.2020
6520 Clouds 6 1023 75 10000 5.1 10 11:47 20.10.2020
6521 Clouds 6 1023 75 10000 5.1 10 11:28 20.10.2020
6522 Clouds 7 1023 75 10000 4.1 10 10:43 20.10.2020
6523 Clouds 7 1023 75 10000 4.1 10 10:25 20.10.2020
6524 Clouds 7 1023 81 10000 5.1 350 09:44 20.10.2020
6525 Clouds 7 1023 81 10000 5.1 350 09:44 20.10.2020
6526 Clouds 6 1023 81 10000 5.1 350 09:20 20.10.2020
6527 Clouds 6 1023 81 10000 5.7 350 08:40 20.10.2020
6528 Clouds 6 1023 81 10000 3.1 360 08:19 20.10.2020
6529 Clouds 6 1023 81 10000 5.1 340 07:44 20.10.2020
6530 Clouds 6 1023 81 10000 5.1 340 07:21 20.10.2020
6531 Clouds 6 1022 81 10000 3.1 10 06:20 20.10.2020
6532 Clouds 6 1023 81 10000 4.1 350 04:27 20.10.2020
6533 Clouds 5 1023 81 10000 3.6 360 02:30 20.10.2020
6534 Clouds 5 1024 81 10000 4.6 350 01:22 20.10.2020
6535 Clouds 5 1022 75 10000 6.7 30 00:51 20.10.2020
6536 Clouds 5 1022 75 10000 6.7 30 00:26 20.10.2020
6537 Rain 5 1026 86 10000 0.45 47 23:51 19.10.2020
6538 Rain 5 1023 81 8047 6.2 20 23:25 19.10.2020
6539 Rain 5 1027 84 10000 0.89 290 22:54 19.10.2020
6540 Rain 7 1023 70 10000 6.7 10 22:26 19.10.2020
6541 Rain 7 1023 66 10000 4.6 30 21:55 19.10.2020
6542 Clouds 7 1023 66 10000 4.6 30 21:37 19.10.2020
6543 Clouds 8 1023 66 10000 4.6 30 21:18 19.10.2020
6544 Clouds 8 1023 53 10000 2.1 70 20:42 19.10.2020
6545 Clouds 9 1023 53 10000 2.1 70 20:24 19.10.2020
6546 Clouds 10 1023 50 10000 2.1 40 19:45 19.10.2020
6547 Clouds 10 1023 50 10000 2.1 40 19:19 19.10.2020
6548 Clouds 9 1023 57 10000 4.1 60 18:50 19.10.2020
6549 Clouds 9 1023 57 10000 4.1 60 18:24 19.10.2020
6550 Clouds 9 1027 62 10000 2.77 18 17:47 19.10.2020
6551 Clouds 9 1024 63 10000 2.64 11 17:27 19.10.2020
6552 Clouds 7 1024 70 10000 3.1 20 16:54 19.10.2020
6553 Clouds 6 1024 70 10000 3.1 20 16:29 19.10.2020
6554 Clouds 5 1028 79 10000 2.25 18 15:48 19.10.2020
6555 Clouds 5 1028 81 10000 1.54 32 15:26 19.10.2020
6556 Clouds 4 1025 78 10000 1.54 32 14:57 19.10.2020
6557 Clouds 4 1025 78 10000 1.54 32 14:57 19.10.2020
6558 Clouds 4 1025 77 10000 1.54 32 14:36 19.10.2020
6559 Clouds 4 1025 76 10000 1.5 7 14:18 19.10.2020
6560 Clouds 5 1025 73 10000 1.92 55 13:42 19.10.2020
6561 Rain 5 1024 73 10000 1.57 15 13:22 19.10.2020
6562 Clouds 5 1024 73 10000 1.57 15 12:43 19.10.2020
6563 Rain 5 1024 73 10000 1.78 2 12:25 19.10.2020
6564 Clouds 5 1028 80 10000 1.78 2 11:48 19.10.2020
6565 Clouds 5 1024 80 10000 1.5 310 11:22 19.10.2020
6566 Clouds 5 1024 80 10000 1.5 310 10:44 19.10.2020
6567 Clouds 5 1024 80 10000 1.5 310 10:24 19.10.2020
6568 Clouds 5 1025 80 10000 2.1 310 09:57 19.10.2020
6569 Clouds 5 1025 80 10000 2.1 310 09:36 19.10.2020
6570 Clouds 5 1024 80 10000 2.6 320 09:18 19.10.2020
6571 Clouds 5 1024 80 10000 2.6 320 08:41 19.10.2020
6572 Clouds 5 1024 80 10000 2.6 320 08:20 19.10.2020
6573 Clouds 5 1024 93 10000 1.5 300 07:21 19.10.2020
6574 Clouds 5 1024 93 10000 1.5 300 06:36 19.10.2020
6575 Clouds 5 1024 93 10000 1.5 270 04:47 19.10.2020
6576 Clouds 5 1023 93 10000 1.5 250 03:45 19.10.2020
6577 Clouds 6 1022 75 10000 2.6 310 01:42 19.10.2020
6578 Clouds 6 1022 75 10000 2.6 300 00:38 19.10.2020
6579 Clouds 6 1022 75 10000 3.1 300 23:56 18.10.2020
6580 Clouds 6 1022 81 10000 4.6 310 23:37 18.10.2020
6581 Rain 6 1022 81 10000 4.6 310 23:18 18.10.2020
6582 Rain 6 1022 81 10000 3.1 310 23:18 18.10.2020
6583 Clouds 6 1021 81 10000 3.6 310 22:43 18.10.2020
6584 Clouds 6 1021 81 10000 3.6 310 22:18 18.10.2020
6585 Rain 6 1021 81 10000 5.7 310 21:41 18.10.2020
6586 Rain 6 1024 89 10000 5.63 312 21:21 18.10.2020
6587 Rain 7 1020 87 10000 5.1 310 20:44 18.10.2020
6588 Rain 7 1020 87 10000 5.1 310 20:23 18.10.2020
6589 Rain 7 1023 87 10000 6.33 331 19:50 18.10.2020
6590 Rain 7 1023 87 10000 7.4 336 19:27 18.10.2020
6591 Rain 8 1022 88 10000 0.45 264 18:51 18.10.2020
6592 Rain 8 1022 87 10000 7.4 336 18:30 18.10.2020
6593 Rain 8 1021 85 8503 7.62 332 17:59 18.10.2020
6594 Rain 8 1022 81 8503 7.62 332 17:41 18.10.2020
6595 Rain 8 1022 81 8503 7.62 332 17:41 18.10.2020
6596 Rain 9 1019 66 10000 6.7 10 17:21 18.10.2020
6597 Clouds 10 1021 72 10000 5.45 336 16:42 18.10.2020
6598 Clouds 10 1017 50 10000 3.6 250 16:23 18.10.2020
6599 Clouds 11 1016 50 10000 3.6 210 15:43 18.10.2020
6600 Clouds 12 1016 50 10000 3.6 210 15:19 18.10.2020
6601 Clouds 13 1015 47 10000 4.1 200 14:57 18.10.2020
6602 Clouds 13 1015 47 10000 4.1 200 14:31 18.10.2020
6603 Clouds 13 1015 41 10000 5.1 210 13:59 18.10.2020
6604 Clouds 14 1015 41 10000 5.1 210 13:40 18.10.2020
6605 Clouds 14 1015 41 10000 5.1 210 13:22 18.10.2020
6606 Clouds 14 1015 35 10000 5.1 210 12:43 18.10.2020
6607 Clouds 14 1015 35 10000 5.1 210 12:23 18.10.2020
6608 Clouds 14 1015 35 10000 5.7 220 11:42 18.10.2020
6609 Clouds 14 1015 35 10000 5.7 220 11:23 18.10.2020
6610 Clouds 14 1014 33 10000 6.2 210 10:46 18.10.2020
6611 Clouds 14 1014 33 10000 6.2 210 10:22 18.10.2020
6612 Clouds 15 1015 30 10000 8.2 200 10:00 18.10.2020
6613 Clouds 15 1015 30 10000 8.2 200 09:41 18.10.2020
6614 Clouds 15 1015 28 10000 8.7 200 09:20 18.10.2020
6615 Clouds 15 1015 28 10000 8.7 200 08:44 18.10.2020
6616 Clouds 15 1015 28 10000 8.7 200 08:25 18.10.2020
6617 Clouds 15 1015 28 10000 9.3 200 07:48 18.10.2020
6618 Clouds 15 1015 25 10000 8.2 190 05:36 18.10.2020
6619 Clouds 16 1015 26 10000 6.2 190 03:39 18.10.2020
6620 Clouds 16 1014 23 10000 9.3 190 02:51 18.10.2020
6621 Clouds 16 1017 32 10000 0.45 233 01:25 18.10.2020
6622 Clouds 16 1014 23 10000 10.8 200 00:36 18.10.2020
6623 Clouds 17 1014 23 10000 9.3 200 23:59 17.10.2020
6624 Clouds 17 1014 23 10000 9.3 200 23:40 17.10.2020
6625 Clouds 17 1014 23 10000 9.3 200 23:21 17.10.2020
6626 Clouds 17 1017 28 10000 1.79 198 22:56 17.10.2020
6627 Clouds 18 1014 23 10000 11.8 190 22:36 17.10.2020
6628 Clouds 18 1017 30 10000 0.89 163 22:18 17.10.2020
6629 Clouds 18 1016 23 10000 11.8 190 21:42 17.10.2020
6630 Clouds 18 1016 23 10000 11.8 190 21:20 17.10.2020
6631 Clouds 17 1017 26 10000 10.8 180 20:44 17.10.2020
6632 Clouds 16 1017 26 10000 10.8 180 20:20 17.10.2020
6633 Clouds 13 1020 32 10000 7.7 180 19:44 17.10.2020
6634 Rain 13 1020 32 10000 7.7 180 19:21 17.10.2020
6635 Clouds 12 1023 41 10000 9.47 194 18:45 17.10.2020
6636 Clouds 11 1020 34 10000 7.2 180 18:26 17.10.2020
6637 Clouds 11 1021 34 10000 8.2 170 17:51 17.10.2020
6638 Clouds 11 1021 34 10000 8.2 170 17:24 17.10.2020
6639 Clouds 10 1022 34 10000 6.7 180 16:58 17.10.2020
6640 Clouds 9 1022 34 10000 6.7 180 16:38 17.10.2020
6641 Clouds 8 1022 34 10000 6.7 180 16:18 17.10.2020
6642 Clouds 7 1022 45 10000 3.6 200 15:41 17.10.2020
6643 Clouds 7 1022 45 10000 3.6 200 15:21 17.10.2020
6644 Clouds 6 1022 52 10000 3.6 160 14:56 17.10.2020
6645 Clouds 6 1022 52 10000 3.6 160 14:37 17.10.2020
6646 Clouds 6 1022 56 10000 3.6 180 14:19 17.10.2020
6647 Clouds 5 1022 56 10000 3.6 180 13:42 17.10.2020
6648 Clouds 6 1022 56 10000 3.6 180 13:22 17.10.2020
6649 Clouds 5 1022 60 10000 3.6 180 12:41 17.10.2020
6650 Clouds 3 1022 60 10000 3.6 180 12:20 17.10.2020
6651 Clouds 3 1022 60 10000 2.6 180 11:58 17.10.2020
6652 Clouds 3 1022 60 10000 2.6 180 11:30 17.10.2020
6653 Clouds 3 1022 64 10000 2.6 200 10:47 17.10.2020
6654 Clouds 3 1022 64 10000 2.6 200 10:28 17.10.2020
6655 Clouds 3 1022 64 10000 2.6 200 10:28 17.10.2020
6656 Clouds 3 1022 64 10000 2.1 200 09:50 17.10.2020
6657 Clouds 3 1022 64 10000 2.1 200 09:31 17.10.2020
6658 Clouds 4 1022 52 10000 2.1 190 08:49 17.10.2020
6659 Clouds 6 1022